<?xml version="1.0" encoding="UTF-8" standalone="no" ?>
<gpx xmlns="http://www.topografix.com/GPX/1/1" xmlns:xsi="http://www.w3.org/2001/XMLSchema-instance" xsi:schemaLocation="http://www.topografix.com/GPX/1/1 http://www.topografix.com/GPX/1/1/gpx.xsd" version="1.1" creator="VisuGPX - https://www.visugpx.com">
  <metadata>
    <name>Circuit 30km dans alpilles</name>
    <desc><![CDATA[D\'Aureille, le golf de Mouries, les Causses Jean-Jean, Le grand Calan, la beaume brignolle, retour.]]></desc>
  </metadata>
  <trk>
    <name><![CDATA[ACTIVE LOG 009]]></name>
    <trkseg>
      <trkpt lat="43.70909" lon="4.93724">
        <ele>158.27417</ele>
        <time>2011-01-23T07:14:10Z</time>
      </trkpt>
      <trkpt lat="43.70909" lon="4.93724">
        <ele>158.754761</ele>
        <time>2011-01-23T07:14:13Z</time>
      </trkpt>
      <trkpt lat="43.70909" lon="4.93722">
        <ele>158.27417</ele>
        <time>2011-01-23T07:14:23Z</time>
      </trkpt>
      <trkpt lat="43.70911" lon="4.9372">
        <ele>156.832153</ele>
        <time>2011-01-23T07:15:22Z</time>
      </trkpt>
      <trkpt lat="43.70911" lon="4.93717">
        <ele>156.832153</ele>
        <time>2011-01-23T07:15:24Z</time>
      </trkpt>
      <trkpt lat="43.70911" lon="4.937">
        <ele>156.832153</ele>
        <time>2011-01-23T07:15:34Z</time>
      </trkpt>
      <trkpt lat="43.70913" lon="4.93687">
        <ele>156.832153</ele>
        <time>2011-01-23T07:15:42Z</time>
      </trkpt>
      <trkpt lat="43.70915" lon="4.93677">
        <ele>156.832153</ele>
        <time>2011-01-23T07:15:49Z</time>
      </trkpt>
      <trkpt lat="43.70915" lon="4.93675">
        <ele>157.312866</ele>
        <time>2011-01-23T07:15:51Z</time>
      </trkpt>
      <trkpt lat="43.70917" lon="4.93655">
        <ele>156.832153</ele>
        <time>2011-01-23T07:16:03Z</time>
      </trkpt>
      <trkpt lat="43.70917" lon="4.93653">
        <ele>156.832153</ele>
        <time>2011-01-23T07:16:05Z</time>
      </trkpt>
      <trkpt lat="43.70917" lon="4.93645">
        <ele>156.351563</ele>
        <time>2011-01-23T07:16:10Z</time>
      </trkpt>
      <trkpt lat="43.70919" lon="4.93632">
        <ele>155.390259</ele>
        <time>2011-01-23T07:16:18Z</time>
      </trkpt>
      <trkpt lat="43.70921" lon="4.9361">
        <ele>154.909546</ele>
        <time>2011-01-23T07:16:30Z</time>
      </trkpt>
      <trkpt lat="43.70921" lon="4.93593">
        <ele>154.909546</ele>
        <time>2011-01-23T07:16:42Z</time>
      </trkpt>
      <trkpt lat="43.70921" lon="4.93584">
        <ele>155.870972</ele>
        <time>2011-01-23T07:16:54Z</time>
      </trkpt>
      <trkpt lat="43.70919" lon="4.93582">
        <ele>155.870972</ele>
        <time>2011-01-23T07:16:55Z</time>
      </trkpt>
      <trkpt lat="43.70917" lon="4.93574">
        <ele>156.351563</ele>
        <time>2011-01-23T07:17:00Z</time>
      </trkpt>
      <trkpt lat="43.70917" lon="4.93567">
        <ele>155.870972</ele>
        <time>2011-01-23T07:17:04Z</time>
      </trkpt>
      <trkpt lat="43.70913" lon="4.93552">
        <ele>155.390259</ele>
        <time>2011-01-23T07:17:13Z</time>
      </trkpt>
      <trkpt lat="43.70913" lon="4.93548">
        <ele>155.390259</ele>
        <time>2011-01-23T07:17:16Z</time>
      </trkpt>
      <trkpt lat="43.70911" lon="4.93539">
        <ele>154.909546</ele>
        <time>2011-01-23T07:17:21Z</time>
      </trkpt>
      <trkpt lat="43.70911" lon="4.93535">
        <ele>154.428955</ele>
        <time>2011-01-23T07:17:23Z</time>
      </trkpt>
      <trkpt lat="43.70911" lon="4.93524">
        <ele>154.428955</ele>
        <time>2011-01-23T07:17:29Z</time>
      </trkpt>
      <trkpt lat="43.70909" lon="4.93507">
        <ele>154.909546</ele>
        <time>2011-01-23T07:17:39Z</time>
      </trkpt>
      <trkpt lat="43.70911" lon="4.93496">
        <ele>155.870972</ele>
        <time>2011-01-23T07:17:46Z</time>
      </trkpt>
      <trkpt lat="43.70917" lon="4.93479">
        <ele>157.312866</ele>
        <time>2011-01-23T07:17:58Z</time>
      </trkpt>
      <trkpt lat="43.70917" lon="4.93477">
        <ele>157.312866</ele>
        <time>2011-01-23T07:18:00Z</time>
      </trkpt>
      <trkpt lat="43.70919" lon="4.93471">
        <ele>156.832153</ele>
        <time>2011-01-23T07:18:05Z</time>
      </trkpt>
      <trkpt lat="43.70919" lon="4.93464">
        <ele>156.351563</ele>
        <time>2011-01-23T07:18:09Z</time>
      </trkpt>
      <trkpt lat="43.70924" lon="4.93449">
        <ele>155.390259</ele>
        <time>2011-01-23T07:18:18Z</time>
      </trkpt>
      <trkpt lat="43.70928" lon="4.93432">
        <ele>155.870972</ele>
        <time>2011-01-23T07:18:29Z</time>
      </trkpt>
      <trkpt lat="43.70932" lon="4.93424">
        <ele>156.351563</ele>
        <time>2011-01-23T07:18:35Z</time>
      </trkpt>
      <trkpt lat="43.70939" lon="4.93408">
        <ele>155.870972</ele>
        <time>2011-01-23T07:18:45Z</time>
      </trkpt>
      <trkpt lat="43.70943" lon="4.93389">
        <ele>153.948364</ele>
        <time>2011-01-23T07:18:56Z</time>
      </trkpt>
      <trkpt lat="43.70943" lon="4.9337">
        <ele>152.025757</ele>
        <time>2011-01-23T07:19:07Z</time>
      </trkpt>
      <trkpt lat="43.70943" lon="4.93359">
        <ele>151.544922</ele>
        <time>2011-01-23T07:19:12Z</time>
      </trkpt>
      <trkpt lat="43.70943" lon="4.9334">
        <ele>149.622314</ele>
        <time>2011-01-23T07:19:25Z</time>
      </trkpt>
      <trkpt lat="43.70945" lon="4.93336">
        <ele>149.622314</ele>
        <time>2011-01-23T07:19:28Z</time>
      </trkpt>
      <trkpt lat="43.70951" lon="4.93318">
        <ele>148.661011</ele>
        <time>2011-01-23T07:19:38Z</time>
      </trkpt>
      <trkpt lat="43.70951" lon="4.9331">
        <ele>149.141602</ele>
        <time>2011-01-23T07:19:43Z</time>
      </trkpt>
      <trkpt lat="43.70954" lon="4.93299">
        <ele>148.18042</ele>
        <time>2011-01-23T07:19:51Z</time>
      </trkpt>
      <trkpt lat="43.70951" lon="4.93293">
        <ele>148.18042</ele>
        <time>2011-01-23T07:19:55Z</time>
      </trkpt>
      <trkpt lat="43.70951" lon="4.93273">
        <ele>147.218994</ele>
        <time>2011-01-23T07:20:07Z</time>
      </trkpt>
      <trkpt lat="43.70951" lon="4.9326">
        <ele>145.7771</ele>
        <time>2011-01-23T07:20:15Z</time>
      </trkpt>
      <trkpt lat="43.70949" lon="4.93241">
        <ele>143.85437</ele>
        <time>2011-01-23T07:20:27Z</time>
      </trkpt>
      <trkpt lat="43.70945" lon="4.93218">
        <ele>141.931763</ele>
        <time>2011-01-23T07:20:41Z</time>
      </trkpt>
      <trkpt lat="43.70947" lon="4.93211">
        <ele>141.931763</ele>
        <time>2011-01-23T07:20:45Z</time>
      </trkpt>
      <trkpt lat="43.70947" lon="4.93202">
        <ele>142.412476</ele>
        <time>2011-01-23T07:20:50Z</time>
      </trkpt>
      <trkpt lat="43.70949" lon="4.93196">
        <ele>142.893066</ele>
        <time>2011-01-23T07:20:55Z</time>
      </trkpt>
      <trkpt lat="43.70951" lon="4.9319">
        <ele>143.373657</ele>
        <time>2011-01-23T07:20:59Z</time>
      </trkpt>
      <trkpt lat="43.70954" lon="4.93183">
        <ele>143.85437</ele>
        <time>2011-01-23T07:21:03Z</time>
      </trkpt>
      <trkpt lat="43.7096" lon="4.93164">
        <ele>144.335205</ele>
        <time>2011-01-23T07:21:16Z</time>
      </trkpt>
      <trkpt lat="43.70971" lon="4.9314">
        <ele>147.699707</ele>
        <time>2011-01-23T07:21:33Z</time>
      </trkpt>
      <trkpt lat="43.70979" lon="4.93121">
        <ele>151.064209</ele>
        <time>2011-01-23T07:21:46Z</time>
      </trkpt>
      <trkpt lat="43.70979" lon="4.93112">
        <ele>152.506348</ele>
        <time>2011-01-23T07:21:52Z</time>
      </trkpt>
      <trkpt lat="43.70988" lon="4.931">
        <ele>152.986938</ele>
        <time>2011-01-23T07:22:02Z</time>
      </trkpt>
      <trkpt lat="43.7099" lon="4.93093">
        <ele>152.986938</ele>
        <time>2011-01-23T07:22:06Z</time>
      </trkpt>
      <trkpt lat="43.70994" lon="4.93069">
        <ele>152.025757</ele>
        <time>2011-01-23T07:22:21Z</time>
      </trkpt>
      <trkpt lat="43.70994" lon="4.93067">
        <ele>151.544922</ele>
        <time>2011-01-23T07:22:22Z</time>
      </trkpt>
      <trkpt lat="43.71005" lon="4.93052">
        <ele>148.661011</ele>
        <time>2011-01-23T07:22:34Z</time>
      </trkpt>
      <trkpt lat="43.71009" lon="4.93048">
        <ele>147.218994</ele>
        <time>2011-01-23T07:22:40Z</time>
      </trkpt>
      <trkpt lat="43.71014" lon="4.93037">
        <ele>147.699707</ele>
        <time>2011-01-23T07:22:48Z</time>
      </trkpt>
      <trkpt lat="43.71014" lon="4.93027">
        <ele>148.661011</ele>
        <time>2011-01-23T07:22:54Z</time>
      </trkpt>
      <trkpt lat="43.71012" lon="4.9302">
        <ele>148.18042</ele>
        <time>2011-01-23T07:22:58Z</time>
      </trkpt>
      <trkpt lat="43.71007" lon="4.93005">
        <ele>141.931763</ele>
        <time>2011-01-23T07:23:06Z</time>
      </trkpt>
      <trkpt lat="43.71005" lon="4.92986">
        <ele>138.086548</ele>
        <time>2011-01-23T07:23:17Z</time>
      </trkpt>
      <trkpt lat="43.71005" lon="4.92964">
        <ele>137.125244</ele>
        <time>2011-01-23T07:23:30Z</time>
      </trkpt>
      <trkpt lat="43.71003" lon="4.92945">
        <ele>135.683105</ele>
        <time>2011-01-23T07:23:42Z</time>
      </trkpt>
      <trkpt lat="43.71005" lon="4.92943">
        <ele>135.202515</ele>
        <time>2011-01-23T07:23:44Z</time>
      </trkpt>
      <trkpt lat="43.71005" lon="4.92924">
        <ele>133.760498</ele>
        <time>2011-01-23T07:23:55Z</time>
      </trkpt>
      <trkpt lat="43.71003" lon="4.92919">
        <ele>134.241211</ele>
        <time>2011-01-23T07:23:58Z</time>
      </trkpt>
      <trkpt lat="43.71005" lon="4.92913">
        <ele>134.721924</ele>
        <time>2011-01-23T07:24:03Z</time>
      </trkpt>
      <trkpt lat="43.71007" lon="4.92902">
        <ele>133.760498</ele>
        <time>2011-01-23T07:24:09Z</time>
      </trkpt>
      <trkpt lat="43.71016" lon="4.92881">
        <ele>132.318604</ele>
        <time>2011-01-23T07:24:23Z</time>
      </trkpt>
      <trkpt lat="43.71022" lon="4.92861">
        <ele>131.3573</ele>
        <time>2011-01-23T07:24:35Z</time>
      </trkpt>
      <trkpt lat="43.71024" lon="4.92851">
        <ele>131.3573</ele>
        <time>2011-01-23T07:24:41Z</time>
      </trkpt>
      <trkpt lat="43.71029" lon="4.9284">
        <ele>131.3573</ele>
        <time>2011-01-23T07:24:49Z</time>
      </trkpt>
      <trkpt lat="43.71031" lon="4.92829">
        <ele>131.3573</ele>
        <time>2011-01-23T07:24:55Z</time>
      </trkpt>
      <trkpt lat="43.71033" lon="4.92816">
        <ele>133.760498</ele>
        <time>2011-01-23T07:25:03Z</time>
      </trkpt>
      <trkpt lat="43.71033" lon="4.9281">
        <ele>135.202515</ele>
        <time>2011-01-23T07:25:08Z</time>
      </trkpt>
      <trkpt lat="43.71037" lon="4.92801">
        <ele>137.605835</ele>
        <time>2011-01-23T07:25:14Z</time>
      </trkpt>
      <trkpt lat="43.71042" lon="4.92786">
        <ele>140.489868</ele>
        <time>2011-01-23T07:25:24Z</time>
      </trkpt>
      <trkpt lat="43.71044" lon="4.92763">
        <ele>142.412476</ele>
        <time>2011-01-23T07:25:37Z</time>
      </trkpt>
      <trkpt lat="43.71044" lon="4.92763">
        <ele>142.412476</ele>
        <time>2011-01-23T07:25:38Z</time>
      </trkpt>
      <trkpt lat="43.71048" lon="4.92741">
        <ele>143.373657</ele>
        <time>2011-01-23T07:25:50Z</time>
      </trkpt>
      <trkpt lat="43.71048" lon="4.92737">
        <ele>143.373657</ele>
        <time>2011-01-23T07:25:52Z</time>
      </trkpt>
      <trkpt lat="43.7105" lon="4.92722">
        <ele>143.373657</ele>
        <time>2011-01-23T07:26:01Z</time>
      </trkpt>
      <trkpt lat="43.71048" lon="4.92713">
        <ele>142.412476</ele>
        <time>2011-01-23T07:26:06Z</time>
      </trkpt>
      <trkpt lat="43.71048" lon="4.92707">
        <ele>140.970459</ele>
        <time>2011-01-23T07:26:10Z</time>
      </trkpt>
      <trkpt lat="43.71048" lon="4.92705">
        <ele>140.970459</ele>
        <time>2011-01-23T07:26:12Z</time>
      </trkpt>
      <trkpt lat="43.71052" lon="4.92696">
        <ele>140.009155</ele>
        <time>2011-01-23T07:26:17Z</time>
      </trkpt>
      <trkpt lat="43.71054" lon="4.92685">
        <ele>139.528442</ele>
        <time>2011-01-23T07:26:24Z</time>
      </trkpt>
      <trkpt lat="43.71054" lon="4.92679">
        <ele>139.528442</ele>
        <time>2011-01-23T07:26:28Z</time>
      </trkpt>
      <trkpt lat="43.71057" lon="4.92666">
        <ele>140.009155</ele>
        <time>2011-01-23T07:26:37Z</time>
      </trkpt>
      <trkpt lat="43.71059" lon="4.92655">
        <ele>141.45105</ele>
        <time>2011-01-23T07:26:44Z</time>
      </trkpt>
      <trkpt lat="43.71059" lon="4.92653">
        <ele>141.931763</ele>
        <time>2011-01-23T07:26:47Z</time>
      </trkpt>
      <trkpt lat="43.71063" lon="4.9264">
        <ele>142.893066</ele>
        <time>2011-01-23T07:26:56Z</time>
      </trkpt>
      <trkpt lat="43.71063" lon="4.92632">
        <ele>143.373657</ele>
        <time>2011-01-23T07:27:01Z</time>
      </trkpt>
      <trkpt lat="43.71065" lon="4.92625">
        <ele>143.85437</ele>
        <time>2011-01-23T07:27:07Z</time>
      </trkpt>
      <trkpt lat="43.71065" lon="4.92619">
        <ele>142.893066</ele>
        <time>2011-01-23T07:27:10Z</time>
      </trkpt>
      <trkpt lat="43.71063" lon="4.92612">
        <ele>141.45105</ele>
        <time>2011-01-23T07:27:15Z</time>
      </trkpt>
      <trkpt lat="43.71065" lon="4.92604">
        <ele>140.009155</ele>
        <time>2011-01-23T07:27:21Z</time>
      </trkpt>
      <trkpt lat="43.71065" lon="4.926">
        <ele>139.528442</ele>
        <time>2011-01-23T07:27:25Z</time>
      </trkpt>
      <trkpt lat="43.71065" lon="4.92593">
        <ele>138.567261</ele>
        <time>2011-01-23T07:27:29Z</time>
      </trkpt>
      <trkpt lat="43.71065" lon="4.92591">
        <ele>138.567261</ele>
        <time>2011-01-23T07:27:30Z</time>
      </trkpt>
      <trkpt lat="43.71065" lon="4.92589">
        <ele>138.086548</ele>
        <time>2011-01-23T07:27:32Z</time>
      </trkpt>
      <trkpt lat="43.71065" lon="4.92572">
        <ele>134.721924</ele>
        <time>2011-01-23T07:27:45Z</time>
      </trkpt>
      <trkpt lat="43.71065" lon="4.92569">
        <ele>134.241211</ele>
        <time>2011-01-23T07:27:46Z</time>
      </trkpt>
      <trkpt lat="43.71067" lon="4.92554">
        <ele>130.395996</ele>
        <time>2011-01-23T07:27:59Z</time>
      </trkpt>
      <trkpt lat="43.71067" lon="4.92548">
        <ele>128.954102</ele>
        <time>2011-01-23T07:28:03Z</time>
      </trkpt>
      <trkpt lat="43.71069" lon="4.92542">
        <ele>127.031372</ele>
        <time>2011-01-23T07:28:08Z</time>
      </trkpt>
      <trkpt lat="43.71069" lon="4.92533">
        <ele>126.069946</ele>
        <time>2011-01-23T07:28:14Z</time>
      </trkpt>
      <trkpt lat="43.71078" lon="4.92516">
        <ele>125.108765</ele>
        <time>2011-01-23T07:28:28Z</time>
      </trkpt>
      <trkpt lat="43.71078" lon="4.92514">
        <ele>124.628052</ele>
        <time>2011-01-23T07:28:30Z</time>
      </trkpt>
      <trkpt lat="43.71082" lon="4.92507">
        <ele>124.147339</ele>
        <time>2011-01-23T07:28:36Z</time>
      </trkpt>
      <trkpt lat="43.71082" lon="4.92505">
        <ele>124.147339</ele>
        <time>2011-01-23T07:28:38Z</time>
      </trkpt>
      <trkpt lat="43.71085" lon="4.92503">
        <ele>124.147339</ele>
        <time>2011-01-23T07:28:40Z</time>
      </trkpt>
      <trkpt lat="43.71085" lon="4.92501">
        <ele>124.147339</ele>
        <time>2011-01-23T07:28:42Z</time>
      </trkpt>
      <trkpt lat="43.71089" lon="4.92486">
        <ele>123.666748</ele>
        <time>2011-01-23T07:28:51Z</time>
      </trkpt>
      <trkpt lat="43.71089" lon="4.92482">
        <ele>123.186157</ele>
        <time>2011-01-23T07:28:54Z</time>
      </trkpt>
      <trkpt lat="43.71091" lon="4.92469">
        <ele>122.705444</ele>
        <time>2011-01-23T07:29:04Z</time>
      </trkpt>
      <trkpt lat="43.71095" lon="4.92451">
        <ele>122.705444</ele>
        <time>2011-01-23T07:29:17Z</time>
      </trkpt>
      <trkpt lat="43.711" lon="4.92436">
        <ele>121.26355</ele>
        <time>2011-01-23T07:29:29Z</time>
      </trkpt>
      <trkpt lat="43.71102" lon="4.92426">
        <ele>119.821411</ele>
        <time>2011-01-23T07:29:36Z</time>
      </trkpt>
      <trkpt lat="43.71104" lon="4.92415">
        <ele>118.379395</ele>
        <time>2011-01-23T07:29:45Z</time>
      </trkpt>
      <trkpt lat="43.71104" lon="4.92409">
        <ele>118.860107</ele>
        <time>2011-01-23T07:29:50Z</time>
      </trkpt>
      <trkpt lat="43.71104" lon="4.924">
        <ele>116.9375</ele>
        <time>2011-01-23T07:29:56Z</time>
      </trkpt>
      <trkpt lat="43.71106" lon="4.92394">
        <ele>116.456787</ele>
        <time>2011-01-23T07:30:00Z</time>
      </trkpt>
      <trkpt lat="43.71108" lon="4.92387">
        <ele>116.9375</ele>
        <time>2011-01-23T07:30:04Z</time>
      </trkpt>
      <trkpt lat="43.71115" lon="4.9237">
        <ele>120.782837</ele>
        <time>2011-01-23T07:30:15Z</time>
      </trkpt>
      <trkpt lat="43.71123" lon="4.92357">
        <ele>124.147339</ele>
        <time>2011-01-23T07:30:24Z</time>
      </trkpt>
      <trkpt lat="43.71123" lon="4.92355">
        <ele>124.147339</ele>
        <time>2011-01-23T07:30:26Z</time>
      </trkpt>
      <trkpt lat="43.7113" lon="4.92336">
        <ele>124.628052</ele>
        <time>2011-01-23T07:30:39Z</time>
      </trkpt>
      <trkpt lat="43.71134" lon="4.92316">
        <ele>124.147339</ele>
        <time>2011-01-23T07:30:52Z</time>
      </trkpt>
      <trkpt lat="43.71134" lon="4.92314">
        <ele>124.147339</ele>
        <time>2011-01-23T07:30:54Z</time>
      </trkpt>
      <trkpt lat="43.71138" lon="4.92306">
        <ele>124.147339</ele>
        <time>2011-01-23T07:31:01Z</time>
      </trkpt>
      <trkpt lat="43.71136" lon="4.92293">
        <ele>122.224731</ele>
        <time>2011-01-23T07:31:09Z</time>
      </trkpt>
      <trkpt lat="43.71136" lon="4.92288">
        <ele>120.782837</ele>
        <time>2011-01-23T07:31:13Z</time>
      </trkpt>
      <trkpt lat="43.7114" lon="4.92269">
        <ele>118.379395</ele>
        <time>2011-01-23T07:31:26Z</time>
      </trkpt>
      <trkpt lat="43.7114" lon="4.92263">
        <ele>117.418213</ele>
        <time>2011-01-23T07:31:31Z</time>
      </trkpt>
      <trkpt lat="43.71147" lon="4.92248">
        <ele>116.9375</ele>
        <time>2011-01-23T07:31:42Z</time>
      </trkpt>
      <trkpt lat="43.71149" lon="4.92239">
        <ele>118.379395</ele>
        <time>2011-01-23T07:31:51Z</time>
      </trkpt>
      <trkpt lat="43.71149" lon="4.92228">
        <ele>117.898804</ele>
        <time>2011-01-23T07:31:57Z</time>
      </trkpt>
      <trkpt lat="43.71151" lon="4.9222">
        <ele>117.898804</ele>
        <time>2011-01-23T07:32:03Z</time>
      </trkpt>
      <trkpt lat="43.71151" lon="4.92218">
        <ele>117.418213</ele>
        <time>2011-01-23T07:32:05Z</time>
      </trkpt>
      <trkpt lat="43.71151" lon="4.92203">
        <ele>115.014893</ele>
        <time>2011-01-23T07:32:15Z</time>
      </trkpt>
      <trkpt lat="43.71151" lon="4.92196">
        <ele>115.495605</ele>
        <time>2011-01-23T07:32:27Z</time>
      </trkpt>
      <trkpt lat="43.71149" lon="4.92194">
        <ele>116.456787</ele>
        <time>2011-01-23T07:32:29Z</time>
      </trkpt>
      <trkpt lat="43.71149" lon="4.9219">
        <ele>116.9375</ele>
        <time>2011-01-23T07:32:32Z</time>
      </trkpt>
      <trkpt lat="43.7114" lon="4.9217">
        <ele>120.782837</ele>
        <time>2011-01-23T07:32:46Z</time>
      </trkpt>
      <trkpt lat="43.7114" lon="4.92147">
        <ele>119.821411</ele>
        <time>2011-01-23T07:32:59Z</time>
      </trkpt>
      <trkpt lat="43.71142" lon="4.92138">
        <ele>117.898804</ele>
        <time>2011-01-23T07:33:04Z</time>
      </trkpt>
      <trkpt lat="43.71145" lon="4.9211">
        <ele>117.418213</ele>
        <time>2011-01-23T07:33:19Z</time>
      </trkpt>
      <trkpt lat="43.71149" lon="4.92087">
        <ele>116.9375</ele>
        <time>2011-01-23T07:33:34Z</time>
      </trkpt>
      <trkpt lat="43.71151" lon="4.92078">
        <ele>116.456787</ele>
        <time>2011-01-23T07:33:39Z</time>
      </trkpt>
      <trkpt lat="43.7116" lon="4.92055">
        <ele>115.495605</ele>
        <time>2011-01-23T07:33:54Z</time>
      </trkpt>
      <trkpt lat="43.7116" lon="4.92052">
        <ele>115.976196</ele>
        <time>2011-01-23T07:33:55Z</time>
      </trkpt>
      <trkpt lat="43.7116" lon="4.9205">
        <ele>115.495605</ele>
        <time>2011-01-23T07:33:57Z</time>
      </trkpt>
      <trkpt lat="43.71166" lon="4.92031">
        <ele>115.495605</ele>
        <time>2011-01-23T07:34:09Z</time>
      </trkpt>
      <trkpt lat="43.71168" lon="4.9202">
        <ele>115.976196</ele>
        <time>2011-01-23T07:34:15Z</time>
      </trkpt>
      <trkpt lat="43.71177" lon="4.92001">
        <ele>116.9375</ele>
        <time>2011-01-23T07:34:28Z</time>
      </trkpt>
      <trkpt lat="43.71181" lon="4.91982">
        <ele>117.418213</ele>
        <time>2011-01-23T07:34:41Z</time>
      </trkpt>
      <trkpt lat="43.71181" lon="4.91982">
        <ele>117.418213</ele>
        <time>2011-01-23T07:34:42Z</time>
      </trkpt>
      <trkpt lat="43.71177" lon="4.91962">
        <ele>121.26355</ele>
        <time>2011-01-23T07:34:55Z</time>
      </trkpt>
      <trkpt lat="43.71177" lon="4.9196">
        <ele>121.26355</ele>
        <time>2011-01-23T07:34:56Z</time>
      </trkpt>
      <trkpt lat="43.71179" lon="4.91949">
        <ele>125.108765</ele>
        <time>2011-01-23T07:35:04Z</time>
      </trkpt>
      <trkpt lat="43.71179" lon="4.91947">
        <ele>126.069946</ele>
        <time>2011-01-23T07:35:06Z</time>
      </trkpt>
      <trkpt lat="43.71183" lon="4.91939">
        <ele>125.589355</ele>
        <time>2011-01-23T07:35:11Z</time>
      </trkpt>
      <trkpt lat="43.71185" lon="4.9193">
        <ele>126.069946</ele>
        <time>2011-01-23T07:35:21Z</time>
      </trkpt>
      <trkpt lat="43.71187" lon="4.91926">
        <ele>126.550659</ele>
        <time>2011-01-23T07:35:24Z</time>
      </trkpt>
      <trkpt lat="43.71196" lon="4.91902">
        <ele>125.589355</ele>
        <time>2011-01-23T07:35:37Z</time>
      </trkpt>
      <trkpt lat="43.712" lon="4.91883">
        <ele>124.628052</ele>
        <time>2011-01-23T07:35:49Z</time>
      </trkpt>
      <trkpt lat="43.71205" lon="4.91874">
        <ele>124.628052</ele>
        <time>2011-01-23T07:35:55Z</time>
      </trkpt>
      <trkpt lat="43.71209" lon="4.91861">
        <ele>126.550659</ele>
        <time>2011-01-23T07:36:03Z</time>
      </trkpt>
      <trkpt lat="43.71213" lon="4.91844">
        <ele>127.031372</ele>
        <time>2011-01-23T07:36:14Z</time>
      </trkpt>
      <trkpt lat="43.71213" lon="4.91823">
        <ele>126.069946</ele>
        <time>2011-01-23T07:36:28Z</time>
      </trkpt>
      <trkpt lat="43.71213" lon="4.9181">
        <ele>123.186157</ele>
        <time>2011-01-23T07:36:35Z</time>
      </trkpt>
      <trkpt lat="43.71218" lon="4.91788">
        <ele>123.186157</ele>
        <time>2011-01-23T07:36:49Z</time>
      </trkpt>
      <trkpt lat="43.7122" lon="4.91773">
        <ele>123.186157</ele>
        <time>2011-01-23T07:36:58Z</time>
      </trkpt>
      <trkpt lat="43.7122" lon="4.91765">
        <ele>122.705444</ele>
        <time>2011-01-23T07:37:02Z</time>
      </trkpt>
      <trkpt lat="43.7122" lon="4.91746">
        <ele>123.186157</ele>
        <time>2011-01-23T07:37:15Z</time>
      </trkpt>
      <trkpt lat="43.71224" lon="4.91726">
        <ele>121.26355</ele>
        <time>2011-01-23T07:37:26Z</time>
      </trkpt>
      <trkpt lat="43.71226" lon="4.91715">
        <ele>121.744141</ele>
        <time>2011-01-23T07:37:33Z</time>
      </trkpt>
      <trkpt lat="43.71228" lon="4.91694">
        <ele>116.9375</ele>
        <time>2011-01-23T07:37:47Z</time>
      </trkpt>
      <trkpt lat="43.7123" lon="4.91685">
        <ele>115.976196</ele>
        <time>2011-01-23T07:37:51Z</time>
      </trkpt>
      <trkpt lat="43.7123" lon="4.91681">
        <ele>115.014893</ele>
        <time>2011-01-23T07:37:54Z</time>
      </trkpt>
      <trkpt lat="43.71235" lon="4.91666">
        <ele>112.611572</ele>
        <time>2011-01-23T07:38:04Z</time>
      </trkpt>
      <trkpt lat="43.71235" lon="4.91653">
        <ele>111.169556</ele>
        <time>2011-01-23T07:38:11Z</time>
      </trkpt>
      <trkpt lat="43.71241" lon="4.91634">
        <ele>108.766235</ele>
        <time>2011-01-23T07:38:23Z</time>
      </trkpt>
      <trkpt lat="43.71248" lon="4.91615">
        <ele>106.843628</ele>
        <time>2011-01-23T07:38:34Z</time>
      </trkpt>
      <trkpt lat="43.7125" lon="4.91612">
        <ele>106.843628</ele>
        <time>2011-01-23T07:38:35Z</time>
      </trkpt>
      <trkpt lat="43.71252" lon="4.91606">
        <ele>106.843628</ele>
        <time>2011-01-23T07:38:39Z</time>
      </trkpt>
      <trkpt lat="43.71254" lon="4.916">
        <ele>106.843628</ele>
        <time>2011-01-23T07:38:43Z</time>
      </trkpt>
      <trkpt lat="43.71256" lon="4.91587">
        <ele>105.401733</ele>
        <time>2011-01-23T07:38:51Z</time>
      </trkpt>
      <trkpt lat="43.71258" lon="4.91582">
        <ele>103.959717</ele>
        <time>2011-01-23T07:38:55Z</time>
      </trkpt>
      <trkpt lat="43.71258" lon="4.91567">
        <ele>103.959717</ele>
        <time>2011-01-23T07:39:05Z</time>
      </trkpt>
      <trkpt lat="43.71258" lon="4.91563">
        <ele>104.44043</ele>
        <time>2011-01-23T07:39:08Z</time>
      </trkpt>
      <trkpt lat="43.71256" lon="4.91542">
        <ele>105.401733</ele>
        <time>2011-01-23T07:39:20Z</time>
      </trkpt>
      <trkpt lat="43.71256" lon="4.91535">
        <ele>105.401733</ele>
        <time>2011-01-23T07:39:24Z</time>
      </trkpt>
      <trkpt lat="43.71258" lon="4.91527">
        <ele>105.882446</ele>
        <time>2011-01-23T07:39:30Z</time>
      </trkpt>
      <trkpt lat="43.71258" lon="4.9152">
        <ele>105.401733</ele>
        <time>2011-01-23T07:39:34Z</time>
      </trkpt>
      <trkpt lat="43.7126" lon="4.91516">
        <ele>105.401733</ele>
        <time>2011-01-23T07:39:36Z</time>
      </trkpt>
      <trkpt lat="43.71263" lon="4.91501">
        <ele>106.363037</ele>
        <time>2011-01-23T07:39:44Z</time>
      </trkpt>
      <trkpt lat="43.71263" lon="4.9149">
        <ele>107.805054</ele>
        <time>2011-01-23T07:39:52Z</time>
      </trkpt>
      <trkpt lat="43.71265" lon="4.91479">
        <ele>108.766235</ele>
        <time>2011-01-23T07:39:58Z</time>
      </trkpt>
      <trkpt lat="43.71273" lon="4.91467">
        <ele>107.324341</ele>
        <time>2011-01-23T07:40:07Z</time>
      </trkpt>
      <trkpt lat="43.71286" lon="4.91456">
        <ele>104.921021</ele>
        <time>2011-01-23T07:40:18Z</time>
      </trkpt>
      <trkpt lat="43.71288" lon="4.91456">
        <ele>104.921021</ele>
        <time>2011-01-23T07:40:20Z</time>
      </trkpt>
      <trkpt lat="43.7129" lon="4.91452">
        <ele>104.44043</ele>
        <time>2011-01-23T07:40:24Z</time>
      </trkpt>
      <trkpt lat="43.71297" lon="4.91447">
        <ele>104.44043</ele>
        <time>2011-01-23T07:40:29Z</time>
      </trkpt>
      <trkpt lat="43.7131" lon="4.91441">
        <ele>105.401733</ele>
        <time>2011-01-23T07:40:41Z</time>
      </trkpt>
      <trkpt lat="43.71312" lon="4.91437">
        <ele>105.882446</ele>
        <time>2011-01-23T07:40:44Z</time>
      </trkpt>
      <trkpt lat="43.71314" lon="4.9143">
        <ele>106.363037</ele>
        <time>2011-01-23T07:40:48Z</time>
      </trkpt>
      <trkpt lat="43.71314" lon="4.91406">
        <ele>106.363037</ele>
        <time>2011-01-23T07:41:02Z</time>
      </trkpt>
      <trkpt lat="43.71312" lon="4.91385">
        <ele>106.363037</ele>
        <time>2011-01-23T07:41:15Z</time>
      </trkpt>
      <trkpt lat="43.71312" lon="4.91366">
        <ele>106.843628</ele>
        <time>2011-01-23T07:41:29Z</time>
      </trkpt>
      <trkpt lat="43.71314" lon="4.91355">
        <ele>107.324341</ele>
        <time>2011-01-23T07:41:36Z</time>
      </trkpt>
      <trkpt lat="43.71314" lon="4.91349">
        <ele>106.843628</ele>
        <time>2011-01-23T07:41:40Z</time>
      </trkpt>
      <trkpt lat="43.71316" lon="4.9134">
        <ele>106.363037</ele>
        <time>2011-01-23T07:41:45Z</time>
      </trkpt>
      <trkpt lat="43.71316" lon="4.91338">
        <ele>106.363037</ele>
        <time>2011-01-23T07:41:46Z</time>
      </trkpt>
      <trkpt lat="43.71316" lon="4.91329">
        <ele>107.805054</ele>
        <time>2011-01-23T07:41:52Z</time>
      </trkpt>
      <trkpt lat="43.71318" lon="4.91323">
        <ele>108.285645</ele>
        <time>2011-01-23T07:41:56Z</time>
      </trkpt>
      <trkpt lat="43.71321" lon="4.91319">
        <ele>108.285645</ele>
        <time>2011-01-23T07:42:00Z</time>
      </trkpt>
      <trkpt lat="43.71327" lon="4.91301">
        <ele>110.688843</ele>
        <time>2011-01-23T07:42:13Z</time>
      </trkpt>
      <trkpt lat="43.71327" lon="4.91295">
        <ele>110.688843</ele>
        <time>2011-01-23T07:42:20Z</time>
      </trkpt>
      <trkpt lat="43.71327" lon="4.91291">
        <ele>110.208252</ele>
        <time>2011-01-23T07:42:22Z</time>
      </trkpt>
      <trkpt lat="43.71327" lon="4.91284">
        <ele>109.246948</ele>
        <time>2011-01-23T07:42:26Z</time>
      </trkpt>
      <trkpt lat="43.71329" lon="4.9128">
        <ele>109.246948</ele>
        <time>2011-01-23T07:42:30Z</time>
      </trkpt>
      <trkpt lat="43.71333" lon="4.91263">
        <ele>110.208252</ele>
        <time>2011-01-23T07:42:41Z</time>
      </trkpt>
      <trkpt lat="43.71336" lon="4.91256">
        <ele>110.688843</ele>
        <time>2011-01-23T07:42:45Z</time>
      </trkpt>
      <trkpt lat="43.71344" lon="4.91237">
        <ele>112.611572</ele>
        <time>2011-01-23T07:43:00Z</time>
      </trkpt>
      <trkpt lat="43.71344" lon="4.91235">
        <ele>113.092285</ele>
        <time>2011-01-23T07:43:01Z</time>
      </trkpt>
      <trkpt lat="43.71346" lon="4.91228">
        <ele>113.572998</ele>
        <time>2011-01-23T07:43:06Z</time>
      </trkpt>
      <trkpt lat="43.71351" lon="4.91209">
        <ele>116.456787</ele>
        <time>2011-01-23T07:43:19Z</time>
      </trkpt>
      <trkpt lat="43.71351" lon="4.912">
        <ele>118.860107</ele>
        <time>2011-01-23T07:43:25Z</time>
      </trkpt>
      <trkpt lat="43.71351" lon="4.91196">
        <ele>120.782837</ele>
        <time>2011-01-23T07:43:29Z</time>
      </trkpt>
      <trkpt lat="43.71351" lon="4.9119">
        <ele>121.26355</ele>
        <time>2011-01-23T07:43:33Z</time>
      </trkpt>
      <trkpt lat="43.71355" lon="4.91175">
        <ele>119.34082</ele>
        <time>2011-01-23T07:43:42Z</time>
      </trkpt>
      <trkpt lat="43.71357" lon="4.9116">
        <ele>117.418213</ele>
        <time>2011-01-23T07:43:52Z</time>
      </trkpt>
      <trkpt lat="43.71359" lon="4.91147">
        <ele>116.9375</ele>
        <time>2011-01-23T07:43:59Z</time>
      </trkpt>
      <trkpt lat="43.71359" lon="4.9113">
        <ele>116.9375</ele>
        <time>2011-01-23T07:44:10Z</time>
      </trkpt>
      <trkpt lat="43.71359" lon="4.91123">
        <ele>115.976196</ele>
        <time>2011-01-23T07:44:13Z</time>
      </trkpt>
      <trkpt lat="43.71361" lon="4.91113">
        <ele>116.456787</ele>
        <time>2011-01-23T07:44:20Z</time>
      </trkpt>
      <trkpt lat="43.71361" lon="4.9111">
        <ele>115.976196</ele>
        <time>2011-01-23T07:44:21Z</time>
      </trkpt>
      <trkpt lat="43.71366" lon="4.91093">
        <ele>113.572998</ele>
        <time>2011-01-23T07:44:31Z</time>
      </trkpt>
      <trkpt lat="43.71372" lon="4.91072">
        <ele>113.092285</ele>
        <time>2011-01-23T07:44:45Z</time>
      </trkpt>
      <trkpt lat="43.71374" lon="4.91067">
        <ele>113.092285</ele>
        <time>2011-01-23T07:44:48Z</time>
      </trkpt>
      <trkpt lat="43.71376" lon="4.91059">
        <ele>114.053589</ele>
        <time>2011-01-23T07:44:53Z</time>
      </trkpt>
      <trkpt lat="43.71381" lon="4.91046">
        <ele>115.976196</ele>
        <time>2011-01-23T07:45:01Z</time>
      </trkpt>
      <trkpt lat="43.71381" lon="4.91037">
        <ele>116.456787</ele>
        <time>2011-01-23T07:45:06Z</time>
      </trkpt>
      <trkpt lat="43.71383" lon="4.91031">
        <ele>115.976196</ele>
        <time>2011-01-23T07:45:11Z</time>
      </trkpt>
      <trkpt lat="43.71383" lon="4.91029">
        <ele>115.495605</ele>
        <time>2011-01-23T07:45:13Z</time>
      </trkpt>
      <trkpt lat="43.71385" lon="4.9102">
        <ele>113.572998</ele>
        <time>2011-01-23T07:45:18Z</time>
      </trkpt>
      <trkpt lat="43.71389" lon="4.91014">
        <ele>113.572998</ele>
        <time>2011-01-23T07:45:22Z</time>
      </trkpt>
      <trkpt lat="43.71391" lon="4.91007">
        <ele>113.572998</ele>
        <time>2011-01-23T07:45:27Z</time>
      </trkpt>
      <trkpt lat="43.71396" lon="4.9099">
        <ele>115.976196</ele>
        <time>2011-01-23T07:45:39Z</time>
      </trkpt>
      <trkpt lat="43.71402" lon="4.90977">
        <ele>117.898804</ele>
        <time>2011-01-23T07:45:48Z</time>
      </trkpt>
      <trkpt lat="43.71404" lon="4.90973">
        <ele>118.860107</ele>
        <time>2011-01-23T07:45:52Z</time>
      </trkpt>
      <trkpt lat="43.71411" lon="4.90962">
        <ele>120.302124</ele>
        <time>2011-01-23T07:46:00Z</time>
      </trkpt>
      <trkpt lat="43.71413" lon="4.90958">
        <ele>120.782837</ele>
        <time>2011-01-23T07:46:03Z</time>
      </trkpt>
      <trkpt lat="43.71415" lon="4.90952">
        <ele>121.26355</ele>
        <time>2011-01-23T07:46:08Z</time>
      </trkpt>
      <trkpt lat="43.71417" lon="4.90937">
        <ele>122.224731</ele>
        <time>2011-01-23T07:46:19Z</time>
      </trkpt>
      <trkpt lat="43.71419" lon="4.9093">
        <ele>123.186157</ele>
        <time>2011-01-23T07:46:23Z</time>
      </trkpt>
      <trkpt lat="43.71421" lon="4.90915">
        <ele>124.147339</ele>
        <time>2011-01-23T07:46:33Z</time>
      </trkpt>
      <trkpt lat="43.71424" lon="4.90911">
        <ele>124.147339</ele>
        <time>2011-01-23T07:46:37Z</time>
      </trkpt>
      <trkpt lat="43.71426" lon="4.90907">
        <ele>123.666748</ele>
        <time>2011-01-23T07:46:40Z</time>
      </trkpt>
      <trkpt lat="43.7143" lon="4.90892">
        <ele>125.108765</ele>
        <time>2011-01-23T07:46:52Z</time>
      </trkpt>
      <trkpt lat="43.71432" lon="4.90887">
        <ele>125.589355</ele>
        <time>2011-01-23T07:46:55Z</time>
      </trkpt>
      <trkpt lat="43.71432" lon="4.90883">
        <ele>126.069946</ele>
        <time>2011-01-23T07:46:57Z</time>
      </trkpt>
      <trkpt lat="43.71432" lon="4.90881">
        <ele>126.069946</ele>
        <time>2011-01-23T07:46:59Z</time>
      </trkpt>
      <trkpt lat="43.71434" lon="4.90872">
        <ele>126.550659</ele>
        <time>2011-01-23T07:47:04Z</time>
      </trkpt>
      <trkpt lat="43.71434" lon="4.90868">
        <ele>126.550659</ele>
        <time>2011-01-23T07:47:07Z</time>
      </trkpt>
      <trkpt lat="43.71434" lon="4.90861">
        <ele>126.069946</ele>
        <time>2011-01-23T07:47:11Z</time>
      </trkpt>
      <trkpt lat="43.71439" lon="4.90842">
        <ele>126.069946</ele>
        <time>2011-01-23T07:47:22Z</time>
      </trkpt>
      <trkpt lat="43.71441" lon="4.90825">
        <ele>127.031372</ele>
        <time>2011-01-23T07:47:33Z</time>
      </trkpt>
      <trkpt lat="43.71445" lon="4.90808">
        <ele>130.395996</ele>
        <time>2011-01-23T07:47:45Z</time>
      </trkpt>
      <trkpt lat="43.71451" lon="4.90786">
        <ele>131.837891</ele>
        <time>2011-01-23T07:47:58Z</time>
      </trkpt>
      <trkpt lat="43.71454" lon="4.90778">
        <ele>131.3573</ele>
        <time>2011-01-23T07:48:03Z</time>
      </trkpt>
      <trkpt lat="43.7146" lon="4.90763">
        <ele>131.837891</ele>
        <time>2011-01-23T07:48:12Z</time>
      </trkpt>
      <trkpt lat="43.71464" lon="4.90748">
        <ele>132.318604</ele>
        <time>2011-01-23T07:48:23Z</time>
      </trkpt>
      <trkpt lat="43.71466" lon="4.90733">
        <ele>132.318604</ele>
        <time>2011-01-23T07:48:32Z</time>
      </trkpt>
      <trkpt lat="43.71466" lon="4.90726">
        <ele>131.837891</ele>
        <time>2011-01-23T07:48:36Z</time>
      </trkpt>
      <trkpt lat="43.71466" lon="4.90716">
        <ele>130.395996</ele>
        <time>2011-01-23T07:48:42Z</time>
      </trkpt>
      <trkpt lat="43.71466" lon="4.90698">
        <ele>128.954102</ele>
        <time>2011-01-23T07:48:53Z</time>
      </trkpt>
      <trkpt lat="43.71469" lon="4.9069">
        <ele>129.434692</ele>
        <time>2011-01-23T07:48:59Z</time>
      </trkpt>
      <trkpt lat="43.71469" lon="4.90686">
        <ele>128.473389</ele>
        <time>2011-01-23T07:49:01Z</time>
      </trkpt>
      <trkpt lat="43.71471" lon="4.90673">
        <ele>127.511963</ele>
        <time>2011-01-23T07:49:08Z</time>
      </trkpt>
      <trkpt lat="43.71473" lon="4.90658">
        <ele>127.992554</ele>
        <time>2011-01-23T07:49:17Z</time>
      </trkpt>
      <trkpt lat="43.71473" lon="4.90649">
        <ele>128.954102</ele>
        <time>2011-01-23T07:49:22Z</time>
      </trkpt>
      <trkpt lat="43.71471" lon="4.9063">
        <ele>127.031372</ele>
        <time>2011-01-23T07:49:33Z</time>
      </trkpt>
      <trkpt lat="43.71471" lon="4.90615">
        <ele>126.550659</ele>
        <time>2011-01-23T07:49:42Z</time>
      </trkpt>
      <trkpt lat="43.71475" lon="4.906">
        <ele>127.031372</ele>
        <time>2011-01-23T07:49:53Z</time>
      </trkpt>
      <trkpt lat="43.71475" lon="4.90595">
        <ele>127.031372</ele>
        <time>2011-01-23T07:49:55Z</time>
      </trkpt>
      <trkpt lat="43.71477" lon="4.9058">
        <ele>127.031372</ele>
        <time>2011-01-23T07:50:04Z</time>
      </trkpt>
      <trkpt lat="43.71479" lon="4.90576">
        <ele>127.511963</ele>
        <time>2011-01-23T07:50:07Z</time>
      </trkpt>
      <trkpt lat="43.71481" lon="4.90561">
        <ele>127.992554</ele>
        <time>2011-01-23T07:50:15Z</time>
      </trkpt>
      <trkpt lat="43.71479" lon="4.90557">
        <ele>127.511963</ele>
        <time>2011-01-23T07:50:18Z</time>
      </trkpt>
      <trkpt lat="43.71479" lon="4.90546">
        <ele>124.628052</ele>
        <time>2011-01-23T07:50:25Z</time>
      </trkpt>
      <trkpt lat="43.71479" lon="4.90537">
        <ele>123.186157</ele>
        <time>2011-01-23T07:50:29Z</time>
      </trkpt>
      <trkpt lat="43.71479" lon="4.90533">
        <ele>123.186157</ele>
        <time>2011-01-23T07:50:32Z</time>
      </trkpt>
      <trkpt lat="43.71479" lon="4.90529">
        <ele>123.186157</ele>
        <time>2011-01-23T07:50:35Z</time>
      </trkpt>
      <trkpt lat="43.71481" lon="4.9052">
        <ele>122.705444</ele>
        <time>2011-01-23T07:50:40Z</time>
      </trkpt>
      <trkpt lat="43.71481" lon="4.90518">
        <ele>122.705444</ele>
        <time>2011-01-23T07:50:42Z</time>
      </trkpt>
      <trkpt lat="43.71481" lon="4.9051">
        <ele>121.744141</ele>
        <time>2011-01-23T07:50:47Z</time>
      </trkpt>
      <trkpt lat="43.71484" lon="4.90495">
        <ele>120.302124</ele>
        <time>2011-01-23T07:50:55Z</time>
      </trkpt>
      <trkpt lat="43.71484" lon="4.90492">
        <ele>120.302124</ele>
        <time>2011-01-23T07:50:56Z</time>
      </trkpt>
      <trkpt lat="43.71484" lon="4.90482">
        <ele>120.302124</ele>
        <time>2011-01-23T07:51:02Z</time>
      </trkpt>
      <trkpt lat="43.71486" lon="4.90464">
        <ele>117.418213</ele>
        <time>2011-01-23T07:51:12Z</time>
      </trkpt>
      <trkpt lat="43.71488" lon="4.90454">
        <ele>116.9375</ele>
        <time>2011-01-23T07:51:19Z</time>
      </trkpt>
      <trkpt lat="43.7149" lon="4.90437">
        <ele>116.456787</ele>
        <time>2011-01-23T07:51:31Z</time>
      </trkpt>
      <trkpt lat="43.71492" lon="4.90434">
        <ele>116.456787</ele>
        <time>2011-01-23T07:51:32Z</time>
      </trkpt>
      <trkpt lat="43.71494" lon="4.90424">
        <ele>116.456787</ele>
        <time>2011-01-23T07:51:39Z</time>
      </trkpt>
      <trkpt lat="43.71494" lon="4.90417">
        <ele>116.9375</ele>
        <time>2011-01-23T07:51:43Z</time>
      </trkpt>
      <trkpt lat="43.71494" lon="4.90402">
        <ele>115.495605</ele>
        <time>2011-01-23T07:51:52Z</time>
      </trkpt>
      <trkpt lat="43.71496" lon="4.90383">
        <ele>114.053589</ele>
        <time>2011-01-23T07:52:04Z</time>
      </trkpt>
      <trkpt lat="43.71499" lon="4.90374">
        <ele>114.053589</ele>
        <time>2011-01-23T07:52:10Z</time>
      </trkpt>
      <trkpt lat="43.71503" lon="4.90366">
        <ele>113.572998</ele>
        <time>2011-01-23T07:52:16Z</time>
      </trkpt>
      <trkpt lat="43.71507" lon="4.90355">
        <ele>112.130981</ele>
        <time>2011-01-23T07:52:23Z</time>
      </trkpt>
      <trkpt lat="43.71509" lon="4.90346">
        <ele>113.092285</ele>
        <time>2011-01-23T07:52:28Z</time>
      </trkpt>
      <trkpt lat="43.71514" lon="4.90331">
        <ele>112.611572</ele>
        <time>2011-01-23T07:52:38Z</time>
      </trkpt>
      <trkpt lat="43.71516" lon="4.9031">
        <ele>111.650269</ele>
        <time>2011-01-23T07:52:51Z</time>
      </trkpt>
      <trkpt lat="43.71516" lon="4.90306">
        <ele>111.169556</ele>
        <time>2011-01-23T07:52:54Z</time>
      </trkpt>
      <trkpt lat="43.71516" lon="4.90291">
        <ele>110.208252</ele>
        <time>2011-01-23T07:53:05Z</time>
      </trkpt>
      <trkpt lat="43.71518" lon="4.90276">
        <ele>110.688843</ele>
        <time>2011-01-23T07:53:14Z</time>
      </trkpt>
      <trkpt lat="43.7152" lon="4.90259">
        <ele>111.650269</ele>
        <time>2011-01-23T07:53:23Z</time>
      </trkpt>
      <trkpt lat="43.7152" lon="4.90246">
        <ele>115.014893</ele>
        <time>2011-01-23T07:53:32Z</time>
      </trkpt>
      <trkpt lat="43.71518" lon="4.90228">
        <ele>115.014893</ele>
        <time>2011-01-23T07:53:42Z</time>
      </trkpt>
      <trkpt lat="43.71518" lon="4.90209">
        <ele>112.611572</ele>
        <time>2011-01-23T07:53:54Z</time>
      </trkpt>
      <trkpt lat="43.71518" lon="4.90198">
        <ele>111.650269</ele>
        <time>2011-01-23T07:54:01Z</time>
      </trkpt>
      <trkpt lat="43.7152" lon="4.90192">
        <ele>110.688843</ele>
        <time>2011-01-23T07:54:04Z</time>
      </trkpt>
      <trkpt lat="43.71522" lon="4.90175">
        <ele>110.688843</ele>
        <time>2011-01-23T07:54:14Z</time>
      </trkpt>
      <trkpt lat="43.71522" lon="4.90173">
        <ele>111.169556</ele>
        <time>2011-01-23T07:54:15Z</time>
      </trkpt>
      <trkpt lat="43.71522" lon="4.90158">
        <ele>109.727661</ele>
        <time>2011-01-23T07:54:24Z</time>
      </trkpt>
      <trkpt lat="43.71524" lon="4.9014">
        <ele>110.208252</ele>
        <time>2011-01-23T07:54:34Z</time>
      </trkpt>
      <trkpt lat="43.71524" lon="4.90134">
        <ele>110.688843</ele>
        <time>2011-01-23T07:54:37Z</time>
      </trkpt>
      <trkpt lat="43.71524" lon="4.90128">
        <ele>111.169556</ele>
        <time>2011-01-23T07:54:42Z</time>
      </trkpt>
      <trkpt lat="43.71522" lon="4.90121">
        <ele>111.650269</ele>
        <time>2011-01-23T07:54:46Z</time>
      </trkpt>
      <trkpt lat="43.71522" lon="4.90108">
        <ele>111.169556</ele>
        <time>2011-01-23T07:54:53Z</time>
      </trkpt>
      <trkpt lat="43.71522" lon="4.90093">
        <ele>110.208252</ele>
        <time>2011-01-23T07:55:03Z</time>
      </trkpt>
      <trkpt lat="43.71522" lon="4.90089">
        <ele>109.727661</ele>
        <time>2011-01-23T07:55:05Z</time>
      </trkpt>
      <trkpt lat="43.7152" lon="4.9007">
        <ele>106.363037</ele>
        <time>2011-01-23T07:55:15Z</time>
      </trkpt>
      <trkpt lat="43.7152" lon="4.90057">
        <ele>105.401733</ele>
        <time>2011-01-23T07:55:23Z</time>
      </trkpt>
      <trkpt lat="43.71518" lon="4.90035">
        <ele>104.44043</ele>
        <time>2011-01-23T07:55:36Z</time>
      </trkpt>
      <trkpt lat="43.71518" lon="4.90027">
        <ele>103.479004</ele>
        <time>2011-01-23T07:55:40Z</time>
      </trkpt>
      <trkpt lat="43.71518" lon="4.90022">
        <ele>103.479004</ele>
        <time>2011-01-23T07:55:43Z</time>
      </trkpt>
      <trkpt lat="43.7152" lon="4.90003">
        <ele>103.959717</ele>
        <time>2011-01-23T07:55:55Z</time>
      </trkpt>
      <trkpt lat="43.7152" lon="4.89997">
        <ele>103.959717</ele>
        <time>2011-01-23T07:55:59Z</time>
      </trkpt>
      <trkpt lat="43.7152" lon="4.89988">
        <ele>103.959717</ele>
        <time>2011-01-23T07:56:03Z</time>
      </trkpt>
      <trkpt lat="43.7152" lon="4.89988">
        <ele>103.959717</ele>
        <time>2011-01-23T07:56:04Z</time>
      </trkpt>
      <trkpt lat="43.7152" lon="4.89969">
        <ele>102.998291</ele>
        <time>2011-01-23T07:56:16Z</time>
      </trkpt>
      <trkpt lat="43.71522" lon="4.89962">
        <ele>102.037109</ele>
        <time>2011-01-23T07:56:21Z</time>
      </trkpt>
      <trkpt lat="43.71524" lon="4.89945">
        <ele>100.595093</ele>
        <time>2011-01-23T07:56:31Z</time>
      </trkpt>
      <trkpt lat="43.71531" lon="4.89934">
        <ele>98.191895</ele>
        <time>2011-01-23T07:56:37Z</time>
      </trkpt>
      <trkpt lat="43.71539" lon="4.89911">
        <ele>99.633789</ele>
        <time>2011-01-23T07:56:52Z</time>
      </trkpt>
      <trkpt lat="43.71546" lon="4.89894">
        <ele>96.749878</ele>
        <time>2011-01-23T07:57:04Z</time>
      </trkpt>
      <trkpt lat="43.71548" lon="4.89881">
        <ele>96.749878</ele>
        <time>2011-01-23T07:57:11Z</time>
      </trkpt>
      <trkpt lat="43.71548" lon="4.89877">
        <ele>96.749878</ele>
        <time>2011-01-23T07:57:15Z</time>
      </trkpt>
      <trkpt lat="43.7155" lon="4.89866">
        <ele>95.307739</ele>
        <time>2011-01-23T07:57:21Z</time>
      </trkpt>
      <trkpt lat="43.71552" lon="4.89849">
        <ele>92.904541</ele>
        <time>2011-01-23T07:57:33Z</time>
      </trkpt>
      <trkpt lat="43.71554" lon="4.8984">
        <ele>93.385132</ele>
        <time>2011-01-23T07:57:39Z</time>
      </trkpt>
      <trkpt lat="43.71559" lon="4.89827">
        <ele>91.462524</ele>
        <time>2011-01-23T07:57:47Z</time>
      </trkpt>
      <trkpt lat="43.71563" lon="4.89816">
        <ele>90.501343</ele>
        <time>2011-01-23T07:57:54Z</time>
      </trkpt>
      <trkpt lat="43.71563" lon="4.89801">
        <ele>90.02063</ele>
        <time>2011-01-23T07:58:03Z</time>
      </trkpt>
      <trkpt lat="43.71569" lon="4.89784">
        <ele>89.539917</ele>
        <time>2011-01-23T07:58:14Z</time>
      </trkpt>
      <trkpt lat="43.71572" lon="4.89771">
        <ele>87.136597</ele>
        <time>2011-01-23T07:58:22Z</time>
      </trkpt>
      <trkpt lat="43.71574" lon="4.89756">
        <ele>86.656006</ele>
        <time>2011-01-23T07:58:31Z</time>
      </trkpt>
      <trkpt lat="43.71576" lon="4.8975">
        <ele>86.656006</ele>
        <time>2011-01-23T07:58:36Z</time>
      </trkpt>
      <trkpt lat="43.71576" lon="4.89733">
        <ele>86.656006</ele>
        <time>2011-01-23T07:58:47Z</time>
      </trkpt>
      <trkpt lat="43.71578" lon="4.89724">
        <ele>87.136597</ele>
        <time>2011-01-23T07:58:52Z</time>
      </trkpt>
      <trkpt lat="43.7158" lon="4.89713">
        <ele>86.656006</ele>
        <time>2011-01-23T07:58:59Z</time>
      </trkpt>
      <trkpt lat="43.71582" lon="4.89711">
        <ele>86.175293</ele>
        <time>2011-01-23T07:59:01Z</time>
      </trkpt>
      <trkpt lat="43.71587" lon="4.89703">
        <ele>85.213989</ele>
        <time>2011-01-23T07:59:05Z</time>
      </trkpt>
      <trkpt lat="43.71589" lon="4.89698">
        <ele>84.733398</ele>
        <time>2011-01-23T07:59:08Z</time>
      </trkpt>
      <trkpt lat="43.71591" lon="4.8969">
        <ele>83.771973</ele>
        <time>2011-01-23T07:59:13Z</time>
      </trkpt>
      <trkpt lat="43.71602" lon="4.89673">
        <ele>83.291382</ele>
        <time>2011-01-23T07:59:26Z</time>
      </trkpt>
      <trkpt lat="43.71602" lon="4.89671">
        <ele>83.771973</ele>
        <time>2011-01-23T07:59:27Z</time>
      </trkpt>
      <trkpt lat="43.71602" lon="4.89656">
        <ele>87.136597</ele>
        <time>2011-01-23T07:59:37Z</time>
      </trkpt>
      <trkpt lat="43.71599" lon="4.89649">
        <ele>88.098022</ele>
        <time>2011-01-23T07:59:43Z</time>
      </trkpt>
      <trkpt lat="43.71597" lon="4.89643">
        <ele>89.539917</ele>
        <time>2011-01-23T07:59:48Z</time>
      </trkpt>
      <trkpt lat="43.71595" lon="4.89638">
        <ele>90.02063</ele>
        <time>2011-01-23T07:59:53Z</time>
      </trkpt>
      <trkpt lat="43.71587" lon="4.89632">
        <ele>89.539917</ele>
        <time>2011-01-23T08:00:05Z</time>
      </trkpt>
      <trkpt lat="43.7158" lon="4.89628">
        <ele>88.578735</ele>
        <time>2011-01-23T08:00:10Z</time>
      </trkpt>
      <trkpt lat="43.71572" lon="4.89623">
        <ele>89.059326</ele>
        <time>2011-01-23T08:00:21Z</time>
      </trkpt>
      <trkpt lat="43.71559" lon="4.89619">
        <ele>90.501343</ele>
        <time>2011-01-23T08:00:33Z</time>
      </trkpt>
      <trkpt lat="43.71554" lon="4.89617">
        <ele>91.462524</ele>
        <time>2011-01-23T08:00:37Z</time>
      </trkpt>
      <trkpt lat="43.71539" lon="4.89615">
        <ele>92.904541</ele>
        <time>2011-01-23T08:00:50Z</time>
      </trkpt>
      <trkpt lat="43.71535" lon="4.89613">
        <ele>92.904541</ele>
        <time>2011-01-23T08:00:54Z</time>
      </trkpt>
      <trkpt lat="43.71527" lon="4.896">
        <ele>92.42395</ele>
        <time>2011-01-23T08:01:05Z</time>
      </trkpt>
      <trkpt lat="43.71527" lon="4.89598">
        <ele>92.42395</ele>
        <time>2011-01-23T08:01:06Z</time>
      </trkpt>
      <trkpt lat="43.71524" lon="4.89578">
        <ele>93.865845</ele>
        <time>2011-01-23T08:01:18Z</time>
      </trkpt>
      <trkpt lat="43.71522" lon="4.89561">
        <ele>96.269287</ele>
        <time>2011-01-23T08:01:30Z</time>
      </trkpt>
      <trkpt lat="43.7152" lon="4.89546">
        <ele>99.153076</ele>
        <time>2011-01-23T08:01:40Z</time>
      </trkpt>
      <trkpt lat="43.71518" lon="4.89531">
        <ele>98.191895</ele>
        <time>2011-01-23T08:01:49Z</time>
      </trkpt>
      <trkpt lat="43.71507" lon="4.89518">
        <ele>99.153076</ele>
        <time>2011-01-23T08:02:02Z</time>
      </trkpt>
      <trkpt lat="43.71507" lon="4.89518">
        <ele>99.153076</ele>
        <time>2011-01-23T08:02:03Z</time>
      </trkpt>
      <trkpt lat="43.71503" lon="4.89512">
        <ele>99.153076</ele>
        <time>2011-01-23T08:02:07Z</time>
      </trkpt>
      <trkpt lat="43.71501" lon="4.8951">
        <ele>98.672485</ele>
        <time>2011-01-23T08:02:10Z</time>
      </trkpt>
      <trkpt lat="43.71494" lon="4.89495">
        <ele>97.711182</ele>
        <time>2011-01-23T08:02:21Z</time>
      </trkpt>
      <trkpt lat="43.71492" lon="4.89492">
        <ele>98.191895</ele>
        <time>2011-01-23T08:02:24Z</time>
      </trkpt>
      <trkpt lat="43.7149" lon="4.8949">
        <ele>97.711182</ele>
        <time>2011-01-23T08:02:26Z</time>
      </trkpt>
      <trkpt lat="43.7149" lon="4.89486">
        <ele>97.711182</ele>
        <time>2011-01-23T08:02:28Z</time>
      </trkpt>
      <trkpt lat="43.71492" lon="4.89469">
        <ele>99.153076</ele>
        <time>2011-01-23T08:02:38Z</time>
      </trkpt>
      <trkpt lat="43.71494" lon="4.89456">
        <ele>98.191895</ele>
        <time>2011-01-23T08:02:48Z</time>
      </trkpt>
      <trkpt lat="43.71499" lon="4.8945">
        <ele>92.904541</ele>
        <time>2011-01-23T08:03:22Z</time>
      </trkpt>
      <trkpt lat="43.71499" lon="4.8945">
        <ele>91.943237</ele>
        <time>2011-01-23T08:03:55Z</time>
      </trkpt>
      <trkpt lat="43.71501" lon="4.89435">
        <ele>91.943237</ele>
        <time>2011-01-23T08:04:06Z</time>
      </trkpt>
      <trkpt lat="43.71501" lon="4.89428">
        <ele>92.42395</ele>
        <time>2011-01-23T08:04:10Z</time>
      </trkpt>
      <trkpt lat="43.71503" lon="4.8942">
        <ele>92.904541</ele>
        <time>2011-01-23T08:04:15Z</time>
      </trkpt>
      <trkpt lat="43.71503" lon="4.89417">
        <ele>93.385132</ele>
        <time>2011-01-23T08:04:18Z</time>
      </trkpt>
      <trkpt lat="43.71503" lon="4.894">
        <ele>93.385132</ele>
        <time>2011-01-23T08:04:29Z</time>
      </trkpt>
      <trkpt lat="43.71507" lon="4.89381">
        <ele>91.462524</ele>
        <time>2011-01-23T08:04:40Z</time>
      </trkpt>
      <trkpt lat="43.71507" lon="4.89368">
        <ele>93.385132</ele>
        <time>2011-01-23T08:04:48Z</time>
      </trkpt>
      <trkpt lat="43.71509" lon="4.89349">
        <ele>95.307739</ele>
        <time>2011-01-23T08:05:01Z</time>
      </trkpt>
      <trkpt lat="43.71512" lon="4.89334">
        <ele>95.307739</ele>
        <time>2011-01-23T08:05:10Z</time>
      </trkpt>
      <trkpt lat="43.71516" lon="4.89314">
        <ele>95.307739</ele>
        <time>2011-01-23T08:05:21Z</time>
      </trkpt>
      <trkpt lat="43.7152" lon="4.89304">
        <ele>93.865845</ele>
        <time>2011-01-23T08:05:34Z</time>
      </trkpt>
      <trkpt lat="43.7152" lon="4.89284">
        <ele>97.230469</ele>
        <time>2011-01-23T08:05:59Z</time>
      </trkpt>
      <trkpt lat="43.7152" lon="4.89276">
        <ele>99.153076</ele>
        <time>2011-01-23T08:06:05Z</time>
      </trkpt>
      <trkpt lat="43.7152" lon="4.89261">
        <ele>99.633789</ele>
        <time>2011-01-23T08:06:14Z</time>
      </trkpt>
      <trkpt lat="43.71527" lon="4.89244">
        <ele>98.191895</ele>
        <time>2011-01-23T08:06:25Z</time>
      </trkpt>
      <trkpt lat="43.71527" lon="4.89239">
        <ele>98.191895</ele>
        <time>2011-01-23T08:06:27Z</time>
      </trkpt>
      <trkpt lat="43.71529" lon="4.8922">
        <ele>100.114502</ele>
        <time>2011-01-23T08:06:39Z</time>
      </trkpt>
      <trkpt lat="43.71529" lon="4.89203">
        <ele>100.114502</ele>
        <time>2011-01-23T08:06:49Z</time>
      </trkpt>
      <trkpt lat="43.71527" lon="4.89196">
        <ele>100.114502</ele>
        <time>2011-01-23T08:06:54Z</time>
      </trkpt>
      <trkpt lat="43.71527" lon="4.8919">
        <ele>99.153076</ele>
        <time>2011-01-23T08:06:57Z</time>
      </trkpt>
      <trkpt lat="43.71529" lon="4.89173">
        <ele>100.595093</ele>
        <time>2011-01-23T08:07:07Z</time>
      </trkpt>
      <trkpt lat="43.71529" lon="4.8916">
        <ele>102.037109</ele>
        <time>2011-01-23T08:07:15Z</time>
      </trkpt>
      <trkpt lat="43.71529" lon="4.89149">
        <ele>102.037109</ele>
        <time>2011-01-23T08:07:23Z</time>
      </trkpt>
      <trkpt lat="43.71529" lon="4.89132">
        <ele>101.556396</ele>
        <time>2011-01-23T08:07:33Z</time>
      </trkpt>
      <trkpt lat="43.71529" lon="4.89115">
        <ele>100.595093</ele>
        <time>2011-01-23T08:07:42Z</time>
      </trkpt>
      <trkpt lat="43.71529" lon="4.89108">
        <ele>100.114502</ele>
        <time>2011-01-23T08:07:45Z</time>
      </trkpt>
      <trkpt lat="43.71527" lon="4.89098">
        <ele>97.230469</ele>
        <time>2011-01-23T08:07:51Z</time>
      </trkpt>
      <trkpt lat="43.71527" lon="4.89083">
        <ele>95.307739</ele>
        <time>2011-01-23T08:07:59Z</time>
      </trkpt>
      <trkpt lat="43.71524" lon="4.89068">
        <ele>96.269287</ele>
        <time>2011-01-23T08:08:10Z</time>
      </trkpt>
      <trkpt lat="43.71524" lon="4.89055">
        <ele>97.230469</ele>
        <time>2011-01-23T08:08:17Z</time>
      </trkpt>
      <trkpt lat="43.71522" lon="4.89035">
        <ele>98.191895</ele>
        <time>2011-01-23T08:08:28Z</time>
      </trkpt>
      <trkpt lat="43.71518" lon="4.89018">
        <ele>97.711182</ele>
        <time>2011-01-23T08:08:39Z</time>
      </trkpt>
      <trkpt lat="43.71518" lon="4.89005">
        <ele>97.230469</ele>
        <time>2011-01-23T08:08:48Z</time>
      </trkpt>
      <trkpt lat="43.71518" lon="4.88997">
        <ele>97.230469</ele>
        <time>2011-01-23T08:08:54Z</time>
      </trkpt>
      <trkpt lat="43.7152" lon="4.88977">
        <ele>96.269287</ele>
        <time>2011-01-23T08:09:05Z</time>
      </trkpt>
      <trkpt lat="43.71524" lon="4.88958">
        <ele>98.191895</ele>
        <time>2011-01-23T08:09:17Z</time>
      </trkpt>
      <trkpt lat="43.71529" lon="4.88943">
        <ele>99.633789</ele>
        <time>2011-01-23T08:09:26Z</time>
      </trkpt>
      <trkpt lat="43.71529" lon="4.88926">
        <ele>100.595093</ele>
        <time>2011-01-23T08:09:38Z</time>
      </trkpt>
      <trkpt lat="43.71527" lon="4.88926">
        <ele>100.114502</ele>
        <time>2011-01-23T08:09:39Z</time>
      </trkpt>
      <trkpt lat="43.71527" lon="4.88913">
        <ele>99.633789</ele>
        <time>2011-01-23T08:09:47Z</time>
      </trkpt>
      <trkpt lat="43.71524" lon="4.88907">
        <ele>99.633789</ele>
        <time>2011-01-23T08:09:52Z</time>
      </trkpt>
      <trkpt lat="43.7152" lon="4.8889">
        <ele>98.672485</ele>
        <time>2011-01-23T08:10:03Z</time>
      </trkpt>
      <trkpt lat="43.71518" lon="4.88881">
        <ele>98.191895</ele>
        <time>2011-01-23T08:10:07Z</time>
      </trkpt>
      <trkpt lat="43.71516" lon="4.88859">
        <ele>98.191895</ele>
        <time>2011-01-23T08:10:19Z</time>
      </trkpt>
      <trkpt lat="43.71514" lon="4.88844">
        <ele>96.749878</ele>
        <time>2011-01-23T08:10:29Z</time>
      </trkpt>
      <trkpt lat="43.71512" lon="4.88827">
        <ele>98.191895</ele>
        <time>2011-01-23T08:10:40Z</time>
      </trkpt>
      <trkpt lat="43.71509" lon="4.88799">
        <ele>97.711182</ele>
        <time>2011-01-23T08:10:54Z</time>
      </trkpt>
      <trkpt lat="43.71509" lon="4.88784">
        <ele>96.269287</ele>
        <time>2011-01-23T08:11:03Z</time>
      </trkpt>
      <trkpt lat="43.71507" lon="4.88769">
        <ele>98.191895</ele>
        <time>2011-01-23T08:11:13Z</time>
      </trkpt>
      <trkpt lat="43.71507" lon="4.88763">
        <ele>98.672485</ele>
        <time>2011-01-23T08:11:17Z</time>
      </trkpt>
      <trkpt lat="43.71499" lon="4.88748">
        <ele>98.191895</ele>
        <time>2011-01-23T08:11:29Z</time>
      </trkpt>
      <trkpt lat="43.71492" lon="4.88733">
        <ele>95.788452</ele>
        <time>2011-01-23T08:11:41Z</time>
      </trkpt>
      <trkpt lat="43.71488" lon="4.88724">
        <ele>94.346558</ele>
        <time>2011-01-23T08:11:46Z</time>
      </trkpt>
      <trkpt lat="43.71484" lon="4.88718">
        <ele>92.42395</ele>
        <time>2011-01-23T08:11:52Z</time>
      </trkpt>
      <trkpt lat="43.71481" lon="4.88716">
        <ele>90.981934</ele>
        <time>2011-01-23T08:11:56Z</time>
      </trkpt>
      <trkpt lat="43.71471" lon="4.88707">
        <ele>88.578735</ele>
        <time>2011-01-23T08:12:07Z</time>
      </trkpt>
      <trkpt lat="43.71464" lon="4.88701">
        <ele>88.098022</ele>
        <time>2011-01-23T08:12:14Z</time>
      </trkpt>
      <trkpt lat="43.71458" lon="4.88696">
        <ele>88.098022</ele>
        <time>2011-01-23T08:12:20Z</time>
      </trkpt>
      <trkpt lat="43.71454" lon="4.88692">
        <ele>87.617188</ele>
        <time>2011-01-23T08:12:24Z</time>
      </trkpt>
      <trkpt lat="43.71443" lon="4.88688">
        <ele>89.059326</ele>
        <time>2011-01-23T08:12:35Z</time>
      </trkpt>
      <trkpt lat="43.71434" lon="4.88684">
        <ele>90.02063</ele>
        <time>2011-01-23T08:12:45Z</time>
      </trkpt>
      <trkpt lat="43.71426" lon="4.88679">
        <ele>89.539917</ele>
        <time>2011-01-23T08:12:54Z</time>
      </trkpt>
      <trkpt lat="43.71424" lon="4.88673">
        <ele>89.539917</ele>
        <time>2011-01-23T08:12:58Z</time>
      </trkpt>
      <trkpt lat="43.71424" lon="4.88668">
        <ele>88.098022</ele>
        <time>2011-01-23T08:13:03Z</time>
      </trkpt>
      <trkpt lat="43.71424" lon="4.88664">
        <ele>87.617188</ele>
        <time>2011-01-23T08:13:07Z</time>
      </trkpt>
      <trkpt lat="43.71421" lon="4.88656">
        <ele>87.136597</ele>
        <time>2011-01-23T08:13:19Z</time>
      </trkpt>
      <trkpt lat="43.71419" lon="4.88634">
        <ele>85.213989</ele>
        <time>2011-01-23T08:13:33Z</time>
      </trkpt>
      <trkpt lat="43.71421" lon="4.88617">
        <ele>84.252686</ele>
        <time>2011-01-23T08:13:45Z</time>
      </trkpt>
      <trkpt lat="43.71424" lon="4.88613">
        <ele>83.771973</ele>
        <time>2011-01-23T08:13:48Z</time>
      </trkpt>
      <trkpt lat="43.71426" lon="4.88611">
        <ele>83.291382</ele>
        <time>2011-01-23T08:13:51Z</time>
      </trkpt>
      <trkpt lat="43.7143" lon="4.88598">
        <ele>80.407471</ele>
        <time>2011-01-23T08:14:02Z</time>
      </trkpt>
      <trkpt lat="43.7143" lon="4.88587">
        <ele>82.810791</ele>
        <time>2011-01-23T08:14:10Z</time>
      </trkpt>
      <trkpt lat="43.71424" lon="4.88578">
        <ele>83.771973</ele>
        <time>2011-01-23T08:14:20Z</time>
      </trkpt>
      <trkpt lat="43.71413" lon="4.88568">
        <ele>84.733398</ele>
        <time>2011-01-23T08:14:32Z</time>
      </trkpt>
      <trkpt lat="43.71413" lon="4.88568">
        <ele>84.733398</ele>
        <time>2011-01-23T08:14:34Z</time>
      </trkpt>
      <trkpt lat="43.71411" lon="4.88565">
        <ele>84.733398</ele>
        <time>2011-01-23T08:14:37Z</time>
      </trkpt>
      <trkpt lat="43.71398" lon="4.88561">
        <ele>83.771973</ele>
        <time>2011-01-23T08:14:47Z</time>
      </trkpt>
      <trkpt lat="43.71385" lon="4.88555">
        <ele>82.330078</ele>
        <time>2011-01-23T08:14:59Z</time>
      </trkpt>
      <trkpt lat="43.7137" lon="4.88553">
        <ele>82.810791</ele>
        <time>2011-01-23T08:15:11Z</time>
      </trkpt>
      <trkpt lat="43.71359" lon="4.88542">
        <ele>82.330078</ele>
        <time>2011-01-23T08:15:23Z</time>
      </trkpt>
      <trkpt lat="43.71346" lon="4.88527">
        <ele>79.926636</ele>
        <time>2011-01-23T08:15:37Z</time>
      </trkpt>
      <trkpt lat="43.71333" lon="4.8851">
        <ele>79.446045</ele>
        <time>2011-01-23T08:15:52Z</time>
      </trkpt>
      <trkpt lat="43.71323" lon="4.88493">
        <ele>79.446045</ele>
        <time>2011-01-23T08:16:06Z</time>
      </trkpt>
      <trkpt lat="43.71314" lon="4.88478">
        <ele>79.446045</ele>
        <time>2011-01-23T08:16:19Z</time>
      </trkpt>
      <trkpt lat="43.71312" lon="4.88475">
        <ele>79.446045</ele>
        <time>2011-01-23T08:16:21Z</time>
      </trkpt>
      <trkpt lat="43.71301" lon="4.88465">
        <ele>78.965454</ele>
        <time>2011-01-23T08:16:31Z</time>
      </trkpt>
      <trkpt lat="43.71299" lon="4.88462">
        <ele>79.446045</ele>
        <time>2011-01-23T08:16:33Z</time>
      </trkpt>
      <trkpt lat="43.7129" lon="4.88447">
        <ele>80.888184</ele>
        <time>2011-01-23T08:16:45Z</time>
      </trkpt>
      <trkpt lat="43.71282" lon="4.88439">
        <ele>81.849365</ele>
        <time>2011-01-23T08:16:54Z</time>
      </trkpt>
      <trkpt lat="43.7128" lon="4.88437">
        <ele>81.368774</ele>
        <time>2011-01-23T08:16:58Z</time>
      </trkpt>
      <trkpt lat="43.71278" lon="4.88428">
        <ele>78.965454</ele>
        <time>2011-01-23T08:17:10Z</time>
      </trkpt>
      <trkpt lat="43.71275" lon="4.88426">
        <ele>78.484741</ele>
        <time>2011-01-23T08:17:11Z</time>
      </trkpt>
      <trkpt lat="43.71263" lon="4.88413">
        <ele>76.562134</ele>
        <time>2011-01-23T08:17:23Z</time>
      </trkpt>
      <trkpt lat="43.71258" lon="4.88411">
        <ele>76.562134</ele>
        <time>2011-01-23T08:17:27Z</time>
      </trkpt>
      <trkpt lat="43.71254" lon="4.88407">
        <ele>76.081421</ele>
        <time>2011-01-23T08:17:31Z</time>
      </trkpt>
      <trkpt lat="43.71252" lon="4.88407">
        <ele>75.60083</ele>
        <time>2011-01-23T08:17:34Z</time>
      </trkpt>
      <trkpt lat="43.71252" lon="4.88407">
        <ele>75.120239</ele>
        <time>2011-01-23T08:17:36Z</time>
      </trkpt>
      <trkpt lat="43.71252" lon="4.88409">
        <ele>72.716919</ele>
        <time>2011-01-23T08:17:40Z</time>
      </trkpt>
      <trkpt lat="43.7125" lon="4.8842">
        <ele>72.716919</ele>
        <time>2011-01-23T08:17:47Z</time>
      </trkpt>
      <trkpt lat="43.71252" lon="4.88422">
        <ele>72.236206</ele>
        <time>2011-01-23T08:17:49Z</time>
      </trkpt>
      <trkpt lat="43.71252" lon="4.88441">
        <ele>72.236206</ele>
        <time>2011-01-23T08:18:02Z</time>
      </trkpt>
      <trkpt lat="43.7125" lon="4.88454">
        <ele>73.197632</ele>
        <time>2011-01-23T08:18:10Z</time>
      </trkpt>
      <trkpt lat="43.71245" lon="4.88475">
        <ele>74.158813</ele>
        <time>2011-01-23T08:18:23Z</time>
      </trkpt>
      <trkpt lat="43.71241" lon="4.88486">
        <ele>74.158813</ele>
        <time>2011-01-23T08:18:30Z</time>
      </trkpt>
      <trkpt lat="43.71239" lon="4.88493">
        <ele>74.158813</ele>
        <time>2011-01-23T08:18:35Z</time>
      </trkpt>
      <trkpt lat="43.71239" lon="4.88497">
        <ele>74.158813</ele>
        <time>2011-01-23T08:18:37Z</time>
      </trkpt>
      <trkpt lat="43.71237" lon="4.88505">
        <ele>74.158813</ele>
        <time>2011-01-23T08:18:42Z</time>
      </trkpt>
      <trkpt lat="43.71235" lon="4.88512">
        <ele>74.639526</ele>
        <time>2011-01-23T08:18:46Z</time>
      </trkpt>
      <trkpt lat="43.71233" lon="4.88531">
        <ele>73.197632</ele>
        <time>2011-01-23T08:18:59Z</time>
      </trkpt>
      <trkpt lat="43.7123" lon="4.88535">
        <ele>73.197632</ele>
        <time>2011-01-23T08:19:01Z</time>
      </trkpt>
      <trkpt lat="43.71226" lon="4.88548">
        <ele>74.158813</ele>
        <time>2011-01-23T08:19:10Z</time>
      </trkpt>
      <trkpt lat="43.71222" lon="4.88563">
        <ele>75.60083</ele>
        <time>2011-01-23T08:19:19Z</time>
      </trkpt>
      <trkpt lat="43.71222" lon="4.88568">
        <ele>75.60083</ele>
        <time>2011-01-23T08:19:21Z</time>
      </trkpt>
      <trkpt lat="43.71213" lon="4.88587">
        <ele>76.562134</ele>
        <time>2011-01-23T08:19:33Z</time>
      </trkpt>
      <trkpt lat="43.71209" lon="4.88593">
        <ele>75.60083</ele>
        <time>2011-01-23T08:19:39Z</time>
      </trkpt>
      <trkpt lat="43.71194" lon="4.886">
        <ele>74.639526</ele>
        <time>2011-01-23T08:19:50Z</time>
      </trkpt>
      <trkpt lat="43.71179" lon="4.88608">
        <ele>75.120239</ele>
        <time>2011-01-23T08:20:00Z</time>
      </trkpt>
      <trkpt lat="43.71162" lon="4.88619">
        <ele>76.562134</ele>
        <time>2011-01-23T08:20:14Z</time>
      </trkpt>
      <trkpt lat="43.71147" lon="4.8863">
        <ele>75.120239</ele>
        <time>2011-01-23T08:20:27Z</time>
      </trkpt>
      <trkpt lat="43.71138" lon="4.88636">
        <ele>74.158813</ele>
        <time>2011-01-23T08:20:35Z</time>
      </trkpt>
      <trkpt lat="43.71136" lon="4.88641">
        <ele>74.639526</ele>
        <time>2011-01-23T08:20:39Z</time>
      </trkpt>
      <trkpt lat="43.71127" lon="4.88649">
        <ele>77.042847</ele>
        <time>2011-01-23T08:20:48Z</time>
      </trkpt>
      <trkpt lat="43.71119" lon="4.88656">
        <ele>78.965454</ele>
        <time>2011-01-23T08:20:55Z</time>
      </trkpt>
      <trkpt lat="43.71108" lon="4.88651">
        <ele>80.407471</ele>
        <time>2011-01-23T08:21:03Z</time>
      </trkpt>
      <trkpt lat="43.71097" lon="4.88647">
        <ele>79.446045</ele>
        <time>2011-01-23T08:21:08Z</time>
      </trkpt>
      <trkpt lat="43.71095" lon="4.88645">
        <ele>79.926636</ele>
        <time>2011-01-23T08:21:11Z</time>
      </trkpt>
      <trkpt lat="43.71082" lon="4.88638">
        <ele>78.965454</ele>
        <time>2011-01-23T08:21:17Z</time>
      </trkpt>
      <trkpt lat="43.71076" lon="4.88634">
        <ele>77.523438</ele>
        <time>2011-01-23T08:21:21Z</time>
      </trkpt>
      <trkpt lat="43.71065" lon="4.88626">
        <ele>78.004028</ele>
        <time>2011-01-23T08:21:33Z</time>
      </trkpt>
      <trkpt lat="43.71061" lon="4.88623">
        <ele>78.484741</ele>
        <time>2011-01-23T08:21:36Z</time>
      </trkpt>
      <trkpt lat="43.7105" lon="4.88615">
        <ele>78.004028</ele>
        <time>2011-01-23T08:21:49Z</time>
      </trkpt>
      <trkpt lat="43.71044" lon="4.88615">
        <ele>77.523438</ele>
        <time>2011-01-23T08:21:53Z</time>
      </trkpt>
      <trkpt lat="43.71042" lon="4.88613">
        <ele>77.523438</ele>
        <time>2011-01-23T08:21:54Z</time>
      </trkpt>
      <trkpt lat="43.71029" lon="4.88602">
        <ele>73.678223</ele>
        <time>2011-01-23T08:22:05Z</time>
      </trkpt>
      <trkpt lat="43.71024" lon="4.88598">
        <ele>72.716919</ele>
        <time>2011-01-23T08:22:09Z</time>
      </trkpt>
      <trkpt lat="43.71022" lon="4.88593">
        <ele>71.755493</ele>
        <time>2011-01-23T08:22:13Z</time>
      </trkpt>
      <trkpt lat="43.71014" lon="4.88583">
        <ele>70.794189</ele>
        <time>2011-01-23T08:22:22Z</time>
      </trkpt>
      <trkpt lat="43.71001" lon="4.8857">
        <ele>71.755493</ele>
        <time>2011-01-23T08:22:35Z</time>
      </trkpt>
      <trkpt lat="43.70999" lon="4.8857">
        <ele>71.755493</ele>
        <time>2011-01-23T08:22:36Z</time>
      </trkpt>
      <trkpt lat="43.70994" lon="4.88563">
        <ele>71.755493</ele>
        <time>2011-01-23T08:22:41Z</time>
      </trkpt>
      <trkpt lat="43.70988" lon="4.88559">
        <ele>70.794189</ele>
        <time>2011-01-23T08:22:47Z</time>
      </trkpt>
      <trkpt lat="43.70982" lon="4.8855">
        <ele>69.352295</ele>
        <time>2011-01-23T08:22:53Z</time>
      </trkpt>
      <trkpt lat="43.70975" lon="4.88544">
        <ele>68.390869</ele>
        <time>2011-01-23T08:22:59Z</time>
      </trkpt>
      <trkpt lat="43.70966" lon="4.88531">
        <ele>65.987671</ele>
        <time>2011-01-23T08:23:11Z</time>
      </trkpt>
      <trkpt lat="43.70962" lon="4.88527">
        <ele>65.50708</ele>
        <time>2011-01-23T08:23:16Z</time>
      </trkpt>
      <trkpt lat="43.7096" lon="4.88525">
        <ele>65.50708</ele>
        <time>2011-01-23T08:23:17Z</time>
      </trkpt>
      <trkpt lat="43.70951" lon="4.88516">
        <ele>66.948975</ele>
        <time>2011-01-23T08:23:27Z</time>
      </trkpt>
      <trkpt lat="43.70941" lon="4.88501">
        <ele>60.700317</ele>
        <time>2011-01-23T08:23:40Z</time>
      </trkpt>
      <trkpt lat="43.70932" lon="4.88493">
        <ele>58.77771</ele>
        <time>2011-01-23T08:23:48Z</time>
      </trkpt>
      <trkpt lat="43.70928" lon="4.88486">
        <ele>57.335815</ele>
        <time>2011-01-23T08:23:53Z</time>
      </trkpt>
      <trkpt lat="43.70926" lon="4.88482">
        <ele>56.374512</ele>
        <time>2011-01-23T08:23:57Z</time>
      </trkpt>
      <trkpt lat="43.70924" lon="4.8848">
        <ele>55.893799</ele>
        <time>2011-01-23T08:23:59Z</time>
      </trkpt>
      <trkpt lat="43.70921" lon="4.88478">
        <ele>55.893799</ele>
        <time>2011-01-23T08:24:01Z</time>
      </trkpt>
      <trkpt lat="43.70911" lon="4.88467">
        <ele>55.413086</ele>
        <time>2011-01-23T08:24:13Z</time>
      </trkpt>
      <trkpt lat="43.70909" lon="4.88465">
        <ele>55.413086</ele>
        <time>2011-01-23T08:24:14Z</time>
      </trkpt>
      <trkpt lat="43.709" lon="4.88462">
        <ele>56.855103</ele>
        <time>2011-01-23T08:24:21Z</time>
      </trkpt>
      <trkpt lat="43.70894" lon="4.88456">
        <ele>58.297119</ele>
        <time>2011-01-23T08:24:27Z</time>
      </trkpt>
      <trkpt lat="43.70887" lon="4.88447">
        <ele>58.297119</ele>
        <time>2011-01-23T08:24:34Z</time>
      </trkpt>
      <trkpt lat="43.70879" lon="4.88435">
        <ele>59.739136</ele>
        <time>2011-01-23T08:24:46Z</time>
      </trkpt>
      <trkpt lat="43.70874" lon="4.88428">
        <ele>62.142334</ele>
        <time>2011-01-23T08:24:54Z</time>
      </trkpt>
      <trkpt lat="43.70861" lon="4.88415">
        <ele>65.987671</ele>
        <time>2011-01-23T08:25:07Z</time>
      </trkpt>
      <trkpt lat="43.70855" lon="4.88411">
        <ele>68.390869</ele>
        <time>2011-01-23T08:25:13Z</time>
      </trkpt>
      <trkpt lat="43.70838" lon="4.884">
        <ele>69.832886</ele>
        <time>2011-01-23T08:25:22Z</time>
      </trkpt>
      <trkpt lat="43.70829" lon="4.8839">
        <ele>68.390869</ele>
        <time>2011-01-23T08:25:30Z</time>
      </trkpt>
      <trkpt lat="43.70823" lon="4.88379">
        <ele>66.948975</ele>
        <time>2011-01-23T08:25:41Z</time>
      </trkpt>
      <trkpt lat="43.70821" lon="4.88377">
        <ele>66.468262</ele>
        <time>2011-01-23T08:25:43Z</time>
      </trkpt>
      <trkpt lat="43.70816" lon="4.88372">
        <ele>65.50708</ele>
        <time>2011-01-23T08:25:49Z</time>
      </trkpt>
      <trkpt lat="43.70808" lon="4.8836">
        <ele>65.026367</ele>
        <time>2011-01-23T08:26:00Z</time>
      </trkpt>
      <trkpt lat="43.70803" lon="4.88355">
        <ele>65.026367</ele>
        <time>2011-01-23T08:26:05Z</time>
      </trkpt>
      <trkpt lat="43.70793" lon="4.88342">
        <ele>66.468262</ele>
        <time>2011-01-23T08:26:16Z</time>
      </trkpt>
      <trkpt lat="43.70786" lon="4.88336">
        <ele>67.429688</ele>
        <time>2011-01-23T08:26:22Z</time>
      </trkpt>
      <trkpt lat="43.70782" lon="4.88325">
        <ele>68.390869</ele>
        <time>2011-01-23T08:26:29Z</time>
      </trkpt>
      <trkpt lat="43.70784" lon="4.88323">
        <ele>67.429688</ele>
        <time>2011-01-23T08:26:36Z</time>
      </trkpt>
      <trkpt lat="43.70784" lon="4.88312">
        <ele>63.103638</ele>
        <time>2011-01-23T08:26:48Z</time>
      </trkpt>
      <trkpt lat="43.7078" lon="4.88299">
        <ele>62.142334</ele>
        <time>2011-01-23T08:26:56Z</time>
      </trkpt>
      <trkpt lat="43.70778" lon="4.88293">
        <ele>62.622925</ele>
        <time>2011-01-23T08:26:59Z</time>
      </trkpt>
      <trkpt lat="43.70778" lon="4.88291">
        <ele>62.622925</ele>
        <time>2011-01-23T08:27:01Z</time>
      </trkpt>
      <trkpt lat="43.70773" lon="4.88274">
        <ele>63.584351</ele>
        <time>2011-01-23T08:27:11Z</time>
      </trkpt>
      <trkpt lat="43.70771" lon="4.88259">
        <ele>66.468262</ele>
        <time>2011-01-23T08:27:22Z</time>
      </trkpt>
      <trkpt lat="43.70771" lon="4.8825">
        <ele>66.468262</ele>
        <time>2011-01-23T08:27:28Z</time>
      </trkpt>
      <trkpt lat="43.70771" lon="4.88231">
        <ele>66.468262</ele>
        <time>2011-01-23T08:27:39Z</time>
      </trkpt>
      <trkpt lat="43.70771" lon="4.88216">
        <ele>65.50708</ele>
        <time>2011-01-23T08:27:47Z</time>
      </trkpt>
      <trkpt lat="43.70769" lon="4.88214">
        <ele>65.026367</ele>
        <time>2011-01-23T08:27:49Z</time>
      </trkpt>
      <trkpt lat="43.70771" lon="4.88196">
        <ele>65.026367</ele>
        <time>2011-01-23T08:27:57Z</time>
      </trkpt>
      <trkpt lat="43.70769" lon="4.88192">
        <ele>65.50708</ele>
        <time>2011-01-23T08:28:00Z</time>
      </trkpt>
      <trkpt lat="43.70769" lon="4.88173">
        <ele>63.103638</ele>
        <time>2011-01-23T08:28:11Z</time>
      </trkpt>
      <trkpt lat="43.70769" lon="4.88164">
        <ele>62.142334</ele>
        <time>2011-01-23T08:28:16Z</time>
      </trkpt>
      <trkpt lat="43.70771" lon="4.88138">
        <ele>62.622925</ele>
        <time>2011-01-23T08:28:31Z</time>
      </trkpt>
      <trkpt lat="43.70771" lon="4.8813">
        <ele>61.661743</ele>
        <time>2011-01-23T08:28:36Z</time>
      </trkpt>
      <trkpt lat="43.70769" lon="4.88113">
        <ele>63.584351</ele>
        <time>2011-01-23T08:28:45Z</time>
      </trkpt>
      <trkpt lat="43.70767" lon="4.881">
        <ele>64.545654</ele>
        <time>2011-01-23T08:28:53Z</time>
      </trkpt>
      <trkpt lat="43.70767" lon="4.88081">
        <ele>63.584351</ele>
        <time>2011-01-23T08:29:04Z</time>
      </trkpt>
      <trkpt lat="43.70767" lon="4.88081">
        <ele>63.584351</ele>
        <time>2011-01-23T08:29:05Z</time>
      </trkpt>
      <trkpt lat="43.70769" lon="4.88066">
        <ele>62.622925</ele>
        <time>2011-01-23T08:29:14Z</time>
      </trkpt>
      <trkpt lat="43.70769" lon="4.8804">
        <ele>62.622925</ele>
        <time>2011-01-23T08:29:28Z</time>
      </trkpt>
      <trkpt lat="43.70767" lon="4.8802">
        <ele>63.584351</ele>
        <time>2011-01-23T08:29:39Z</time>
      </trkpt>
      <trkpt lat="43.70767" lon="4.88001">
        <ele>63.584351</ele>
        <time>2011-01-23T08:29:49Z</time>
      </trkpt>
      <trkpt lat="43.70767" lon="4.87984">
        <ele>64.545654</ele>
        <time>2011-01-23T08:30:00Z</time>
      </trkpt>
      <trkpt lat="43.70769" lon="4.87969">
        <ele>63.103638</ele>
        <time>2011-01-23T08:30:11Z</time>
      </trkpt>
      <trkpt lat="43.70771" lon="4.87954">
        <ele>63.103638</ele>
        <time>2011-01-23T08:30:20Z</time>
      </trkpt>
      <trkpt lat="43.70771" lon="4.87935">
        <ele>63.103638</ele>
        <time>2011-01-23T08:30:30Z</time>
      </trkpt>
      <trkpt lat="43.70773" lon="4.87915">
        <ele>63.584351</ele>
        <time>2011-01-23T08:30:41Z</time>
      </trkpt>
      <trkpt lat="43.70776" lon="4.879">
        <ele>62.622925</ele>
        <time>2011-01-23T08:30:49Z</time>
      </trkpt>
      <trkpt lat="43.70778" lon="4.87887">
        <ele>62.622925</ele>
        <time>2011-01-23T08:31:02Z</time>
      </trkpt>
      <trkpt lat="43.7078" lon="4.87881">
        <ele>63.103638</ele>
        <time>2011-01-23T08:31:07Z</time>
      </trkpt>
      <trkpt lat="43.70778" lon="4.87868">
        <ele>64.065063</ele>
        <time>2011-01-23T08:31:15Z</time>
      </trkpt>
      <trkpt lat="43.70776" lon="4.87855">
        <ele>66.948975</ele>
        <time>2011-01-23T08:31:22Z</time>
      </trkpt>
      <trkpt lat="43.70776" lon="4.87855">
        <ele>66.948975</ele>
        <time>2011-01-23T08:31:23Z</time>
      </trkpt>
      <trkpt lat="43.70773" lon="4.87845">
        <ele>67.429688</ele>
        <time>2011-01-23T08:31:30Z</time>
      </trkpt>
      <trkpt lat="43.70773" lon="4.87829">
        <ele>68.871582</ele>
        <time>2011-01-23T08:31:38Z</time>
      </trkpt>
      <trkpt lat="43.70773" lon="4.87827">
        <ele>68.390869</ele>
        <time>2011-01-23T08:31:39Z</time>
      </trkpt>
      <trkpt lat="43.70771" lon="4.87823">
        <ele>67.910278</ele>
        <time>2011-01-23T08:31:43Z</time>
      </trkpt>
      <trkpt lat="43.70771" lon="4.87812">
        <ele>68.390869</ele>
        <time>2011-01-23T08:31:50Z</time>
      </trkpt>
      <trkpt lat="43.70769" lon="4.87797">
        <ele>71.274902</ele>
        <time>2011-01-23T08:31:59Z</time>
      </trkpt>
      <trkpt lat="43.70771" lon="4.87778">
        <ele>68.871582</ele>
        <time>2011-01-23T08:32:09Z</time>
      </trkpt>
      <trkpt lat="43.70769" lon="4.87761">
        <ele>65.987671</ele>
        <time>2011-01-23T08:32:18Z</time>
      </trkpt>
      <trkpt lat="43.70769" lon="4.87742">
        <ele>66.468262</ele>
        <time>2011-01-23T08:32:27Z</time>
      </trkpt>
      <trkpt lat="43.70771" lon="4.87718">
        <ele>61.18103</ele>
        <time>2011-01-23T08:32:39Z</time>
      </trkpt>
      <trkpt lat="43.70773" lon="4.87696">
        <ele>57.335815</ele>
        <time>2011-01-23T08:32:51Z</time>
      </trkpt>
      <trkpt lat="43.70773" lon="4.87694">
        <ele>56.855103</ele>
        <time>2011-01-23T08:32:52Z</time>
      </trkpt>
      <trkpt lat="43.70771" lon="4.87673">
        <ele>55.413086</ele>
        <time>2011-01-23T08:33:04Z</time>
      </trkpt>
      <trkpt lat="43.70771" lon="4.87664">
        <ele>55.413086</ele>
        <time>2011-01-23T08:33:09Z</time>
      </trkpt>
      <trkpt lat="43.70769" lon="4.87647">
        <ele>56.855103</ele>
        <time>2011-01-23T08:33:19Z</time>
      </trkpt>
      <trkpt lat="43.70767" lon="4.87639">
        <ele>56.855103</ele>
        <time>2011-01-23T08:33:24Z</time>
      </trkpt>
      <trkpt lat="43.70767" lon="4.87632">
        <ele>56.855103</ele>
        <time>2011-01-23T08:33:28Z</time>
      </trkpt>
      <trkpt lat="43.70765" lon="4.8763">
        <ele>57.335815</ele>
        <time>2011-01-23T08:33:30Z</time>
      </trkpt>
      <trkpt lat="43.70763" lon="4.87615">
        <ele>56.855103</ele>
        <time>2011-01-23T08:33:39Z</time>
      </trkpt>
      <trkpt lat="43.70763" lon="4.87591">
        <ele>54.932373</ele>
        <time>2011-01-23T08:33:51Z</time>
      </trkpt>
      <trkpt lat="43.70763" lon="4.87581">
        <ele>54.451782</ele>
        <time>2011-01-23T08:33:57Z</time>
      </trkpt>
      <trkpt lat="43.70763" lon="4.87561">
        <ele>54.932373</ele>
        <time>2011-01-23T08:34:08Z</time>
      </trkpt>
      <trkpt lat="43.70763" lon="4.87538">
        <ele>52.529175</ele>
        <time>2011-01-23T08:34:22Z</time>
      </trkpt>
      <trkpt lat="43.7076" lon="4.87518">
        <ele>50.606567</ele>
        <time>2011-01-23T08:34:33Z</time>
      </trkpt>
      <trkpt lat="43.7076" lon="4.87505">
        <ele>51.087158</ele>
        <time>2011-01-23T08:34:41Z</time>
      </trkpt>
      <trkpt lat="43.7076" lon="4.87497">
        <ele>50.606567</ele>
        <time>2011-01-23T08:34:45Z</time>
      </trkpt>
      <trkpt lat="43.7076" lon="4.87495">
        <ele>50.606567</ele>
        <time>2011-01-23T08:34:46Z</time>
      </trkpt>
      <trkpt lat="43.7076" lon="4.8748">
        <ele>49.645264</ele>
        <time>2011-01-23T08:34:55Z</time>
      </trkpt>
      <trkpt lat="43.7076" lon="4.87467">
        <ele>50.125977</ele>
        <time>2011-01-23T08:35:02Z</time>
      </trkpt>
      <trkpt lat="43.70765" lon="4.87448">
        <ele>50.125977</ele>
        <time>2011-01-23T08:35:13Z</time>
      </trkpt>
      <trkpt lat="43.70765" lon="4.87433">
        <ele>49.164551</ele>
        <time>2011-01-23T08:35:22Z</time>
      </trkpt>
      <trkpt lat="43.70769" lon="4.87415">
        <ele>48.68396</ele>
        <time>2011-01-23T08:35:33Z</time>
      </trkpt>
      <trkpt lat="43.70776" lon="4.874">
        <ele>49.164551</ele>
        <time>2011-01-23T08:35:43Z</time>
      </trkpt>
      <trkpt lat="43.7078" lon="4.87383">
        <ele>51.567871</ele>
        <time>2011-01-23T08:35:54Z</time>
      </trkpt>
      <trkpt lat="43.70782" lon="4.87375">
        <ele>49.645264</ele>
        <time>2011-01-23T08:35:59Z</time>
      </trkpt>
      <trkpt lat="43.70784" lon="4.87364">
        <ele>47.241821</ele>
        <time>2011-01-23T08:36:07Z</time>
      </trkpt>
      <trkpt lat="43.70786" lon="4.87353">
        <ele>48.68396</ele>
        <time>2011-01-23T08:36:13Z</time>
      </trkpt>
      <trkpt lat="43.70788" lon="4.8734">
        <ele>52.048584</ele>
        <time>2011-01-23T08:36:23Z</time>
      </trkpt>
      <trkpt lat="43.70791" lon="4.87321">
        <ele>53.009766</ele>
        <time>2011-01-23T08:36:34Z</time>
      </trkpt>
      <trkpt lat="43.70793" lon="4.8731">
        <ele>53.971191</ele>
        <time>2011-01-23T08:36:42Z</time>
      </trkpt>
      <trkpt lat="43.70797" lon="4.87287">
        <ele>51.567871</ele>
        <time>2011-01-23T08:36:54Z</time>
      </trkpt>
      <trkpt lat="43.70803" lon="4.87263">
        <ele>51.567871</ele>
        <time>2011-01-23T08:37:10Z</time>
      </trkpt>
      <trkpt lat="43.70808" lon="4.87248">
        <ele>53.009766</ele>
        <time>2011-01-23T08:37:19Z</time>
      </trkpt>
      <trkpt lat="43.70808" lon="4.87242">
        <ele>53.490479</ele>
        <time>2011-01-23T08:37:22Z</time>
      </trkpt>
      <trkpt lat="43.70812" lon="4.87229">
        <ele>54.932373</ele>
        <time>2011-01-23T08:37:32Z</time>
      </trkpt>
      <trkpt lat="43.70812" lon="4.87224">
        <ele>54.932373</ele>
        <time>2011-01-23T08:37:35Z</time>
      </trkpt>
      <trkpt lat="43.70814" lon="4.87216">
        <ele>53.971191</ele>
        <time>2011-01-23T08:37:44Z</time>
      </trkpt>
      <trkpt lat="43.70818" lon="4.87201">
        <ele>53.009766</ele>
        <time>2011-01-23T08:37:54Z</time>
      </trkpt>
      <trkpt lat="43.70818" lon="4.87196">
        <ele>53.490479</ele>
        <time>2011-01-23T08:37:57Z</time>
      </trkpt>
      <trkpt lat="43.70821" lon="4.87177">
        <ele>54.932373</ele>
        <time>2011-01-23T08:38:10Z</time>
      </trkpt>
      <trkpt lat="43.70825" lon="4.87158">
        <ele>56.855103</ele>
        <time>2011-01-23T08:38:22Z</time>
      </trkpt>
      <trkpt lat="43.70827" lon="4.87151">
        <ele>55.893799</ele>
        <time>2011-01-23T08:38:27Z</time>
      </trkpt>
      <trkpt lat="43.70827" lon="4.87141">
        <ele>55.413086</ele>
        <time>2011-01-23T08:38:33Z</time>
      </trkpt>
      <trkpt lat="43.70829" lon="4.87134">
        <ele>54.451782</ele>
        <time>2011-01-23T08:38:40Z</time>
      </trkpt>
      <trkpt lat="43.70829" lon="4.87128">
        <ele>53.971191</ele>
        <time>2011-01-23T08:38:45Z</time>
      </trkpt>
      <trkpt lat="43.70833" lon="4.87115">
        <ele>55.893799</ele>
        <time>2011-01-23T08:38:54Z</time>
      </trkpt>
      <trkpt lat="43.70838" lon="4.87089">
        <ele>57.816528</ele>
        <time>2011-01-23T08:39:07Z</time>
      </trkpt>
      <trkpt lat="43.7084" lon="4.87078">
        <ele>57.816528</ele>
        <time>2011-01-23T08:39:12Z</time>
      </trkpt>
      <trkpt lat="43.70844" lon="4.87057">
        <ele>55.893799</ele>
        <time>2011-01-23T08:39:23Z</time>
      </trkpt>
      <trkpt lat="43.70846" lon="4.87048">
        <ele>55.413086</ele>
        <time>2011-01-23T08:39:27Z</time>
      </trkpt>
      <trkpt lat="43.70851" lon="4.87029">
        <ele>52.529175</ele>
        <time>2011-01-23T08:39:40Z</time>
      </trkpt>
      <trkpt lat="43.70853" lon="4.87008">
        <ele>50.606567</ele>
        <time>2011-01-23T08:39:52Z</time>
      </trkpt>
      <trkpt lat="43.70851" lon="4.86995">
        <ele>51.087158</ele>
        <time>2011-01-23T08:40:00Z</time>
      </trkpt>
      <trkpt lat="43.70848" lon="4.86978">
        <ele>53.009766</ele>
        <time>2011-01-23T08:40:10Z</time>
      </trkpt>
      <trkpt lat="43.70846" lon="4.86967">
        <ele>53.490479</ele>
        <time>2011-01-23T08:40:16Z</time>
      </trkpt>
      <trkpt lat="43.70846" lon="4.86952">
        <ele>53.490479</ele>
        <time>2011-01-23T08:40:24Z</time>
      </trkpt>
      <trkpt lat="43.70846" lon="4.86939">
        <ele>52.529175</ele>
        <time>2011-01-23T08:40:32Z</time>
      </trkpt>
      <trkpt lat="43.70844" lon="4.86926">
        <ele>52.529175</ele>
        <time>2011-01-23T08:40:40Z</time>
      </trkpt>
      <trkpt lat="43.70844" lon="4.86909">
        <ele>52.048584</ele>
        <time>2011-01-23T08:40:50Z</time>
      </trkpt>
      <trkpt lat="43.70842" lon="4.86885">
        <ele>51.567871</ele>
        <time>2011-01-23T08:41:01Z</time>
      </trkpt>
      <trkpt lat="43.70842" lon="4.86879">
        <ele>51.087158</ele>
        <time>2011-01-23T08:41:04Z</time>
      </trkpt>
      <trkpt lat="43.7084" lon="4.8686">
        <ele>50.125977</ele>
        <time>2011-01-23T08:41:16Z</time>
      </trkpt>
      <trkpt lat="43.7084" lon="4.86855">
        <ele>49.645264</ele>
        <time>2011-01-23T08:41:18Z</time>
      </trkpt>
      <trkpt lat="43.70838" lon="4.86836">
        <ele>50.125977</ele>
        <time>2011-01-23T08:41:30Z</time>
      </trkpt>
      <trkpt lat="43.70836" lon="4.86823">
        <ele>50.606567</ele>
        <time>2011-01-23T08:41:38Z</time>
      </trkpt>
      <trkpt lat="43.70833" lon="4.86817">
        <ele>50.125977</ele>
        <time>2011-01-23T08:41:42Z</time>
      </trkpt>
      <trkpt lat="43.70833" lon="4.86808">
        <ele>49.645264</ele>
        <time>2011-01-23T08:41:47Z</time>
      </trkpt>
      <trkpt lat="43.70831" lon="4.86791">
        <ele>50.606567</ele>
        <time>2011-01-23T08:41:56Z</time>
      </trkpt>
      <trkpt lat="43.70829" lon="4.86772">
        <ele>50.606567</ele>
        <time>2011-01-23T08:42:07Z</time>
      </trkpt>
      <trkpt lat="43.70829" lon="4.86765">
        <ele>50.125977</ele>
        <time>2011-01-23T08:42:12Z</time>
      </trkpt>
      <trkpt lat="43.70827" lon="4.86761">
        <ele>49.645264</ele>
        <time>2011-01-23T08:42:15Z</time>
      </trkpt>
      <trkpt lat="43.70825" lon="4.86752">
        <ele>49.164551</ele>
        <time>2011-01-23T08:42:20Z</time>
      </trkpt>
      <trkpt lat="43.70825" lon="4.8675">
        <ele>49.164551</ele>
        <time>2011-01-23T08:42:22Z</time>
      </trkpt>
      <trkpt lat="43.70825" lon="4.86733">
        <ele>47.241821</ele>
        <time>2011-01-23T08:42:32Z</time>
      </trkpt>
      <trkpt lat="43.70823" lon="4.86731">
        <ele>46.76123</ele>
        <time>2011-01-23T08:42:34Z</time>
      </trkpt>
      <trkpt lat="43.70821" lon="4.86716">
        <ele>47.722534</ele>
        <time>2011-01-23T08:42:42Z</time>
      </trkpt>
      <trkpt lat="43.70821" lon="4.86714">
        <ele>48.203369</ele>
        <time>2011-01-23T08:42:44Z</time>
      </trkpt>
      <trkpt lat="43.70818" lon="4.86692">
        <ele>47.722534</ele>
        <time>2011-01-23T08:42:57Z</time>
      </trkpt>
      <trkpt lat="43.70818" lon="4.8669">
        <ele>47.722534</ele>
        <time>2011-01-23T08:42:59Z</time>
      </trkpt>
      <trkpt lat="43.70816" lon="4.86666">
        <ele>47.241821</ele>
        <time>2011-01-23T08:43:12Z</time>
      </trkpt>
      <trkpt lat="43.70814" lon="4.86649">
        <ele>47.722534</ele>
        <time>2011-01-23T08:43:23Z</time>
      </trkpt>
      <trkpt lat="43.70812" lon="4.8663">
        <ele>48.68396</ele>
        <time>2011-01-23T08:43:37Z</time>
      </trkpt>
      <trkpt lat="43.70812" lon="4.86613">
        <ele>47.241821</ele>
        <time>2011-01-23T08:43:54Z</time>
      </trkpt>
      <trkpt lat="43.7081" lon="4.86596">
        <ele>46.76123</ele>
        <time>2011-01-23T08:44:06Z</time>
      </trkpt>
      <trkpt lat="43.70806" lon="4.86576">
        <ele>46.76123</ele>
        <time>2011-01-23T08:44:18Z</time>
      </trkpt>
      <trkpt lat="43.70803" lon="4.86563">
        <ele>48.68396</ele>
        <time>2011-01-23T08:44:25Z</time>
      </trkpt>
      <trkpt lat="43.70806" lon="4.86542">
        <ele>50.125977</ele>
        <time>2011-01-23T08:44:38Z</time>
      </trkpt>
      <trkpt lat="43.70806" lon="4.8654">
        <ele>50.125977</ele>
        <time>2011-01-23T08:44:39Z</time>
      </trkpt>
      <trkpt lat="43.70806" lon="4.86531">
        <ele>51.567871</ele>
        <time>2011-01-23T08:44:44Z</time>
      </trkpt>
      <trkpt lat="43.70806" lon="4.86527">
        <ele>52.048584</ele>
        <time>2011-01-23T08:44:47Z</time>
      </trkpt>
      <trkpt lat="43.70806" lon="4.86518">
        <ele>52.529175</ele>
        <time>2011-01-23T08:44:54Z</time>
      </trkpt>
      <trkpt lat="43.70808" lon="4.86499">
        <ele>52.048584</ele>
        <time>2011-01-23T08:45:05Z</time>
      </trkpt>
      <trkpt lat="43.70806" lon="4.86476">
        <ele>52.529175</ele>
        <time>2011-01-23T08:45:18Z</time>
      </trkpt>
      <trkpt lat="43.70808" lon="4.86456">
        <ele>53.971191</ele>
        <time>2011-01-23T08:45:31Z</time>
      </trkpt>
      <trkpt lat="43.70808" lon="4.86437">
        <ele>55.413086</ele>
        <time>2011-01-23T08:45:43Z</time>
      </trkpt>
      <trkpt lat="43.7081" lon="4.86418">
        <ele>56.374512</ele>
        <time>2011-01-23T08:45:55Z</time>
      </trkpt>
      <trkpt lat="43.70812" lon="4.86405">
        <ele>56.855103</ele>
        <time>2011-01-23T08:46:01Z</time>
      </trkpt>
      <trkpt lat="43.70812" lon="4.86403">
        <ele>56.855103</ele>
        <time>2011-01-23T08:46:03Z</time>
      </trkpt>
      <trkpt lat="43.70812" lon="4.86385">
        <ele>58.77771</ele>
        <time>2011-01-23T08:46:13Z</time>
      </trkpt>
      <trkpt lat="43.70812" lon="4.86373">
        <ele>59.258423</ele>
        <time>2011-01-23T08:46:22Z</time>
      </trkpt>
      <trkpt lat="43.70814" lon="4.86351">
        <ele>58.77771</ele>
        <time>2011-01-23T08:46:34Z</time>
      </trkpt>
      <trkpt lat="43.70816" lon="4.86332">
        <ele>60.219727</ele>
        <time>2011-01-23T08:46:45Z</time>
      </trkpt>
      <trkpt lat="43.70816" lon="4.86327">
        <ele>60.219727</ele>
        <time>2011-01-23T08:46:47Z</time>
      </trkpt>
      <trkpt lat="43.70816" lon="4.86308">
        <ele>60.219727</ele>
        <time>2011-01-23T08:46:59Z</time>
      </trkpt>
      <trkpt lat="43.70818" lon="4.86287">
        <ele>59.739136</ele>
        <time>2011-01-23T08:47:12Z</time>
      </trkpt>
      <trkpt lat="43.70823" lon="4.86263">
        <ele>60.700317</ele>
        <time>2011-01-23T08:47:24Z</time>
      </trkpt>
      <trkpt lat="43.70825" lon="4.86242">
        <ele>59.739136</ele>
        <time>2011-01-23T08:47:38Z</time>
      </trkpt>
      <trkpt lat="43.70827" lon="4.86229">
        <ele>58.77771</ele>
        <time>2011-01-23T08:47:45Z</time>
      </trkpt>
      <trkpt lat="43.70829" lon="4.86207">
        <ele>60.219727</ele>
        <time>2011-01-23T08:47:56Z</time>
      </trkpt>
      <trkpt lat="43.70831" lon="4.86201">
        <ele>60.219727</ele>
        <time>2011-01-23T08:48:00Z</time>
      </trkpt>
      <trkpt lat="43.70833" lon="4.86188">
        <ele>60.700317</ele>
        <time>2011-01-23T08:48:07Z</time>
      </trkpt>
      <trkpt lat="43.7084" lon="4.86167">
        <ele>60.700317</ele>
        <time>2011-01-23T08:48:20Z</time>
      </trkpt>
      <trkpt lat="43.70846" lon="4.86145">
        <ele>59.258423</ele>
        <time>2011-01-23T08:48:33Z</time>
      </trkpt>
      <trkpt lat="43.70851" lon="4.86121">
        <ele>60.700317</ele>
        <time>2011-01-23T08:48:47Z</time>
      </trkpt>
      <trkpt lat="43.70857" lon="4.861">
        <ele>60.700317</ele>
        <time>2011-01-23T08:49:01Z</time>
      </trkpt>
      <trkpt lat="43.70859" lon="4.86091">
        <ele>60.700317</ele>
        <time>2011-01-23T08:49:05Z</time>
      </trkpt>
      <trkpt lat="43.70861" lon="4.86085">
        <ele>60.700317</ele>
        <time>2011-01-23T08:49:10Z</time>
      </trkpt>
      <trkpt lat="43.70863" lon="4.86072">
        <ele>61.661743</ele>
        <time>2011-01-23T08:49:18Z</time>
      </trkpt>
      <trkpt lat="43.7087" lon="4.86059">
        <ele>62.142334</ele>
        <time>2011-01-23T08:49:29Z</time>
      </trkpt>
      <trkpt lat="43.70874" lon="4.86044">
        <ele>63.103638</ele>
        <time>2011-01-23T08:49:38Z</time>
      </trkpt>
      <trkpt lat="43.70881" lon="4.86025">
        <ele>63.584351</ele>
        <time>2011-01-23T08:49:50Z</time>
      </trkpt>
      <trkpt lat="43.70885" lon="4.86008">
        <ele>63.584351</ele>
        <time>2011-01-23T08:50:02Z</time>
      </trkpt>
      <trkpt lat="43.70887" lon="4.86001">
        <ele>63.584351</ele>
        <time>2011-01-23T08:50:05Z</time>
      </trkpt>
      <trkpt lat="43.70889" lon="4.85995">
        <ele>63.584351</ele>
        <time>2011-01-23T08:50:09Z</time>
      </trkpt>
      <trkpt lat="43.70889" lon="4.85993">
        <ele>63.584351</ele>
        <time>2011-01-23T08:50:10Z</time>
      </trkpt>
      <trkpt lat="43.70891" lon="4.85984">
        <ele>63.584351</ele>
        <time>2011-01-23T08:50:14Z</time>
      </trkpt>
      <trkpt lat="43.70896" lon="4.85967">
        <ele>64.545654</ele>
        <time>2011-01-23T08:50:25Z</time>
      </trkpt>
      <trkpt lat="43.70904" lon="4.85946">
        <ele>63.103638</ele>
        <time>2011-01-23T08:50:40Z</time>
      </trkpt>
      <trkpt lat="43.70911" lon="4.85928">
        <ele>62.622925</ele>
        <time>2011-01-23T08:50:49Z</time>
      </trkpt>
      <trkpt lat="43.70928" lon="4.85918">
        <ele>64.545654</ele>
        <time>2011-01-23T08:51:03Z</time>
      </trkpt>
      <trkpt lat="43.70945" lon="4.8592">
        <ele>66.468262</ele>
        <time>2011-01-23T08:51:18Z</time>
      </trkpt>
      <trkpt lat="43.70964" lon="4.85928">
        <ele>67.910278</ele>
        <time>2011-01-23T08:51:34Z</time>
      </trkpt>
      <trkpt lat="43.70979" lon="4.85939">
        <ele>69.832886</ele>
        <time>2011-01-23T08:51:49Z</time>
      </trkpt>
      <trkpt lat="43.70986" lon="4.85946">
        <ele>71.274902</ele>
        <time>2011-01-23T08:51:56Z</time>
      </trkpt>
      <trkpt lat="43.70997" lon="4.8595">
        <ele>74.158813</ele>
        <time>2011-01-23T08:52:06Z</time>
      </trkpt>
      <trkpt lat="43.71003" lon="4.85954">
        <ele>76.081421</ele>
        <time>2011-01-23T08:52:12Z</time>
      </trkpt>
      <trkpt lat="43.71016" lon="4.85956">
        <ele>78.484741</ele>
        <time>2011-01-23T08:52:23Z</time>
      </trkpt>
      <trkpt lat="43.7102" lon="4.85958">
        <ele>79.926636</ele>
        <time>2011-01-23T08:52:28Z</time>
      </trkpt>
      <trkpt lat="43.71027" lon="4.85963">
        <ele>80.888184</ele>
        <time>2011-01-23T08:52:35Z</time>
      </trkpt>
      <trkpt lat="43.71033" lon="4.85971">
        <ele>81.849365</ele>
        <time>2011-01-23T08:52:42Z</time>
      </trkpt>
      <trkpt lat="43.71039" lon="4.85991">
        <ele>79.926636</ele>
        <time>2011-01-23T08:52:53Z</time>
      </trkpt>
      <trkpt lat="43.71046" lon="4.86006">
        <ele>78.965454</ele>
        <time>2011-01-23T08:53:00Z</time>
      </trkpt>
      <trkpt lat="43.7105" lon="4.86023">
        <ele>77.523438</ele>
        <time>2011-01-23T08:53:10Z</time>
      </trkpt>
      <trkpt lat="43.71054" lon="4.86038">
        <ele>76.081421</ele>
        <time>2011-01-23T08:53:20Z</time>
      </trkpt>
      <trkpt lat="43.71054" lon="4.86046">
        <ele>76.081421</ele>
        <time>2011-01-23T08:53:25Z</time>
      </trkpt>
      <trkpt lat="43.71054" lon="4.86057">
        <ele>74.639526</ele>
        <time>2011-01-23T08:53:31Z</time>
      </trkpt>
      <trkpt lat="43.71052" lon="4.86064">
        <ele>74.158813</ele>
        <time>2011-01-23T08:53:34Z</time>
      </trkpt>
      <trkpt lat="43.71052" lon="4.86072">
        <ele>74.158813</ele>
        <time>2011-01-23T08:53:39Z</time>
      </trkpt>
      <trkpt lat="43.71052" lon="4.86079">
        <ele>74.639526</ele>
        <time>2011-01-23T08:53:43Z</time>
      </trkpt>
      <trkpt lat="43.7105" lon="4.86089">
        <ele>74.639526</ele>
        <time>2011-01-23T08:53:49Z</time>
      </trkpt>
      <trkpt lat="43.7105" lon="4.86102">
        <ele>74.158813</ele>
        <time>2011-01-23T08:53:58Z</time>
      </trkpt>
      <trkpt lat="43.7105" lon="4.86113">
        <ele>74.158813</ele>
        <time>2011-01-23T08:54:04Z</time>
      </trkpt>
      <trkpt lat="43.7105" lon="4.86128">
        <ele>74.639526</ele>
        <time>2011-01-23T08:54:14Z</time>
      </trkpt>
      <trkpt lat="43.71048" lon="4.86147">
        <ele>73.678223</ele>
        <time>2011-01-23T08:54:25Z</time>
      </trkpt>
      <trkpt lat="43.71048" lon="4.86147">
        <ele>73.678223</ele>
        <time>2011-01-23T08:54:26Z</time>
      </trkpt>
      <trkpt lat="43.7105" lon="4.86164">
        <ele>73.678223</ele>
        <time>2011-01-23T08:54:38Z</time>
      </trkpt>
      <trkpt lat="43.71052" lon="4.86171">
        <ele>73.678223</ele>
        <time>2011-01-23T08:54:42Z</time>
      </trkpt>
      <trkpt lat="43.71052" lon="4.86179">
        <ele>73.197632</ele>
        <time>2011-01-23T08:54:47Z</time>
      </trkpt>
      <trkpt lat="43.71052" lon="4.86184">
        <ele>72.716919</ele>
        <time>2011-01-23T08:54:50Z</time>
      </trkpt>
      <trkpt lat="43.71052" lon="4.86188">
        <ele>73.197632</ele>
        <time>2011-01-23T08:54:52Z</time>
      </trkpt>
      <trkpt lat="43.71052" lon="4.8619">
        <ele>73.197632</ele>
        <time>2011-01-23T08:54:54Z</time>
      </trkpt>
      <trkpt lat="43.71052" lon="4.86197">
        <ele>73.678223</ele>
        <time>2011-01-23T08:54:59Z</time>
      </trkpt>
      <trkpt lat="43.71052" lon="4.86203">
        <ele>73.678223</ele>
        <time>2011-01-23T08:55:04Z</time>
      </trkpt>
      <trkpt lat="43.71057" lon="4.86216">
        <ele>74.639526</ele>
        <time>2011-01-23T08:55:12Z</time>
      </trkpt>
      <trkpt lat="43.71059" lon="4.86227">
        <ele>75.60083</ele>
        <time>2011-01-23T08:55:20Z</time>
      </trkpt>
      <trkpt lat="43.71061" lon="4.86231">
        <ele>75.120239</ele>
        <time>2011-01-23T08:55:23Z</time>
      </trkpt>
      <trkpt lat="43.71061" lon="4.86237">
        <ele>75.60083</ele>
        <time>2011-01-23T08:55:28Z</time>
      </trkpt>
      <trkpt lat="43.71063" lon="4.86242">
        <ele>74.158813</ele>
        <time>2011-01-23T08:55:40Z</time>
      </trkpt>
      <trkpt lat="43.71063" lon="4.86242">
        <ele>73.678223</ele>
        <time>2011-01-23T08:55:59Z</time>
      </trkpt>
      <trkpt lat="43.71063" lon="4.86246">
        <ele>74.158813</ele>
        <time>2011-01-23T08:56:18Z</time>
      </trkpt>
      <trkpt lat="43.71063" lon="4.86257">
        <ele>74.639526</ele>
        <time>2011-01-23T08:56:25Z</time>
      </trkpt>
      <trkpt lat="43.71061" lon="4.8627">
        <ele>75.60083</ele>
        <time>2011-01-23T08:56:34Z</time>
      </trkpt>
      <trkpt lat="43.71059" lon="4.86287">
        <ele>78.004028</ele>
        <time>2011-01-23T08:56:47Z</time>
      </trkpt>
      <trkpt lat="43.71057" lon="4.86289">
        <ele>78.484741</ele>
        <time>2011-01-23T08:56:49Z</time>
      </trkpt>
      <trkpt lat="43.71057" lon="4.86293">
        <ele>78.965454</ele>
        <time>2011-01-23T08:56:52Z</time>
      </trkpt>
      <trkpt lat="43.71054" lon="4.86297">
        <ele>78.965454</ele>
        <time>2011-01-23T08:56:56Z</time>
      </trkpt>
      <trkpt lat="43.71054" lon="4.86308">
        <ele>80.888184</ele>
        <time>2011-01-23T08:57:06Z</time>
      </trkpt>
      <trkpt lat="43.71052" lon="4.86323">
        <ele>81.849365</ele>
        <time>2011-01-23T08:57:16Z</time>
      </trkpt>
      <trkpt lat="43.7105" lon="4.8634">
        <ele>82.810791</ele>
        <time>2011-01-23T08:57:27Z</time>
      </trkpt>
      <trkpt lat="43.7105" lon="4.86358">
        <ele>84.733398</ele>
        <time>2011-01-23T08:57:38Z</time>
      </trkpt>
      <trkpt lat="43.71048" lon="4.86375">
        <ele>85.69458</ele>
        <time>2011-01-23T08:57:50Z</time>
      </trkpt>
      <trkpt lat="43.7105" lon="4.86396">
        <ele>88.098022</ele>
        <time>2011-01-23T08:58:04Z</time>
      </trkpt>
      <trkpt lat="43.71052" lon="4.86418">
        <ele>90.501343</ele>
        <time>2011-01-23T08:58:20Z</time>
      </trkpt>
      <trkpt lat="43.7105" lon="4.86422">
        <ele>90.981934</ele>
        <time>2011-01-23T08:58:23Z</time>
      </trkpt>
      <trkpt lat="43.7105" lon="4.86426">
        <ele>90.981934</ele>
        <time>2011-01-23T08:58:26Z</time>
      </trkpt>
      <trkpt lat="43.71046" lon="4.8645">
        <ele>92.42395</ele>
        <time>2011-01-23T08:58:41Z</time>
      </trkpt>
      <trkpt lat="43.71046" lon="4.8646">
        <ele>92.904541</ele>
        <time>2011-01-23T08:58:48Z</time>
      </trkpt>
      <trkpt lat="43.71044" lon="4.86469">
        <ele>94.346558</ele>
        <time>2011-01-23T08:58:55Z</time>
      </trkpt>
      <trkpt lat="43.71044" lon="4.8648">
        <ele>95.307739</ele>
        <time>2011-01-23T08:59:01Z</time>
      </trkpt>
      <trkpt lat="43.71044" lon="4.86482">
        <ele>95.788452</ele>
        <time>2011-01-23T08:59:03Z</time>
      </trkpt>
      <trkpt lat="43.71042" lon="4.86488">
        <ele>96.269287</ele>
        <time>2011-01-23T08:59:07Z</time>
      </trkpt>
      <trkpt lat="43.71039" lon="4.86501">
        <ele>95.788452</ele>
        <time>2011-01-23T08:59:15Z</time>
      </trkpt>
      <trkpt lat="43.71037" lon="4.86506">
        <ele>96.269287</ele>
        <time>2011-01-23T08:59:18Z</time>
      </trkpt>
      <trkpt lat="43.71033" lon="4.86525">
        <ele>97.230469</ele>
        <time>2011-01-23T08:59:31Z</time>
      </trkpt>
      <trkpt lat="43.71033" lon="4.86536">
        <ele>98.672485</ele>
        <time>2011-01-23T08:59:38Z</time>
      </trkpt>
      <trkpt lat="43.71033" lon="4.8654">
        <ele>99.633789</ele>
        <time>2011-01-23T08:59:42Z</time>
      </trkpt>
      <trkpt lat="43.71035" lon="4.86551">
        <ele>100.595093</ele>
        <time>2011-01-23T08:59:50Z</time>
      </trkpt>
      <trkpt lat="43.71035" lon="4.86563">
        <ele>101.075684</ele>
        <time>2011-01-23T08:59:56Z</time>
      </trkpt>
      <trkpt lat="43.71037" lon="4.86576">
        <ele>101.075684</ele>
        <time>2011-01-23T09:00:05Z</time>
      </trkpt>
      <trkpt lat="43.71037" lon="4.86585">
        <ele>102.037109</ele>
        <time>2011-01-23T09:00:11Z</time>
      </trkpt>
      <trkpt lat="43.71037" lon="4.86609">
        <ele>102.037109</ele>
        <time>2011-01-23T09:00:25Z</time>
      </trkpt>
      <trkpt lat="43.71037" lon="4.86611">
        <ele>102.037109</ele>
        <time>2011-01-23T09:00:27Z</time>
      </trkpt>
      <trkpt lat="43.71039" lon="4.86632">
        <ele>102.037109</ele>
        <time>2011-01-23T09:00:40Z</time>
      </trkpt>
      <trkpt lat="43.71039" lon="4.86636">
        <ele>102.037109</ele>
        <time>2011-01-23T09:00:42Z</time>
      </trkpt>
      <trkpt lat="43.71039" lon="4.8666">
        <ele>102.5177</ele>
        <time>2011-01-23T09:00:56Z</time>
      </trkpt>
      <trkpt lat="43.71039" lon="4.86664">
        <ele>102.5177</ele>
        <time>2011-01-23T09:00:58Z</time>
      </trkpt>
      <trkpt lat="43.71039" lon="4.86679">
        <ele>102.037109</ele>
        <time>2011-01-23T09:01:09Z</time>
      </trkpt>
      <trkpt lat="43.71042" lon="4.8669">
        <ele>101.075684</ele>
        <time>2011-01-23T09:01:15Z</time>
      </trkpt>
      <trkpt lat="43.71039" lon="4.86697">
        <ele>101.075684</ele>
        <time>2011-01-23T09:01:19Z</time>
      </trkpt>
      <trkpt lat="43.71046" lon="4.8672">
        <ele>101.556396</ele>
        <time>2011-01-23T09:01:34Z</time>
      </trkpt>
      <trkpt lat="43.71046" lon="4.86733">
        <ele>101.075684</ele>
        <time>2011-01-23T09:01:41Z</time>
      </trkpt>
      <trkpt lat="43.7105" lon="4.8675">
        <ele>101.556396</ele>
        <time>2011-01-23T09:01:53Z</time>
      </trkpt>
      <trkpt lat="43.7105" lon="4.86754">
        <ele>101.556396</ele>
        <time>2011-01-23T09:01:56Z</time>
      </trkpt>
      <trkpt lat="43.71052" lon="4.86778">
        <ele>100.114502</ele>
        <time>2011-01-23T09:02:10Z</time>
      </trkpt>
      <trkpt lat="43.7105" lon="4.86787">
        <ele>98.672485</ele>
        <time>2011-01-23T09:02:15Z</time>
      </trkpt>
      <trkpt lat="43.71052" lon="4.86795">
        <ele>97.711182</ele>
        <time>2011-01-23T09:02:20Z</time>
      </trkpt>
      <trkpt lat="43.71048" lon="4.86806">
        <ele>97.230469</ele>
        <time>2011-01-23T09:02:33Z</time>
      </trkpt>
      <trkpt lat="43.71048" lon="4.8681">
        <ele>96.269287</ele>
        <time>2011-01-23T09:03:34Z</time>
      </trkpt>
      <trkpt lat="43.71048" lon="4.86832">
        <ele>94.346558</ele>
        <time>2011-01-23T09:03:48Z</time>
      </trkpt>
      <trkpt lat="43.71052" lon="4.86851">
        <ele>93.385132</ele>
        <time>2011-01-23T09:04:01Z</time>
      </trkpt>
      <trkpt lat="43.71054" lon="4.86864">
        <ele>94.346558</ele>
        <time>2011-01-23T09:04:08Z</time>
      </trkpt>
      <trkpt lat="43.71057" lon="4.8687">
        <ele>93.865845</ele>
        <time>2011-01-23T09:04:12Z</time>
      </trkpt>
      <trkpt lat="43.71059" lon="4.86877">
        <ele>93.385132</ele>
        <time>2011-01-23T09:04:17Z</time>
      </trkpt>
      <trkpt lat="43.71061" lon="4.86881">
        <ele>93.385132</ele>
        <time>2011-01-23T09:04:21Z</time>
      </trkpt>
      <trkpt lat="43.71072" lon="4.86898">
        <ele>91.462524</ele>
        <time>2011-01-23T09:04:35Z</time>
      </trkpt>
      <trkpt lat="43.71082" lon="4.86913">
        <ele>90.501343</ele>
        <time>2011-01-23T09:04:48Z</time>
      </trkpt>
      <trkpt lat="43.71085" lon="4.86915">
        <ele>90.501343</ele>
        <time>2011-01-23T09:04:49Z</time>
      </trkpt>
      <trkpt lat="43.71091" lon="4.86926">
        <ele>89.539917</ele>
        <time>2011-01-23T09:04:57Z</time>
      </trkpt>
      <trkpt lat="43.71104" lon="4.86943">
        <ele>88.578735</ele>
        <time>2011-01-23T09:05:11Z</time>
      </trkpt>
      <trkpt lat="43.71115" lon="4.86952">
        <ele>90.981934</ele>
        <time>2011-01-23T09:05:22Z</time>
      </trkpt>
      <trkpt lat="43.71119" lon="4.86954">
        <ele>90.981934</ele>
        <time>2011-01-23T09:05:26Z</time>
      </trkpt>
      <trkpt lat="43.71123" lon="4.86958">
        <ele>90.981934</ele>
        <time>2011-01-23T09:05:30Z</time>
      </trkpt>
      <trkpt lat="43.71123" lon="4.8696">
        <ele>91.462524</ele>
        <time>2011-01-23T09:05:31Z</time>
      </trkpt>
      <trkpt lat="43.71127" lon="4.86967">
        <ele>92.904541</ele>
        <time>2011-01-23T09:05:38Z</time>
      </trkpt>
      <trkpt lat="43.7113" lon="4.86975">
        <ele>93.385132</ele>
        <time>2011-01-23T09:05:43Z</time>
      </trkpt>
      <trkpt lat="43.71136" lon="4.86999">
        <ele>94.346558</ele>
        <time>2011-01-23T09:05:57Z</time>
      </trkpt>
      <trkpt lat="43.7114" lon="4.87012">
        <ele>94.346558</ele>
        <time>2011-01-23T09:06:05Z</time>
      </trkpt>
      <trkpt lat="43.71142" lon="4.87025">
        <ele>94.346558</ele>
        <time>2011-01-23T09:06:13Z</time>
      </trkpt>
      <trkpt lat="43.71151" lon="4.87053">
        <ele>94.346558</ele>
        <time>2011-01-23T09:06:29Z</time>
      </trkpt>
      <trkpt lat="43.71151" lon="4.87055">
        <ele>94.346558</ele>
        <time>2011-01-23T09:06:31Z</time>
      </trkpt>
      <trkpt lat="43.71153" lon="4.87072">
        <ele>94.827148</ele>
        <time>2011-01-23T09:06:40Z</time>
      </trkpt>
      <trkpt lat="43.71155" lon="4.87089">
        <ele>94.827148</ele>
        <time>2011-01-23T09:06:50Z</time>
      </trkpt>
      <trkpt lat="43.71157" lon="4.87091">
        <ele>94.827148</ele>
        <time>2011-01-23T09:06:52Z</time>
      </trkpt>
      <trkpt lat="43.7116" lon="4.87115">
        <ele>95.788452</ele>
        <time>2011-01-23T09:07:06Z</time>
      </trkpt>
      <trkpt lat="43.71164" lon="4.87141">
        <ele>96.269287</ele>
        <time>2011-01-23T09:07:21Z</time>
      </trkpt>
      <trkpt lat="43.71164" lon="4.87158">
        <ele>95.788452</ele>
        <time>2011-01-23T09:07:30Z</time>
      </trkpt>
      <trkpt lat="43.71164" lon="4.87177">
        <ele>95.307739</ele>
        <time>2011-01-23T09:07:42Z</time>
      </trkpt>
      <trkpt lat="43.71164" lon="4.87179">
        <ele>95.307739</ele>
        <time>2011-01-23T09:07:44Z</time>
      </trkpt>
      <trkpt lat="43.71166" lon="4.87196">
        <ele>95.788452</ele>
        <time>2011-01-23T09:07:54Z</time>
      </trkpt>
      <trkpt lat="43.7117" lon="4.8722">
        <ele>97.711182</ele>
        <time>2011-01-23T09:08:08Z</time>
      </trkpt>
      <trkpt lat="43.71175" lon="4.87229">
        <ele>97.711182</ele>
        <time>2011-01-23T09:08:14Z</time>
      </trkpt>
      <trkpt lat="43.71179" lon="4.87235">
        <ele>98.191895</ele>
        <time>2011-01-23T09:08:20Z</time>
      </trkpt>
      <trkpt lat="43.71181" lon="4.87246">
        <ele>99.153076</ele>
        <time>2011-01-23T09:08:26Z</time>
      </trkpt>
      <trkpt lat="43.71181" lon="4.87254">
        <ele>99.633789</ele>
        <time>2011-01-23T09:08:32Z</time>
      </trkpt>
      <trkpt lat="43.71181" lon="4.8728">
        <ele>101.556396</ele>
        <time>2011-01-23T09:08:47Z</time>
      </trkpt>
      <trkpt lat="43.71181" lon="4.8728">
        <ele>101.556396</ele>
        <time>2011-01-23T09:08:48Z</time>
      </trkpt>
      <trkpt lat="43.71183" lon="4.87293">
        <ele>102.5177</ele>
        <time>2011-01-23T09:08:56Z</time>
      </trkpt>
      <trkpt lat="43.71183" lon="4.87297">
        <ele>102.998291</ele>
        <time>2011-01-23T09:09:00Z</time>
      </trkpt>
      <trkpt lat="43.71183" lon="4.87302">
        <ele>102.998291</ele>
        <time>2011-01-23T09:09:02Z</time>
      </trkpt>
      <trkpt lat="43.71183" lon="4.87319">
        <ele>105.401733</ele>
        <time>2011-01-23T09:09:14Z</time>
      </trkpt>
      <trkpt lat="43.71181" lon="4.87332">
        <ele>106.363037</ele>
        <time>2011-01-23T09:09:25Z</time>
      </trkpt>
      <trkpt lat="43.71181" lon="4.8734">
        <ele>108.285645</ele>
        <time>2011-01-23T09:09:35Z</time>
      </trkpt>
      <trkpt lat="43.71183" lon="4.8736">
        <ele>109.246948</ele>
        <time>2011-01-23T09:09:49Z</time>
      </trkpt>
      <trkpt lat="43.71181" lon="4.87375">
        <ele>109.727661</ele>
        <time>2011-01-23T09:10:02Z</time>
      </trkpt>
      <trkpt lat="43.71181" lon="4.87381">
        <ele>110.208252</ele>
        <time>2011-01-23T09:10:06Z</time>
      </trkpt>
      <trkpt lat="43.71181" lon="4.87383">
        <ele>110.208252</ele>
        <time>2011-01-23T09:10:08Z</time>
      </trkpt>
      <trkpt lat="43.71181" lon="4.87392">
        <ele>111.650269</ele>
        <time>2011-01-23T09:10:15Z</time>
      </trkpt>
      <trkpt lat="43.71181" lon="4.87394">
        <ele>112.130981</ele>
        <time>2011-01-23T09:10:17Z</time>
      </trkpt>
      <trkpt lat="43.71181" lon="4.87398">
        <ele>112.611572</ele>
        <time>2011-01-23T09:10:21Z</time>
      </trkpt>
      <trkpt lat="43.71177" lon="4.87418">
        <ele>115.014893</ele>
        <time>2011-01-23T09:10:34Z</time>
      </trkpt>
      <trkpt lat="43.71175" lon="4.87439">
        <ele>115.495605</ele>
        <time>2011-01-23T09:10:46Z</time>
      </trkpt>
      <trkpt lat="43.71175" lon="4.87448">
        <ele>115.495605</ele>
        <time>2011-01-23T09:10:51Z</time>
      </trkpt>
      <trkpt lat="43.71175" lon="4.87467">
        <ele>114.053589</ele>
        <time>2011-01-23T09:11:03Z</time>
      </trkpt>
      <trkpt lat="43.71172" lon="4.87482">
        <ele>112.611572</ele>
        <time>2011-01-23T09:11:13Z</time>
      </trkpt>
      <trkpt lat="43.7117" lon="4.87499">
        <ele>111.169556</ele>
        <time>2011-01-23T09:11:23Z</time>
      </trkpt>
      <trkpt lat="43.7117" lon="4.87503">
        <ele>110.688843</ele>
        <time>2011-01-23T09:11:26Z</time>
      </trkpt>
      <trkpt lat="43.71166" lon="4.87518">
        <ele>110.208252</ele>
        <time>2011-01-23T09:11:34Z</time>
      </trkpt>
      <trkpt lat="43.71166" lon="4.87542">
        <ele>109.727661</ele>
        <time>2011-01-23T09:11:48Z</time>
      </trkpt>
      <trkpt lat="43.7116" lon="4.87568">
        <ele>110.208252</ele>
        <time>2011-01-23T09:12:04Z</time>
      </trkpt>
      <trkpt lat="43.71151" lon="4.87589">
        <ele>109.727661</ele>
        <time>2011-01-23T09:12:17Z</time>
      </trkpt>
      <trkpt lat="43.71149" lon="4.87602">
        <ele>109.246948</ele>
        <time>2011-01-23T09:12:24Z</time>
      </trkpt>
      <trkpt lat="43.71145" lon="4.87621">
        <ele>110.208252</ele>
        <time>2011-01-23T09:12:37Z</time>
      </trkpt>
      <trkpt lat="43.71145" lon="4.87624">
        <ele>110.688843</ele>
        <time>2011-01-23T09:12:39Z</time>
      </trkpt>
      <trkpt lat="43.71142" lon="4.87634">
        <ele>111.650269</ele>
        <time>2011-01-23T09:12:45Z</time>
      </trkpt>
      <trkpt lat="43.71142" lon="4.87639">
        <ele>112.130981</ele>
        <time>2011-01-23T09:12:48Z</time>
      </trkpt>
      <trkpt lat="43.71142" lon="4.87643">
        <ele>112.130981</ele>
        <time>2011-01-23T09:12:51Z</time>
      </trkpt>
      <trkpt lat="43.71142" lon="4.8766">
        <ele>112.130981</ele>
        <time>2011-01-23T09:13:01Z</time>
      </trkpt>
      <trkpt lat="43.7114" lon="4.87673">
        <ele>112.130981</ele>
        <time>2011-01-23T09:13:08Z</time>
      </trkpt>
      <trkpt lat="43.71138" lon="4.87681">
        <ele>112.130981</ele>
        <time>2011-01-23T09:13:14Z</time>
      </trkpt>
      <trkpt lat="43.71138" lon="4.8769">
        <ele>112.130981</ele>
        <time>2011-01-23T09:13:19Z</time>
      </trkpt>
      <trkpt lat="43.71136" lon="4.87699">
        <ele>112.130981</ele>
        <time>2011-01-23T09:13:24Z</time>
      </trkpt>
      <trkpt lat="43.71134" lon="4.87711">
        <ele>111.169556</ele>
        <time>2011-01-23T09:13:31Z</time>
      </trkpt>
      <trkpt lat="43.7113" lon="4.87733">
        <ele>110.208252</ele>
        <time>2011-01-23T09:13:44Z</time>
      </trkpt>
      <trkpt lat="43.7113" lon="4.87752">
        <ele>111.169556</ele>
        <time>2011-01-23T09:13:55Z</time>
      </trkpt>
      <trkpt lat="43.71132" lon="4.87761">
        <ele>111.650269</ele>
        <time>2011-01-23T09:14:02Z</time>
      </trkpt>
      <trkpt lat="43.7113" lon="4.87765">
        <ele>111.650269</ele>
        <time>2011-01-23T09:14:07Z</time>
      </trkpt>
      <trkpt lat="43.71123" lon="4.87769">
        <ele>112.611572</ele>
        <time>2011-01-23T09:14:14Z</time>
      </trkpt>
      <trkpt lat="43.71123" lon="4.87774">
        <ele>112.611572</ele>
        <time>2011-01-23T09:14:17Z</time>
      </trkpt>
      <trkpt lat="43.71117" lon="4.87782">
        <ele>111.169556</ele>
        <time>2011-01-23T09:14:29Z</time>
      </trkpt>
      <trkpt lat="43.71119" lon="4.87795">
        <ele>110.688843</ele>
        <time>2011-01-23T09:14:42Z</time>
      </trkpt>
      <trkpt lat="43.71119" lon="4.87806">
        <ele>110.688843</ele>
        <time>2011-01-23T09:14:49Z</time>
      </trkpt>
      <trkpt lat="43.71121" lon="4.87821">
        <ele>111.169556</ele>
        <time>2011-01-23T09:14:58Z</time>
      </trkpt>
      <trkpt lat="43.71121" lon="4.87825">
        <ele>111.169556</ele>
        <time>2011-01-23T09:15:02Z</time>
      </trkpt>
      <trkpt lat="43.71119" lon="4.87842">
        <ele>112.130981</ele>
        <time>2011-01-23T09:15:11Z</time>
      </trkpt>
      <trkpt lat="43.71119" lon="4.87845">
        <ele>112.130981</ele>
        <time>2011-01-23T09:15:12Z</time>
      </trkpt>
      <trkpt lat="43.71117" lon="4.87857">
        <ele>112.130981</ele>
        <time>2011-01-23T09:15:21Z</time>
      </trkpt>
      <trkpt lat="43.71115" lon="4.87875">
        <ele>113.572998</ele>
        <time>2011-01-23T09:15:32Z</time>
      </trkpt>
      <trkpt lat="43.71115" lon="4.87892">
        <ele>114.53418</ele>
        <time>2011-01-23T09:15:43Z</time>
      </trkpt>
      <trkpt lat="43.7111" lon="4.879">
        <ele>114.053589</ele>
        <time>2011-01-23T09:15:47Z</time>
      </trkpt>
      <trkpt lat="43.7111" lon="4.87907">
        <ele>114.053589</ele>
        <time>2011-01-23T09:15:51Z</time>
      </trkpt>
      <trkpt lat="43.71108" lon="4.8792">
        <ele>115.495605</ele>
        <time>2011-01-23T09:16:00Z</time>
      </trkpt>
      <trkpt lat="43.71108" lon="4.87926">
        <ele>115.976196</ele>
        <time>2011-01-23T09:16:05Z</time>
      </trkpt>
      <trkpt lat="43.7111" lon="4.87932">
        <ele>116.456787</ele>
        <time>2011-01-23T09:16:10Z</time>
      </trkpt>
      <trkpt lat="43.7111" lon="4.87937">
        <ele>116.9375</ele>
        <time>2011-01-23T09:16:14Z</time>
      </trkpt>
      <trkpt lat="43.7111" lon="4.87945">
        <ele>117.418213</ele>
        <time>2011-01-23T09:16:19Z</time>
      </trkpt>
      <trkpt lat="43.7111" lon="4.87954">
        <ele>117.898804</ele>
        <time>2011-01-23T09:16:25Z</time>
      </trkpt>
      <trkpt lat="43.71112" lon="4.8796">
        <ele>117.898804</ele>
        <time>2011-01-23T09:16:30Z</time>
      </trkpt>
      <trkpt lat="43.71112" lon="4.87969">
        <ele>117.898804</ele>
        <time>2011-01-23T09:16:35Z</time>
      </trkpt>
      <trkpt lat="43.71112" lon="4.87975">
        <ele>117.898804</ele>
        <time>2011-01-23T09:16:38Z</time>
      </trkpt>
      <trkpt lat="43.71112" lon="4.87993">
        <ele>116.9375</ele>
        <time>2011-01-23T09:16:49Z</time>
      </trkpt>
      <trkpt lat="43.71112" lon="4.87995">
        <ele>116.9375</ele>
        <time>2011-01-23T09:16:51Z</time>
      </trkpt>
      <trkpt lat="43.71112" lon="4.88001">
        <ele>117.418213</ele>
        <time>2011-01-23T09:16:55Z</time>
      </trkpt>
      <trkpt lat="43.71112" lon="4.88014">
        <ele>117.898804</ele>
        <time>2011-01-23T09:17:03Z</time>
      </trkpt>
      <trkpt lat="43.71108" lon="4.88033">
        <ele>118.860107</ele>
        <time>2011-01-23T09:17:15Z</time>
      </trkpt>
      <trkpt lat="43.71112" lon="4.88048">
        <ele>120.302124</ele>
        <time>2011-01-23T09:17:25Z</time>
      </trkpt>
      <trkpt lat="43.71112" lon="4.88051">
        <ele>120.302124</ele>
        <time>2011-01-23T09:17:27Z</time>
      </trkpt>
      <trkpt lat="43.71112" lon="4.88061">
        <ele>121.26355</ele>
        <time>2011-01-23T09:17:33Z</time>
      </trkpt>
      <trkpt lat="43.71117" lon="4.88072">
        <ele>123.666748</ele>
        <time>2011-01-23T09:17:43Z</time>
      </trkpt>
      <trkpt lat="43.71119" lon="4.88081">
        <ele>126.069946</ele>
        <time>2011-01-23T09:17:51Z</time>
      </trkpt>
      <trkpt lat="43.71119" lon="4.88083">
        <ele>127.031372</ele>
        <time>2011-01-23T09:17:53Z</time>
      </trkpt>
      <trkpt lat="43.71117" lon="4.88096">
        <ele>127.992554</ele>
        <time>2011-01-23T09:18:01Z</time>
      </trkpt>
      <trkpt lat="43.71117" lon="4.88104">
        <ele>128.954102</ele>
        <time>2011-01-23T09:18:07Z</time>
      </trkpt>
      <trkpt lat="43.71119" lon="4.88117">
        <ele>129.915283</ele>
        <time>2011-01-23T09:18:17Z</time>
      </trkpt>
      <trkpt lat="43.71117" lon="4.88128">
        <ele>131.3573</ele>
        <time>2011-01-23T09:18:25Z</time>
      </trkpt>
      <trkpt lat="43.71106" lon="4.88138">
        <ele>132.318604</ele>
        <time>2011-01-23T09:18:36Z</time>
      </trkpt>
      <trkpt lat="43.71102" lon="4.88143">
        <ele>133.760498</ele>
        <time>2011-01-23T09:18:46Z</time>
      </trkpt>
      <trkpt lat="43.71102" lon="4.88145">
        <ele>134.241211</ele>
        <time>2011-01-23T09:18:48Z</time>
      </trkpt>
      <trkpt lat="43.711" lon="4.88151">
        <ele>130.876709</ele>
        <time>2011-01-23T09:19:00Z</time>
      </trkpt>
      <trkpt lat="43.711" lon="4.88149">
        <ele>126.550659</ele>
        <time>2011-01-23T09:20:58Z</time>
      </trkpt>
      <trkpt lat="43.711" lon="4.88149">
        <ele>124.147339</ele>
        <time>2011-01-23T09:24:09Z</time>
      </trkpt>
      <trkpt lat="43.711" lon="4.88149">
        <ele>124.147339</ele>
        <time>2011-01-23T09:25:43Z</time>
      </trkpt>
      <trkpt lat="43.71097" lon="4.88149">
        <ele>126.069946</ele>
        <time>2011-01-23T09:26:26Z</time>
      </trkpt>
      <trkpt lat="43.71095" lon="4.88149">
        <ele>126.069946</ele>
        <time>2011-01-23T09:26:35Z</time>
      </trkpt>
      <trkpt lat="43.711" lon="4.88147">
        <ele>126.069946</ele>
        <time>2011-01-23T09:26:40Z</time>
      </trkpt>
      <trkpt lat="43.71102" lon="4.88151">
        <ele>125.108765</ele>
        <time>2011-01-23T09:26:48Z</time>
      </trkpt>
      <trkpt lat="43.711" lon="4.88158">
        <ele>123.666748</ele>
        <time>2011-01-23T09:26:58Z</time>
      </trkpt>
      <trkpt lat="43.71097" lon="4.88162">
        <ele>122.224731</ele>
        <time>2011-01-23T09:27:08Z</time>
      </trkpt>
      <trkpt lat="43.71095" lon="4.88173">
        <ele>120.782837</ele>
        <time>2011-01-23T09:27:19Z</time>
      </trkpt>
      <trkpt lat="43.71089" lon="4.88175">
        <ele>119.821411</ele>
        <time>2011-01-23T09:27:32Z</time>
      </trkpt>
      <trkpt lat="43.71085" lon="4.88181">
        <ele>118.860107</ele>
        <time>2011-01-23T09:27:43Z</time>
      </trkpt>
      <trkpt lat="43.71078" lon="4.88179">
        <ele>116.9375</ele>
        <time>2011-01-23T09:27:54Z</time>
      </trkpt>
      <trkpt lat="43.71074" lon="4.88177">
        <ele>115.976196</ele>
        <time>2011-01-23T09:28:05Z</time>
      </trkpt>
      <trkpt lat="43.71074" lon="4.88184">
        <ele>115.495605</ele>
        <time>2011-01-23T09:28:11Z</time>
      </trkpt>
      <trkpt lat="43.71072" lon="4.8819">
        <ele>115.976196</ele>
        <time>2011-01-23T09:28:19Z</time>
      </trkpt>
      <trkpt lat="43.71069" lon="4.88196">
        <ele>113.092285</ele>
        <time>2011-01-23T09:28:30Z</time>
      </trkpt>
      <trkpt lat="43.71067" lon="4.88201">
        <ele>110.208252</ele>
        <time>2011-01-23T09:28:42Z</time>
      </trkpt>
      <trkpt lat="43.71067" lon="4.88203">
        <ele>109.727661</ele>
        <time>2011-01-23T09:28:43Z</time>
      </trkpt>
      <trkpt lat="43.71067" lon="4.88207">
        <ele>109.246948</ele>
        <time>2011-01-23T09:28:46Z</time>
      </trkpt>
      <trkpt lat="43.71067" lon="4.8822">
        <ele>107.324341</ele>
        <time>2011-01-23T09:29:00Z</time>
      </trkpt>
      <trkpt lat="43.71069" lon="4.88226">
        <ele>106.843628</ele>
        <time>2011-01-23T09:29:07Z</time>
      </trkpt>
      <trkpt lat="43.71067" lon="4.88239">
        <ele>104.921021</ele>
        <time>2011-01-23T09:29:18Z</time>
      </trkpt>
      <trkpt lat="43.71065" lon="4.8825">
        <ele>100.595093</ele>
        <time>2011-01-23T09:29:31Z</time>
      </trkpt>
      <trkpt lat="43.71065" lon="4.88254">
        <ele>98.672485</ele>
        <time>2011-01-23T09:29:45Z</time>
      </trkpt>
      <trkpt lat="43.71063" lon="4.88265">
        <ele>96.269287</ele>
        <time>2011-01-23T09:29:55Z</time>
      </trkpt>
      <trkpt lat="43.71061" lon="4.88274">
        <ele>95.788452</ele>
        <time>2011-01-23T09:30:06Z</time>
      </trkpt>
      <trkpt lat="43.71061" lon="4.88276">
        <ele>95.788452</ele>
        <time>2011-01-23T09:30:07Z</time>
      </trkpt>
      <trkpt lat="43.71061" lon="4.88284">
        <ele>95.788452</ele>
        <time>2011-01-23T09:30:16Z</time>
      </trkpt>
      <trkpt lat="43.71061" lon="4.88299">
        <ele>94.346558</ele>
        <time>2011-01-23T09:30:27Z</time>
      </trkpt>
      <trkpt lat="43.71061" lon="4.88314">
        <ele>91.462524</ele>
        <time>2011-01-23T09:30:39Z</time>
      </trkpt>
      <trkpt lat="43.71061" lon="4.88325">
        <ele>89.059326</ele>
        <time>2011-01-23T09:30:52Z</time>
      </trkpt>
      <trkpt lat="43.71059" lon="4.88334">
        <ele>88.098022</ele>
        <time>2011-01-23T09:31:00Z</time>
      </trkpt>
      <trkpt lat="43.71061" lon="4.88355">
        <ele>84.733398</ele>
        <time>2011-01-23T09:31:15Z</time>
      </trkpt>
      <trkpt lat="43.71063" lon="4.8837">
        <ele>84.252686</ele>
        <time>2011-01-23T09:31:28Z</time>
      </trkpt>
      <trkpt lat="43.71063" lon="4.88381">
        <ele>83.291382</ele>
        <time>2011-01-23T09:31:40Z</time>
      </trkpt>
      <trkpt lat="43.71061" lon="4.88385">
        <ele>82.330078</ele>
        <time>2011-01-23T09:31:57Z</time>
      </trkpt>
      <trkpt lat="43.71061" lon="4.88396">
        <ele>79.446045</ele>
        <time>2011-01-23T09:32:03Z</time>
      </trkpt>
      <trkpt lat="43.71061" lon="4.88402">
        <ele>77.042847</ele>
        <time>2011-01-23T09:32:07Z</time>
      </trkpt>
      <trkpt lat="43.71063" lon="4.88413">
        <ele>73.197632</ele>
        <time>2011-01-23T09:32:15Z</time>
      </trkpt>
      <trkpt lat="43.71065" lon="4.88426">
        <ele>72.236206</ele>
        <time>2011-01-23T09:32:26Z</time>
      </trkpt>
      <trkpt lat="43.71063" lon="4.88447">
        <ele>70.794189</ele>
        <time>2011-01-23T09:32:41Z</time>
      </trkpt>
      <trkpt lat="43.71065" lon="4.8846">
        <ele>69.832886</ele>
        <time>2011-01-23T09:32:49Z</time>
      </trkpt>
      <trkpt lat="43.71065" lon="4.88471">
        <ele>68.390869</ele>
        <time>2011-01-23T09:32:56Z</time>
      </trkpt>
      <trkpt lat="43.71065" lon="4.88486">
        <ele>66.948975</ele>
        <time>2011-01-23T09:33:06Z</time>
      </trkpt>
      <trkpt lat="43.71065" lon="4.88488">
        <ele>67.429688</ele>
        <time>2011-01-23T09:33:08Z</time>
      </trkpt>
      <trkpt lat="43.71065" lon="4.88495">
        <ele>66.468262</ele>
        <time>2011-01-23T09:33:14Z</time>
      </trkpt>
      <trkpt lat="43.71065" lon="4.88514">
        <ele>62.622925</ele>
        <time>2011-01-23T09:33:27Z</time>
      </trkpt>
      <trkpt lat="43.71063" lon="4.88535">
        <ele>62.142334</ele>
        <time>2011-01-23T09:33:40Z</time>
      </trkpt>
      <trkpt lat="43.71061" lon="4.88544">
        <ele>64.065063</ele>
        <time>2011-01-23T09:33:50Z</time>
      </trkpt>
      <trkpt lat="43.71059" lon="4.88548">
        <ele>64.065063</ele>
        <time>2011-01-23T09:33:53Z</time>
      </trkpt>
      <trkpt lat="43.71059" lon="4.88559">
        <ele>64.545654</ele>
        <time>2011-01-23T09:34:00Z</time>
      </trkpt>
      <trkpt lat="43.71063" lon="4.88581">
        <ele>61.18103</ele>
        <time>2011-01-23T09:34:15Z</time>
      </trkpt>
      <trkpt lat="43.71065" lon="4.88602">
        <ele>60.219727</ele>
        <time>2011-01-23T09:34:29Z</time>
      </trkpt>
      <trkpt lat="43.71065" lon="4.88608">
        <ele>59.739136</ele>
        <time>2011-01-23T09:34:33Z</time>
      </trkpt>
      <trkpt lat="43.71063" lon="4.88615">
        <ele>59.739136</ele>
        <time>2011-01-23T09:34:45Z</time>
      </trkpt>
      <trkpt lat="43.71059" lon="4.88617">
        <ele>58.77771</ele>
        <time>2011-01-23T09:35:08Z</time>
      </trkpt>
      <trkpt lat="43.71061" lon="4.88619">
        <ele>60.219727</ele>
        <time>2011-01-23T09:35:23Z</time>
      </trkpt>
      <trkpt lat="43.71072" lon="4.88623">
        <ele>60.219727</ele>
        <time>2011-01-23T09:35:34Z</time>
      </trkpt>
      <trkpt lat="43.71085" lon="4.88634">
        <ele>62.622925</ele>
        <time>2011-01-23T09:35:47Z</time>
      </trkpt>
      <trkpt lat="43.71097" lon="4.88638">
        <ele>65.987671</ele>
        <time>2011-01-23T09:35:59Z</time>
      </trkpt>
      <trkpt lat="43.71102" lon="4.88638">
        <ele>67.429688</ele>
        <time>2011-01-23T09:36:03Z</time>
      </trkpt>
      <trkpt lat="43.71104" lon="4.88638">
        <ele>68.390869</ele>
        <time>2011-01-23T09:36:05Z</time>
      </trkpt>
      <trkpt lat="43.7111" lon="4.88634">
        <ele>70.794189</ele>
        <time>2011-01-23T09:36:13Z</time>
      </trkpt>
      <trkpt lat="43.71121" lon="4.88621">
        <ele>71.274902</ele>
        <time>2011-01-23T09:36:26Z</time>
      </trkpt>
      <trkpt lat="43.71125" lon="4.88617">
        <ele>71.274902</ele>
        <time>2011-01-23T09:36:30Z</time>
      </trkpt>
      <trkpt lat="43.71142" lon="4.88606">
        <ele>73.678223</ele>
        <time>2011-01-23T09:36:46Z</time>
      </trkpt>
      <trkpt lat="43.71157" lon="4.88596">
        <ele>76.562134</ele>
        <time>2011-01-23T09:37:01Z</time>
      </trkpt>
      <trkpt lat="43.71168" lon="4.88589">
        <ele>76.562134</ele>
        <time>2011-01-23T09:37:11Z</time>
      </trkpt>
      <trkpt lat="43.71175" lon="4.88585">
        <ele>75.60083</ele>
        <time>2011-01-23T09:37:20Z</time>
      </trkpt>
      <trkpt lat="43.71192" lon="4.88576">
        <ele>76.081421</ele>
        <time>2011-01-23T09:37:32Z</time>
      </trkpt>
      <trkpt lat="43.71194" lon="4.88574">
        <ele>76.081421</ele>
        <time>2011-01-23T09:37:34Z</time>
      </trkpt>
      <trkpt lat="43.71205" lon="4.88555">
        <ele>74.158813</ele>
        <time>2011-01-23T09:37:49Z</time>
      </trkpt>
      <trkpt lat="43.71211" lon="4.88538">
        <ele>72.236206</ele>
        <time>2011-01-23T09:38:02Z</time>
      </trkpt>
      <trkpt lat="43.71215" lon="4.88518">
        <ele>72.236206</ele>
        <time>2011-01-23T09:38:15Z</time>
      </trkpt>
      <trkpt lat="43.71218" lon="4.88505">
        <ele>71.755493</ele>
        <time>2011-01-23T09:38:23Z</time>
      </trkpt>
      <trkpt lat="43.71222" lon="4.88499">
        <ele>72.236206</ele>
        <time>2011-01-23T09:38:28Z</time>
      </trkpt>
      <trkpt lat="43.71226" lon="4.88482">
        <ele>72.716919</ele>
        <time>2011-01-23T09:38:40Z</time>
      </trkpt>
      <trkpt lat="43.71233" lon="4.88467">
        <ele>72.716919</ele>
        <time>2011-01-23T09:38:51Z</time>
      </trkpt>
      <trkpt lat="43.71239" lon="4.88452">
        <ele>71.274902</ele>
        <time>2011-01-23T09:39:01Z</time>
      </trkpt>
      <trkpt lat="43.71239" lon="4.8845">
        <ele>70.794189</ele>
        <time>2011-01-23T09:39:03Z</time>
      </trkpt>
      <trkpt lat="43.71239" lon="4.88445">
        <ele>70.794189</ele>
        <time>2011-01-23T09:39:05Z</time>
      </trkpt>
      <trkpt lat="43.71239" lon="4.88439">
        <ele>70.313477</ele>
        <time>2011-01-23T09:39:09Z</time>
      </trkpt>
      <trkpt lat="43.71239" lon="4.88437">
        <ele>70.313477</ele>
        <time>2011-01-23T09:39:10Z</time>
      </trkpt>
      <trkpt lat="43.71239" lon="4.88435">
        <ele>70.313477</ele>
        <time>2011-01-23T09:39:12Z</time>
      </trkpt>
      <trkpt lat="43.71239" lon="4.88426">
        <ele>69.352295</ele>
        <time>2011-01-23T09:39:17Z</time>
      </trkpt>
      <trkpt lat="43.71241" lon="4.88405">
        <ele>70.794189</ele>
        <time>2011-01-23T09:39:30Z</time>
      </trkpt>
      <trkpt lat="43.71252" lon="4.88383">
        <ele>71.274902</ele>
        <time>2011-01-23T09:39:44Z</time>
      </trkpt>
      <trkpt lat="43.71263" lon="4.8836">
        <ele>66.948975</ele>
        <time>2011-01-23T09:40:00Z</time>
      </trkpt>
      <trkpt lat="43.71265" lon="4.88357">
        <ele>66.468262</ele>
        <time>2011-01-23T09:40:02Z</time>
      </trkpt>
      <trkpt lat="43.71267" lon="4.88355">
        <ele>66.948975</ele>
        <time>2011-01-23T09:40:04Z</time>
      </trkpt>
      <trkpt lat="43.71269" lon="4.88349">
        <ele>66.948975</ele>
        <time>2011-01-23T09:40:08Z</time>
      </trkpt>
      <trkpt lat="43.71275" lon="4.88338">
        <ele>67.429688</ele>
        <time>2011-01-23T09:40:18Z</time>
      </trkpt>
      <trkpt lat="43.71286" lon="4.88323">
        <ele>66.948975</ele>
        <time>2011-01-23T09:40:29Z</time>
      </trkpt>
      <trkpt lat="43.7129" lon="4.88319">
        <ele>66.468262</ele>
        <time>2011-01-23T09:40:32Z</time>
      </trkpt>
      <trkpt lat="43.71306" lon="4.88308">
        <ele>65.987671</ele>
        <time>2011-01-23T09:40:44Z</time>
      </trkpt>
      <trkpt lat="43.71316" lon="4.88295">
        <ele>65.50708</ele>
        <time>2011-01-23T09:40:56Z</time>
      </trkpt>
      <trkpt lat="43.71325" lon="4.88287">
        <ele>65.50708</ele>
        <time>2011-01-23T09:41:04Z</time>
      </trkpt>
      <trkpt lat="43.71333" lon="4.88278">
        <ele>65.50708</ele>
        <time>2011-01-23T09:41:13Z</time>
      </trkpt>
      <trkpt lat="43.71344" lon="4.88265">
        <ele>65.987671</ele>
        <time>2011-01-23T09:41:25Z</time>
      </trkpt>
      <trkpt lat="43.71361" lon="4.88252">
        <ele>64.065063</ele>
        <time>2011-01-23T09:41:40Z</time>
      </trkpt>
      <trkpt lat="43.71374" lon="4.88239">
        <ele>64.545654</ele>
        <time>2011-01-23T09:41:53Z</time>
      </trkpt>
      <trkpt lat="43.71387" lon="4.88229">
        <ele>65.026367</ele>
        <time>2011-01-23T09:42:06Z</time>
      </trkpt>
      <trkpt lat="43.71393" lon="4.88224">
        <ele>65.026367</ele>
        <time>2011-01-23T09:42:11Z</time>
      </trkpt>
      <trkpt lat="43.71402" lon="4.8822">
        <ele>66.468262</ele>
        <time>2011-01-23T09:42:19Z</time>
      </trkpt>
      <trkpt lat="43.71415" lon="4.88209">
        <ele>68.390869</ele>
        <time>2011-01-23T09:42:30Z</time>
      </trkpt>
      <trkpt lat="43.71426" lon="4.88194">
        <ele>67.429688</ele>
        <time>2011-01-23T09:42:46Z</time>
      </trkpt>
      <trkpt lat="43.71439" lon="4.88179">
        <ele>68.390869</ele>
        <time>2011-01-23T09:43:00Z</time>
      </trkpt>
      <trkpt lat="43.71445" lon="4.88166">
        <ele>67.429688</ele>
        <time>2011-01-23T09:43:10Z</time>
      </trkpt>
      <trkpt lat="43.71449" lon="4.88156">
        <ele>67.910278</ele>
        <time>2011-01-23T09:43:19Z</time>
      </trkpt>
      <trkpt lat="43.71458" lon="4.88141">
        <ele>69.352295</ele>
        <time>2011-01-23T09:43:32Z</time>
      </trkpt>
      <trkpt lat="43.7146" lon="4.88138">
        <ele>69.832886</ele>
        <time>2011-01-23T09:43:35Z</time>
      </trkpt>
      <trkpt lat="43.71466" lon="4.88126">
        <ele>69.832886</ele>
        <time>2011-01-23T09:43:45Z</time>
      </trkpt>
      <trkpt lat="43.71473" lon="4.88111">
        <ele>69.832886</ele>
        <time>2011-01-23T09:43:56Z</time>
      </trkpt>
      <trkpt lat="43.71481" lon="4.88098">
        <ele>70.794189</ele>
        <time>2011-01-23T09:44:07Z</time>
      </trkpt>
      <trkpt lat="43.7149" lon="4.88083">
        <ele>71.755493</ele>
        <time>2011-01-23T09:44:19Z</time>
      </trkpt>
      <trkpt lat="43.71496" lon="4.8807">
        <ele>73.197632</ele>
        <time>2011-01-23T09:44:30Z</time>
      </trkpt>
      <trkpt lat="43.71505" lon="4.88055">
        <ele>73.678223</ele>
        <time>2011-01-23T09:44:43Z</time>
      </trkpt>
      <trkpt lat="43.71512" lon="4.8804">
        <ele>72.716919</ele>
        <time>2011-01-23T09:44:50Z</time>
      </trkpt>
      <trkpt lat="43.71518" lon="4.88023">
        <ele>72.716919</ele>
        <time>2011-01-23T09:45:01Z</time>
      </trkpt>
      <trkpt lat="43.71524" lon="4.88014">
        <ele>72.716919</ele>
        <time>2011-01-23T09:45:12Z</time>
      </trkpt>
      <trkpt lat="43.71531" lon="4.88003">
        <ele>72.236206</ele>
        <time>2011-01-23T09:45:22Z</time>
      </trkpt>
      <trkpt lat="43.71533" lon="4.87999">
        <ele>72.716919</ele>
        <time>2011-01-23T09:45:26Z</time>
      </trkpt>
      <trkpt lat="43.71535" lon="4.87993">
        <ele>73.678223</ele>
        <time>2011-01-23T09:45:30Z</time>
      </trkpt>
      <trkpt lat="43.71537" lon="4.87988">
        <ele>74.639526</ele>
        <time>2011-01-23T09:45:33Z</time>
      </trkpt>
      <trkpt lat="43.71537" lon="4.87986">
        <ele>74.639526</ele>
        <time>2011-01-23T09:45:35Z</time>
      </trkpt>
      <trkpt lat="43.71542" lon="4.8798">
        <ele>75.60083</ele>
        <time>2011-01-23T09:45:39Z</time>
      </trkpt>
      <trkpt lat="43.71546" lon="4.87971">
        <ele>76.562134</ele>
        <time>2011-01-23T09:45:47Z</time>
      </trkpt>
      <trkpt lat="43.71554" lon="4.87956">
        <ele>80.407471</ele>
        <time>2011-01-23T09:46:00Z</time>
      </trkpt>
      <trkpt lat="43.71563" lon="4.87935">
        <ele>83.291382</ele>
        <time>2011-01-23T09:46:15Z</time>
      </trkpt>
      <trkpt lat="43.71567" lon="4.87928">
        <ele>83.771973</ele>
        <time>2011-01-23T09:46:26Z</time>
      </trkpt>
      <trkpt lat="43.71569" lon="4.87922">
        <ele>84.252686</ele>
        <time>2011-01-23T09:46:31Z</time>
      </trkpt>
      <trkpt lat="43.71576" lon="4.87898">
        <ele>81.368774</ele>
        <time>2011-01-23T09:46:44Z</time>
      </trkpt>
      <trkpt lat="43.7158" lon="4.8789">
        <ele>81.368774</ele>
        <time>2011-01-23T09:46:49Z</time>
      </trkpt>
      <trkpt lat="43.71584" lon="4.87877">
        <ele>81.368774</ele>
        <time>2011-01-23T09:46:55Z</time>
      </trkpt>
      <trkpt lat="43.71591" lon="4.8787">
        <ele>81.368774</ele>
        <time>2011-01-23T09:47:00Z</time>
      </trkpt>
      <trkpt lat="43.71602" lon="4.8787">
        <ele>82.330078</ele>
        <time>2011-01-23T09:47:10Z</time>
      </trkpt>
      <trkpt lat="43.71612" lon="4.87875">
        <ele>79.926636</ele>
        <time>2011-01-23T09:47:19Z</time>
      </trkpt>
      <trkpt lat="43.71623" lon="4.87881">
        <ele>74.639526</ele>
        <time>2011-01-23T09:47:27Z</time>
      </trkpt>
      <trkpt lat="43.71636" lon="4.87885">
        <ele>71.755493</ele>
        <time>2011-01-23T09:47:39Z</time>
      </trkpt>
      <trkpt lat="43.71645" lon="4.87885">
        <ele>75.60083</ele>
        <time>2011-01-23T09:47:48Z</time>
      </trkpt>
      <trkpt lat="43.71653" lon="4.87892">
        <ele>77.042847</ele>
        <time>2011-01-23T09:47:56Z</time>
      </trkpt>
      <trkpt lat="43.71662" lon="4.87898">
        <ele>77.042847</ele>
        <time>2011-01-23T09:48:04Z</time>
      </trkpt>
      <trkpt lat="43.71668" lon="4.87915">
        <ele>78.965454</ele>
        <time>2011-01-23T09:48:17Z</time>
      </trkpt>
      <trkpt lat="43.71675" lon="4.87922">
        <ele>81.849365</ele>
        <time>2011-01-23T09:48:26Z</time>
      </trkpt>
      <trkpt lat="43.71679" lon="4.8793">
        <ele>84.733398</ele>
        <time>2011-01-23T09:48:36Z</time>
      </trkpt>
      <trkpt lat="43.71685" lon="4.87943">
        <ele>88.578735</ele>
        <time>2011-01-23T09:48:48Z</time>
      </trkpt>
      <trkpt lat="43.7169" lon="4.87952">
        <ele>91.943237</ele>
        <time>2011-01-23T09:48:59Z</time>
      </trkpt>
      <trkpt lat="43.71694" lon="4.87956">
        <ele>94.346558</ele>
        <time>2011-01-23T09:49:09Z</time>
      </trkpt>
      <trkpt lat="43.71696" lon="4.87956">
        <ele>94.346558</ele>
        <time>2011-01-23T09:49:12Z</time>
      </trkpt>
      <trkpt lat="43.71709" lon="4.87948">
        <ele>91.462524</ele>
        <time>2011-01-23T09:49:25Z</time>
      </trkpt>
      <trkpt lat="43.71715" lon="4.87941">
        <ele>91.462524</ele>
        <time>2011-01-23T09:49:32Z</time>
      </trkpt>
      <trkpt lat="43.71724" lon="4.87926">
        <ele>90.501343</ele>
        <time>2011-01-23T09:49:45Z</time>
      </trkpt>
      <trkpt lat="43.71724" lon="4.87922">
        <ele>89.539917</ele>
        <time>2011-01-23T09:49:48Z</time>
      </trkpt>
      <trkpt lat="43.71726" lon="4.87907">
        <ele>88.098022</ele>
        <time>2011-01-23T09:49:57Z</time>
      </trkpt>
      <trkpt lat="43.71728" lon="4.87898">
        <ele>88.098022</ele>
        <time>2011-01-23T09:50:02Z</time>
      </trkpt>
      <trkpt lat="43.71728" lon="4.87881">
        <ele>87.617188</ele>
        <time>2011-01-23T09:50:13Z</time>
      </trkpt>
      <trkpt lat="43.7173" lon="4.87872">
        <ele>87.617188</ele>
        <time>2011-01-23T09:50:19Z</time>
      </trkpt>
      <trkpt lat="43.7173" lon="4.87851">
        <ele>88.578735</ele>
        <time>2011-01-23T09:50:31Z</time>
      </trkpt>
      <trkpt lat="43.71737" lon="4.87825">
        <ele>88.098022</ele>
        <time>2011-01-23T09:50:46Z</time>
      </trkpt>
      <trkpt lat="43.71739" lon="4.87802">
        <ele>88.098022</ele>
        <time>2011-01-23T09:51:00Z</time>
      </trkpt>
      <trkpt lat="43.71739" lon="4.87776">
        <ele>89.059326</ele>
        <time>2011-01-23T09:51:14Z</time>
      </trkpt>
      <trkpt lat="43.71741" lon="4.8775">
        <ele>89.059326</ele>
        <time>2011-01-23T09:51:30Z</time>
      </trkpt>
      <trkpt lat="43.71741" lon="4.87729">
        <ele>89.059326</ele>
        <time>2011-01-23T09:51:43Z</time>
      </trkpt>
      <trkpt lat="43.71739" lon="4.87722">
        <ele>89.539917</ele>
        <time>2011-01-23T09:51:47Z</time>
      </trkpt>
      <trkpt lat="43.71739" lon="4.87714">
        <ele>89.539917</ele>
        <time>2011-01-23T09:51:52Z</time>
      </trkpt>
      <trkpt lat="43.71739" lon="4.87705">
        <ele>89.539917</ele>
        <time>2011-01-23T09:51:56Z</time>
      </trkpt>
      <trkpt lat="43.71737" lon="4.87686">
        <ele>89.539917</ele>
        <time>2011-01-23T09:52:07Z</time>
      </trkpt>
      <trkpt lat="43.71737" lon="4.87664">
        <ele>88.098022</ele>
        <time>2011-01-23T09:52:20Z</time>
      </trkpt>
      <trkpt lat="43.71739" lon="4.87641">
        <ele>86.175293</ele>
        <time>2011-01-23T09:52:33Z</time>
      </trkpt>
      <trkpt lat="43.71741" lon="4.87617">
        <ele>85.69458</ele>
        <time>2011-01-23T09:52:47Z</time>
      </trkpt>
      <trkpt lat="43.71741" lon="4.87606">
        <ele>86.656006</ele>
        <time>2011-01-23T09:52:53Z</time>
      </trkpt>
      <trkpt lat="43.71741" lon="4.876">
        <ele>87.136597</ele>
        <time>2011-01-23T09:52:58Z</time>
      </trkpt>
      <trkpt lat="43.71739" lon="4.87591">
        <ele>87.136597</ele>
        <time>2011-01-23T09:53:04Z</time>
      </trkpt>
      <trkpt lat="43.71739" lon="4.87585">
        <ele>87.136597</ele>
        <time>2011-01-23T09:53:08Z</time>
      </trkpt>
      <trkpt lat="43.71733" lon="4.87572">
        <ele>86.656006</ele>
        <time>2011-01-23T09:53:18Z</time>
      </trkpt>
      <trkpt lat="43.7173" lon="4.8757">
        <ele>86.175293</ele>
        <time>2011-01-23T09:53:20Z</time>
      </trkpt>
      <trkpt lat="43.71724" lon="4.87557">
        <ele>86.175293</ele>
        <time>2011-01-23T09:53:29Z</time>
      </trkpt>
      <trkpt lat="43.71715" lon="4.87546">
        <ele>89.059326</ele>
        <time>2011-01-23T09:53:39Z</time>
      </trkpt>
      <trkpt lat="43.71707" lon="4.87538">
        <ele>92.42395</ele>
        <time>2011-01-23T09:53:49Z</time>
      </trkpt>
      <trkpt lat="43.71698" lon="4.87527">
        <ele>92.904541</ele>
        <time>2011-01-23T09:53:59Z</time>
      </trkpt>
      <trkpt lat="43.71692" lon="4.87516">
        <ele>92.904541</ele>
        <time>2011-01-23T09:54:08Z</time>
      </trkpt>
      <trkpt lat="43.71683" lon="4.87503">
        <ele>92.42395</ele>
        <time>2011-01-23T09:54:17Z</time>
      </trkpt>
      <trkpt lat="43.71683" lon="4.87495">
        <ele>90.981934</ele>
        <time>2011-01-23T09:54:21Z</time>
      </trkpt>
      <trkpt lat="43.71681" lon="4.87473">
        <ele>90.02063</ele>
        <time>2011-01-23T09:54:32Z</time>
      </trkpt>
      <trkpt lat="43.71683" lon="4.87471">
        <ele>90.02063</ele>
        <time>2011-01-23T09:54:34Z</time>
      </trkpt>
      <trkpt lat="43.71683" lon="4.87469">
        <ele>89.059326</ele>
        <time>2011-01-23T09:54:38Z</time>
      </trkpt>
      <trkpt lat="43.71683" lon="4.87454">
        <ele>87.136597</ele>
        <time>2011-01-23T09:54:47Z</time>
      </trkpt>
      <trkpt lat="43.71683" lon="4.87443">
        <ele>85.69458</ele>
        <time>2011-01-23T09:54:54Z</time>
      </trkpt>
      <trkpt lat="43.71681" lon="4.8743">
        <ele>85.213989</ele>
        <time>2011-01-23T09:55:02Z</time>
      </trkpt>
      <trkpt lat="43.71681" lon="4.87426">
        <ele>85.69458</ele>
        <time>2011-01-23T09:55:15Z</time>
      </trkpt>
      <trkpt lat="43.71683" lon="4.87426">
        <ele>84.733398</ele>
        <time>2011-01-23T09:55:33Z</time>
      </trkpt>
      <trkpt lat="43.71685" lon="4.87418">
        <ele>84.733398</ele>
        <time>2011-01-23T09:55:38Z</time>
      </trkpt>
      <trkpt lat="43.7169" lon="4.87392">
        <ele>84.252686</ele>
        <time>2011-01-23T09:55:53Z</time>
      </trkpt>
      <trkpt lat="43.7169" lon="4.8737">
        <ele>83.771973</ele>
        <time>2011-01-23T09:56:05Z</time>
      </trkpt>
      <trkpt lat="43.71692" lon="4.87345">
        <ele>83.771973</ele>
        <time>2011-01-23T09:56:20Z</time>
      </trkpt>
      <trkpt lat="43.71692" lon="4.8734">
        <ele>83.291382</ele>
        <time>2011-01-23T09:56:22Z</time>
      </trkpt>
      <trkpt lat="43.71694" lon="4.87327">
        <ele>84.252686</ele>
        <time>2011-01-23T09:56:30Z</time>
      </trkpt>
      <trkpt lat="43.71696" lon="4.87304">
        <ele>84.733398</ele>
        <time>2011-01-23T09:56:43Z</time>
      </trkpt>
      <trkpt lat="43.71696" lon="4.87278">
        <ele>82.330078</ele>
        <time>2011-01-23T09:56:58Z</time>
      </trkpt>
      <trkpt lat="43.71698" lon="4.87263">
        <ele>82.810791</ele>
        <time>2011-01-23T09:57:10Z</time>
      </trkpt>
      <trkpt lat="43.71702" lon="4.87239">
        <ele>83.291382</ele>
        <time>2011-01-23T09:57:23Z</time>
      </trkpt>
      <trkpt lat="43.71702" lon="4.87218">
        <ele>81.849365</ele>
        <time>2011-01-23T09:57:35Z</time>
      </trkpt>
      <trkpt lat="43.71702" lon="4.87196">
        <ele>80.888184</ele>
        <time>2011-01-23T09:57:48Z</time>
      </trkpt>
      <trkpt lat="43.71707" lon="4.87173">
        <ele>82.810791</ele>
        <time>2011-01-23T09:58:02Z</time>
      </trkpt>
      <trkpt lat="43.71707" lon="4.87151">
        <ele>83.291382</ele>
        <time>2011-01-23T09:58:14Z</time>
      </trkpt>
      <trkpt lat="43.71707" lon="4.87134">
        <ele>81.849365</ele>
        <time>2011-01-23T09:58:25Z</time>
      </trkpt>
      <trkpt lat="43.71709" lon="4.87117">
        <ele>81.849365</ele>
        <time>2011-01-23T09:58:35Z</time>
      </trkpt>
      <trkpt lat="43.71711" lon="4.87102">
        <ele>82.330078</ele>
        <time>2011-01-23T09:58:45Z</time>
      </trkpt>
      <trkpt lat="43.71713" lon="4.87096">
        <ele>82.810791</ele>
        <time>2011-01-23T09:58:50Z</time>
      </trkpt>
      <trkpt lat="43.71713" lon="4.87089">
        <ele>82.330078</ele>
        <time>2011-01-23T09:58:54Z</time>
      </trkpt>
      <trkpt lat="43.71713" lon="4.87085">
        <ele>82.330078</ele>
        <time>2011-01-23T09:58:57Z</time>
      </trkpt>
      <trkpt lat="43.71715" lon="4.87078">
        <ele>81.849365</ele>
        <time>2011-01-23T09:59:01Z</time>
      </trkpt>
      <trkpt lat="43.71715" lon="4.87072">
        <ele>81.368774</ele>
        <time>2011-01-23T09:59:06Z</time>
      </trkpt>
      <trkpt lat="43.71715" lon="4.87068">
        <ele>81.368774</ele>
        <time>2011-01-23T09:59:09Z</time>
      </trkpt>
      <trkpt lat="43.71715" lon="4.87066">
        <ele>80.888184</ele>
        <time>2011-01-23T09:59:11Z</time>
      </trkpt>
      <trkpt lat="43.71718" lon="4.87059">
        <ele>80.407471</ele>
        <time>2011-01-23T09:59:25Z</time>
      </trkpt>
      <trkpt lat="43.71718" lon="4.87044">
        <ele>83.291382</ele>
        <time>2011-01-23T09:59:37Z</time>
      </trkpt>
      <trkpt lat="43.71713" lon="4.87031">
        <ele>83.291382</ele>
        <time>2011-01-23T09:59:49Z</time>
      </trkpt>
      <trkpt lat="43.71713" lon="4.8701">
        <ele>82.810791</ele>
        <time>2011-01-23T10:00:02Z</time>
      </trkpt>
      <trkpt lat="43.71715" lon="4.87001">
        <ele>82.330078</ele>
        <time>2011-01-23T10:00:07Z</time>
      </trkpt>
      <trkpt lat="43.71718" lon="4.86991">
        <ele>82.810791</ele>
        <time>2011-01-23T10:00:13Z</time>
      </trkpt>
      <trkpt lat="43.71718" lon="4.86969">
        <ele>83.291382</ele>
        <time>2011-01-23T10:00:25Z</time>
      </trkpt>
      <trkpt lat="43.71715" lon="4.86963">
        <ele>83.291382</ele>
        <time>2011-01-23T10:00:30Z</time>
      </trkpt>
      <trkpt lat="43.71709" lon="4.86956">
        <ele>83.771973</ele>
        <time>2011-01-23T10:00:37Z</time>
      </trkpt>
      <trkpt lat="43.71702" lon="4.86952">
        <ele>81.849365</ele>
        <time>2011-01-23T10:00:43Z</time>
      </trkpt>
      <trkpt lat="43.71702" lon="4.86952">
        <ele>81.368774</ele>
        <time>2011-01-23T10:00:45Z</time>
      </trkpt>
      <trkpt lat="43.71687" lon="4.86948">
        <ele>81.849365</ele>
        <time>2011-01-23T10:00:59Z</time>
      </trkpt>
      <trkpt lat="43.71679" lon="4.86945">
        <ele>81.368774</ele>
        <time>2011-01-23T10:01:07Z</time>
      </trkpt>
      <trkpt lat="43.71675" lon="4.86943">
        <ele>81.849365</ele>
        <time>2011-01-23T10:01:11Z</time>
      </trkpt>
      <trkpt lat="43.71668" lon="4.86939">
        <ele>82.330078</ele>
        <time>2011-01-23T10:01:16Z</time>
      </trkpt>
      <trkpt lat="43.71655" lon="4.86933">
        <ele>84.733398</ele>
        <time>2011-01-23T10:01:27Z</time>
      </trkpt>
      <trkpt lat="43.71649" lon="4.86924">
        <ele>83.771973</ele>
        <time>2011-01-23T10:01:36Z</time>
      </trkpt>
      <trkpt lat="43.71647" lon="4.86918">
        <ele>83.291382</ele>
        <time>2011-01-23T10:01:40Z</time>
      </trkpt>
      <trkpt lat="43.71645" lon="4.86913">
        <ele>83.771973</ele>
        <time>2011-01-23T10:01:43Z</time>
      </trkpt>
      <trkpt lat="43.71642" lon="4.86909">
        <ele>84.252686</ele>
        <time>2011-01-23T10:01:47Z</time>
      </trkpt>
      <trkpt lat="43.71636" lon="4.86885">
        <ele>81.368774</ele>
        <time>2011-01-23T10:02:01Z</time>
      </trkpt>
      <trkpt lat="43.71632" lon="4.86881">
        <ele>81.368774</ele>
        <time>2011-01-23T10:02:05Z</time>
      </trkpt>
      <trkpt lat="43.71627" lon="4.86875">
        <ele>80.888184</ele>
        <time>2011-01-23T10:02:12Z</time>
      </trkpt>
      <trkpt lat="43.71625" lon="4.86872">
        <ele>80.888184</ele>
        <time>2011-01-23T10:02:13Z</time>
      </trkpt>
      <trkpt lat="43.71623" lon="4.86868">
        <ele>80.888184</ele>
        <time>2011-01-23T10:02:16Z</time>
      </trkpt>
      <trkpt lat="43.71619" lon="4.86847">
        <ele>82.810791</ele>
        <time>2011-01-23T10:02:30Z</time>
      </trkpt>
      <trkpt lat="43.71619" lon="4.86845">
        <ele>82.330078</ele>
        <time>2011-01-23T10:02:31Z</time>
      </trkpt>
      <trkpt lat="43.71619" lon="4.86823">
        <ele>81.849365</ele>
        <time>2011-01-23T10:02:42Z</time>
      </trkpt>
      <trkpt lat="43.71619" lon="4.86819">
        <ele>82.330078</ele>
        <time>2011-01-23T10:02:46Z</time>
      </trkpt>
      <trkpt lat="43.71619" lon="4.86812">
        <ele>82.330078</ele>
        <time>2011-01-23T10:02:50Z</time>
      </trkpt>
      <trkpt lat="43.71621" lon="4.86808">
        <ele>82.330078</ele>
        <time>2011-01-23T10:02:53Z</time>
      </trkpt>
      <trkpt lat="43.71621" lon="4.86804">
        <ele>82.330078</ele>
        <time>2011-01-23T10:02:56Z</time>
      </trkpt>
      <trkpt lat="43.71623" lon="4.86797">
        <ele>83.291382</ele>
        <time>2011-01-23T10:03:00Z</time>
      </trkpt>
      <trkpt lat="43.71625" lon="4.86785">
        <ele>83.771973</ele>
        <time>2011-01-23T10:03:07Z</time>
      </trkpt>
      <trkpt lat="43.7163" lon="4.86765">
        <ele>85.213989</ele>
        <time>2011-01-23T10:03:19Z</time>
      </trkpt>
      <trkpt lat="43.71634" lon="4.86752">
        <ele>85.69458</ele>
        <time>2011-01-23T10:03:30Z</time>
      </trkpt>
      <trkpt lat="43.71636" lon="4.86748">
        <ele>85.69458</ele>
        <time>2011-01-23T10:03:33Z</time>
      </trkpt>
      <trkpt lat="43.71642" lon="4.86739">
        <ele>87.617188</ele>
        <time>2011-01-23T10:03:42Z</time>
      </trkpt>
      <trkpt lat="43.71649" lon="4.86731">
        <ele>88.098022</ele>
        <time>2011-01-23T10:03:48Z</time>
      </trkpt>
      <trkpt lat="43.71653" lon="4.8672">
        <ele>88.578735</ele>
        <time>2011-01-23T10:03:56Z</time>
      </trkpt>
      <trkpt lat="43.71653" lon="4.86716">
        <ele>88.098022</ele>
        <time>2011-01-23T10:03:59Z</time>
      </trkpt>
      <trkpt lat="43.71655" lon="4.86712">
        <ele>88.098022</ele>
        <time>2011-01-23T10:04:02Z</time>
      </trkpt>
      <trkpt lat="43.71653" lon="4.86703">
        <ele>87.617188</ele>
        <time>2011-01-23T10:04:10Z</time>
      </trkpt>
      <trkpt lat="43.71653" lon="4.86701">
        <ele>88.098022</ele>
        <time>2011-01-23T10:04:12Z</time>
      </trkpt>
      <trkpt lat="43.71651" lon="4.86697">
        <ele>88.578735</ele>
        <time>2011-01-23T10:04:16Z</time>
      </trkpt>
      <trkpt lat="43.71651" lon="4.86692">
        <ele>88.578735</ele>
        <time>2011-01-23T10:04:19Z</time>
      </trkpt>
      <trkpt lat="43.71651" lon="4.86679">
        <ele>89.059326</ele>
        <time>2011-01-23T10:04:25Z</time>
      </trkpt>
      <trkpt lat="43.71662" lon="4.86669">
        <ele>90.02063</ele>
        <time>2011-01-23T10:04:31Z</time>
      </trkpt>
      <trkpt lat="43.71664" lon="4.86658">
        <ele>88.098022</ele>
        <time>2011-01-23T10:04:38Z</time>
      </trkpt>
      <trkpt lat="43.71666" lon="4.86651">
        <ele>88.098022</ele>
        <time>2011-01-23T10:04:42Z</time>
      </trkpt>
      <trkpt lat="43.71672" lon="4.86634">
        <ele>87.136597</ele>
        <time>2011-01-23T10:04:54Z</time>
      </trkpt>
      <trkpt lat="43.71683" lon="4.86626">
        <ele>87.617188</ele>
        <time>2011-01-23T10:05:04Z</time>
      </trkpt>
      <trkpt lat="43.71687" lon="4.86624">
        <ele>87.136597</ele>
        <time>2011-01-23T10:05:08Z</time>
      </trkpt>
      <trkpt lat="43.71696" lon="4.86611">
        <ele>86.656006</ele>
        <time>2011-01-23T10:05:18Z</time>
      </trkpt>
      <trkpt lat="43.71698" lon="4.86609">
        <ele>86.656006</ele>
        <time>2011-01-23T10:05:20Z</time>
      </trkpt>
      <trkpt lat="43.71709" lon="4.86591">
        <ele>86.656006</ele>
        <time>2011-01-23T10:05:34Z</time>
      </trkpt>
      <trkpt lat="43.71722" lon="4.86572">
        <ele>87.136597</ele>
        <time>2011-01-23T10:05:50Z</time>
      </trkpt>
      <trkpt lat="43.7173" lon="4.86553">
        <ele>88.098022</ele>
        <time>2011-01-23T10:06:04Z</time>
      </trkpt>
      <trkpt lat="43.71737" lon="4.86533">
        <ele>89.059326</ele>
        <time>2011-01-23T10:06:16Z</time>
      </trkpt>
      <trkpt lat="43.71743" lon="4.86514">
        <ele>88.578735</ele>
        <time>2011-01-23T10:06:30Z</time>
      </trkpt>
      <trkpt lat="43.71754" lon="4.86495">
        <ele>86.175293</ele>
        <time>2011-01-23T10:06:45Z</time>
      </trkpt>
      <trkpt lat="43.71763" lon="4.86471">
        <ele>84.252686</ele>
        <time>2011-01-23T10:06:58Z</time>
      </trkpt>
      <trkpt lat="43.71771" lon="4.86458">
        <ele>84.252686</ele>
        <time>2011-01-23T10:07:09Z</time>
      </trkpt>
      <trkpt lat="43.7178" lon="4.86437">
        <ele>86.656006</ele>
        <time>2011-01-23T10:07:24Z</time>
      </trkpt>
      <trkpt lat="43.71788" lon="4.8642">
        <ele>85.69458</ele>
        <time>2011-01-23T10:07:37Z</time>
      </trkpt>
      <trkpt lat="43.71793" lon="4.86409">
        <ele>87.136597</ele>
        <time>2011-01-23T10:07:44Z</time>
      </trkpt>
      <trkpt lat="43.71795" lon="4.86388">
        <ele>89.059326</ele>
        <time>2011-01-23T10:07:58Z</time>
      </trkpt>
      <trkpt lat="43.71797" lon="4.86383">
        <ele>89.539917</ele>
        <time>2011-01-23T10:08:02Z</time>
      </trkpt>
      <trkpt lat="43.71797" lon="4.86362">
        <ele>90.02063</ele>
        <time>2011-01-23T10:08:16Z</time>
      </trkpt>
      <trkpt lat="43.71799" lon="4.86355">
        <ele>90.02063</ele>
        <time>2011-01-23T10:08:19Z</time>
      </trkpt>
      <trkpt lat="43.71799" lon="4.86336">
        <ele>86.656006</ele>
        <time>2011-01-23T10:08:32Z</time>
      </trkpt>
      <trkpt lat="43.71799" lon="4.86334">
        <ele>86.656006</ele>
        <time>2011-01-23T10:08:33Z</time>
      </trkpt>
      <trkpt lat="43.71799" lon="4.86312">
        <ele>89.059326</ele>
        <time>2011-01-23T10:08:46Z</time>
      </trkpt>
      <trkpt lat="43.71799" lon="4.86306">
        <ele>89.539917</ele>
        <time>2011-01-23T10:08:51Z</time>
      </trkpt>
      <trkpt lat="43.71803" lon="4.86285">
        <ele>90.02063</ele>
        <time>2011-01-23T10:09:03Z</time>
      </trkpt>
      <trkpt lat="43.71803" lon="4.8628">
        <ele>90.02063</ele>
        <time>2011-01-23T10:09:06Z</time>
      </trkpt>
      <trkpt lat="43.7181" lon="4.86259">
        <ele>89.059326</ele>
        <time>2011-01-23T10:09:20Z</time>
      </trkpt>
      <trkpt lat="43.71814" lon="4.8625">
        <ele>89.539917</ele>
        <time>2011-01-23T10:09:27Z</time>
      </trkpt>
      <trkpt lat="43.71814" lon="4.86246">
        <ele>89.539917</ele>
        <time>2011-01-23T10:09:30Z</time>
      </trkpt>
      <trkpt lat="43.71818" lon="4.86237">
        <ele>90.981934</ele>
        <time>2011-01-23T10:09:37Z</time>
      </trkpt>
      <trkpt lat="43.71827" lon="4.86218">
        <ele>93.865845</ele>
        <time>2011-01-23T10:09:49Z</time>
      </trkpt>
      <trkpt lat="43.71838" lon="4.86194">
        <ele>96.269287</ele>
        <time>2011-01-23T10:10:02Z</time>
      </trkpt>
      <trkpt lat="43.71848" lon="4.86177">
        <ele>96.269287</ele>
        <time>2011-01-23T10:10:15Z</time>
      </trkpt>
      <trkpt lat="43.71857" lon="4.86162">
        <ele>96.269287</ele>
        <time>2011-01-23T10:10:27Z</time>
      </trkpt>
      <trkpt lat="43.71863" lon="4.86156">
        <ele>97.230469</ele>
        <time>2011-01-23T10:10:34Z</time>
      </trkpt>
      <trkpt lat="43.71868" lon="4.86152">
        <ele>99.153076</ele>
        <time>2011-01-23T10:10:38Z</time>
      </trkpt>
      <trkpt lat="43.71881" lon="4.86147">
        <ele>99.633789</ele>
        <time>2011-01-23T10:10:49Z</time>
      </trkpt>
      <trkpt lat="43.71883" lon="4.86147">
        <ele>99.633789</ele>
        <time>2011-01-23T10:10:51Z</time>
      </trkpt>
      <trkpt lat="43.71893" lon="4.86147">
        <ele>97.711182</ele>
        <time>2011-01-23T10:10:59Z</time>
      </trkpt>
      <trkpt lat="43.71896" lon="4.86149">
        <ele>97.230469</ele>
        <time>2011-01-23T10:11:02Z</time>
      </trkpt>
      <trkpt lat="43.71906" lon="4.86147">
        <ele>98.191895</ele>
        <time>2011-01-23T10:11:11Z</time>
      </trkpt>
      <trkpt lat="43.71917" lon="4.86149">
        <ele>99.153076</ele>
        <time>2011-01-23T10:11:19Z</time>
      </trkpt>
      <trkpt lat="43.71917" lon="4.86149">
        <ele>99.633789</ele>
        <time>2011-01-23T10:11:20Z</time>
      </trkpt>
      <trkpt lat="43.71923" lon="4.86147">
        <ele>100.114502</ele>
        <time>2011-01-23T10:11:26Z</time>
      </trkpt>
      <trkpt lat="43.7193" lon="4.86147">
        <ele>101.075684</ele>
        <time>2011-01-23T10:11:31Z</time>
      </trkpt>
      <trkpt lat="43.71941" lon="4.86145">
        <ele>99.153076</ele>
        <time>2011-01-23T10:11:41Z</time>
      </trkpt>
      <trkpt lat="43.71943" lon="4.86145">
        <ele>99.633789</ele>
        <time>2011-01-23T10:11:43Z</time>
      </trkpt>
      <trkpt lat="43.7196" lon="4.86139">
        <ele>102.998291</ele>
        <time>2011-01-23T10:11:57Z</time>
      </trkpt>
      <trkpt lat="43.71962" lon="4.86136">
        <ele>102.998291</ele>
        <time>2011-01-23T10:11:59Z</time>
      </trkpt>
      <trkpt lat="43.71971" lon="4.86132">
        <ele>104.921021</ele>
        <time>2011-01-23T10:12:07Z</time>
      </trkpt>
      <trkpt lat="43.71975" lon="4.86132">
        <ele>104.44043</ele>
        <time>2011-01-23T10:12:11Z</time>
      </trkpt>
      <trkpt lat="43.71988" lon="4.86126">
        <ele>102.998291</ele>
        <time>2011-01-23T10:12:24Z</time>
      </trkpt>
      <trkpt lat="43.72003" lon="4.86119">
        <ele>103.479004</ele>
        <time>2011-01-23T10:12:39Z</time>
      </trkpt>
      <trkpt lat="43.72018" lon="4.86115">
        <ele>104.921021</ele>
        <time>2011-01-23T10:12:51Z</time>
      </trkpt>
      <trkpt lat="43.72033" lon="4.86109">
        <ele>105.401733</ele>
        <time>2011-01-23T10:13:06Z</time>
      </trkpt>
      <trkpt lat="43.72042" lon="4.86106">
        <ele>107.324341</ele>
        <time>2011-01-23T10:13:14Z</time>
      </trkpt>
      <trkpt lat="43.72046" lon="4.86104">
        <ele>108.285645</ele>
        <time>2011-01-23T10:13:19Z</time>
      </trkpt>
      <trkpt lat="43.72059" lon="4.86104">
        <ele>110.208252</ele>
        <time>2011-01-23T10:13:30Z</time>
      </trkpt>
      <trkpt lat="43.72061" lon="4.86106">
        <ele>110.688843</ele>
        <time>2011-01-23T10:13:34Z</time>
      </trkpt>
      <trkpt lat="43.72076" lon="4.86119">
        <ele>109.727661</ele>
        <time>2011-01-23T10:13:46Z</time>
      </trkpt>
      <trkpt lat="43.72089" lon="4.8613">
        <ele>110.208252</ele>
        <time>2011-01-23T10:13:58Z</time>
      </trkpt>
      <trkpt lat="43.72095" lon="4.86134">
        <ele>113.092285</ele>
        <time>2011-01-23T10:14:07Z</time>
      </trkpt>
      <trkpt lat="43.72099" lon="4.86139">
        <ele>114.053589</ele>
        <time>2011-01-23T10:14:11Z</time>
      </trkpt>
      <trkpt lat="43.7211" lon="4.86143">
        <ele>115.014893</ele>
        <time>2011-01-23T10:14:19Z</time>
      </trkpt>
      <trkpt lat="43.72114" lon="4.86147">
        <ele>115.495605</ele>
        <time>2011-01-23T10:14:23Z</time>
      </trkpt>
      <trkpt lat="43.72121" lon="4.86147">
        <ele>114.53418</ele>
        <time>2011-01-23T10:14:29Z</time>
      </trkpt>
      <trkpt lat="43.72123" lon="4.86145">
        <ele>114.053589</ele>
        <time>2011-01-23T10:14:32Z</time>
      </trkpt>
      <trkpt lat="43.72123" lon="4.86143">
        <ele>114.53418</ele>
        <time>2011-01-23T10:14:34Z</time>
      </trkpt>
      <trkpt lat="43.72123" lon="4.86139">
        <ele>115.014893</ele>
        <time>2011-01-23T10:14:40Z</time>
      </trkpt>
      <trkpt lat="43.72123" lon="4.86121">
        <ele>119.821411</ele>
        <time>2011-01-23T10:14:50Z</time>
      </trkpt>
      <trkpt lat="43.72123" lon="4.86113">
        <ele>120.302124</ele>
        <time>2011-01-23T10:14:56Z</time>
      </trkpt>
      <trkpt lat="43.72123" lon="4.86106">
        <ele>119.34082</ele>
        <time>2011-01-23T10:15:01Z</time>
      </trkpt>
      <trkpt lat="43.72125" lon="4.861">
        <ele>117.418213</ele>
        <time>2011-01-23T10:15:06Z</time>
      </trkpt>
      <trkpt lat="43.72125" lon="4.86091">
        <ele>116.9375</ele>
        <time>2011-01-23T10:15:12Z</time>
      </trkpt>
      <trkpt lat="43.72127" lon="4.86076">
        <ele>116.456787</ele>
        <time>2011-01-23T10:15:21Z</time>
      </trkpt>
      <trkpt lat="43.72127" lon="4.86066">
        <ele>117.418213</ele>
        <time>2011-01-23T10:15:28Z</time>
      </trkpt>
      <trkpt lat="43.72127" lon="4.86059">
        <ele>117.418213</ele>
        <time>2011-01-23T10:15:31Z</time>
      </trkpt>
      <trkpt lat="43.72127" lon="4.86055">
        <ele>117.418213</ele>
        <time>2011-01-23T10:15:34Z</time>
      </trkpt>
      <trkpt lat="43.72129" lon="4.86053">
        <ele>117.418213</ele>
        <time>2011-01-23T10:15:36Z</time>
      </trkpt>
      <trkpt lat="43.72129" lon="4.86046">
        <ele>116.9375</ele>
        <time>2011-01-23T10:15:40Z</time>
      </trkpt>
      <trkpt lat="43.72129" lon="4.8604">
        <ele>115.976196</ele>
        <time>2011-01-23T10:15:44Z</time>
      </trkpt>
      <trkpt lat="43.72129" lon="4.86036">
        <ele>115.495605</ele>
        <time>2011-01-23T10:15:48Z</time>
      </trkpt>
      <trkpt lat="43.72132" lon="4.86018">
        <ele>116.456787</ele>
        <time>2011-01-23T10:15:58Z</time>
      </trkpt>
      <trkpt lat="43.72132" lon="4.86018">
        <ele>116.456787</ele>
        <time>2011-01-23T10:15:59Z</time>
      </trkpt>
      <trkpt lat="43.72132" lon="4.85999">
        <ele>117.418213</ele>
        <time>2011-01-23T10:16:11Z</time>
      </trkpt>
      <trkpt lat="43.72132" lon="4.85997">
        <ele>117.898804</ele>
        <time>2011-01-23T10:16:12Z</time>
      </trkpt>
      <trkpt lat="43.72134" lon="4.85976">
        <ele>118.379395</ele>
        <time>2011-01-23T10:16:25Z</time>
      </trkpt>
      <trkpt lat="43.72134" lon="4.85965">
        <ele>117.898804</ele>
        <time>2011-01-23T10:16:31Z</time>
      </trkpt>
      <trkpt lat="43.72136" lon="4.85948">
        <ele>115.976196</ele>
        <time>2011-01-23T10:16:43Z</time>
      </trkpt>
      <trkpt lat="43.72136" lon="4.8593">
        <ele>118.860107</ele>
        <time>2011-01-23T10:16:53Z</time>
      </trkpt>
      <trkpt lat="43.72138" lon="4.85924">
        <ele>120.302124</ele>
        <time>2011-01-23T10:16:56Z</time>
      </trkpt>
      <trkpt lat="43.72142" lon="4.85894">
        <ele>120.782837</ele>
        <time>2011-01-23T10:17:14Z</time>
      </trkpt>
      <trkpt lat="43.72142" lon="4.85879">
        <ele>120.782837</ele>
        <time>2011-01-23T10:17:25Z</time>
      </trkpt>
      <trkpt lat="43.7214" lon="4.85855">
        <ele>122.705444</ele>
        <time>2011-01-23T10:17:40Z</time>
      </trkpt>
      <trkpt lat="43.72142" lon="4.85838">
        <ele>122.224731</ele>
        <time>2011-01-23T10:17:52Z</time>
      </trkpt>
      <trkpt lat="43.72142" lon="4.85836">
        <ele>122.224731</ele>
        <time>2011-01-23T10:17:53Z</time>
      </trkpt>
      <trkpt lat="43.72142" lon="4.85815">
        <ele>121.744141</ele>
        <time>2011-01-23T10:18:06Z</time>
      </trkpt>
      <trkpt lat="43.72145" lon="4.8581">
        <ele>121.744141</ele>
        <time>2011-01-23T10:18:08Z</time>
      </trkpt>
      <trkpt lat="43.72142" lon="4.85793">
        <ele>121.26355</ele>
        <time>2011-01-23T10:18:20Z</time>
      </trkpt>
      <trkpt lat="43.72142" lon="4.85787">
        <ele>121.26355</ele>
        <time>2011-01-23T10:18:33Z</time>
      </trkpt>
      <trkpt lat="43.72151" lon="4.85785">
        <ele>124.147339</ele>
        <time>2011-01-23T10:18:44Z</time>
      </trkpt>
      <trkpt lat="43.72162" lon="4.85785">
        <ele>126.069946</ele>
        <time>2011-01-23T10:18:56Z</time>
      </trkpt>
      <trkpt lat="43.72172" lon="4.85782">
        <ele>127.992554</ele>
        <time>2011-01-23T10:19:08Z</time>
      </trkpt>
      <trkpt lat="43.72177" lon="4.85782">
        <ele>129.434692</ele>
        <time>2011-01-23T10:19:15Z</time>
      </trkpt>
      <trkpt lat="43.72179" lon="4.85785">
        <ele>130.876709</ele>
        <time>2011-01-23T10:19:22Z</time>
      </trkpt>
      <trkpt lat="43.72181" lon="4.85778">
        <ele>130.876709</ele>
        <time>2011-01-23T10:19:27Z</time>
      </trkpt>
      <trkpt lat="43.7219" lon="4.85776">
        <ele>131.837891</ele>
        <time>2011-01-23T10:19:35Z</time>
      </trkpt>
      <trkpt lat="43.72198" lon="4.85774">
        <ele>131.837891</ele>
        <time>2011-01-23T10:19:43Z</time>
      </trkpt>
      <trkpt lat="43.72202" lon="4.85774">
        <ele>131.837891</ele>
        <time>2011-01-23T10:19:47Z</time>
      </trkpt>
      <trkpt lat="43.72213" lon="4.85776">
        <ele>134.721924</ele>
        <time>2011-01-23T10:19:57Z</time>
      </trkpt>
      <trkpt lat="43.72215" lon="4.85776">
        <ele>134.721924</ele>
        <time>2011-01-23T10:19:59Z</time>
      </trkpt>
      <trkpt lat="43.72217" lon="4.85776">
        <ele>134.241211</ele>
        <time>2011-01-23T10:20:01Z</time>
      </trkpt>
      <trkpt lat="43.72222" lon="4.85776">
        <ele>134.721924</ele>
        <time>2011-01-23T10:20:05Z</time>
      </trkpt>
      <trkpt lat="43.72224" lon="4.85776">
        <ele>134.721924</ele>
        <time>2011-01-23T10:20:09Z</time>
      </trkpt>
      <trkpt lat="43.7223" lon="4.85778">
        <ele>135.683105</ele>
        <time>2011-01-23T10:20:16Z</time>
      </trkpt>
      <trkpt lat="43.72241" lon="4.85785">
        <ele>135.683105</ele>
        <time>2011-01-23T10:20:26Z</time>
      </trkpt>
      <trkpt lat="43.72243" lon="4.85785">
        <ele>136.16394</ele>
        <time>2011-01-23T10:20:35Z</time>
      </trkpt>
      <trkpt lat="43.72254" lon="4.85787">
        <ele>138.567261</ele>
        <time>2011-01-23T10:20:48Z</time>
      </trkpt>
      <trkpt lat="43.72254" lon="4.85789">
        <ele>138.086548</ele>
        <time>2011-01-23T10:21:10Z</time>
      </trkpt>
      <trkpt lat="43.72254" lon="4.85789">
        <ele>137.605835</ele>
        <time>2011-01-23T10:21:43Z</time>
      </trkpt>
      <trkpt lat="43.72254" lon="4.85791">
        <ele>139.047852</ele>
        <time>2011-01-23T10:21:57Z</time>
      </trkpt>
      <trkpt lat="43.72256" lon="4.85791">
        <ele>131.837891</ele>
        <time>2011-01-23T10:25:37Z</time>
      </trkpt>
      <trkpt lat="43.72254" lon="4.85789">
        <ele>131.3573</ele>
        <time>2011-01-23T10:30:49Z</time>
      </trkpt>
      <trkpt lat="43.72256" lon="4.85789">
        <ele>131.837891</ele>
        <time>2011-01-23T10:32:07Z</time>
      </trkpt>
      <trkpt lat="43.72256" lon="4.85791">
        <ele>132.318604</ele>
        <time>2011-01-23T10:32:57Z</time>
      </trkpt>
      <trkpt lat="43.72256" lon="4.85793">
        <ele>132.318604</ele>
        <time>2011-01-23T10:33:00Z</time>
      </trkpt>
      <trkpt lat="43.72256" lon="4.85791">
        <ele>132.318604</ele>
        <time>2011-01-23T10:33:10Z</time>
      </trkpt>
      <trkpt lat="43.72256" lon="4.85791">
        <ele>133.760498</ele>
        <time>2011-01-23T10:33:49Z</time>
      </trkpt>
      <trkpt lat="43.72256" lon="4.85791">
        <ele>135.202515</ele>
        <time>2011-01-23T10:34:14Z</time>
      </trkpt>
      <trkpt lat="43.72254" lon="4.85791">
        <ele>135.202515</ele>
        <time>2011-01-23T10:36:14Z</time>
      </trkpt>
      <trkpt lat="43.72241" lon="4.85785">
        <ele>135.683105</ele>
        <time>2011-01-23T10:36:27Z</time>
      </trkpt>
      <trkpt lat="43.72241" lon="4.8578">
        <ele>135.683105</ele>
        <time>2011-01-23T10:36:30Z</time>
      </trkpt>
      <trkpt lat="43.72243" lon="4.8578">
        <ele>135.683105</ele>
        <time>2011-01-23T10:36:32Z</time>
      </trkpt>
      <trkpt lat="43.72254" lon="4.85776">
        <ele>139.047852</ele>
        <time>2011-01-23T10:36:47Z</time>
      </trkpt>
      <trkpt lat="43.72263" lon="4.85774">
        <ele>141.931763</ele>
        <time>2011-01-23T10:37:00Z</time>
      </trkpt>
      <trkpt lat="43.72271" lon="4.85772">
        <ele>144.815796</ele>
        <time>2011-01-23T10:37:13Z</time>
      </trkpt>
      <trkpt lat="43.72273" lon="4.85772">
        <ele>144.815796</ele>
        <time>2011-01-23T10:37:14Z</time>
      </trkpt>
      <trkpt lat="43.72282" lon="4.8577">
        <ele>145.296387</ele>
        <time>2011-01-23T10:37:28Z</time>
      </trkpt>
      <trkpt lat="43.72284" lon="4.85772">
        <ele>145.7771</ele>
        <time>2011-01-23T10:37:30Z</time>
      </trkpt>
      <trkpt lat="43.72288" lon="4.8577">
        <ele>145.296387</ele>
        <time>2011-01-23T10:37:42Z</time>
      </trkpt>
      <trkpt lat="43.7229" lon="4.85765">
        <ele>146.257813</ele>
        <time>2011-01-23T10:37:58Z</time>
      </trkpt>
      <trkpt lat="43.72301" lon="4.85772">
        <ele>146.257813</ele>
        <time>2011-01-23T10:38:10Z</time>
      </trkpt>
      <trkpt lat="43.72312" lon="4.8578">
        <ele>149.141602</ele>
        <time>2011-01-23T10:38:23Z</time>
      </trkpt>
      <trkpt lat="43.72323" lon="4.85782">
        <ele>150.103027</ele>
        <time>2011-01-23T10:38:36Z</time>
      </trkpt>
      <trkpt lat="43.72331" lon="4.85774">
        <ele>149.141602</ele>
        <time>2011-01-23T10:38:45Z</time>
      </trkpt>
      <trkpt lat="43.72335" lon="4.85763">
        <ele>148.18042</ele>
        <time>2011-01-23T10:38:52Z</time>
      </trkpt>
      <trkpt lat="43.72335" lon="4.85757">
        <ele>148.18042</ele>
        <time>2011-01-23T10:38:55Z</time>
      </trkpt>
      <trkpt lat="43.72333" lon="4.8575">
        <ele>148.661011</ele>
        <time>2011-01-23T10:39:00Z</time>
      </trkpt>
      <trkpt lat="43.72327" lon="4.85735">
        <ele>149.622314</ele>
        <time>2011-01-23T10:39:12Z</time>
      </trkpt>
      <trkpt lat="43.72327" lon="4.85718">
        <ele>151.064209</ele>
        <time>2011-01-23T10:39:25Z</time>
      </trkpt>
      <trkpt lat="43.72333" lon="4.85707">
        <ele>152.025757</ele>
        <time>2011-01-23T10:39:37Z</time>
      </trkpt>
      <trkpt lat="43.72344" lon="4.85703">
        <ele>152.986938</ele>
        <time>2011-01-23T10:39:49Z</time>
      </trkpt>
      <trkpt lat="43.72357" lon="4.85697">
        <ele>152.986938</ele>
        <time>2011-01-23T10:40:04Z</time>
      </trkpt>
      <trkpt lat="43.72366" lon="4.85692">
        <ele>153.467651</ele>
        <time>2011-01-23T10:40:17Z</time>
      </trkpt>
      <trkpt lat="43.72378" lon="4.85684">
        <ele>155.870972</ele>
        <time>2011-01-23T10:40:30Z</time>
      </trkpt>
      <trkpt lat="43.72381" lon="4.85679">
        <ele>156.351563</ele>
        <time>2011-01-23T10:40:34Z</time>
      </trkpt>
      <trkpt lat="43.72387" lon="4.85662">
        <ele>158.754761</ele>
        <time>2011-01-23T10:40:46Z</time>
      </trkpt>
      <trkpt lat="43.72391" lon="4.85647">
        <ele>158.27417</ele>
        <time>2011-01-23T10:40:57Z</time>
      </trkpt>
      <trkpt lat="43.72396" lon="4.85641">
        <ele>158.754761</ele>
        <time>2011-01-23T10:41:06Z</time>
      </trkpt>
      <trkpt lat="43.72408" lon="4.85639">
        <ele>161.158203</ele>
        <time>2011-01-23T10:41:19Z</time>
      </trkpt>
      <trkpt lat="43.72408" lon="4.85639">
        <ele>161.158203</ele>
        <time>2011-01-23T10:41:21Z</time>
      </trkpt>
      <trkpt lat="43.72413" lon="4.85639">
        <ele>162.119507</ele>
        <time>2011-01-23T10:41:24Z</time>
      </trkpt>
      <trkpt lat="43.72423" lon="4.85637">
        <ele>164.042114</ele>
        <time>2011-01-23T10:41:36Z</time>
      </trkpt>
      <trkpt lat="43.72426" lon="4.85637">
        <ele>164.042114</ele>
        <time>2011-01-23T10:41:40Z</time>
      </trkpt>
      <trkpt lat="43.72428" lon="4.85634">
        <ele>164.042114</ele>
        <time>2011-01-23T10:41:42Z</time>
      </trkpt>
      <trkpt lat="43.72438" lon="4.8563">
        <ele>164.042114</ele>
        <time>2011-01-23T10:41:55Z</time>
      </trkpt>
      <trkpt lat="43.72445" lon="4.85632">
        <ele>164.042114</ele>
        <time>2011-01-23T10:42:00Z</time>
      </trkpt>
      <trkpt lat="43.72447" lon="4.85632">
        <ele>163.561523</ele>
        <time>2011-01-23T10:42:03Z</time>
      </trkpt>
      <trkpt lat="43.72454" lon="4.85639">
        <ele>163.561523</ele>
        <time>2011-01-23T10:42:11Z</time>
      </trkpt>
      <trkpt lat="43.72454" lon="4.85641">
        <ele>164.042114</ele>
        <time>2011-01-23T10:42:13Z</time>
      </trkpt>
      <trkpt lat="43.72462" lon="4.85654">
        <ele>163.080811</ele>
        <time>2011-01-23T10:42:26Z</time>
      </trkpt>
      <trkpt lat="43.72466" lon="4.85664">
        <ele>163.561523</ele>
        <time>2011-01-23T10:42:37Z</time>
      </trkpt>
      <trkpt lat="43.72473" lon="4.85675">
        <ele>164.042114</ele>
        <time>2011-01-23T10:42:47Z</time>
      </trkpt>
      <trkpt lat="43.72475" lon="4.85686">
        <ele>163.561523</ele>
        <time>2011-01-23T10:42:55Z</time>
      </trkpt>
      <trkpt lat="43.72475" lon="4.85703">
        <ele>165.003418</ele>
        <time>2011-01-23T10:43:08Z</time>
      </trkpt>
      <trkpt lat="43.72477" lon="4.85712">
        <ele>166.445313</ele>
        <time>2011-01-23T10:43:15Z</time>
      </trkpt>
      <trkpt lat="43.72477" lon="4.85718">
        <ele>167.887329</ele>
        <time>2011-01-23T10:43:19Z</time>
      </trkpt>
      <trkpt lat="43.72486" lon="4.85731">
        <ele>168.848755</ele>
        <time>2011-01-23T10:43:32Z</time>
      </trkpt>
      <trkpt lat="43.72494" lon="4.85748">
        <ele>168.848755</ele>
        <time>2011-01-23T10:43:46Z</time>
      </trkpt>
      <trkpt lat="43.72496" lon="4.85752">
        <ele>168.848755</ele>
        <time>2011-01-23T10:43:48Z</time>
      </trkpt>
      <trkpt lat="43.72496" lon="4.85757">
        <ele>169.329468</ele>
        <time>2011-01-23T10:43:51Z</time>
      </trkpt>
      <trkpt lat="43.72496" lon="4.85774">
        <ele>169.810059</ele>
        <time>2011-01-23T10:44:05Z</time>
      </trkpt>
      <trkpt lat="43.72494" lon="4.85776">
        <ele>169.329468</ele>
        <time>2011-01-23T10:44:07Z</time>
      </trkpt>
      <trkpt lat="43.72494" lon="4.8578">
        <ele>168.848755</ele>
        <time>2011-01-23T10:44:09Z</time>
      </trkpt>
      <trkpt lat="43.7249" lon="4.85797">
        <ele>169.329468</ele>
        <time>2011-01-23T10:44:22Z</time>
      </trkpt>
      <trkpt lat="43.7249" lon="4.8581">
        <ele>169.810059</ele>
        <time>2011-01-23T10:44:31Z</time>
      </trkpt>
      <trkpt lat="43.72484" lon="4.85827">
        <ele>169.329468</ele>
        <time>2011-01-23T10:44:44Z</time>
      </trkpt>
      <trkpt lat="43.72481" lon="4.85832">
        <ele>168.368042</ele>
        <time>2011-01-23T10:44:49Z</time>
      </trkpt>
      <trkpt lat="43.72471" lon="4.85843">
        <ele>167.406738</ele>
        <time>2011-01-23T10:45:03Z</time>
      </trkpt>
      <trkpt lat="43.72462" lon="4.85855">
        <ele>167.887329</ele>
        <time>2011-01-23T10:45:15Z</time>
      </trkpt>
      <trkpt lat="43.72458" lon="4.85864">
        <ele>168.368042</ele>
        <time>2011-01-23T10:45:22Z</time>
      </trkpt>
      <trkpt lat="43.72462" lon="4.85881">
        <ele>168.848755</ele>
        <time>2011-01-23T10:45:34Z</time>
      </trkpt>
      <trkpt lat="43.72464" lon="4.8589">
        <ele>170.771362</ele>
        <time>2011-01-23T10:45:42Z</time>
      </trkpt>
      <trkpt lat="43.72473" lon="4.859">
        <ele>171.732666</ele>
        <time>2011-01-23T10:45:54Z</time>
      </trkpt>
      <trkpt lat="43.72475" lon="4.85905">
        <ele>172.69397</ele>
        <time>2011-01-23T10:45:58Z</time>
      </trkpt>
      <trkpt lat="43.72481" lon="4.8592">
        <ele>175.09729</ele>
        <time>2011-01-23T10:46:11Z</time>
      </trkpt>
      <trkpt lat="43.72486" lon="4.8593">
        <ele>174.135864</ele>
        <time>2011-01-23T10:46:21Z</time>
      </trkpt>
      <trkpt lat="43.72488" lon="4.85933">
        <ele>174.616577</ele>
        <time>2011-01-23T10:46:24Z</time>
      </trkpt>
      <trkpt lat="43.72492" lon="4.85946">
        <ele>175.577881</ele>
        <time>2011-01-23T10:46:37Z</time>
      </trkpt>
      <trkpt lat="43.72496" lon="4.85958">
        <ele>181.826416</ele>
        <time>2011-01-23T10:46:50Z</time>
      </trkpt>
      <trkpt lat="43.72501" lon="4.85973">
        <ele>184.229858</ele>
        <time>2011-01-23T10:47:03Z</time>
      </trkpt>
      <trkpt lat="43.72507" lon="4.85984">
        <ele>183.268433</ele>
        <time>2011-01-23T10:47:17Z</time>
      </trkpt>
      <trkpt lat="43.72511" lon="4.85988">
        <ele>182.307129</ele>
        <time>2011-01-23T10:47:21Z</time>
      </trkpt>
      <trkpt lat="43.72522" lon="4.85999">
        <ele>182.307129</ele>
        <time>2011-01-23T10:47:33Z</time>
      </trkpt>
      <trkpt lat="43.72531" lon="4.86008">
        <ele>182.787842</ele>
        <time>2011-01-23T10:47:46Z</time>
      </trkpt>
      <trkpt lat="43.72541" lon="4.8601">
        <ele>187.11377</ele>
        <time>2011-01-23T10:47:59Z</time>
      </trkpt>
      <trkpt lat="43.72544" lon="4.8601">
        <ele>187.11377</ele>
        <time>2011-01-23T10:48:00Z</time>
      </trkpt>
      <trkpt lat="43.7255" lon="4.86008">
        <ele>187.59436</ele>
        <time>2011-01-23T10:48:07Z</time>
      </trkpt>
      <trkpt lat="43.72552" lon="4.86006">
        <ele>187.59436</ele>
        <time>2011-01-23T10:48:10Z</time>
      </trkpt>
      <trkpt lat="43.72556" lon="4.86003">
        <ele>187.59436</ele>
        <time>2011-01-23T10:48:13Z</time>
      </trkpt>
      <trkpt lat="43.72567" lon="4.85999">
        <ele>187.11377</ele>
        <time>2011-01-23T10:48:25Z</time>
      </trkpt>
      <trkpt lat="43.72572" lon="4.85999">
        <ele>187.11377</ele>
        <time>2011-01-23T10:48:28Z</time>
      </trkpt>
      <trkpt lat="43.72584" lon="4.85993">
        <ele>185.671753</ele>
        <time>2011-01-23T10:48:41Z</time>
      </trkpt>
      <trkpt lat="43.72591" lon="4.85991">
        <ele>185.191162</ele>
        <time>2011-01-23T10:48:46Z</time>
      </trkpt>
      <trkpt lat="43.72597" lon="4.85991">
        <ele>184.710571</ele>
        <time>2011-01-23T10:48:53Z</time>
      </trkpt>
      <trkpt lat="43.72599" lon="4.85991">
        <ele>184.229858</ele>
        <time>2011-01-23T10:48:55Z</time>
      </trkpt>
      <trkpt lat="43.72602" lon="4.85991">
        <ele>184.229858</ele>
        <time>2011-01-23T10:48:58Z</time>
      </trkpt>
      <trkpt lat="43.72606" lon="4.85991">
        <ele>184.229858</ele>
        <time>2011-01-23T10:49:01Z</time>
      </trkpt>
      <trkpt lat="43.7261" lon="4.85991">
        <ele>184.229858</ele>
        <time>2011-01-23T10:49:05Z</time>
      </trkpt>
      <trkpt lat="43.72617" lon="4.85991">
        <ele>184.229858</ele>
        <time>2011-01-23T10:49:11Z</time>
      </trkpt>
      <trkpt lat="43.72623" lon="4.85988">
        <ele>183.749023</ele>
        <time>2011-01-23T10:49:15Z</time>
      </trkpt>
      <trkpt lat="43.72623" lon="4.85988">
        <ele>183.749023</ele>
        <time>2011-01-23T10:49:16Z</time>
      </trkpt>
      <trkpt lat="43.72632" lon="4.85984">
        <ele>183.268433</ele>
        <time>2011-01-23T10:49:22Z</time>
      </trkpt>
      <trkpt lat="43.72638" lon="4.85982">
        <ele>183.268433</ele>
        <time>2011-01-23T10:49:28Z</time>
      </trkpt>
      <trkpt lat="43.72651" lon="4.85978">
        <ele>182.787842</ele>
        <time>2011-01-23T10:49:41Z</time>
      </trkpt>
      <trkpt lat="43.72666" lon="4.85976">
        <ele>181.826416</ele>
        <time>2011-01-23T10:49:53Z</time>
      </trkpt>
      <trkpt lat="43.72666" lon="4.85976">
        <ele>181.826416</ele>
        <time>2011-01-23T10:49:54Z</time>
      </trkpt>
      <trkpt lat="43.72668" lon="4.85976">
        <ele>181.826416</ele>
        <time>2011-01-23T10:49:56Z</time>
      </trkpt>
      <trkpt lat="43.72672" lon="4.85976">
        <ele>182.307129</ele>
        <time>2011-01-23T10:49:59Z</time>
      </trkpt>
      <trkpt lat="43.72679" lon="4.85973">
        <ele>182.787842</ele>
        <time>2011-01-23T10:50:04Z</time>
      </trkpt>
      <trkpt lat="43.72692" lon="4.85971">
        <ele>182.787842</ele>
        <time>2011-01-23T10:50:16Z</time>
      </trkpt>
      <trkpt lat="43.72705" lon="4.85969">
        <ele>183.268433</ele>
        <time>2011-01-23T10:50:28Z</time>
      </trkpt>
      <trkpt lat="43.72705" lon="4.85967">
        <ele>183.268433</ele>
        <time>2011-01-23T10:50:29Z</time>
      </trkpt>
      <trkpt lat="43.72715" lon="4.85967">
        <ele>183.268433</ele>
        <time>2011-01-23T10:50:41Z</time>
      </trkpt>
      <trkpt lat="43.72728" lon="4.85963">
        <ele>184.710571</ele>
        <time>2011-01-23T10:50:53Z</time>
      </trkpt>
      <trkpt lat="43.72741" lon="4.85961">
        <ele>184.710571</ele>
        <time>2011-01-23T10:51:05Z</time>
      </trkpt>
      <trkpt lat="43.72752" lon="4.85956">
        <ele>187.59436</ele>
        <time>2011-01-23T10:51:19Z</time>
      </trkpt>
      <trkpt lat="43.72756" lon="4.85956">
        <ele>188.555786</ele>
        <time>2011-01-23T10:51:22Z</time>
      </trkpt>
      <trkpt lat="43.7276" lon="4.85956">
        <ele>189.997681</ele>
        <time>2011-01-23T10:51:29Z</time>
      </trkpt>
      <trkpt lat="43.72769" lon="4.85954">
        <ele>191.920288</ele>
        <time>2011-01-23T10:51:38Z</time>
      </trkpt>
      <trkpt lat="43.7278" lon="4.85952">
        <ele>191.920288</ele>
        <time>2011-01-23T10:51:49Z</time>
      </trkpt>
      <trkpt lat="43.72784" lon="4.85952">
        <ele>192.881714</ele>
        <time>2011-01-23T10:51:54Z</time>
      </trkpt>
      <trkpt lat="43.72797" lon="4.8595">
        <ele>194.804321</ele>
        <time>2011-01-23T10:52:07Z</time>
      </trkpt>
      <trkpt lat="43.72799" lon="4.8595">
        <ele>195.765625</ele>
        <time>2011-01-23T10:52:10Z</time>
      </trkpt>
      <trkpt lat="43.7281" lon="4.85946">
        <ele>197.20752</ele>
        <time>2011-01-23T10:52:24Z</time>
      </trkpt>
      <trkpt lat="43.72823" lon="4.85937">
        <ele>196.726929</ele>
        <time>2011-01-23T10:52:40Z</time>
      </trkpt>
      <trkpt lat="43.72829" lon="4.85935">
        <ele>198.168945</ele>
        <time>2011-01-23T10:52:49Z</time>
      </trkpt>
      <trkpt lat="43.7284" lon="4.85926">
        <ele>199.130127</ele>
        <time>2011-01-23T10:53:03Z</time>
      </trkpt>
      <trkpt lat="43.72848" lon="4.85915">
        <ele>199.130127</ele>
        <time>2011-01-23T10:53:18Z</time>
      </trkpt>
      <trkpt lat="43.72855" lon="4.85911">
        <ele>200.091675</ele>
        <time>2011-01-23T10:53:26Z</time>
      </trkpt>
      <trkpt lat="43.72859" lon="4.85907">
        <ele>200.572266</ele>
        <time>2011-01-23T10:53:31Z</time>
      </trkpt>
      <trkpt lat="43.7287" lon="4.85896">
        <ele>201.533569</ele>
        <time>2011-01-23T10:53:43Z</time>
      </trkpt>
      <trkpt lat="43.72881" lon="4.85888">
        <ele>202.014282</ele>
        <time>2011-01-23T10:53:54Z</time>
      </trkpt>
      <trkpt lat="43.72889" lon="4.85877">
        <ele>202.014282</ele>
        <time>2011-01-23T10:54:07Z</time>
      </trkpt>
      <trkpt lat="43.729" lon="4.85873">
        <ele>202.014282</ele>
        <time>2011-01-23T10:54:19Z</time>
      </trkpt>
      <trkpt lat="43.729" lon="4.85873">
        <ele>202.014282</ele>
        <time>2011-01-23T10:54:20Z</time>
      </trkpt>
      <trkpt lat="43.72902" lon="4.85875">
        <ele>202.014282</ele>
        <time>2011-01-23T10:54:22Z</time>
      </trkpt>
      <trkpt lat="43.72919" lon="4.85877">
        <ele>201.052856</ele>
        <time>2011-01-23T10:54:37Z</time>
      </trkpt>
      <trkpt lat="43.72926" lon="4.85879">
        <ele>202.494873</ele>
        <time>2011-01-23T10:54:45Z</time>
      </trkpt>
      <trkpt lat="43.72928" lon="4.85881">
        <ele>202.494873</ele>
        <time>2011-01-23T10:54:49Z</time>
      </trkpt>
      <trkpt lat="43.72936" lon="4.85888">
        <ele>203.93689</ele>
        <time>2011-01-23T10:55:03Z</time>
      </trkpt>
      <trkpt lat="43.72943" lon="4.85898">
        <ele>205.859497</ele>
        <time>2011-01-23T10:55:15Z</time>
      </trkpt>
      <trkpt lat="43.72949" lon="4.85907">
        <ele>206.820679</ele>
        <time>2011-01-23T10:55:27Z</time>
      </trkpt>
      <trkpt lat="43.72953" lon="4.85924">
        <ele>206.820679</ele>
        <time>2011-01-23T10:55:41Z</time>
      </trkpt>
      <trkpt lat="43.7296" lon="4.85933">
        <ele>205.378784</ele>
        <time>2011-01-23T10:55:54Z</time>
      </trkpt>
      <trkpt lat="43.72962" lon="4.8593">
        <ele>202.494873</ele>
        <time>2011-01-23T10:56:16Z</time>
      </trkpt>
      <trkpt lat="43.72973" lon="4.85937">
        <ele>205.859497</ele>
        <time>2011-01-23T10:57:29Z</time>
      </trkpt>
      <trkpt lat="43.72977" lon="4.85941">
        <ele>206.340088</ele>
        <time>2011-01-23T10:57:33Z</time>
      </trkpt>
      <trkpt lat="43.7299" lon="4.85943">
        <ele>205.378784</ele>
        <time>2011-01-23T10:57:44Z</time>
      </trkpt>
      <trkpt lat="43.72996" lon="4.85941">
        <ele>205.378784</ele>
        <time>2011-01-23T10:57:48Z</time>
      </trkpt>
      <trkpt lat="43.73005" lon="4.85943">
        <ele>206.820679</ele>
        <time>2011-01-23T10:57:58Z</time>
      </trkpt>
      <trkpt lat="43.73016" lon="4.85943">
        <ele>207.301392</ele>
        <time>2011-01-23T10:58:11Z</time>
      </trkpt>
      <trkpt lat="43.7302" lon="4.85941">
        <ele>207.782104</ele>
        <time>2011-01-23T10:58:15Z</time>
      </trkpt>
      <trkpt lat="43.73022" lon="4.85939">
        <ele>207.782104</ele>
        <time>2011-01-23T10:58:18Z</time>
      </trkpt>
      <trkpt lat="43.73029" lon="4.85935">
        <ele>210.666016</ele>
        <time>2011-01-23T10:58:28Z</time>
      </trkpt>
      <trkpt lat="43.73031" lon="4.85933">
        <ele>211.627441</ele>
        <time>2011-01-23T10:58:30Z</time>
      </trkpt>
      <trkpt lat="43.73039" lon="4.8592">
        <ele>214.03064</ele>
        <time>2011-01-23T10:58:43Z</time>
      </trkpt>
      <trkpt lat="43.7305" lon="4.85911">
        <ele>214.991943</ele>
        <time>2011-01-23T10:58:56Z</time>
      </trkpt>
      <trkpt lat="43.73061" lon="4.85907">
        <ele>217.395386</ele>
        <time>2011-01-23T10:59:06Z</time>
      </trkpt>
      <trkpt lat="43.73069" lon="4.85909">
        <ele>219.798584</ele>
        <time>2011-01-23T10:59:15Z</time>
      </trkpt>
      <trkpt lat="43.73074" lon="4.85911">
        <ele>220.279175</ele>
        <time>2011-01-23T10:59:19Z</time>
      </trkpt>
      <trkpt lat="43.73082" lon="4.85915">
        <ele>219.798584</ele>
        <time>2011-01-23T10:59:29Z</time>
      </trkpt>
      <trkpt lat="43.73093" lon="4.85918">
        <ele>216.914673</ele>
        <time>2011-01-23T10:59:39Z</time>
      </trkpt>
      <trkpt lat="43.73104" lon="4.85926">
        <ele>216.43396</ele>
        <time>2011-01-23T10:59:50Z</time>
      </trkpt>
      <trkpt lat="43.73112" lon="4.85935">
        <ele>218.356567</ele>
        <time>2011-01-23T11:00:03Z</time>
      </trkpt>
      <trkpt lat="43.73121" lon="4.8595">
        <ele>221.721191</ele>
        <time>2011-01-23T11:00:16Z</time>
      </trkpt>
      <trkpt lat="43.73127" lon="4.85952">
        <ele>221.721191</ele>
        <time>2011-01-23T11:00:21Z</time>
      </trkpt>
      <trkpt lat="43.73132" lon="4.8595">
        <ele>220.759888</ele>
        <time>2011-01-23T11:00:25Z</time>
      </trkpt>
      <trkpt lat="43.73142" lon="4.85939">
        <ele>218.356567</ele>
        <time>2011-01-23T11:00:36Z</time>
      </trkpt>
      <trkpt lat="43.73149" lon="4.85926">
        <ele>217.395386</ele>
        <time>2011-01-23T11:00:47Z</time>
      </trkpt>
      <trkpt lat="43.73157" lon="4.85915">
        <ele>219.317993</ele>
        <time>2011-01-23T11:00:57Z</time>
      </trkpt>
      <trkpt lat="43.73162" lon="4.859">
        <ele>222.682495</ele>
        <time>2011-01-23T11:01:09Z</time>
      </trkpt>
      <trkpt lat="43.73164" lon="4.85877">
        <ele>223.643799</ele>
        <time>2011-01-23T11:01:22Z</time>
      </trkpt>
      <trkpt lat="43.73164" lon="4.8587">
        <ele>223.643799</ele>
        <time>2011-01-23T11:01:26Z</time>
      </trkpt>
      <trkpt lat="43.73162" lon="4.85849">
        <ele>222.201782</ele>
        <time>2011-01-23T11:01:40Z</time>
      </trkpt>
      <trkpt lat="43.73162" lon="4.8584">
        <ele>222.201782</ele>
        <time>2011-01-23T11:01:45Z</time>
      </trkpt>
      <trkpt lat="43.73162" lon="4.85823">
        <ele>223.163208</ele>
        <time>2011-01-23T11:01:55Z</time>
      </trkpt>
      <trkpt lat="43.73166" lon="4.85808">
        <ele>223.163208</ele>
        <time>2011-01-23T11:02:06Z</time>
      </trkpt>
      <trkpt lat="43.7317" lon="4.85793">
        <ele>222.682495</ele>
        <time>2011-01-23T11:02:17Z</time>
      </trkpt>
      <trkpt lat="43.73174" lon="4.85774">
        <ele>222.201782</ele>
        <time>2011-01-23T11:02:30Z</time>
      </trkpt>
      <trkpt lat="43.73177" lon="4.85755">
        <ele>222.201782</ele>
        <time>2011-01-23T11:02:41Z</time>
      </trkpt>
      <trkpt lat="43.73174" lon="4.85748">
        <ele>221.721191</ele>
        <time>2011-01-23T11:02:45Z</time>
      </trkpt>
      <trkpt lat="43.73174" lon="4.8574">
        <ele>221.240601</ele>
        <time>2011-01-23T11:02:50Z</time>
      </trkpt>
      <trkpt lat="43.73174" lon="4.85733">
        <ele>220.759888</ele>
        <time>2011-01-23T11:02:54Z</time>
      </trkpt>
      <trkpt lat="43.73174" lon="4.85724">
        <ele>220.279175</ele>
        <time>2011-01-23T11:03:00Z</time>
      </trkpt>
      <trkpt lat="43.73174" lon="4.85712">
        <ele>220.759888</ele>
        <time>2011-01-23T11:03:08Z</time>
      </trkpt>
      <trkpt lat="43.73181" lon="4.85699">
        <ele>222.201782</ele>
        <time>2011-01-23T11:03:20Z</time>
      </trkpt>
      <trkpt lat="43.73183" lon="4.85692">
        <ele>222.682495</ele>
        <time>2011-01-23T11:03:25Z</time>
      </trkpt>
      <trkpt lat="43.73185" lon="4.85688">
        <ele>221.721191</ele>
        <time>2011-01-23T11:03:29Z</time>
      </trkpt>
      <trkpt lat="43.73189" lon="4.85677">
        <ele>218.83728</ele>
        <time>2011-01-23T11:03:38Z</time>
      </trkpt>
      <trkpt lat="43.73196" lon="4.85669">
        <ele>218.356567</ele>
        <time>2011-01-23T11:03:48Z</time>
      </trkpt>
      <trkpt lat="43.73207" lon="4.85656">
        <ele>218.356567</ele>
        <time>2011-01-23T11:04:00Z</time>
      </trkpt>
      <trkpt lat="43.73213" lon="4.85652">
        <ele>218.83728</ele>
        <time>2011-01-23T11:04:07Z</time>
      </trkpt>
      <trkpt lat="43.73217" lon="4.85647">
        <ele>219.317993</ele>
        <time>2011-01-23T11:04:12Z</time>
      </trkpt>
      <trkpt lat="43.73226" lon="4.85628">
        <ele>218.83728</ele>
        <time>2011-01-23T11:04:26Z</time>
      </trkpt>
      <trkpt lat="43.73232" lon="4.85613">
        <ele>221.240601</ele>
        <time>2011-01-23T11:04:38Z</time>
      </trkpt>
      <trkpt lat="43.73239" lon="4.85596">
        <ele>223.643799</ele>
        <time>2011-01-23T11:04:52Z</time>
      </trkpt>
      <trkpt lat="43.73245" lon="4.85583">
        <ele>225.566528</ele>
        <time>2011-01-23T11:05:04Z</time>
      </trkpt>
      <trkpt lat="43.73252" lon="4.85574">
        <ele>228.450439</ele>
        <time>2011-01-23T11:05:18Z</time>
      </trkpt>
      <trkpt lat="43.73258" lon="4.8557">
        <ele>229.892334</ele>
        <time>2011-01-23T11:05:26Z</time>
      </trkpt>
      <trkpt lat="43.73269" lon="4.85559">
        <ele>231.814941</ele>
        <time>2011-01-23T11:05:39Z</time>
      </trkpt>
      <trkpt lat="43.73277" lon="4.85538">
        <ele>233.25708</ele>
        <time>2011-01-23T11:05:53Z</time>
      </trkpt>
      <trkpt lat="43.7328" lon="4.85529">
        <ele>233.25708</ele>
        <time>2011-01-23T11:05:58Z</time>
      </trkpt>
      <trkpt lat="43.73282" lon="4.85516">
        <ele>233.25708</ele>
        <time>2011-01-23T11:06:06Z</time>
      </trkpt>
      <trkpt lat="43.73284" lon="4.85495">
        <ele>230.373047</ele>
        <time>2011-01-23T11:06:18Z</time>
      </trkpt>
      <trkpt lat="43.73284" lon="4.85488">
        <ele>229.892334</ele>
        <time>2011-01-23T11:06:22Z</time>
      </trkpt>
      <trkpt lat="43.73286" lon="4.85476">
        <ele>227.489136</ele>
        <time>2011-01-23T11:06:29Z</time>
      </trkpt>
      <trkpt lat="43.73286" lon="4.85452">
        <ele>225.566528</ele>
        <time>2011-01-23T11:06:42Z</time>
      </trkpt>
      <trkpt lat="43.73286" lon="4.85452">
        <ele>225.085938</ele>
        <time>2011-01-23T11:06:43Z</time>
      </trkpt>
      <trkpt lat="43.73286" lon="4.85443">
        <ele>225.085938</ele>
        <time>2011-01-23T11:06:48Z</time>
      </trkpt>
      <trkpt lat="43.73286" lon="4.85441">
        <ele>225.085938</ele>
        <time>2011-01-23T11:06:50Z</time>
      </trkpt>
      <trkpt lat="43.73292" lon="4.85435">
        <ele>225.085938</ele>
        <time>2011-01-23T11:06:59Z</time>
      </trkpt>
      <trkpt lat="43.73301" lon="4.85439">
        <ele>225.085938</ele>
        <time>2011-01-23T11:07:09Z</time>
      </trkpt>
      <trkpt lat="43.73312" lon="4.85448">
        <ele>226.527832</ele>
        <time>2011-01-23T11:07:22Z</time>
      </trkpt>
      <trkpt lat="43.73316" lon="4.8545">
        <ele>227.008545</ele>
        <time>2011-01-23T11:07:26Z</time>
      </trkpt>
      <trkpt lat="43.73318" lon="4.8545">
        <ele>227.489136</ele>
        <time>2011-01-23T11:07:28Z</time>
      </trkpt>
      <trkpt lat="43.73323" lon="4.85452">
        <ele>227.969727</ele>
        <time>2011-01-23T11:07:33Z</time>
      </trkpt>
      <trkpt lat="43.73338" lon="4.85458">
        <ele>231.814941</ele>
        <time>2011-01-23T11:07:48Z</time>
      </trkpt>
      <trkpt lat="43.73348" lon="4.85469">
        <ele>232.295776</ele>
        <time>2011-01-23T11:08:02Z</time>
      </trkpt>
      <trkpt lat="43.73357" lon="4.85478">
        <ele>233.25708</ele>
        <time>2011-01-23T11:08:15Z</time>
      </trkpt>
      <trkpt lat="43.7337" lon="4.8548">
        <ele>235.179688</ele>
        <time>2011-01-23T11:08:28Z</time>
      </trkpt>
      <trkpt lat="43.73385" lon="4.85478">
        <ele>238.544312</ele>
        <time>2011-01-23T11:08:42Z</time>
      </trkpt>
      <trkpt lat="43.73395" lon="4.8548">
        <ele>238.544312</ele>
        <time>2011-01-23T11:08:54Z</time>
      </trkpt>
      <trkpt lat="43.73402" lon="4.85482">
        <ele>238.544312</ele>
        <time>2011-01-23T11:08:59Z</time>
      </trkpt>
      <trkpt lat="43.73406" lon="4.85482">
        <ele>237.582886</ele>
        <time>2011-01-23T11:09:03Z</time>
      </trkpt>
      <trkpt lat="43.73406" lon="4.85482">
        <ele>237.102295</ele>
        <time>2011-01-23T11:09:04Z</time>
      </trkpt>
      <trkpt lat="43.73408" lon="4.85482">
        <ele>236.140991</ele>
        <time>2011-01-23T11:09:06Z</time>
      </trkpt>
      <trkpt lat="43.73415" lon="4.85478">
        <ele>235.660278</ele>
        <time>2011-01-23T11:09:16Z</time>
      </trkpt>
      <trkpt lat="43.73421" lon="4.85471">
        <ele>235.660278</ele>
        <time>2011-01-23T11:09:23Z</time>
      </trkpt>
      <trkpt lat="43.73423" lon="4.85469">
        <ele>235.660278</ele>
        <time>2011-01-23T11:09:25Z</time>
      </trkpt>
      <trkpt lat="43.73423" lon="4.85469">
        <ele>236.140991</ele>
        <time>2011-01-23T11:09:27Z</time>
      </trkpt>
      <trkpt lat="43.73426" lon="4.85469">
        <ele>236.140991</ele>
        <time>2011-01-23T11:09:29Z</time>
      </trkpt>
      <trkpt lat="43.73428" lon="4.85467">
        <ele>237.102295</ele>
        <time>2011-01-23T11:09:31Z</time>
      </trkpt>
      <trkpt lat="43.73434" lon="4.85467">
        <ele>238.063599</ele>
        <time>2011-01-23T11:09:36Z</time>
      </trkpt>
      <trkpt lat="43.73436" lon="4.85465">
        <ele>239.024902</ele>
        <time>2011-01-23T11:09:39Z</time>
      </trkpt>
      <trkpt lat="43.73441" lon="4.85461">
        <ele>239.024902</ele>
        <time>2011-01-23T11:09:44Z</time>
      </trkpt>
      <trkpt lat="43.73451" lon="4.85448">
        <ele>238.544312</ele>
        <time>2011-01-23T11:09:56Z</time>
      </trkpt>
      <trkpt lat="43.73453" lon="4.85443">
        <ele>238.544312</ele>
        <time>2011-01-23T11:09:59Z</time>
      </trkpt>
      <trkpt lat="43.7346" lon="4.85426">
        <ele>242.389648</ele>
        <time>2011-01-23T11:10:13Z</time>
      </trkpt>
      <trkpt lat="43.73468" lon="4.85416">
        <ele>244.792847</ele>
        <time>2011-01-23T11:10:26Z</time>
      </trkpt>
      <trkpt lat="43.73471" lon="4.85416">
        <ele>245.273438</ele>
        <time>2011-01-23T11:10:28Z</time>
      </trkpt>
      <trkpt lat="43.73479" lon="4.85416">
        <ele>245.75415</ele>
        <time>2011-01-23T11:10:38Z</time>
      </trkpt>
      <trkpt lat="43.7349" lon="4.85422">
        <ele>245.75415</ele>
        <time>2011-01-23T11:10:52Z</time>
      </trkpt>
      <trkpt lat="43.73498" lon="4.85426">
        <ele>245.75415</ele>
        <time>2011-01-23T11:11:01Z</time>
      </trkpt>
      <trkpt lat="43.73503" lon="4.85428">
        <ele>245.75415</ele>
        <time>2011-01-23T11:11:06Z</time>
      </trkpt>
      <trkpt lat="43.73509" lon="4.85428">
        <ele>246.234863</ele>
        <time>2011-01-23T11:11:11Z</time>
      </trkpt>
      <trkpt lat="43.73511" lon="4.85428">
        <ele>246.234863</ele>
        <time>2011-01-23T11:11:13Z</time>
      </trkpt>
      <trkpt lat="43.73511" lon="4.85428">
        <ele>246.715454</ele>
        <time>2011-01-23T11:11:15Z</time>
      </trkpt>
      <trkpt lat="43.73516" lon="4.85426">
        <ele>247.676758</ele>
        <time>2011-01-23T11:11:19Z</time>
      </trkpt>
      <trkpt lat="43.73526" lon="4.85416">
        <ele>247.676758</ele>
        <time>2011-01-23T11:11:32Z</time>
      </trkpt>
      <trkpt lat="43.73535" lon="4.85398">
        <ele>248.157593</ele>
        <time>2011-01-23T11:11:45Z</time>
      </trkpt>
      <trkpt lat="43.73544" lon="4.85381">
        <ele>248.157593</ele>
        <time>2011-01-23T11:11:58Z</time>
      </trkpt>
      <trkpt lat="43.73548" lon="4.85373">
        <ele>247.196045</ele>
        <time>2011-01-23T11:12:05Z</time>
      </trkpt>
      <trkpt lat="43.7355" lon="4.8537">
        <ele>247.196045</ele>
        <time>2011-01-23T11:12:07Z</time>
      </trkpt>
      <trkpt lat="43.73559" lon="4.85362">
        <ele>247.676758</ele>
        <time>2011-01-23T11:12:20Z</time>
      </trkpt>
      <trkpt lat="43.73563" lon="4.8536">
        <ele>248.157593</ele>
        <time>2011-01-23T11:12:25Z</time>
      </trkpt>
      <trkpt lat="43.73578" lon="4.85364">
        <ele>248.638184</ele>
        <time>2011-01-23T11:12:39Z</time>
      </trkpt>
      <trkpt lat="43.73593" lon="4.85364">
        <ele>251.041382</ele>
        <time>2011-01-23T11:12:53Z</time>
      </trkpt>
      <trkpt lat="43.73601" lon="4.85362">
        <ele>252.963989</ele>
        <time>2011-01-23T11:13:01Z</time>
      </trkpt>
      <trkpt lat="43.73606" lon="4.85362">
        <ele>252.963989</ele>
        <time>2011-01-23T11:13:05Z</time>
      </trkpt>
      <trkpt lat="43.73619" lon="4.85349">
        <ele>252.483398</ele>
        <time>2011-01-23T11:13:20Z</time>
      </trkpt>
      <trkpt lat="43.73625" lon="4.85334">
        <ele>253.925415</ele>
        <time>2011-01-23T11:13:31Z</time>
      </trkpt>
      <trkpt lat="43.73627" lon="4.85321">
        <ele>253.925415</ele>
        <time>2011-01-23T11:13:40Z</time>
      </trkpt>
      <trkpt lat="43.73627" lon="4.85317">
        <ele>254.406006</ele>
        <time>2011-01-23T11:13:42Z</time>
      </trkpt>
      <trkpt lat="43.73632" lon="4.853">
        <ele>254.406006</ele>
        <time>2011-01-23T11:13:54Z</time>
      </trkpt>
      <trkpt lat="43.73632" lon="4.85293">
        <ele>253.925415</ele>
        <time>2011-01-23T11:14:05Z</time>
      </trkpt>
      <trkpt lat="43.73629" lon="4.85289">
        <ele>252.483398</ele>
        <time>2011-01-23T11:14:25Z</time>
      </trkpt>
      <trkpt lat="43.73629" lon="4.85287">
        <ele>253.925415</ele>
        <time>2011-01-23T11:18:16Z</time>
      </trkpt>
      <trkpt lat="43.73632" lon="4.85291">
        <ele>252.963989</ele>
        <time>2011-01-23T11:18:25Z</time>
      </trkpt>
      <trkpt lat="43.73634" lon="4.85291">
        <ele>252.483398</ele>
        <time>2011-01-23T11:18:28Z</time>
      </trkpt>
      <trkpt lat="43.7364" lon="4.85293">
        <ele>252.963989</ele>
        <time>2011-01-23T11:18:35Z</time>
      </trkpt>
      <trkpt lat="43.73644" lon="4.85295">
        <ele>252.963989</ele>
        <time>2011-01-23T11:18:38Z</time>
      </trkpt>
      <trkpt lat="43.73651" lon="4.85302">
        <ele>253.925415</ele>
        <time>2011-01-23T11:18:46Z</time>
      </trkpt>
      <trkpt lat="43.73664" lon="4.8531">
        <ele>254.406006</ele>
        <time>2011-01-23T11:18:58Z</time>
      </trkpt>
      <trkpt lat="43.73672" lon="4.85313">
        <ele>253.925415</ele>
        <time>2011-01-23T11:19:05Z</time>
      </trkpt>
      <trkpt lat="43.73689" lon="4.85313">
        <ele>253.444702</ele>
        <time>2011-01-23T11:19:20Z</time>
      </trkpt>
      <trkpt lat="43.73692" lon="4.85313">
        <ele>253.444702</ele>
        <time>2011-01-23T11:19:21Z</time>
      </trkpt>
      <trkpt lat="43.73707" lon="4.85304">
        <ele>253.925415</ele>
        <time>2011-01-23T11:19:36Z</time>
      </trkpt>
      <trkpt lat="43.7372" lon="4.85291">
        <ele>252.963989</ele>
        <time>2011-01-23T11:19:50Z</time>
      </trkpt>
      <trkpt lat="43.73737" lon="4.85278">
        <ele>252.483398</ele>
        <time>2011-01-23T11:20:05Z</time>
      </trkpt>
      <trkpt lat="43.73737" lon="4.85276">
        <ele>252.483398</ele>
        <time>2011-01-23T11:20:06Z</time>
      </trkpt>
      <trkpt lat="43.73752" lon="4.85267">
        <ele>253.444702</ele>
        <time>2011-01-23T11:20:20Z</time>
      </trkpt>
      <trkpt lat="43.73752" lon="4.85267">
        <ele>253.444702</ele>
        <time>2011-01-23T11:20:21Z</time>
      </trkpt>
      <trkpt lat="43.73754" lon="4.85267">
        <ele>253.925415</ele>
        <time>2011-01-23T11:20:23Z</time>
      </trkpt>
      <trkpt lat="43.73756" lon="4.85265">
        <ele>253.925415</ele>
        <time>2011-01-23T11:20:25Z</time>
      </trkpt>
      <trkpt lat="43.73769" lon="4.85259">
        <ele>254.406006</ele>
        <time>2011-01-23T11:20:37Z</time>
      </trkpt>
      <trkpt lat="43.73784" lon="4.8525">
        <ele>255.848022</ele>
        <time>2011-01-23T11:20:52Z</time>
      </trkpt>
      <trkpt lat="43.73797" lon="4.85244">
        <ele>257.770752</ele>
        <time>2011-01-23T11:21:03Z</time>
      </trkpt>
      <trkpt lat="43.73812" lon="4.85244">
        <ele>261.615967</ele>
        <time>2011-01-23T11:21:19Z</time>
      </trkpt>
      <trkpt lat="43.73823" lon="4.85248">
        <ele>263.538574</ele>
        <time>2011-01-23T11:21:29Z</time>
      </trkpt>
      <trkpt lat="43.73838" lon="4.85252">
        <ele>265.941895</ele>
        <time>2011-01-23T11:21:42Z</time>
      </trkpt>
      <trkpt lat="43.73844" lon="4.85255">
        <ele>268.345093</ele>
        <time>2011-01-23T11:21:49Z</time>
      </trkpt>
      <trkpt lat="43.73855" lon="4.85257">
        <ele>270.2677</ele>
        <time>2011-01-23T11:22:01Z</time>
      </trkpt>
      <trkpt lat="43.73865" lon="4.85261">
        <ele>268.825806</ele>
        <time>2011-01-23T11:22:11Z</time>
      </trkpt>
      <trkpt lat="43.73878" lon="4.85267">
        <ele>267.864502</ele>
        <time>2011-01-23T11:22:24Z</time>
      </trkpt>
      <trkpt lat="43.73891" lon="4.85274">
        <ele>265.941895</ele>
        <time>2011-01-23T11:22:35Z</time>
      </trkpt>
      <trkpt lat="43.73904" lon="4.85278">
        <ele>267.383911</ele>
        <time>2011-01-23T11:22:47Z</time>
      </trkpt>
      <trkpt lat="43.73908" lon="4.85278">
        <ele>267.864502</ele>
        <time>2011-01-23T11:22:51Z</time>
      </trkpt>
      <trkpt lat="43.73923" lon="4.8528">
        <ele>270.2677</ele>
        <time>2011-01-23T11:23:06Z</time>
      </trkpt>
      <trkpt lat="43.73936" lon="4.85285">
        <ele>270.748413</ele>
        <time>2011-01-23T11:23:18Z</time>
      </trkpt>
      <trkpt lat="43.73938" lon="4.85287">
        <ele>270.748413</ele>
        <time>2011-01-23T11:23:21Z</time>
      </trkpt>
      <trkpt lat="43.73945" lon="4.85289">
        <ele>271.709717</ele>
        <time>2011-01-23T11:23:27Z</time>
      </trkpt>
      <trkpt lat="43.73951" lon="4.85289">
        <ele>271.709717</ele>
        <time>2011-01-23T11:23:32Z</time>
      </trkpt>
      <trkpt lat="43.73953" lon="4.85289">
        <ele>271.709717</ele>
        <time>2011-01-23T11:23:34Z</time>
      </trkpt>
      <trkpt lat="43.73956" lon="4.85289">
        <ele>271.229126</ele>
        <time>2011-01-23T11:23:37Z</time>
      </trkpt>
      <trkpt lat="43.73962" lon="4.85289">
        <ele>270.748413</ele>
        <time>2011-01-23T11:23:42Z</time>
      </trkpt>
      <trkpt lat="43.73977" lon="4.85289">
        <ele>269.787109</ele>
        <time>2011-01-23T11:23:56Z</time>
      </trkpt>
      <trkpt lat="43.73979" lon="4.85291">
        <ele>269.306519</ele>
        <time>2011-01-23T11:23:59Z</time>
      </trkpt>
      <trkpt lat="43.73983" lon="4.85291">
        <ele>269.306519</ele>
        <time>2011-01-23T11:24:03Z</time>
      </trkpt>
      <trkpt lat="43.73988" lon="4.85289">
        <ele>268.825806</ele>
        <time>2011-01-23T11:24:07Z</time>
      </trkpt>
      <trkpt lat="43.73996" lon="4.85289">
        <ele>269.306519</ele>
        <time>2011-01-23T11:24:14Z</time>
      </trkpt>
      <trkpt lat="43.73998" lon="4.85287">
        <ele>269.306519</ele>
        <time>2011-01-23T11:24:16Z</time>
      </trkpt>
      <trkpt lat="43.74003" lon="4.85287">
        <ele>269.787109</ele>
        <time>2011-01-23T11:24:20Z</time>
      </trkpt>
      <trkpt lat="43.74016" lon="4.85287">
        <ele>271.229126</ele>
        <time>2011-01-23T11:24:33Z</time>
      </trkpt>
      <trkpt lat="43.74018" lon="4.85287">
        <ele>271.229126</ele>
        <time>2011-01-23T11:24:35Z</time>
      </trkpt>
      <trkpt lat="43.74024" lon="4.85287">
        <ele>272.19043</ele>
        <time>2011-01-23T11:24:40Z</time>
      </trkpt>
      <trkpt lat="43.74026" lon="4.85287">
        <ele>272.671143</ele>
        <time>2011-01-23T11:24:43Z</time>
      </trkpt>
      <trkpt lat="43.74028" lon="4.85287">
        <ele>272.671143</ele>
        <time>2011-01-23T11:24:45Z</time>
      </trkpt>
      <trkpt lat="43.74037" lon="4.85287">
        <ele>272.19043</ele>
        <time>2011-01-23T11:24:56Z</time>
      </trkpt>
      <trkpt lat="43.74039" lon="4.85285">
        <ele>271.709717</ele>
        <time>2011-01-23T11:24:58Z</time>
      </trkpt>
      <trkpt lat="43.74044" lon="4.85285">
        <ele>271.229126</ele>
        <time>2011-01-23T11:25:02Z</time>
      </trkpt>
      <trkpt lat="43.74052" lon="4.85282">
        <ele>270.2677</ele>
        <time>2011-01-23T11:25:09Z</time>
      </trkpt>
      <trkpt lat="43.74065" lon="4.85278">
        <ele>271.229126</ele>
        <time>2011-01-23T11:25:21Z</time>
      </trkpt>
      <trkpt lat="43.74071" lon="4.85278">
        <ele>273.151855</ele>
        <time>2011-01-23T11:25:26Z</time>
      </trkpt>
      <trkpt lat="43.74076" lon="4.85276">
        <ele>274.59375</ele>
        <time>2011-01-23T11:25:30Z</time>
      </trkpt>
      <trkpt lat="43.74093" lon="4.85276">
        <ele>275.555054</ele>
        <time>2011-01-23T11:25:46Z</time>
      </trkpt>
      <trkpt lat="43.74099" lon="4.85274">
        <ele>275.555054</ele>
        <time>2011-01-23T11:25:51Z</time>
      </trkpt>
      <trkpt lat="43.74101" lon="4.85272">
        <ele>275.074463</ele>
        <time>2011-01-23T11:25:54Z</time>
      </trkpt>
      <trkpt lat="43.74104" lon="4.85272">
        <ele>275.074463</ele>
        <time>2011-01-23T11:25:56Z</time>
      </trkpt>
      <trkpt lat="43.74116" lon="4.85267">
        <ele>276.99707</ele>
        <time>2011-01-23T11:26:09Z</time>
      </trkpt>
      <trkpt lat="43.74123" lon="4.85265">
        <ele>278.438965</ele>
        <time>2011-01-23T11:26:14Z</time>
      </trkpt>
      <trkpt lat="43.74136" lon="4.85265">
        <ele>280.361694</ele>
        <time>2011-01-23T11:26:26Z</time>
      </trkpt>
      <trkpt lat="43.7414" lon="4.85267">
        <ele>280.842407</ele>
        <time>2011-01-23T11:26:30Z</time>
      </trkpt>
      <trkpt lat="43.74147" lon="4.8527">
        <ele>280.361694</ele>
        <time>2011-01-23T11:26:42Z</time>
      </trkpt>
      <trkpt lat="43.74155" lon="4.85272">
        <ele>279.880859</ele>
        <time>2011-01-23T11:26:54Z</time>
      </trkpt>
      <trkpt lat="43.74166" lon="4.85278">
        <ele>281.322998</ele>
        <time>2011-01-23T11:27:06Z</time>
      </trkpt>
      <trkpt lat="43.74172" lon="4.85287">
        <ele>283.726196</ele>
        <time>2011-01-23T11:27:17Z</time>
      </trkpt>
      <trkpt lat="43.74174" lon="4.85291">
        <ele>283.245605</ele>
        <time>2011-01-23T11:27:21Z</time>
      </trkpt>
      <trkpt lat="43.74185" lon="4.85304">
        <ele>281.803589</ele>
        <time>2011-01-23T11:27:34Z</time>
      </trkpt>
      <trkpt lat="43.74189" lon="4.85321">
        <ele>282.284302</ele>
        <time>2011-01-23T11:27:47Z</time>
      </trkpt>
      <trkpt lat="43.74196" lon="4.85334">
        <ele>284.687622</ele>
        <time>2011-01-23T11:27:59Z</time>
      </trkpt>
      <trkpt lat="43.74198" lon="4.85336">
        <ele>285.648804</ele>
        <time>2011-01-23T11:28:03Z</time>
      </trkpt>
      <trkpt lat="43.74207" lon="4.85347">
        <ele>286.129517</ele>
        <time>2011-01-23T11:28:13Z</time>
      </trkpt>
      <trkpt lat="43.74207" lon="4.85347">
        <ele>286.129517</ele>
        <time>2011-01-23T11:28:14Z</time>
      </trkpt>
      <trkpt lat="43.74213" lon="4.85358">
        <ele>286.129517</ele>
        <time>2011-01-23T11:28:24Z</time>
      </trkpt>
      <trkpt lat="43.74213" lon="4.8536">
        <ele>285.648804</ele>
        <time>2011-01-23T11:28:27Z</time>
      </trkpt>
      <trkpt lat="43.74226" lon="4.85368">
        <ele>286.610229</ele>
        <time>2011-01-23T11:28:39Z</time>
      </trkpt>
      <trkpt lat="43.7423" lon="4.85368">
        <ele>286.610229</ele>
        <time>2011-01-23T11:28:41Z</time>
      </trkpt>
      <trkpt lat="43.74234" lon="4.85366">
        <ele>287.09082</ele>
        <time>2011-01-23T11:28:45Z</time>
      </trkpt>
      <trkpt lat="43.74241" lon="4.85366">
        <ele>288.052246</ele>
        <time>2011-01-23T11:28:51Z</time>
      </trkpt>
      <trkpt lat="43.74254" lon="4.85368">
        <ele>289.974854</ele>
        <time>2011-01-23T11:29:03Z</time>
      </trkpt>
      <trkpt lat="43.74267" lon="4.85375">
        <ele>288.532959</ele>
        <time>2011-01-23T11:29:16Z</time>
      </trkpt>
      <trkpt lat="43.74271" lon="4.85379">
        <ele>287.571411</ele>
        <time>2011-01-23T11:29:22Z</time>
      </trkpt>
      <trkpt lat="43.74273" lon="4.85383">
        <ele>287.571411</ele>
        <time>2011-01-23T11:29:27Z</time>
      </trkpt>
      <trkpt lat="43.7428" lon="4.85385">
        <ele>287.571411</ele>
        <time>2011-01-23T11:29:33Z</time>
      </trkpt>
      <trkpt lat="43.74282" lon="4.85388">
        <ele>288.052246</ele>
        <time>2011-01-23T11:29:35Z</time>
      </trkpt>
      <trkpt lat="43.74282" lon="4.85388">
        <ele>288.052246</ele>
        <time>2011-01-23T11:29:37Z</time>
      </trkpt>
      <trkpt lat="43.74286" lon="4.8539">
        <ele>288.532959</ele>
        <time>2011-01-23T11:29:41Z</time>
      </trkpt>
      <trkpt lat="43.74297" lon="4.85394">
        <ele>290.936157</ele>
        <time>2011-01-23T11:29:51Z</time>
      </trkpt>
      <trkpt lat="43.74299" lon="4.85396">
        <ele>291.416748</ele>
        <time>2011-01-23T11:29:53Z</time>
      </trkpt>
      <trkpt lat="43.74303" lon="4.85396">
        <ele>290.936157</ele>
        <time>2011-01-23T11:29:58Z</time>
      </trkpt>
      <trkpt lat="43.7431" lon="4.85394">
        <ele>291.416748</ele>
        <time>2011-01-23T11:30:04Z</time>
      </trkpt>
      <trkpt lat="43.74316" lon="4.85385">
        <ele>291.897461</ele>
        <time>2011-01-23T11:30:16Z</time>
      </trkpt>
      <trkpt lat="43.74329" lon="4.85377">
        <ele>294.300781</ele>
        <time>2011-01-23T11:30:30Z</time>
      </trkpt>
      <trkpt lat="43.74337" lon="4.85377">
        <ele>295.742676</ele>
        <time>2011-01-23T11:30:38Z</time>
      </trkpt>
      <trkpt lat="43.7434" lon="4.85377">
        <ele>295.742676</ele>
        <time>2011-01-23T11:30:41Z</time>
      </trkpt>
      <trkpt lat="43.74348" lon="4.85377">
        <ele>296.704102</ele>
        <time>2011-01-23T11:30:48Z</time>
      </trkpt>
      <trkpt lat="43.74353" lon="4.85375">
        <ele>297.184692</ele>
        <time>2011-01-23T11:30:53Z</time>
      </trkpt>
      <trkpt lat="43.74355" lon="4.8537">
        <ele>296.704102</ele>
        <time>2011-01-23T11:30:57Z</time>
      </trkpt>
      <trkpt lat="43.74361" lon="4.85351">
        <ele>296.704102</ele>
        <time>2011-01-23T11:31:09Z</time>
      </trkpt>
      <trkpt lat="43.74361" lon="4.85349">
        <ele>297.184692</ele>
        <time>2011-01-23T11:31:11Z</time>
      </trkpt>
      <trkpt lat="43.74363" lon="4.85336">
        <ele>297.665405</ele>
        <time>2011-01-23T11:31:19Z</time>
      </trkpt>
      <trkpt lat="43.74363" lon="4.85328">
        <ele>300.068726</ele>
        <time>2011-01-23T11:31:25Z</time>
      </trkpt>
      <trkpt lat="43.74365" lon="4.85321">
        <ele>301.029907</ele>
        <time>2011-01-23T11:31:29Z</time>
      </trkpt>
      <trkpt lat="43.74365" lon="4.85315">
        <ele>300.549316</ele>
        <time>2011-01-23T11:31:34Z</time>
      </trkpt>
      <trkpt lat="43.74365" lon="4.8531">
        <ele>300.549316</ele>
        <time>2011-01-23T11:31:36Z</time>
      </trkpt>
      <trkpt lat="43.74368" lon="4.85304">
        <ele>300.549316</ele>
        <time>2011-01-23T11:31:41Z</time>
      </trkpt>
      <trkpt lat="43.7437" lon="4.85291">
        <ele>301.029907</ele>
        <time>2011-01-23T11:31:51Z</time>
      </trkpt>
      <trkpt lat="43.74372" lon="4.85285">
        <ele>301.51062</ele>
        <time>2011-01-23T11:31:56Z</time>
      </trkpt>
      <trkpt lat="43.74376" lon="4.85272">
        <ele>301.51062</ele>
        <time>2011-01-23T11:32:07Z</time>
      </trkpt>
      <trkpt lat="43.74385" lon="4.85272">
        <ele>301.51062</ele>
        <time>2011-01-23T11:32:17Z</time>
      </trkpt>
      <trkpt lat="43.74389" lon="4.85274">
        <ele>303.91394</ele>
        <time>2011-01-23T11:32:24Z</time>
      </trkpt>
      <trkpt lat="43.74402" lon="4.85282">
        <ele>303.91394</ele>
        <time>2011-01-23T11:32:37Z</time>
      </trkpt>
      <trkpt lat="43.74404" lon="4.85285">
        <ele>303.433228</ele>
        <time>2011-01-23T11:32:40Z</time>
      </trkpt>
      <trkpt lat="43.74408" lon="4.85285">
        <ele>303.433228</ele>
        <time>2011-01-23T11:32:45Z</time>
      </trkpt>
      <trkpt lat="43.74415" lon="4.85282">
        <ele>303.91394</ele>
        <time>2011-01-23T11:32:50Z</time>
      </trkpt>
      <trkpt lat="43.74425" lon="4.85263">
        <ele>304.875244</ele>
        <time>2011-01-23T11:33:06Z</time>
      </trkpt>
      <trkpt lat="43.74425" lon="4.85261">
        <ele>304.875244</ele>
        <time>2011-01-23T11:33:08Z</time>
      </trkpt>
      <trkpt lat="43.74425" lon="4.85246">
        <ele>305.355957</ele>
        <time>2011-01-23T11:33:17Z</time>
      </trkpt>
      <trkpt lat="43.74425" lon="4.85244">
        <ele>304.875244</ele>
        <time>2011-01-23T11:33:19Z</time>
      </trkpt>
      <trkpt lat="43.74425" lon="4.85242">
        <ele>301.51062</ele>
        <time>2011-01-23T11:33:38Z</time>
      </trkpt>
      <trkpt lat="43.74425" lon="4.85242">
        <ele>302.471924</ele>
        <time>2011-01-23T11:33:52Z</time>
      </trkpt>
      <trkpt lat="43.74425" lon="4.85231">
        <ele>303.91394</ele>
        <time>2011-01-23T11:33:58Z</time>
      </trkpt>
      <trkpt lat="43.74428" lon="4.85207">
        <ele>303.433228</ele>
        <time>2011-01-23T11:34:12Z</time>
      </trkpt>
      <trkpt lat="43.74438" lon="4.8519">
        <ele>301.51062</ele>
        <time>2011-01-23T11:34:26Z</time>
      </trkpt>
      <trkpt lat="43.74453" lon="4.85184">
        <ele>301.51062</ele>
        <time>2011-01-23T11:34:39Z</time>
      </trkpt>
      <trkpt lat="43.7446" lon="4.85182">
        <ele>301.991333</ele>
        <time>2011-01-23T11:34:46Z</time>
      </trkpt>
      <trkpt lat="43.74464" lon="4.85179">
        <ele>302.952515</ele>
        <time>2011-01-23T11:34:50Z</time>
      </trkpt>
      <trkpt lat="43.74466" lon="4.85179">
        <ele>303.91394</ele>
        <time>2011-01-23T11:34:53Z</time>
      </trkpt>
      <trkpt lat="43.74477" lon="4.85182">
        <ele>306.797852</ele>
        <time>2011-01-23T11:35:01Z</time>
      </trkpt>
      <trkpt lat="43.7449" lon="4.85179">
        <ele>307.759277</ele>
        <time>2011-01-23T11:35:12Z</time>
      </trkpt>
      <trkpt lat="43.74505" lon="4.85162">
        <ele>308.720459</ele>
        <time>2011-01-23T11:35:28Z</time>
      </trkpt>
      <trkpt lat="43.74513" lon="4.85156">
        <ele>309.681885</ele>
        <time>2011-01-23T11:35:38Z</time>
      </trkpt>
      <trkpt lat="43.74522" lon="4.85154">
        <ele>311.123779</ele>
        <time>2011-01-23T11:35:46Z</time>
      </trkpt>
      <trkpt lat="43.74537" lon="4.8516">
        <ele>312.565796</ele>
        <time>2011-01-23T11:35:58Z</time>
      </trkpt>
      <trkpt lat="43.74539" lon="4.8516">
        <ele>312.085205</ele>
        <time>2011-01-23T11:36:00Z</time>
      </trkpt>
      <trkpt lat="43.74548" lon="4.85164">
        <ele>313.046509</ele>
        <time>2011-01-23T11:36:08Z</time>
      </trkpt>
      <trkpt lat="43.74552" lon="4.85167">
        <ele>313.046509</ele>
        <time>2011-01-23T11:36:11Z</time>
      </trkpt>
      <trkpt lat="43.74558" lon="4.85169">
        <ele>313.046509</ele>
        <time>2011-01-23T11:36:15Z</time>
      </trkpt>
      <trkpt lat="43.74571" lon="4.85154">
        <ele>314.969116</ele>
        <time>2011-01-23T11:36:30Z</time>
      </trkpt>
      <trkpt lat="43.74582" lon="4.85147">
        <ele>314.969116</ele>
        <time>2011-01-23T11:36:40Z</time>
      </trkpt>
      <trkpt lat="43.74591" lon="4.85145">
        <ele>314.007813</ele>
        <time>2011-01-23T11:36:47Z</time>
      </trkpt>
      <trkpt lat="43.74597" lon="4.85145">
        <ele>314.007813</ele>
        <time>2011-01-23T11:36:53Z</time>
      </trkpt>
      <trkpt lat="43.74601" lon="4.85147">
        <ele>314.488403</ele>
        <time>2011-01-23T11:36:56Z</time>
      </trkpt>
      <trkpt lat="43.74612" lon="4.85147">
        <ele>314.969116</ele>
        <time>2011-01-23T11:37:08Z</time>
      </trkpt>
      <trkpt lat="43.74612" lon="4.85147">
        <ele>314.969116</ele>
        <time>2011-01-23T11:37:09Z</time>
      </trkpt>
      <trkpt lat="43.74621" lon="4.85154">
        <ele>314.488403</ele>
        <time>2011-01-23T11:37:18Z</time>
      </trkpt>
      <trkpt lat="43.74631" lon="4.85158">
        <ele>315.93042</ele>
        <time>2011-01-23T11:37:28Z</time>
      </trkpt>
      <trkpt lat="43.74646" lon="4.85167">
        <ele>314.969116</ele>
        <time>2011-01-23T11:37:42Z</time>
      </trkpt>
      <trkpt lat="43.74657" lon="4.85175">
        <ele>315.93042</ele>
        <time>2011-01-23T11:37:54Z</time>
      </trkpt>
      <trkpt lat="43.7467" lon="4.85182">
        <ele>317.372437</ele>
        <time>2011-01-23T11:38:05Z</time>
      </trkpt>
      <trkpt lat="43.74674" lon="4.85186">
        <ele>317.372437</ele>
        <time>2011-01-23T11:38:09Z</time>
      </trkpt>
      <trkpt lat="43.74683" lon="4.8519">
        <ele>318.814331</ele>
        <time>2011-01-23T11:38:20Z</time>
      </trkpt>
      <trkpt lat="43.74702" lon="4.85197">
        <ele>316.411011</ele>
        <time>2011-01-23T11:38:35Z</time>
      </trkpt>
      <trkpt lat="43.74707" lon="4.85199">
        <ele>316.411011</ele>
        <time>2011-01-23T11:38:39Z</time>
      </trkpt>
      <trkpt lat="43.74719" lon="4.8521">
        <ele>317.853027</ele>
        <time>2011-01-23T11:38:52Z</time>
      </trkpt>
      <trkpt lat="43.74728" lon="4.85225">
        <ele>319.775635</ele>
        <time>2011-01-23T11:39:06Z</time>
      </trkpt>
      <trkpt lat="43.74728" lon="4.85227">
        <ele>319.775635</ele>
        <time>2011-01-23T11:39:07Z</time>
      </trkpt>
      <trkpt lat="43.7473" lon="4.85231">
        <ele>320.256348</ele>
        <time>2011-01-23T11:39:10Z</time>
      </trkpt>
      <trkpt lat="43.7473" lon="4.85233">
        <ele>320.737061</ele>
        <time>2011-01-23T11:39:12Z</time>
      </trkpt>
      <trkpt lat="43.7473" lon="4.85237">
        <ele>320.737061</ele>
        <time>2011-01-23T11:39:15Z</time>
      </trkpt>
      <trkpt lat="43.74734" lon="4.85248">
        <ele>321.217773</ele>
        <time>2011-01-23T11:39:23Z</time>
      </trkpt>
      <trkpt lat="43.74741" lon="4.85257">
        <ele>321.217773</ele>
        <time>2011-01-23T11:39:30Z</time>
      </trkpt>
      <trkpt lat="43.74747" lon="4.85263">
        <ele>322.178955</ele>
        <time>2011-01-23T11:39:36Z</time>
      </trkpt>
      <trkpt lat="43.7476" lon="4.85272">
        <ele>321.217773</ele>
        <time>2011-01-23T11:39:49Z</time>
      </trkpt>
      <trkpt lat="43.74775" lon="4.85278">
        <ele>320.256348</ele>
        <time>2011-01-23T11:40:02Z</time>
      </trkpt>
      <trkpt lat="43.74782" lon="4.85285">
        <ele>319.295044</ele>
        <time>2011-01-23T11:40:08Z</time>
      </trkpt>
      <trkpt lat="43.74792" lon="4.85289">
        <ele>317.853027</ele>
        <time>2011-01-23T11:40:18Z</time>
      </trkpt>
      <trkpt lat="43.74805" lon="4.85295">
        <ele>317.372437</ele>
        <time>2011-01-23T11:40:31Z</time>
      </trkpt>
      <trkpt lat="43.74807" lon="4.85297">
        <ele>317.372437</ele>
        <time>2011-01-23T11:40:35Z</time>
      </trkpt>
      <trkpt lat="43.74814" lon="4.853">
        <ele>317.853027</ele>
        <time>2011-01-23T11:40:41Z</time>
      </trkpt>
      <trkpt lat="43.74827" lon="4.8531">
        <ele>318.814331</ele>
        <time>2011-01-23T11:40:54Z</time>
      </trkpt>
      <trkpt lat="43.74835" lon="4.85313">
        <ele>318.333618</ele>
        <time>2011-01-23T11:41:01Z</time>
      </trkpt>
      <trkpt lat="43.74852" lon="4.85317">
        <ele>315.93042</ele>
        <time>2011-01-23T11:41:14Z</time>
      </trkpt>
      <trkpt lat="43.74857" lon="4.85317">
        <ele>315.93042</ele>
        <time>2011-01-23T11:41:16Z</time>
      </trkpt>
      <trkpt lat="43.74863" lon="4.85317">
        <ele>314.969116</ele>
        <time>2011-01-23T11:41:22Z</time>
      </trkpt>
      <trkpt lat="43.74876" lon="4.85325">
        <ele>316.411011</ele>
        <time>2011-01-23T11:41:38Z</time>
      </trkpt>
      <trkpt lat="43.74878" lon="4.85332">
        <ele>318.333618</ele>
        <time>2011-01-23T11:41:43Z</time>
      </trkpt>
      <trkpt lat="43.7488" lon="4.85345">
        <ele>317.853027</ele>
        <time>2011-01-23T11:41:52Z</time>
      </trkpt>
      <trkpt lat="43.74883" lon="4.85355">
        <ele>318.814331</ele>
        <time>2011-01-23T11:42:04Z</time>
      </trkpt>
      <trkpt lat="43.74883" lon="4.85366">
        <ele>320.256348</ele>
        <time>2011-01-23T11:42:14Z</time>
      </trkpt>
      <trkpt lat="43.74883" lon="4.85379">
        <ele>323.140381</ele>
        <time>2011-01-23T11:42:26Z</time>
      </trkpt>
      <trkpt lat="43.74885" lon="4.85392">
        <ele>325.062988</ele>
        <time>2011-01-23T11:42:38Z</time>
      </trkpt>
      <trkpt lat="43.74889" lon="4.85407">
        <ele>325.543579</ele>
        <time>2011-01-23T11:42:51Z</time>
      </trkpt>
      <trkpt lat="43.74891" lon="4.85422">
        <ele>326.02417</ele>
        <time>2011-01-23T11:43:02Z</time>
      </trkpt>
      <trkpt lat="43.74893" lon="4.85433">
        <ele>327.946777</ele>
        <time>2011-01-23T11:43:11Z</time>
      </trkpt>
      <trkpt lat="43.74895" lon="4.85435">
        <ele>328.427612</ele>
        <time>2011-01-23T11:43:13Z</time>
      </trkpt>
      <trkpt lat="43.74898" lon="4.85452">
        <ele>329.388916</ele>
        <time>2011-01-23T11:43:26Z</time>
      </trkpt>
      <trkpt lat="43.74898" lon="4.85454">
        <ele>329.388916</ele>
        <time>2011-01-23T11:43:27Z</time>
      </trkpt>
      <trkpt lat="43.749" lon="4.85463">
        <ele>329.388916</ele>
        <time>2011-01-23T11:43:33Z</time>
      </trkpt>
      <trkpt lat="43.74906" lon="4.85484">
        <ele>327.946777</ele>
        <time>2011-01-23T11:43:47Z</time>
      </trkpt>
      <trkpt lat="43.74908" lon="4.85486">
        <ele>327.466187</ele>
        <time>2011-01-23T11:43:50Z</time>
      </trkpt>
      <trkpt lat="43.74925" lon="4.85486">
        <ele>327.466187</ele>
        <time>2011-01-23T11:44:03Z</time>
      </trkpt>
      <trkpt lat="43.74936" lon="4.85478">
        <ele>328.908325</ele>
        <time>2011-01-23T11:44:17Z</time>
      </trkpt>
      <trkpt lat="43.74938" lon="4.85478">
        <ele>326.985596</ele>
        <time>2011-01-23T11:44:37Z</time>
      </trkpt>
      <trkpt lat="43.7494" lon="4.85473">
        <ele>322.178955</ele>
        <time>2011-01-23T11:45:09Z</time>
      </trkpt>
      <trkpt lat="43.74943" lon="4.85473">
        <ele>322.178955</ele>
        <time>2011-01-23T11:45:13Z</time>
      </trkpt>
      <trkpt lat="43.74947" lon="4.85473">
        <ele>322.178955</ele>
        <time>2011-01-23T11:45:16Z</time>
      </trkpt>
      <trkpt lat="43.7496" lon="4.85482">
        <ele>322.178955</ele>
        <time>2011-01-23T11:45:30Z</time>
      </trkpt>
      <trkpt lat="43.74973" lon="4.85491">
        <ele>325.543579</ele>
        <time>2011-01-23T11:45:44Z</time>
      </trkpt>
      <trkpt lat="43.74983" lon="4.85506">
        <ele>330.35022</ele>
        <time>2011-01-23T11:45:58Z</time>
      </trkpt>
      <trkpt lat="43.7499" lon="4.85523">
        <ele>330.830933</ele>
        <time>2011-01-23T11:46:12Z</time>
      </trkpt>
      <trkpt lat="43.74994" lon="4.85529">
        <ele>328.908325</ele>
        <time>2011-01-23T11:46:24Z</time>
      </trkpt>
      <trkpt lat="43.74996" lon="4.85538">
        <ele>329.869507</ele>
        <time>2011-01-23T11:46:41Z</time>
      </trkpt>
      <trkpt lat="43.74998" lon="4.85557">
        <ele>330.830933</ele>
        <time>2011-01-23T11:46:54Z</time>
      </trkpt>
      <trkpt lat="43.75003" lon="4.85579">
        <ele>331.311523</ele>
        <time>2011-01-23T11:47:07Z</time>
      </trkpt>
      <trkpt lat="43.75003" lon="4.85581">
        <ele>330.830933</ele>
        <time>2011-01-23T11:47:09Z</time>
      </trkpt>
      <trkpt lat="43.75007" lon="4.85596">
        <ele>330.35022</ele>
        <time>2011-01-23T11:47:19Z</time>
      </trkpt>
      <trkpt lat="43.75011" lon="4.85617">
        <ele>330.830933</ele>
        <time>2011-01-23T11:47:32Z</time>
      </trkpt>
      <trkpt lat="43.75013" lon="4.85634">
        <ele>327.946777</ele>
        <time>2011-01-23T11:47:43Z</time>
      </trkpt>
      <trkpt lat="43.75013" lon="4.85639">
        <ele>327.946777</ele>
        <time>2011-01-23T11:47:45Z</time>
      </trkpt>
      <trkpt lat="43.7502" lon="4.85656">
        <ele>326.985596</ele>
        <time>2011-01-23T11:47:57Z</time>
      </trkpt>
      <trkpt lat="43.75024" lon="4.85662">
        <ele>326.02417</ele>
        <time>2011-01-23T11:48:02Z</time>
      </trkpt>
      <trkpt lat="43.75031" lon="4.85677">
        <ele>325.543579</ele>
        <time>2011-01-23T11:48:15Z</time>
      </trkpt>
      <trkpt lat="43.75039" lon="4.85692">
        <ele>325.062988</ele>
        <time>2011-01-23T11:48:26Z</time>
      </trkpt>
      <trkpt lat="43.75043" lon="4.85707">
        <ele>325.062988</ele>
        <time>2011-01-23T11:48:37Z</time>
      </trkpt>
      <trkpt lat="43.75048" lon="4.85724">
        <ele>324.101563</ele>
        <time>2011-01-23T11:48:48Z</time>
      </trkpt>
      <trkpt lat="43.75056" lon="4.85733">
        <ele>324.101563</ele>
        <time>2011-01-23T11:48:58Z</time>
      </trkpt>
      <trkpt lat="43.75069" lon="4.85742">
        <ele>323.140381</ele>
        <time>2011-01-23T11:49:09Z</time>
      </trkpt>
      <trkpt lat="43.7508" lon="4.85748">
        <ele>322.659668</ele>
        <time>2011-01-23T11:49:21Z</time>
      </trkpt>
      <trkpt lat="43.75089" lon="4.85763">
        <ele>324.582275</ele>
        <time>2011-01-23T11:49:34Z</time>
      </trkpt>
      <trkpt lat="43.75099" lon="4.85776">
        <ele>324.582275</ele>
        <time>2011-01-23T11:49:46Z</time>
      </trkpt>
      <trkpt lat="43.7511" lon="4.85791">
        <ele>324.101563</ele>
        <time>2011-01-23T11:50:00Z</time>
      </trkpt>
      <trkpt lat="43.75116" lon="4.858">
        <ele>323.620972</ele>
        <time>2011-01-23T11:50:09Z</time>
      </trkpt>
      <trkpt lat="43.75123" lon="4.85815">
        <ele>322.659668</ele>
        <time>2011-01-23T11:50:21Z</time>
      </trkpt>
      <trkpt lat="43.75134" lon="4.85832">
        <ele>323.620972</ele>
        <time>2011-01-23T11:50:35Z</time>
      </trkpt>
      <trkpt lat="43.75138" lon="4.85838">
        <ele>323.140381</ele>
        <time>2011-01-23T11:50:41Z</time>
      </trkpt>
      <trkpt lat="43.75149" lon="4.85849">
        <ele>322.178955</ele>
        <time>2011-01-23T11:50:53Z</time>
      </trkpt>
      <trkpt lat="43.75159" lon="4.85862">
        <ele>322.659668</ele>
        <time>2011-01-23T11:51:06Z</time>
      </trkpt>
      <trkpt lat="43.75164" lon="4.85868">
        <ele>323.620972</ele>
        <time>2011-01-23T11:51:12Z</time>
      </trkpt>
      <trkpt lat="43.75174" lon="4.85879">
        <ele>324.582275</ele>
        <time>2011-01-23T11:51:24Z</time>
      </trkpt>
      <trkpt lat="43.75187" lon="4.85892">
        <ele>324.101563</ele>
        <time>2011-01-23T11:51:40Z</time>
      </trkpt>
      <trkpt lat="43.75189" lon="4.85894">
        <ele>324.582275</ele>
        <time>2011-01-23T11:51:42Z</time>
      </trkpt>
      <trkpt lat="43.75189" lon="4.85896">
        <ele>325.062988</ele>
        <time>2011-01-23T11:51:44Z</time>
      </trkpt>
      <trkpt lat="43.75194" lon="4.85903">
        <ele>326.02417</ele>
        <time>2011-01-23T11:51:49Z</time>
      </trkpt>
      <trkpt lat="43.752" lon="4.8592">
        <ele>326.985596</ele>
        <time>2011-01-23T11:52:03Z</time>
      </trkpt>
      <trkpt lat="43.75213" lon="4.85935">
        <ele>327.466187</ele>
        <time>2011-01-23T11:52:16Z</time>
      </trkpt>
      <trkpt lat="43.75213" lon="4.85935">
        <ele>327.466187</ele>
        <time>2011-01-23T11:52:18Z</time>
      </trkpt>
      <trkpt lat="43.75222" lon="4.85946">
        <ele>324.582275</ele>
        <time>2011-01-23T11:52:26Z</time>
      </trkpt>
      <trkpt lat="43.75226" lon="4.8595">
        <ele>324.582275</ele>
        <time>2011-01-23T11:52:32Z</time>
      </trkpt>
      <trkpt lat="43.75226" lon="4.85952">
        <ele>324.582275</ele>
        <time>2011-01-23T11:52:34Z</time>
      </trkpt>
      <trkpt lat="43.75239" lon="4.85963">
        <ele>325.062988</ele>
        <time>2011-01-23T11:52:48Z</time>
      </trkpt>
      <trkpt lat="43.75243" lon="4.85967">
        <ele>324.582275</ele>
        <time>2011-01-23T11:53:28Z</time>
      </trkpt>
      <trkpt lat="43.75245" lon="4.85971">
        <ele>325.062988</ele>
        <time>2011-01-23T11:53:31Z</time>
      </trkpt>
      <trkpt lat="43.75252" lon="4.8598">
        <ele>327.946777</ele>
        <time>2011-01-23T11:53:39Z</time>
      </trkpt>
      <trkpt lat="43.75258" lon="4.85999">
        <ele>331.311523</ele>
        <time>2011-01-23T11:53:52Z</time>
      </trkpt>
      <trkpt lat="43.75267" lon="4.86012">
        <ele>330.35022</ele>
        <time>2011-01-23T11:54:03Z</time>
      </trkpt>
      <trkpt lat="43.75275" lon="4.86025">
        <ele>330.35022</ele>
        <time>2011-01-23T11:54:13Z</time>
      </trkpt>
      <trkpt lat="43.75284" lon="4.86036">
        <ele>331.311523</ele>
        <time>2011-01-23T11:54:22Z</time>
      </trkpt>
      <trkpt lat="43.75292" lon="4.86044">
        <ele>331.311523</ele>
        <time>2011-01-23T11:54:30Z</time>
      </trkpt>
      <trkpt lat="43.75297" lon="4.86051">
        <ele>331.311523</ele>
        <time>2011-01-23T11:54:34Z</time>
      </trkpt>
      <trkpt lat="43.75299" lon="4.86053">
        <ele>331.311523</ele>
        <time>2011-01-23T11:54:38Z</time>
      </trkpt>
      <trkpt lat="43.75301" lon="4.86055">
        <ele>330.830933</ele>
        <time>2011-01-23T11:54:39Z</time>
      </trkpt>
      <trkpt lat="43.7531" lon="4.86059">
        <ele>330.830933</ele>
        <time>2011-01-23T11:54:45Z</time>
      </trkpt>
      <trkpt lat="43.75314" lon="4.86064">
        <ele>330.35022</ele>
        <time>2011-01-23T11:54:49Z</time>
      </trkpt>
      <trkpt lat="43.75325" lon="4.86066">
        <ele>328.908325</ele>
        <time>2011-01-23T11:54:57Z</time>
      </trkpt>
      <trkpt lat="43.75331" lon="4.86072">
        <ele>329.869507</ele>
        <time>2011-01-23T11:55:04Z</time>
      </trkpt>
      <trkpt lat="43.75329" lon="4.86081">
        <ele>330.830933</ele>
        <time>2011-01-23T11:55:09Z</time>
      </trkpt>
      <trkpt lat="43.75327" lon="4.86087">
        <ele>332.272827</ele>
        <time>2011-01-23T11:55:13Z</time>
      </trkpt>
      <trkpt lat="43.75325" lon="4.86094">
        <ele>332.75354</ele>
        <time>2011-01-23T11:55:17Z</time>
      </trkpt>
      <trkpt lat="43.75322" lon="4.86098">
        <ele>332.75354</ele>
        <time>2011-01-23T11:55:19Z</time>
      </trkpt>
      <trkpt lat="43.7532" lon="4.86115">
        <ele>334.195435</ele>
        <time>2011-01-23T11:55:30Z</time>
      </trkpt>
      <trkpt lat="43.75316" lon="4.86132">
        <ele>335.637329</ele>
        <time>2011-01-23T11:55:42Z</time>
      </trkpt>
      <trkpt lat="43.75329" lon="4.86143">
        <ele>336.598877</ele>
        <time>2011-01-23T11:55:55Z</time>
      </trkpt>
      <trkpt lat="43.7534" lon="4.86147">
        <ele>334.195435</ele>
        <time>2011-01-23T11:56:02Z</time>
      </trkpt>
      <trkpt lat="43.75361" lon="4.86145">
        <ele>330.35022</ele>
        <time>2011-01-23T11:56:17Z</time>
      </trkpt>
      <trkpt lat="43.75372" lon="4.86145">
        <ele>330.830933</ele>
        <time>2011-01-23T11:56:28Z</time>
      </trkpt>
      <trkpt lat="43.75376" lon="4.86145">
        <ele>330.830933</ele>
        <time>2011-01-23T11:56:32Z</time>
      </trkpt>
      <trkpt lat="43.75378" lon="4.86147">
        <ele>330.35022</ele>
        <time>2011-01-23T11:56:34Z</time>
      </trkpt>
      <trkpt lat="43.7538" lon="4.86154">
        <ele>331.311523</ele>
        <time>2011-01-23T11:56:42Z</time>
      </trkpt>
      <trkpt lat="43.75382" lon="4.86164">
        <ele>331.311523</ele>
        <time>2011-01-23T11:56:49Z</time>
      </trkpt>
      <trkpt lat="43.75395" lon="4.86177">
        <ele>332.272827</ele>
        <time>2011-01-23T11:57:02Z</time>
      </trkpt>
      <trkpt lat="43.75404" lon="4.86184">
        <ele>331.792114</ele>
        <time>2011-01-23T11:57:08Z</time>
      </trkpt>
      <trkpt lat="43.7541" lon="4.86182">
        <ele>330.35022</ele>
        <time>2011-01-23T11:57:13Z</time>
      </trkpt>
      <trkpt lat="43.75428" lon="4.86184">
        <ele>327.946777</ele>
        <time>2011-01-23T11:57:27Z</time>
      </trkpt>
      <trkpt lat="43.7543" lon="4.86184">
        <ele>327.466187</ele>
        <time>2011-01-23T11:57:29Z</time>
      </trkpt>
      <trkpt lat="43.7543" lon="4.86184">
        <ele>326.985596</ele>
        <time>2011-01-23T11:57:31Z</time>
      </trkpt>
      <trkpt lat="43.75436" lon="4.86188">
        <ele>324.582275</ele>
        <time>2011-01-23T11:57:38Z</time>
      </trkpt>
      <trkpt lat="43.75447" lon="4.86199">
        <ele>324.101563</ele>
        <time>2011-01-23T11:57:50Z</time>
      </trkpt>
      <trkpt lat="43.75455" lon="4.86216">
        <ele>322.659668</ele>
        <time>2011-01-23T11:58:04Z</time>
      </trkpt>
      <trkpt lat="43.75458" lon="4.86218">
        <ele>321.698364</ele>
        <time>2011-01-23T11:58:07Z</time>
      </trkpt>
      <trkpt lat="43.75462" lon="4.86224">
        <ele>319.775635</ele>
        <time>2011-01-23T11:58:14Z</time>
      </trkpt>
      <trkpt lat="43.75466" lon="4.86227">
        <ele>318.814331</ele>
        <time>2011-01-23T11:58:18Z</time>
      </trkpt>
      <trkpt lat="43.75475" lon="4.86239">
        <ele>317.853027</ele>
        <time>2011-01-23T11:58:32Z</time>
      </trkpt>
      <trkpt lat="43.75481" lon="4.86257">
        <ele>319.295044</ele>
        <time>2011-01-23T11:58:46Z</time>
      </trkpt>
      <trkpt lat="43.75481" lon="4.8627">
        <ele>318.333618</ele>
        <time>2011-01-23T11:58:57Z</time>
      </trkpt>
      <trkpt lat="43.75481" lon="4.86276">
        <ele>317.372437</ele>
        <time>2011-01-23T11:59:01Z</time>
      </trkpt>
      <trkpt lat="43.75483" lon="4.86282">
        <ele>315.93042</ele>
        <time>2011-01-23T11:59:06Z</time>
      </trkpt>
      <trkpt lat="43.75492" lon="4.86302">
        <ele>314.007813</ele>
        <time>2011-01-23T11:59:20Z</time>
      </trkpt>
      <trkpt lat="43.75498" lon="4.86306">
        <ele>314.007813</ele>
        <time>2011-01-23T11:59:30Z</time>
      </trkpt>
      <trkpt lat="43.755" lon="4.86317">
        <ele>315.93042</ele>
        <time>2011-01-23T11:59:40Z</time>
      </trkpt>
      <trkpt lat="43.75505" lon="4.86336">
        <ele>315.93042</ele>
        <time>2011-01-23T11:59:53Z</time>
      </trkpt>
      <trkpt lat="43.75505" lon="4.86345">
        <ele>316.411011</ele>
        <time>2011-01-23T11:59:58Z</time>
      </trkpt>
      <trkpt lat="43.75511" lon="4.86364">
        <ele>316.891724</ele>
        <time>2011-01-23T12:00:13Z</time>
      </trkpt>
      <trkpt lat="43.75516" lon="4.86381">
        <ele>315.93042</ele>
        <time>2011-01-23T12:00:26Z</time>
      </trkpt>
      <trkpt lat="43.75526" lon="4.86398">
        <ele>316.411011</ele>
        <time>2011-01-23T12:00:40Z</time>
      </trkpt>
      <trkpt lat="43.75533" lon="4.86418">
        <ele>313.046509</ele>
        <time>2011-01-23T12:00:54Z</time>
      </trkpt>
      <trkpt lat="43.75541" lon="4.86428">
        <ele>309.681885</ele>
        <time>2011-01-23T12:01:08Z</time>
      </trkpt>
      <trkpt lat="43.75543" lon="4.86428">
        <ele>309.681885</ele>
        <time>2011-01-23T12:01:10Z</time>
      </trkpt>
      <trkpt lat="43.75548" lon="4.86439">
        <ele>308.239868</ele>
        <time>2011-01-23T12:01:20Z</time>
      </trkpt>
      <trkpt lat="43.75552" lon="4.86448">
        <ele>305.83667</ele>
        <time>2011-01-23T12:01:30Z</time>
      </trkpt>
      <trkpt lat="43.75556" lon="4.86456">
        <ele>304.875244</ele>
        <time>2011-01-23T12:01:39Z</time>
      </trkpt>
      <trkpt lat="43.75561" lon="4.86469">
        <ele>301.51062</ele>
        <time>2011-01-23T12:01:50Z</time>
      </trkpt>
      <trkpt lat="43.75565" lon="4.86471">
        <ele>300.549316</ele>
        <time>2011-01-23T12:01:54Z</time>
      </trkpt>
      <trkpt lat="43.75569" lon="4.86473">
        <ele>298.626709</ele>
        <time>2011-01-23T12:01:58Z</time>
      </trkpt>
      <trkpt lat="43.75573" lon="4.8648">
        <ele>295.742676</ele>
        <time>2011-01-23T12:02:06Z</time>
      </trkpt>
      <trkpt lat="43.75578" lon="4.86495">
        <ele>292.858765</ele>
        <time>2011-01-23T12:02:18Z</time>
      </trkpt>
      <trkpt lat="43.75582" lon="4.86503">
        <ele>291.416748</ele>
        <time>2011-01-23T12:02:29Z</time>
      </trkpt>
      <trkpt lat="43.75582" lon="4.86508">
        <ele>290.936157</ele>
        <time>2011-01-23T12:02:36Z</time>
      </trkpt>
      <trkpt lat="43.75584" lon="4.86512">
        <ele>290.455566</ele>
        <time>2011-01-23T12:02:40Z</time>
      </trkpt>
      <trkpt lat="43.75586" lon="4.86521">
        <ele>289.974854</ele>
        <time>2011-01-23T12:02:45Z</time>
      </trkpt>
      <trkpt lat="43.75588" lon="4.86527">
        <ele>289.01355</ele>
        <time>2011-01-23T12:02:50Z</time>
      </trkpt>
      <trkpt lat="43.75593" lon="4.86538">
        <ele>287.09082</ele>
        <time>2011-01-23T12:03:00Z</time>
      </trkpt>
      <trkpt lat="43.75593" lon="4.86542">
        <ele>286.129517</ele>
        <time>2011-01-23T12:03:05Z</time>
      </trkpt>
      <trkpt lat="43.75593" lon="4.86557">
        <ele>286.610229</ele>
        <time>2011-01-23T12:03:18Z</time>
      </trkpt>
      <trkpt lat="43.75595" lon="4.86568">
        <ele>287.571411</ele>
        <time>2011-01-23T12:03:27Z</time>
      </trkpt>
      <trkpt lat="43.75595" lon="4.86583">
        <ele>287.571411</ele>
        <time>2011-01-23T12:03:39Z</time>
      </trkpt>
      <trkpt lat="43.75595" lon="4.86583">
        <ele>287.571411</ele>
        <time>2011-01-23T12:03:40Z</time>
      </trkpt>
      <trkpt lat="43.75597" lon="4.86594">
        <ele>288.052246</ele>
        <time>2011-01-23T12:03:51Z</time>
      </trkpt>
      <trkpt lat="43.75597" lon="4.86609">
        <ele>290.455566</ele>
        <time>2011-01-23T12:04:04Z</time>
      </trkpt>
      <trkpt lat="43.75597" lon="4.86621">
        <ele>292.378174</ele>
        <time>2011-01-23T12:04:14Z</time>
      </trkpt>
      <trkpt lat="43.75599" lon="4.86632">
        <ele>292.378174</ele>
        <time>2011-01-23T12:04:26Z</time>
      </trkpt>
      <trkpt lat="43.75601" lon="4.86632">
        <ele>289.974854</ele>
        <time>2011-01-23T12:04:49Z</time>
      </trkpt>
      <trkpt lat="43.75601" lon="4.86639">
        <ele>288.532959</ele>
        <time>2011-01-23T12:05:07Z</time>
      </trkpt>
      <trkpt lat="43.75599" lon="4.86651">
        <ele>289.494141</ele>
        <time>2011-01-23T12:05:16Z</time>
      </trkpt>
      <trkpt lat="43.75608" lon="4.86662">
        <ele>287.571411</ele>
        <time>2011-01-23T12:05:28Z</time>
      </trkpt>
      <trkpt lat="43.75614" lon="4.86677">
        <ele>285.648804</ele>
        <time>2011-01-23T12:05:39Z</time>
      </trkpt>
      <trkpt lat="43.75614" lon="4.86679">
        <ele>285.648804</ele>
        <time>2011-01-23T12:05:41Z</time>
      </trkpt>
      <trkpt lat="43.75619" lon="4.86697">
        <ele>283.245605</ele>
        <time>2011-01-23T12:05:52Z</time>
      </trkpt>
      <trkpt lat="43.75619" lon="4.86699">
        <ele>283.245605</ele>
        <time>2011-01-23T12:05:54Z</time>
      </trkpt>
      <trkpt lat="43.75623" lon="4.86714">
        <ele>281.803589</ele>
        <time>2011-01-23T12:06:03Z</time>
      </trkpt>
      <trkpt lat="43.75627" lon="4.8672">
        <ele>280.361694</ele>
        <time>2011-01-23T12:06:08Z</time>
      </trkpt>
      <trkpt lat="43.75631" lon="4.86735">
        <ele>278.438965</ele>
        <time>2011-01-23T12:06:18Z</time>
      </trkpt>
      <trkpt lat="43.75634" lon="4.86744">
        <ele>277.477661</ele>
        <time>2011-01-23T12:06:24Z</time>
      </trkpt>
      <trkpt lat="43.75636" lon="4.86759">
        <ele>276.516357</ele>
        <time>2011-01-23T12:06:33Z</time>
      </trkpt>
      <trkpt lat="43.75636" lon="4.86761">
        <ele>276.516357</ele>
        <time>2011-01-23T12:06:35Z</time>
      </trkpt>
      <trkpt lat="43.75636" lon="4.86767">
        <ele>276.516357</ele>
        <time>2011-01-23T12:06:39Z</time>
      </trkpt>
      <trkpt lat="43.75638" lon="4.86778">
        <ele>274.59375</ele>
        <time>2011-01-23T12:06:48Z</time>
      </trkpt>
      <trkpt lat="43.75644" lon="4.86795">
        <ele>273.632446</ele>
        <time>2011-01-23T12:06:59Z</time>
      </trkpt>
      <trkpt lat="43.75644" lon="4.86795">
        <ele>273.632446</ele>
        <time>2011-01-23T12:07:00Z</time>
      </trkpt>
      <trkpt lat="43.75644" lon="4.86802">
        <ele>273.151855</ele>
        <time>2011-01-23T12:07:04Z</time>
      </trkpt>
      <trkpt lat="43.75649" lon="4.86821">
        <ele>272.19043</ele>
        <time>2011-01-23T12:07:17Z</time>
      </trkpt>
      <trkpt lat="43.75649" lon="4.86834">
        <ele>272.671143</ele>
        <time>2011-01-23T12:07:25Z</time>
      </trkpt>
      <trkpt lat="43.75649" lon="4.86847">
        <ele>273.151855</ele>
        <time>2011-01-23T12:07:35Z</time>
      </trkpt>
      <trkpt lat="43.75649" lon="4.86851">
        <ele>273.151855</ele>
        <time>2011-01-23T12:07:38Z</time>
      </trkpt>
      <trkpt lat="43.75655" lon="4.86872">
        <ele>275.555054</ele>
        <time>2011-01-23T12:07:52Z</time>
      </trkpt>
      <trkpt lat="43.75659" lon="4.8689">
        <ele>274.113037</ele>
        <time>2011-01-23T12:08:05Z</time>
      </trkpt>
      <trkpt lat="43.75659" lon="4.86894">
        <ele>274.113037</ele>
        <time>2011-01-23T12:08:07Z</time>
      </trkpt>
      <trkpt lat="43.75664" lon="4.86909">
        <ele>274.59375</ele>
        <time>2011-01-23T12:08:19Z</time>
      </trkpt>
      <trkpt lat="43.7567" lon="4.86924">
        <ele>275.074463</ele>
        <time>2011-01-23T12:08:30Z</time>
      </trkpt>
      <trkpt lat="43.75672" lon="4.86941">
        <ele>276.99707</ele>
        <time>2011-01-23T12:08:43Z</time>
      </trkpt>
      <trkpt lat="43.75672" lon="4.86945">
        <ele>276.99707</ele>
        <time>2011-01-23T12:08:46Z</time>
      </trkpt>
      <trkpt lat="43.75679" lon="4.8696">
        <ele>273.151855</ele>
        <time>2011-01-23T12:08:58Z</time>
      </trkpt>
      <trkpt lat="43.75689" lon="4.86975">
        <ele>273.632446</ele>
        <time>2011-01-23T12:09:10Z</time>
      </trkpt>
      <trkpt lat="43.75689" lon="4.86975">
        <ele>274.113037</ele>
        <time>2011-01-23T12:09:11Z</time>
      </trkpt>
      <trkpt lat="43.75689" lon="4.86993">
        <ele>276.035645</ele>
        <time>2011-01-23T12:09:22Z</time>
      </trkpt>
      <trkpt lat="43.75689" lon="4.86995">
        <ele>276.516357</ele>
        <time>2011-01-23T12:09:25Z</time>
      </trkpt>
      <trkpt lat="43.75691" lon="4.86995">
        <ele>276.99707</ele>
        <time>2011-01-23T12:09:27Z</time>
      </trkpt>
      <trkpt lat="43.75698" lon="4.87012">
        <ele>276.035645</ele>
        <time>2011-01-23T12:09:41Z</time>
      </trkpt>
      <trkpt lat="43.75698" lon="4.87018">
        <ele>276.516357</ele>
        <time>2011-01-23T12:09:44Z</time>
      </trkpt>
      <trkpt lat="43.757" lon="4.87027">
        <ele>277.477661</ele>
        <time>2011-01-23T12:09:51Z</time>
      </trkpt>
      <trkpt lat="43.75704" lon="4.87044">
        <ele>278.919678</ele>
        <time>2011-01-23T12:10:02Z</time>
      </trkpt>
      <trkpt lat="43.75709" lon="4.87057">
        <ele>278.919678</ele>
        <time>2011-01-23T12:10:12Z</time>
      </trkpt>
      <trkpt lat="43.75711" lon="4.87076">
        <ele>277.477661</ele>
        <time>2011-01-23T12:10:25Z</time>
      </trkpt>
      <trkpt lat="43.75715" lon="4.87098">
        <ele>277.477661</ele>
        <time>2011-01-23T12:10:38Z</time>
      </trkpt>
      <trkpt lat="43.75717" lon="4.87115">
        <ele>277.958252</ele>
        <time>2011-01-23T12:10:50Z</time>
      </trkpt>
      <trkpt lat="43.75719" lon="4.87134">
        <ele>278.438965</ele>
        <time>2011-01-23T12:11:03Z</time>
      </trkpt>
      <trkpt lat="43.75722" lon="4.87145">
        <ele>278.438965</ele>
        <time>2011-01-23T12:11:18Z</time>
      </trkpt>
      <trkpt lat="43.75724" lon="4.87151">
        <ele>279.400269</ele>
        <time>2011-01-23T12:11:22Z</time>
      </trkpt>
      <trkpt lat="43.75726" lon="4.87166">
        <ele>279.400269</ele>
        <time>2011-01-23T12:11:34Z</time>
      </trkpt>
      <trkpt lat="43.7573" lon="4.87179">
        <ele>276.99707</ele>
        <time>2011-01-23T12:11:44Z</time>
      </trkpt>
      <trkpt lat="43.75732" lon="4.87196">
        <ele>276.035645</ele>
        <time>2011-01-23T12:11:57Z</time>
      </trkpt>
      <trkpt lat="43.75734" lon="4.87205">
        <ele>276.516357</ele>
        <time>2011-01-23T12:12:11Z</time>
      </trkpt>
      <trkpt lat="43.75732" lon="4.87216">
        <ele>276.99707</ele>
        <time>2011-01-23T12:12:26Z</time>
      </trkpt>
      <trkpt lat="43.75734" lon="4.8722">
        <ele>276.516357</ele>
        <time>2011-01-23T12:12:42Z</time>
      </trkpt>
      <trkpt lat="43.75734" lon="4.87222">
        <ele>275.555054</ele>
        <time>2011-01-23T12:12:47Z</time>
      </trkpt>
      <trkpt lat="43.75734" lon="4.87229">
        <ele>275.074463</ele>
        <time>2011-01-23T12:13:02Z</time>
      </trkpt>
      <trkpt lat="43.75734" lon="4.87227">
        <ele>271.709717</ele>
        <time>2011-01-23T12:14:16Z</time>
      </trkpt>
      <trkpt lat="43.75732" lon="4.87231">
        <ele>272.19043</ele>
        <time>2011-01-23T12:14:49Z</time>
      </trkpt>
      <trkpt lat="43.75732" lon="4.87237">
        <ele>273.632446</ele>
        <time>2011-01-23T12:14:53Z</time>
      </trkpt>
      <trkpt lat="43.75734" lon="4.87257">
        <ele>273.151855</ele>
        <time>2011-01-23T12:15:07Z</time>
      </trkpt>
      <trkpt lat="43.75734" lon="4.87261">
        <ele>274.113037</ele>
        <time>2011-01-23T12:15:11Z</time>
      </trkpt>
      <trkpt lat="43.75734" lon="4.87269">
        <ele>275.555054</ele>
        <time>2011-01-23T12:15:17Z</time>
      </trkpt>
      <trkpt lat="43.75734" lon="4.87272">
        <ele>276.035645</ele>
        <time>2011-01-23T12:15:19Z</time>
      </trkpt>
      <trkpt lat="43.75734" lon="4.87276">
        <ele>275.555054</ele>
        <time>2011-01-23T12:15:23Z</time>
      </trkpt>
      <trkpt lat="43.75734" lon="4.87295">
        <ele>276.99707</ele>
        <time>2011-01-23T12:15:36Z</time>
      </trkpt>
      <trkpt lat="43.7573" lon="4.8731">
        <ele>277.958252</ele>
        <time>2011-01-23T12:15:47Z</time>
      </trkpt>
      <trkpt lat="43.7573" lon="4.87319">
        <ele>278.438965</ele>
        <time>2011-01-23T12:15:54Z</time>
      </trkpt>
      <trkpt lat="43.7573" lon="4.87323">
        <ele>277.477661</ele>
        <time>2011-01-23T12:15:57Z</time>
      </trkpt>
      <trkpt lat="43.7573" lon="4.87332">
        <ele>275.555054</ele>
        <time>2011-01-23T12:16:05Z</time>
      </trkpt>
      <trkpt lat="43.7573" lon="4.8734">
        <ele>273.632446</ele>
        <time>2011-01-23T12:16:11Z</time>
      </trkpt>
      <trkpt lat="43.7573" lon="4.87355">
        <ele>271.229126</ele>
        <time>2011-01-23T12:16:21Z</time>
      </trkpt>
      <trkpt lat="43.7573" lon="4.8737">
        <ele>271.229126</ele>
        <time>2011-01-23T12:16:32Z</time>
      </trkpt>
      <trkpt lat="43.75728" lon="4.87383">
        <ele>269.787109</ele>
        <time>2011-01-23T12:16:41Z</time>
      </trkpt>
      <trkpt lat="43.7573" lon="4.87392">
        <ele>268.825806</ele>
        <time>2011-01-23T12:16:48Z</time>
      </trkpt>
      <trkpt lat="43.75728" lon="4.87407">
        <ele>268.825806</ele>
        <time>2011-01-23T12:17:00Z</time>
      </trkpt>
      <trkpt lat="43.75728" lon="4.87413">
        <ele>268.345093</ele>
        <time>2011-01-23T12:17:06Z</time>
      </trkpt>
      <trkpt lat="43.75728" lon="4.87415">
        <ele>267.864502</ele>
        <time>2011-01-23T12:17:08Z</time>
      </trkpt>
      <trkpt lat="43.75728" lon="4.87424">
        <ele>267.383911</ele>
        <time>2011-01-23T12:17:13Z</time>
      </trkpt>
      <trkpt lat="43.75728" lon="4.87439">
        <ele>264.019287</ele>
        <time>2011-01-23T12:17:22Z</time>
      </trkpt>
      <trkpt lat="43.75726" lon="4.87452">
        <ele>261.615967</ele>
        <time>2011-01-23T12:17:34Z</time>
      </trkpt>
      <trkpt lat="43.75726" lon="4.8746">
        <ele>259.212646</ele>
        <time>2011-01-23T12:17:43Z</time>
      </trkpt>
      <trkpt lat="43.75728" lon="4.87467">
        <ele>257.290039</ele>
        <time>2011-01-23T12:17:48Z</time>
      </trkpt>
      <trkpt lat="43.75728" lon="4.87473">
        <ele>253.925415</ele>
        <time>2011-01-23T12:17:56Z</time>
      </trkpt>
      <trkpt lat="43.75732" lon="4.87488">
        <ele>250.560791</ele>
        <time>2011-01-23T12:18:08Z</time>
      </trkpt>
      <trkpt lat="43.75728" lon="4.87512">
        <ele>255.848022</ele>
        <time>2011-01-23T12:18:23Z</time>
      </trkpt>
      <trkpt lat="43.75726" lon="4.87525">
        <ele>254.886597</ele>
        <time>2011-01-23T12:18:34Z</time>
      </trkpt>
      <trkpt lat="43.75717" lon="4.87548">
        <ele>255.848022</ele>
        <time>2011-01-23T12:18:49Z</time>
      </trkpt>
      <trkpt lat="43.75713" lon="4.8757">
        <ele>255.36731</ele>
        <time>2011-01-23T12:19:03Z</time>
      </trkpt>
      <trkpt lat="43.75704" lon="4.87596">
        <ele>255.36731</ele>
        <time>2011-01-23T12:19:20Z</time>
      </trkpt>
      <trkpt lat="43.75704" lon="4.87598">
        <ele>255.36731</ele>
        <time>2011-01-23T12:19:21Z</time>
      </trkpt>
      <trkpt lat="43.75698" lon="4.87615">
        <ele>253.444702</ele>
        <time>2011-01-23T12:19:34Z</time>
      </trkpt>
      <trkpt lat="43.75689" lon="4.8763">
        <ele>254.886597</ele>
        <time>2011-01-23T12:19:47Z</time>
      </trkpt>
      <trkpt lat="43.75681" lon="4.87647">
        <ele>254.406006</ele>
        <time>2011-01-23T12:19:59Z</time>
      </trkpt>
      <trkpt lat="43.75672" lon="4.87662">
        <ele>252.002808</ele>
        <time>2011-01-23T12:20:12Z</time>
      </trkpt>
      <trkpt lat="43.75666" lon="4.87681">
        <ele>252.002808</ele>
        <time>2011-01-23T12:20:27Z</time>
      </trkpt>
      <trkpt lat="43.75668" lon="4.87699">
        <ele>250.560791</ele>
        <time>2011-01-23T12:20:39Z</time>
      </trkpt>
      <trkpt lat="43.75666" lon="4.87709">
        <ele>249.118774</ele>
        <time>2011-01-23T12:20:47Z</time>
      </trkpt>
      <trkpt lat="43.75657" lon="4.87722">
        <ele>248.638184</ele>
        <time>2011-01-23T12:21:02Z</time>
      </trkpt>
      <trkpt lat="43.75642" lon="4.87722">
        <ele>249.599487</ele>
        <time>2011-01-23T12:21:14Z</time>
      </trkpt>
      <trkpt lat="43.75636" lon="4.87726">
        <ele>249.599487</ele>
        <time>2011-01-23T12:21:21Z</time>
      </trkpt>
      <trkpt lat="43.75623" lon="4.87731">
        <ele>249.118774</ele>
        <time>2011-01-23T12:21:34Z</time>
      </trkpt>
      <trkpt lat="43.7561" lon="4.87733">
        <ele>249.599487</ele>
        <time>2011-01-23T12:21:46Z</time>
      </trkpt>
      <trkpt lat="43.75608" lon="4.87733">
        <ele>250.0802</ele>
        <time>2011-01-23T12:21:48Z</time>
      </trkpt>
      <trkpt lat="43.75593" lon="4.87729">
        <ele>251.522095</ele>
        <time>2011-01-23T12:22:01Z</time>
      </trkpt>
      <trkpt lat="43.75588" lon="4.87724">
        <ele>251.522095</ele>
        <time>2011-01-23T12:22:06Z</time>
      </trkpt>
      <trkpt lat="43.75571" lon="4.87718">
        <ele>251.041382</ele>
        <time>2011-01-23T12:22:22Z</time>
      </trkpt>
      <trkpt lat="43.75561" lon="4.87726">
        <ele>251.041382</ele>
        <time>2011-01-23T12:22:33Z</time>
      </trkpt>
      <trkpt lat="43.7555" lon="4.87746">
        <ele>252.483398</ele>
        <time>2011-01-23T12:22:47Z</time>
      </trkpt>
      <trkpt lat="43.75543" lon="4.87765">
        <ele>252.002808</ele>
        <time>2011-01-23T12:23:01Z</time>
      </trkpt>
      <trkpt lat="43.75539" lon="4.87787">
        <ele>254.406006</ele>
        <time>2011-01-23T12:23:15Z</time>
      </trkpt>
      <trkpt lat="43.75537" lon="4.87802">
        <ele>255.36731</ele>
        <time>2011-01-23T12:23:28Z</time>
      </trkpt>
      <trkpt lat="43.75535" lon="4.87825">
        <ele>254.886597</ele>
        <time>2011-01-23T12:23:44Z</time>
      </trkpt>
      <trkpt lat="43.75537" lon="4.87836">
        <ele>254.406006</ele>
        <time>2011-01-23T12:23:50Z</time>
      </trkpt>
      <trkpt lat="43.75537" lon="4.87838">
        <ele>253.444702</ele>
        <time>2011-01-23T12:23:52Z</time>
      </trkpt>
      <trkpt lat="43.75541" lon="4.8786">
        <ele>252.002808</ele>
        <time>2011-01-23T12:24:07Z</time>
      </trkpt>
      <trkpt lat="43.75541" lon="4.87875">
        <ele>252.963989</ele>
        <time>2011-01-23T12:24:17Z</time>
      </trkpt>
      <trkpt lat="43.75541" lon="4.87877">
        <ele>252.483398</ele>
        <time>2011-01-23T12:24:19Z</time>
      </trkpt>
      <trkpt lat="43.75543" lon="4.87885">
        <ele>252.963989</ele>
        <time>2011-01-23T12:24:24Z</time>
      </trkpt>
      <trkpt lat="43.75543" lon="4.87905">
        <ele>253.925415</ele>
        <time>2011-01-23T12:24:36Z</time>
      </trkpt>
      <trkpt lat="43.75539" lon="4.87911">
        <ele>253.925415</ele>
        <time>2011-01-23T12:24:41Z</time>
      </trkpt>
      <trkpt lat="43.75533" lon="4.87913">
        <ele>254.406006</ele>
        <time>2011-01-23T12:24:51Z</time>
      </trkpt>
      <trkpt lat="43.75531" lon="4.87907">
        <ele>254.886597</ele>
        <time>2011-01-23T12:24:55Z</time>
      </trkpt>
      <trkpt lat="43.75531" lon="4.87898">
        <ele>254.406006</ele>
        <time>2011-01-23T12:25:01Z</time>
      </trkpt>
      <trkpt lat="43.75531" lon="4.87896">
        <ele>254.406006</ele>
        <time>2011-01-23T12:25:03Z</time>
      </trkpt>
      <trkpt lat="43.75531" lon="4.87892">
        <ele>254.406006</ele>
        <time>2011-01-23T12:25:06Z</time>
      </trkpt>
      <trkpt lat="43.75526" lon="4.87872">
        <ele>254.886597</ele>
        <time>2011-01-23T12:25:19Z</time>
      </trkpt>
      <trkpt lat="43.75524" lon="4.87866">
        <ele>254.886597</ele>
        <time>2011-01-23T12:25:23Z</time>
      </trkpt>
      <trkpt lat="43.7552" lon="4.8786">
        <ele>255.36731</ele>
        <time>2011-01-23T12:25:29Z</time>
      </trkpt>
      <trkpt lat="43.7552" lon="4.87857">
        <ele>255.848022</ele>
        <time>2011-01-23T12:25:31Z</time>
      </trkpt>
      <trkpt lat="43.75518" lon="4.87855">
        <ele>255.848022</ele>
        <time>2011-01-23T12:25:33Z</time>
      </trkpt>
      <trkpt lat="43.75518" lon="4.87853">
        <ele>255.848022</ele>
        <time>2011-01-23T12:25:35Z</time>
      </trkpt>
      <trkpt lat="43.75518" lon="4.87851">
        <ele>256.328735</ele>
        <time>2011-01-23T12:25:37Z</time>
      </trkpt>
      <trkpt lat="43.75513" lon="4.8784">
        <ele>257.770752</ele>
        <time>2011-01-23T12:25:47Z</time>
      </trkpt>
      <trkpt lat="43.75507" lon="4.87825">
        <ele>258.731934</ele>
        <time>2011-01-23T12:26:01Z</time>
      </trkpt>
      <trkpt lat="43.75505" lon="4.87819">
        <ele>258.731934</ele>
        <time>2011-01-23T12:26:05Z</time>
      </trkpt>
      <trkpt lat="43.75505" lon="4.87817">
        <ele>258.731934</ele>
        <time>2011-01-23T12:26:07Z</time>
      </trkpt>
      <trkpt lat="43.75498" lon="4.87806">
        <ele>259.212646</ele>
        <time>2011-01-23T12:26:19Z</time>
      </trkpt>
      <trkpt lat="43.75494" lon="4.87791">
        <ele>260.17395</ele>
        <time>2011-01-23T12:26:31Z</time>
      </trkpt>
      <trkpt lat="43.75492" lon="4.87789">
        <ele>260.654541</ele>
        <time>2011-01-23T12:26:33Z</time>
      </trkpt>
      <trkpt lat="43.75492" lon="4.87787">
        <ele>260.654541</ele>
        <time>2011-01-23T12:26:35Z</time>
      </trkpt>
      <trkpt lat="43.7549" lon="4.87782">
        <ele>261.135254</ele>
        <time>2011-01-23T12:26:40Z</time>
      </trkpt>
      <trkpt lat="43.75488" lon="4.8778">
        <ele>261.615967</ele>
        <time>2011-01-23T12:26:42Z</time>
      </trkpt>
      <trkpt lat="43.75488" lon="4.87778">
        <ele>261.615967</ele>
        <time>2011-01-23T12:26:44Z</time>
      </trkpt>
      <trkpt lat="43.75481" lon="4.87767">
        <ele>263.538574</ele>
        <time>2011-01-23T12:26:57Z</time>
      </trkpt>
      <trkpt lat="43.75475" lon="4.87767">
        <ele>264.019287</ele>
        <time>2011-01-23T12:27:02Z</time>
      </trkpt>
      <trkpt lat="43.75468" lon="4.87772">
        <ele>264.019287</ele>
        <time>2011-01-23T12:27:07Z</time>
      </trkpt>
      <trkpt lat="43.75455" lon="4.87793">
        <ele>266.903198</ele>
        <time>2011-01-23T12:27:21Z</time>
      </trkpt>
      <trkpt lat="43.75453" lon="4.87804">
        <ele>267.864502</ele>
        <time>2011-01-23T12:27:29Z</time>
      </trkpt>
      <trkpt lat="43.75453" lon="4.87812">
        <ele>267.864502</ele>
        <time>2011-01-23T12:27:35Z</time>
      </trkpt>
      <trkpt lat="43.75453" lon="4.87814">
        <ele>267.864502</ele>
        <time>2011-01-23T12:27:37Z</time>
      </trkpt>
      <trkpt lat="43.75453" lon="4.87819">
        <ele>268.345093</ele>
        <time>2011-01-23T12:27:40Z</time>
      </trkpt>
      <trkpt lat="43.75451" lon="4.87836">
        <ele>269.306519</ele>
        <time>2011-01-23T12:27:53Z</time>
      </trkpt>
      <trkpt lat="43.75449" lon="4.87849">
        <ele>271.709717</ele>
        <time>2011-01-23T12:28:02Z</time>
      </trkpt>
      <trkpt lat="43.75449" lon="4.87868">
        <ele>271.709717</ele>
        <time>2011-01-23T12:28:15Z</time>
      </trkpt>
      <trkpt lat="43.75451" lon="4.87881">
        <ele>270.748413</ele>
        <time>2011-01-23T12:28:26Z</time>
      </trkpt>
      <trkpt lat="43.75449" lon="4.87898">
        <ele>271.709717</ele>
        <time>2011-01-23T12:28:38Z</time>
      </trkpt>
      <trkpt lat="43.75449" lon="4.879">
        <ele>272.19043</ele>
        <time>2011-01-23T12:28:40Z</time>
      </trkpt>
      <trkpt lat="43.75445" lon="4.87922">
        <ele>271.709717</ele>
        <time>2011-01-23T12:28:53Z</time>
      </trkpt>
      <trkpt lat="43.75438" lon="4.87941">
        <ele>272.19043</ele>
        <time>2011-01-23T12:29:08Z</time>
      </trkpt>
      <trkpt lat="43.75436" lon="4.87954">
        <ele>272.671143</ele>
        <time>2011-01-23T12:29:16Z</time>
      </trkpt>
      <trkpt lat="43.75432" lon="4.87971">
        <ele>273.632446</ele>
        <time>2011-01-23T12:29:28Z</time>
      </trkpt>
      <trkpt lat="43.7543" lon="4.87993">
        <ele>273.632446</ele>
        <time>2011-01-23T12:29:42Z</time>
      </trkpt>
      <trkpt lat="43.7543" lon="4.87999">
        <ele>274.113037</ele>
        <time>2011-01-23T12:29:45Z</time>
      </trkpt>
      <trkpt lat="43.75425" lon="4.88016">
        <ele>273.632446</ele>
        <time>2011-01-23T12:29:57Z</time>
      </trkpt>
      <trkpt lat="43.75421" lon="4.88023">
        <ele>273.632446</ele>
        <time>2011-01-23T12:30:04Z</time>
      </trkpt>
      <trkpt lat="43.75417" lon="4.88027">
        <ele>273.151855</ele>
        <time>2011-01-23T12:30:10Z</time>
      </trkpt>
      <trkpt lat="43.75406" lon="4.88029">
        <ele>274.113037</ele>
        <time>2011-01-23T12:30:21Z</time>
      </trkpt>
      <trkpt lat="43.75402" lon="4.88033">
        <ele>274.113037</ele>
        <time>2011-01-23T12:30:27Z</time>
      </trkpt>
      <trkpt lat="43.75389" lon="4.88051">
        <ele>274.59375</ele>
        <time>2011-01-23T12:30:41Z</time>
      </trkpt>
      <trkpt lat="43.75385" lon="4.88068">
        <ele>276.516357</ele>
        <time>2011-01-23T12:30:53Z</time>
      </trkpt>
      <trkpt lat="43.75385" lon="4.88072">
        <ele>276.516357</ele>
        <time>2011-01-23T12:30:57Z</time>
      </trkpt>
      <trkpt lat="43.75385" lon="4.88074">
        <ele>276.516357</ele>
        <time>2011-01-23T12:30:59Z</time>
      </trkpt>
      <trkpt lat="43.75385" lon="4.88083">
        <ele>276.516357</ele>
        <time>2011-01-23T12:31:04Z</time>
      </trkpt>
      <trkpt lat="43.75382" lon="4.881">
        <ele>276.035645</ele>
        <time>2011-01-23T12:31:18Z</time>
      </trkpt>
      <trkpt lat="43.75378" lon="4.88111">
        <ele>276.516357</ele>
        <time>2011-01-23T12:31:26Z</time>
      </trkpt>
      <trkpt lat="43.75374" lon="4.88111">
        <ele>277.958252</ele>
        <time>2011-01-23T12:31:32Z</time>
      </trkpt>
      <trkpt lat="43.75365" lon="4.88093">
        <ele>281.803589</ele>
        <time>2011-01-23T12:31:44Z</time>
      </trkpt>
      <trkpt lat="43.75361" lon="4.88076">
        <ele>281.322998</ele>
        <time>2011-01-23T12:31:55Z</time>
      </trkpt>
      <trkpt lat="43.75361" lon="4.8807">
        <ele>280.842407</ele>
        <time>2011-01-23T12:32:00Z</time>
      </trkpt>
      <trkpt lat="43.75359" lon="4.88059">
        <ele>280.842407</ele>
        <time>2011-01-23T12:32:08Z</time>
      </trkpt>
      <trkpt lat="43.75357" lon="4.88053">
        <ele>280.842407</ele>
        <time>2011-01-23T12:32:12Z</time>
      </trkpt>
      <trkpt lat="43.75355" lon="4.88046">
        <ele>281.803589</ele>
        <time>2011-01-23T12:32:17Z</time>
      </trkpt>
      <trkpt lat="43.75355" lon="4.88038">
        <ele>283.245605</ele>
        <time>2011-01-23T12:32:23Z</time>
      </trkpt>
      <trkpt lat="43.75355" lon="4.88035">
        <ele>283.726196</ele>
        <time>2011-01-23T12:32:25Z</time>
      </trkpt>
      <trkpt lat="43.75355" lon="4.88031">
        <ele>283.726196</ele>
        <time>2011-01-23T12:32:27Z</time>
      </trkpt>
      <trkpt lat="43.75355" lon="4.88029">
        <ele>284.206909</ele>
        <time>2011-01-23T12:32:29Z</time>
      </trkpt>
      <trkpt lat="43.75355" lon="4.88027">
        <ele>284.687622</ele>
        <time>2011-01-23T12:32:31Z</time>
      </trkpt>
      <trkpt lat="43.75355" lon="4.88023">
        <ele>285.168213</ele>
        <time>2011-01-23T12:32:33Z</time>
      </trkpt>
      <trkpt lat="43.75355" lon="4.8802">
        <ele>286.129517</ele>
        <time>2011-01-23T12:32:35Z</time>
      </trkpt>
      <trkpt lat="43.75355" lon="4.88018">
        <ele>286.610229</ele>
        <time>2011-01-23T12:32:37Z</time>
      </trkpt>
      <trkpt lat="43.7535" lon="4.88005">
        <ele>286.129517</ele>
        <time>2011-01-23T12:32:48Z</time>
      </trkpt>
      <trkpt lat="43.7534" lon="4.87988">
        <ele>282.284302</ele>
        <time>2011-01-23T12:33:02Z</time>
      </trkpt>
      <trkpt lat="43.7534" lon="4.87986">
        <ele>282.284302</ele>
        <time>2011-01-23T12:33:03Z</time>
      </trkpt>
      <trkpt lat="43.75335" lon="4.8798">
        <ele>282.284302</ele>
        <time>2011-01-23T12:33:08Z</time>
      </trkpt>
      <trkpt lat="43.75331" lon="4.8798">
        <ele>282.765015</ele>
        <time>2011-01-23T12:33:12Z</time>
      </trkpt>
      <trkpt lat="43.75318" lon="4.87978">
        <ele>283.726196</ele>
        <time>2011-01-23T12:33:25Z</time>
      </trkpt>
      <trkpt lat="43.75312" lon="4.87978">
        <ele>282.284302</ele>
        <time>2011-01-23T12:33:36Z</time>
      </trkpt>
      <trkpt lat="43.75305" lon="4.87978">
        <ele>281.803589</ele>
        <time>2011-01-23T12:33:41Z</time>
      </trkpt>
      <trkpt lat="43.75297" lon="4.87978">
        <ele>280.361694</ele>
        <time>2011-01-23T12:33:53Z</time>
      </trkpt>
      <trkpt lat="43.75294" lon="4.87978">
        <ele>280.361694</ele>
        <time>2011-01-23T12:33:57Z</time>
      </trkpt>
      <trkpt lat="43.75288" lon="4.87971">
        <ele>280.361694</ele>
        <time>2011-01-23T12:34:05Z</time>
      </trkpt>
      <trkpt lat="43.75284" lon="4.8796">
        <ele>279.400269</ele>
        <time>2011-01-23T12:34:14Z</time>
      </trkpt>
      <trkpt lat="43.75277" lon="4.87956">
        <ele>278.438965</ele>
        <time>2011-01-23T12:34:19Z</time>
      </trkpt>
      <trkpt lat="43.75269" lon="4.87958">
        <ele>277.477661</ele>
        <time>2011-01-23T12:34:26Z</time>
      </trkpt>
      <trkpt lat="43.75262" lon="4.87965">
        <ele>276.035645</ele>
        <time>2011-01-23T12:34:30Z</time>
      </trkpt>
      <trkpt lat="43.75254" lon="4.8798">
        <ele>272.671143</ele>
        <time>2011-01-23T12:34:43Z</time>
      </trkpt>
      <trkpt lat="43.75245" lon="4.87997">
        <ele>272.19043</ele>
        <time>2011-01-23T12:34:55Z</time>
      </trkpt>
      <trkpt lat="43.75234" lon="4.88008">
        <ele>271.229126</ele>
        <time>2011-01-23T12:35:04Z</time>
      </trkpt>
      <trkpt lat="43.75232" lon="4.88012">
        <ele>271.709717</ele>
        <time>2011-01-23T12:35:08Z</time>
      </trkpt>
      <trkpt lat="43.75226" lon="4.88023">
        <ele>272.671143</ele>
        <time>2011-01-23T12:35:17Z</time>
      </trkpt>
      <trkpt lat="43.75228" lon="4.88038">
        <ele>274.59375</ele>
        <time>2011-01-23T12:35:28Z</time>
      </trkpt>
      <trkpt lat="43.75226" lon="4.88048">
        <ele>277.958252</ele>
        <time>2011-01-23T12:35:37Z</time>
      </trkpt>
      <trkpt lat="43.75226" lon="4.88053">
        <ele>278.438965</ele>
        <time>2011-01-23T12:35:39Z</time>
      </trkpt>
      <trkpt lat="43.75224" lon="4.88055">
        <ele>279.400269</ele>
        <time>2011-01-23T12:35:41Z</time>
      </trkpt>
      <trkpt lat="43.75222" lon="4.88059">
        <ele>279.880859</ele>
        <time>2011-01-23T12:35:44Z</time>
      </trkpt>
      <trkpt lat="43.75213" lon="4.8807">
        <ele>280.842407</ele>
        <time>2011-01-23T12:35:58Z</time>
      </trkpt>
      <trkpt lat="43.75211" lon="4.88072">
        <ele>280.842407</ele>
        <time>2011-01-23T12:36:00Z</time>
      </trkpt>
      <trkpt lat="43.75207" lon="4.88074">
        <ele>281.322998</ele>
        <time>2011-01-23T12:36:05Z</time>
      </trkpt>
      <trkpt lat="43.75204" lon="4.88072">
        <ele>281.803589</ele>
        <time>2011-01-23T12:36:09Z</time>
      </trkpt>
      <trkpt lat="43.75202" lon="4.88072">
        <ele>281.803589</ele>
        <time>2011-01-23T12:36:11Z</time>
      </trkpt>
      <trkpt lat="43.75192" lon="4.88059">
        <ele>283.726196</ele>
        <time>2011-01-23T12:36:24Z</time>
      </trkpt>
      <trkpt lat="43.75185" lon="4.88051">
        <ele>283.245605</ele>
        <time>2011-01-23T12:36:34Z</time>
      </trkpt>
      <trkpt lat="43.75179" lon="4.88042">
        <ele>283.726196</ele>
        <time>2011-01-23T12:36:42Z</time>
      </trkpt>
      <trkpt lat="43.75168" lon="4.88029">
        <ele>283.726196</ele>
        <time>2011-01-23T12:36:54Z</time>
      </trkpt>
      <trkpt lat="43.75161" lon="4.88025">
        <ele>283.726196</ele>
        <time>2011-01-23T12:37:00Z</time>
      </trkpt>
      <trkpt lat="43.75151" lon="4.8802">
        <ele>282.765015</ele>
        <time>2011-01-23T12:37:11Z</time>
      </trkpt>
      <trkpt lat="43.75136" lon="4.88012">
        <ele>281.322998</ele>
        <time>2011-01-23T12:37:27Z</time>
      </trkpt>
      <trkpt lat="43.75121" lon="4.88008">
        <ele>281.803589</ele>
        <time>2011-01-23T12:37:40Z</time>
      </trkpt>
      <trkpt lat="43.75108" lon="4.88016">
        <ele>281.803589</ele>
        <time>2011-01-23T12:37:52Z</time>
      </trkpt>
      <trkpt lat="43.75104" lon="4.88018">
        <ele>281.322998</ele>
        <time>2011-01-23T12:38:03Z</time>
      </trkpt>
      <trkpt lat="43.75095" lon="4.88027">
        <ele>281.322998</ele>
        <time>2011-01-23T12:38:14Z</time>
      </trkpt>
      <trkpt lat="43.75082" lon="4.88029">
        <ele>282.284302</ele>
        <time>2011-01-23T12:38:26Z</time>
      </trkpt>
      <trkpt lat="43.7508" lon="4.88031">
        <ele>282.284302</ele>
        <time>2011-01-23T12:38:27Z</time>
      </trkpt>
      <trkpt lat="43.75065" lon="4.88035">
        <ele>282.284302</ele>
        <time>2011-01-23T12:38:40Z</time>
      </trkpt>
      <trkpt lat="43.75063" lon="4.88038">
        <ele>281.803589</ele>
        <time>2011-01-23T12:38:43Z</time>
      </trkpt>
      <trkpt lat="43.7505" lon="4.88051">
        <ele>281.803589</ele>
        <time>2011-01-23T12:38:53Z</time>
      </trkpt>
      <trkpt lat="43.75046" lon="4.88068">
        <ele>280.361694</ele>
        <time>2011-01-23T12:39:03Z</time>
      </trkpt>
      <trkpt lat="43.7505" lon="4.88081">
        <ele>280.361694</ele>
        <time>2011-01-23T12:39:13Z</time>
      </trkpt>
      <trkpt lat="43.75058" lon="4.88093">
        <ele>278.919678</ele>
        <time>2011-01-23T12:39:24Z</time>
      </trkpt>
      <trkpt lat="43.75067" lon="4.88102">
        <ele>277.958252</ele>
        <time>2011-01-23T12:39:33Z</time>
      </trkpt>
      <trkpt lat="43.75078" lon="4.88115">
        <ele>277.477661</ele>
        <time>2011-01-23T12:39:46Z</time>
      </trkpt>
      <trkpt lat="43.7508" lon="4.88117">
        <ele>277.477661</ele>
        <time>2011-01-23T12:39:48Z</time>
      </trkpt>
      <trkpt lat="43.75091" lon="4.8813">
        <ele>278.438965</ele>
        <time>2011-01-23T12:40:00Z</time>
      </trkpt>
      <trkpt lat="43.75093" lon="4.88132">
        <ele>278.919678</ele>
        <time>2011-01-23T12:40:02Z</time>
      </trkpt>
      <trkpt lat="43.75101" lon="4.88143">
        <ele>278.438965</ele>
        <time>2011-01-23T12:40:15Z</time>
      </trkpt>
      <trkpt lat="43.75119" lon="4.88151">
        <ele>275.555054</ele>
        <time>2011-01-23T12:40:31Z</time>
      </trkpt>
      <trkpt lat="43.75127" lon="4.88151">
        <ele>276.035645</ele>
        <time>2011-01-23T12:40:40Z</time>
      </trkpt>
      <trkpt lat="43.7514" lon="4.88151">
        <ele>279.880859</ele>
        <time>2011-01-23T12:40:54Z</time>
      </trkpt>
      <trkpt lat="43.75146" lon="4.88154">
        <ele>279.880859</ele>
        <time>2011-01-23T12:41:00Z</time>
      </trkpt>
      <trkpt lat="43.75151" lon="4.88156">
        <ele>280.361694</ele>
        <time>2011-01-23T12:41:06Z</time>
      </trkpt>
      <trkpt lat="43.75157" lon="4.88164">
        <ele>279.880859</ele>
        <time>2011-01-23T12:41:15Z</time>
      </trkpt>
      <trkpt lat="43.75155" lon="4.88173">
        <ele>278.919678</ele>
        <time>2011-01-23T12:41:24Z</time>
      </trkpt>
      <trkpt lat="43.75153" lon="4.88175">
        <ele>277.958252</ele>
        <time>2011-01-23T12:41:28Z</time>
      </trkpt>
      <trkpt lat="43.75144" lon="4.88179">
        <ele>276.516357</ele>
        <time>2011-01-23T12:41:38Z</time>
      </trkpt>
      <trkpt lat="43.75138" lon="4.88181">
        <ele>276.035645</ele>
        <time>2011-01-23T12:41:45Z</time>
      </trkpt>
      <trkpt lat="43.75134" lon="4.88181">
        <ele>276.035645</ele>
        <time>2011-01-23T12:41:48Z</time>
      </trkpt>
      <trkpt lat="43.75131" lon="4.88181">
        <ele>276.035645</ele>
        <time>2011-01-23T12:41:52Z</time>
      </trkpt>
      <trkpt lat="43.75123" lon="4.88184">
        <ele>273.151855</ele>
        <time>2011-01-23T12:42:02Z</time>
      </trkpt>
      <trkpt lat="43.75123" lon="4.88186">
        <ele>272.671143</ele>
        <time>2011-01-23T12:42:03Z</time>
      </trkpt>
      <trkpt lat="43.75121" lon="4.88188">
        <ele>272.19043</ele>
        <time>2011-01-23T12:42:07Z</time>
      </trkpt>
      <trkpt lat="43.75119" lon="4.88194">
        <ele>270.2677</ele>
        <time>2011-01-23T12:42:14Z</time>
      </trkpt>
      <trkpt lat="43.75114" lon="4.88196">
        <ele>270.2677</ele>
        <time>2011-01-23T12:42:18Z</time>
      </trkpt>
      <trkpt lat="43.75101" lon="4.88205">
        <ele>271.709717</ele>
        <time>2011-01-23T12:42:29Z</time>
      </trkpt>
      <trkpt lat="43.75093" lon="4.88216">
        <ele>271.709717</ele>
        <time>2011-01-23T12:42:37Z</time>
      </trkpt>
      <trkpt lat="43.75086" lon="4.88226">
        <ele>271.709717</ele>
        <time>2011-01-23T12:42:44Z</time>
      </trkpt>
      <trkpt lat="43.75078" lon="4.88233">
        <ele>271.709717</ele>
        <time>2011-01-23T12:42:57Z</time>
      </trkpt>
      <trkpt lat="43.75076" lon="4.88233">
        <ele>272.19043</ele>
        <time>2011-01-23T12:43:00Z</time>
      </trkpt>
      <trkpt lat="43.75073" lon="4.88231">
        <ele>272.671143</ele>
        <time>2011-01-23T12:43:02Z</time>
      </trkpt>
      <trkpt lat="43.75061" lon="4.88211">
        <ele>273.632446</ele>
        <time>2011-01-23T12:43:17Z</time>
      </trkpt>
      <trkpt lat="43.75056" lon="4.88205">
        <ele>273.151855</ele>
        <time>2011-01-23T12:43:24Z</time>
      </trkpt>
      <trkpt lat="43.75046" lon="4.88199">
        <ele>274.113037</ele>
        <time>2011-01-23T12:43:36Z</time>
      </trkpt>
      <trkpt lat="43.75033" lon="4.88194">
        <ele>273.632446</ele>
        <time>2011-01-23T12:43:47Z</time>
      </trkpt>
      <trkpt lat="43.75022" lon="4.88196">
        <ele>273.151855</ele>
        <time>2011-01-23T12:43:56Z</time>
      </trkpt>
      <trkpt lat="43.75011" lon="4.88199">
        <ele>273.151855</ele>
        <time>2011-01-23T12:44:08Z</time>
      </trkpt>
      <trkpt lat="43.74998" lon="4.88201">
        <ele>272.671143</ele>
        <time>2011-01-23T12:44:20Z</time>
      </trkpt>
      <trkpt lat="43.74986" lon="4.88209">
        <ele>273.632446</ele>
        <time>2011-01-23T12:44:33Z</time>
      </trkpt>
      <trkpt lat="43.74983" lon="4.88209">
        <ele>273.632446</ele>
        <time>2011-01-23T12:44:34Z</time>
      </trkpt>
      <trkpt lat="43.74973" lon="4.88224">
        <ele>272.19043</ele>
        <time>2011-01-23T12:44:46Z</time>
      </trkpt>
      <trkpt lat="43.7497" lon="4.88224">
        <ele>271.709717</ele>
        <time>2011-01-23T12:44:47Z</time>
      </trkpt>
      <trkpt lat="43.74968" lon="4.88231">
        <ele>271.709717</ele>
        <time>2011-01-23T12:44:52Z</time>
      </trkpt>
      <trkpt lat="43.74962" lon="4.88237">
        <ele>272.19043</ele>
        <time>2011-01-23T12:44:57Z</time>
      </trkpt>
      <trkpt lat="43.7496" lon="4.88244">
        <ele>272.19043</ele>
        <time>2011-01-23T12:45:01Z</time>
      </trkpt>
      <trkpt lat="43.74955" lon="4.8825">
        <ele>272.19043</ele>
        <time>2011-01-23T12:45:06Z</time>
      </trkpt>
      <trkpt lat="43.74953" lon="4.88254">
        <ele>272.19043</ele>
        <time>2011-01-23T12:45:10Z</time>
      </trkpt>
      <trkpt lat="43.74947" lon="4.88265">
        <ele>270.748413</ele>
        <time>2011-01-23T12:45:19Z</time>
      </trkpt>
      <trkpt lat="43.7494" lon="4.88282">
        <ele>268.825806</ele>
        <time>2011-01-23T12:45:32Z</time>
      </trkpt>
      <trkpt lat="43.74938" lon="4.88291">
        <ele>268.345093</ele>
        <time>2011-01-23T12:45:38Z</time>
      </trkpt>
      <trkpt lat="43.7493" lon="4.88308">
        <ele>268.345093</ele>
        <time>2011-01-23T12:45:51Z</time>
      </trkpt>
      <trkpt lat="43.74923" lon="4.88321">
        <ele>267.383911</ele>
        <time>2011-01-23T12:46:02Z</time>
      </trkpt>
      <trkpt lat="43.74923" lon="4.88323">
        <ele>267.864502</ele>
        <time>2011-01-23T12:46:05Z</time>
      </trkpt>
      <trkpt lat="43.74917" lon="4.88329">
        <ele>265.941895</ele>
        <time>2011-01-23T12:46:18Z</time>
      </trkpt>
      <trkpt lat="43.74915" lon="4.88332">
        <ele>265.941895</ele>
        <time>2011-01-23T12:46:22Z</time>
      </trkpt>
      <trkpt lat="43.74908" lon="4.88347">
        <ele>264.499878</ele>
        <time>2011-01-23T12:46:34Z</time>
      </trkpt>
      <trkpt lat="43.74906" lon="4.88349">
        <ele>264.499878</ele>
        <time>2011-01-23T12:46:35Z</time>
      </trkpt>
      <trkpt lat="43.74904" lon="4.88362">
        <ele>262.577148</ele>
        <time>2011-01-23T12:46:44Z</time>
      </trkpt>
      <trkpt lat="43.7491" lon="4.88377">
        <ele>261.615967</ele>
        <time>2011-01-23T12:46:57Z</time>
      </trkpt>
      <trkpt lat="43.74915" lon="4.8839">
        <ele>261.615967</ele>
        <time>2011-01-23T12:47:08Z</time>
      </trkpt>
      <trkpt lat="43.74921" lon="4.884">
        <ele>260.654541</ele>
        <time>2011-01-23T12:47:17Z</time>
      </trkpt>
      <trkpt lat="43.74925" lon="4.88407">
        <ele>260.654541</ele>
        <time>2011-01-23T12:47:23Z</time>
      </trkpt>
      <trkpt lat="43.74928" lon="4.8842">
        <ele>260.654541</ele>
        <time>2011-01-23T12:47:30Z</time>
      </trkpt>
      <trkpt lat="43.74928" lon="4.88435">
        <ele>260.17395</ele>
        <time>2011-01-23T12:47:41Z</time>
      </trkpt>
      <trkpt lat="43.74928" lon="4.88441">
        <ele>260.17395</ele>
        <time>2011-01-23T12:47:47Z</time>
      </trkpt>
      <trkpt lat="43.74928" lon="4.88445">
        <ele>259.693359</ele>
        <time>2011-01-23T12:47:51Z</time>
      </trkpt>
      <trkpt lat="43.74923" lon="4.88456">
        <ele>259.693359</ele>
        <time>2011-01-23T12:48:02Z</time>
      </trkpt>
      <trkpt lat="43.74923" lon="4.8846">
        <ele>259.212646</ele>
        <time>2011-01-23T12:48:05Z</time>
      </trkpt>
      <trkpt lat="43.74923" lon="4.88467">
        <ele>258.731934</ele>
        <time>2011-01-23T12:48:10Z</time>
      </trkpt>
      <trkpt lat="43.74921" lon="4.88478">
        <ele>258.251343</ele>
        <time>2011-01-23T12:48:19Z</time>
      </trkpt>
      <trkpt lat="43.74919" lon="4.88484">
        <ele>256.809326</ele>
        <time>2011-01-23T12:48:23Z</time>
      </trkpt>
      <trkpt lat="43.74919" lon="4.88493">
        <ele>255.36731</ele>
        <time>2011-01-23T12:48:28Z</time>
      </trkpt>
      <trkpt lat="43.74921" lon="4.88499">
        <ele>254.406006</ele>
        <time>2011-01-23T12:48:32Z</time>
      </trkpt>
      <trkpt lat="43.74925" lon="4.88516">
        <ele>251.522095</ele>
        <time>2011-01-23T12:48:41Z</time>
      </trkpt>
      <trkpt lat="43.74936" lon="4.88531">
        <ele>249.118774</ele>
        <time>2011-01-23T12:48:52Z</time>
      </trkpt>
      <trkpt lat="43.74945" lon="4.8855">
        <ele>247.196045</ele>
        <time>2011-01-23T12:49:04Z</time>
      </trkpt>
      <trkpt lat="43.74947" lon="4.88563">
        <ele>249.118774</ele>
        <time>2011-01-23T12:49:16Z</time>
      </trkpt>
      <trkpt lat="43.74945" lon="4.8857">
        <ele>252.002808</ele>
        <time>2011-01-23T12:49:22Z</time>
      </trkpt>
      <trkpt lat="43.7494" lon="4.88578">
        <ele>254.406006</ele>
        <time>2011-01-23T12:49:31Z</time>
      </trkpt>
      <trkpt lat="43.74934" lon="4.88587">
        <ele>257.290039</ele>
        <time>2011-01-23T12:49:42Z</time>
      </trkpt>
      <trkpt lat="43.74921" lon="4.88598">
        <ele>258.731934</ele>
        <time>2011-01-23T12:49:56Z</time>
      </trkpt>
      <trkpt lat="43.74921" lon="4.88598">
        <ele>258.731934</ele>
        <time>2011-01-23T12:49:58Z</time>
      </trkpt>
      <trkpt lat="43.7491" lon="4.88606">
        <ele>261.135254</ele>
        <time>2011-01-23T12:50:10Z</time>
      </trkpt>
      <trkpt lat="43.74906" lon="4.88628">
        <ele>263.538574</ele>
        <time>2011-01-23T12:50:20Z</time>
      </trkpt>
      <trkpt lat="43.74902" lon="4.88638">
        <ele>263.538574</ele>
        <time>2011-01-23T12:50:28Z</time>
      </trkpt>
      <trkpt lat="43.74893" lon="4.8866">
        <ele>264.019287</ele>
        <time>2011-01-23T12:50:43Z</time>
      </trkpt>
      <trkpt lat="43.74893" lon="4.88662">
        <ele>264.499878</ele>
        <time>2011-01-23T12:50:44Z</time>
      </trkpt>
      <trkpt lat="43.74889" lon="4.88675">
        <ele>265.941895</ele>
        <time>2011-01-23T12:50:53Z</time>
      </trkpt>
      <trkpt lat="43.74898" lon="4.88703">
        <ele>261.135254</ele>
        <time>2011-01-23T12:51:06Z</time>
      </trkpt>
      <trkpt lat="43.749" lon="4.88711">
        <ele>259.693359</ele>
        <time>2011-01-23T12:51:12Z</time>
      </trkpt>
      <trkpt lat="43.74904" lon="4.88718">
        <ele>257.770752</ele>
        <time>2011-01-23T12:51:15Z</time>
      </trkpt>
      <trkpt lat="43.74906" lon="4.88724">
        <ele>254.886597</ele>
        <time>2011-01-23T12:51:18Z</time>
      </trkpt>
      <trkpt lat="43.7491" lon="4.88739">
        <ele>251.522095</ele>
        <time>2011-01-23T12:51:27Z</time>
      </trkpt>
      <trkpt lat="43.74913" lon="4.88744">
        <ele>250.0802</ele>
        <time>2011-01-23T12:51:30Z</time>
      </trkpt>
      <trkpt lat="43.74917" lon="4.88759">
        <ele>248.157593</ele>
        <time>2011-01-23T12:51:42Z</time>
      </trkpt>
      <trkpt lat="43.74919" lon="4.88778">
        <ele>245.273438</ele>
        <time>2011-01-23T12:51:55Z</time>
      </trkpt>
      <trkpt lat="43.74921" lon="4.88789">
        <ele>244.312256</ele>
        <time>2011-01-23T12:52:03Z</time>
      </trkpt>
      <trkpt lat="43.74923" lon="4.88791">
        <ele>244.312256</ele>
        <time>2011-01-23T12:52:06Z</time>
      </trkpt>
      <trkpt lat="43.74923" lon="4.88795">
        <ele>244.312256</ele>
        <time>2011-01-23T12:52:09Z</time>
      </trkpt>
      <trkpt lat="43.74925" lon="4.88799">
        <ele>243.831543</ele>
        <time>2011-01-23T12:52:12Z</time>
      </trkpt>
      <trkpt lat="43.74925" lon="4.88804">
        <ele>244.312256</ele>
        <time>2011-01-23T12:52:17Z</time>
      </trkpt>
      <trkpt lat="43.74928" lon="4.88819">
        <ele>243.831543</ele>
        <time>2011-01-23T12:52:28Z</time>
      </trkpt>
      <trkpt lat="43.7493" lon="4.88832">
        <ele>242.389648</ele>
        <time>2011-01-23T12:52:36Z</time>
      </trkpt>
      <trkpt lat="43.74934" lon="4.88842">
        <ele>238.544312</ele>
        <time>2011-01-23T12:52:43Z</time>
      </trkpt>
      <trkpt lat="43.74938" lon="4.88859">
        <ele>237.582886</ele>
        <time>2011-01-23T12:52:55Z</time>
      </trkpt>
      <trkpt lat="43.74938" lon="4.88862">
        <ele>237.582886</ele>
        <time>2011-01-23T12:52:57Z</time>
      </trkpt>
      <trkpt lat="43.74938" lon="4.88866">
        <ele>237.102295</ele>
        <time>2011-01-23T12:53:01Z</time>
      </trkpt>
      <trkpt lat="43.74943" lon="4.88877">
        <ele>236.621704</ele>
        <time>2011-01-23T12:53:12Z</time>
      </trkpt>
      <trkpt lat="43.74943" lon="4.88879">
        <ele>236.621704</ele>
        <time>2011-01-23T12:53:13Z</time>
      </trkpt>
      <trkpt lat="43.74943" lon="4.88883">
        <ele>236.140991</ele>
        <time>2011-01-23T12:53:16Z</time>
      </trkpt>
      <trkpt lat="43.74947" lon="4.88894">
        <ele>235.179688</ele>
        <time>2011-01-23T12:53:23Z</time>
      </trkpt>
      <trkpt lat="43.74947" lon="4.88909">
        <ele>236.140991</ele>
        <time>2011-01-23T12:53:33Z</time>
      </trkpt>
      <trkpt lat="43.74947" lon="4.8892">
        <ele>233.25708</ele>
        <time>2011-01-23T12:53:41Z</time>
      </trkpt>
      <trkpt lat="43.74947" lon="4.8893">
        <ele>230.85376</ele>
        <time>2011-01-23T12:53:51Z</time>
      </trkpt>
      <trkpt lat="43.74951" lon="4.88945">
        <ele>227.969727</ele>
        <time>2011-01-23T12:54:00Z</time>
      </trkpt>
      <trkpt lat="43.74951" lon="4.88947">
        <ele>227.008545</ele>
        <time>2011-01-23T12:54:02Z</time>
      </trkpt>
      <trkpt lat="43.74953" lon="4.88954">
        <ele>226.527832</ele>
        <time>2011-01-23T12:54:06Z</time>
      </trkpt>
      <trkpt lat="43.7496" lon="4.88975">
        <ele>225.085938</ele>
        <time>2011-01-23T12:54:19Z</time>
      </trkpt>
      <trkpt lat="43.74964" lon="4.8899">
        <ele>222.201782</ele>
        <time>2011-01-23T12:54:30Z</time>
      </trkpt>
      <trkpt lat="43.74968" lon="4.88995">
        <ele>221.240601</ele>
        <time>2011-01-23T12:54:35Z</time>
      </trkpt>
      <trkpt lat="43.74975" lon="4.89005">
        <ele>219.317993</ele>
        <time>2011-01-23T12:54:42Z</time>
      </trkpt>
      <trkpt lat="43.74979" lon="4.89012">
        <ele>217.875977</ele>
        <time>2011-01-23T12:54:48Z</time>
      </trkpt>
      <trkpt lat="43.74986" lon="4.89023">
        <ele>216.914673</ele>
        <time>2011-01-23T12:54:57Z</time>
      </trkpt>
      <trkpt lat="43.7499" lon="4.89027">
        <ele>216.914673</ele>
        <time>2011-01-23T12:55:03Z</time>
      </trkpt>
      <trkpt lat="43.74992" lon="4.89035">
        <ele>216.914673</ele>
        <time>2011-01-23T12:55:09Z</time>
      </trkpt>
      <trkpt lat="43.74992" lon="4.89044">
        <ele>216.914673</ele>
        <time>2011-01-23T12:55:14Z</time>
      </trkpt>
      <trkpt lat="43.74992" lon="4.89044">
        <ele>216.914673</ele>
        <time>2011-01-23T12:55:16Z</time>
      </trkpt>
      <trkpt lat="43.74988" lon="4.89046">
        <ele>217.395386</ele>
        <time>2011-01-23T12:55:20Z</time>
      </trkpt>
      <trkpt lat="43.74983" lon="4.89046">
        <ele>218.83728</ele>
        <time>2011-01-23T12:55:32Z</time>
      </trkpt>
      <trkpt lat="43.74981" lon="4.89046">
        <ele>219.317993</ele>
        <time>2011-01-23T12:55:34Z</time>
      </trkpt>
      <trkpt lat="43.74975" lon="4.89048">
        <ele>219.798584</ele>
        <time>2011-01-23T12:55:39Z</time>
      </trkpt>
      <trkpt lat="43.74973" lon="4.89048">
        <ele>220.279175</ele>
        <time>2011-01-23T12:55:42Z</time>
      </trkpt>
      <trkpt lat="43.74962" lon="4.89055">
        <ele>222.201782</ele>
        <time>2011-01-23T12:55:52Z</time>
      </trkpt>
      <trkpt lat="43.74949" lon="4.89057">
        <ele>227.969727</ele>
        <time>2011-01-23T12:56:05Z</time>
      </trkpt>
      <trkpt lat="43.74945" lon="4.89055">
        <ele>230.85376</ele>
        <time>2011-01-23T12:56:10Z</time>
      </trkpt>
      <trkpt lat="43.74934" lon="4.89055">
        <ele>235.179688</ele>
        <time>2011-01-23T12:56:21Z</time>
      </trkpt>
      <trkpt lat="43.74934" lon="4.89055">
        <ele>235.660278</ele>
        <time>2011-01-23T12:56:23Z</time>
      </trkpt>
      <trkpt lat="43.7493" lon="4.89053">
        <ele>238.063599</ele>
        <time>2011-01-23T12:56:29Z</time>
      </trkpt>
      <trkpt lat="43.7493" lon="4.89053">
        <ele>238.544312</ele>
        <time>2011-01-23T12:56:31Z</time>
      </trkpt>
      <trkpt lat="43.74923" lon="4.89046">
        <ele>242.389648</ele>
        <time>2011-01-23T12:56:43Z</time>
      </trkpt>
      <trkpt lat="43.74921" lon="4.8904">
        <ele>245.273438</ele>
        <time>2011-01-23T12:56:51Z</time>
      </trkpt>
      <trkpt lat="43.74919" lon="4.89038">
        <ele>245.75415</ele>
        <time>2011-01-23T12:56:52Z</time>
      </trkpt>
      <trkpt lat="43.74915" lon="4.89031">
        <ele>249.118774</ele>
        <time>2011-01-23T12:57:00Z</time>
      </trkpt>
      <trkpt lat="43.74904" lon="4.89025">
        <ele>250.0802</ele>
        <time>2011-01-23T12:57:09Z</time>
      </trkpt>
      <trkpt lat="43.74902" lon="4.89027">
        <ele>249.599487</ele>
        <time>2011-01-23T12:57:11Z</time>
      </trkpt>
      <trkpt lat="43.74895" lon="4.89029">
        <ele>248.157593</ele>
        <time>2011-01-23T12:57:19Z</time>
      </trkpt>
      <trkpt lat="43.74883" lon="4.89033">
        <ele>247.676758</ele>
        <time>2011-01-23T12:57:28Z</time>
      </trkpt>
      <trkpt lat="43.74874" lon="4.89033">
        <ele>247.676758</ele>
        <time>2011-01-23T12:57:36Z</time>
      </trkpt>
      <trkpt lat="43.74865" lon="4.89029">
        <ele>247.676758</ele>
        <time>2011-01-23T12:57:40Z</time>
      </trkpt>
      <trkpt lat="43.7485" lon="4.89027">
        <ele>246.234863</ele>
        <time>2011-01-23T12:57:52Z</time>
      </trkpt>
      <trkpt lat="43.74842" lon="4.89025">
        <ele>245.75415</ele>
        <time>2011-01-23T12:58:00Z</time>
      </trkpt>
      <trkpt lat="43.74831" lon="4.89023">
        <ele>245.273438</ele>
        <time>2011-01-23T12:58:08Z</time>
      </trkpt>
      <trkpt lat="43.74814" lon="4.89023">
        <ele>245.75415</ele>
        <time>2011-01-23T12:58:17Z</time>
      </trkpt>
      <trkpt lat="43.74799" lon="4.89023">
        <ele>247.196045</ele>
        <time>2011-01-23T12:58:28Z</time>
      </trkpt>
      <trkpt lat="43.74797" lon="4.89025">
        <ele>247.196045</ele>
        <time>2011-01-23T12:58:30Z</time>
      </trkpt>
      <trkpt lat="43.74792" lon="4.89027">
        <ele>248.638184</ele>
        <time>2011-01-23T12:58:36Z</time>
      </trkpt>
      <trkpt lat="43.74782" lon="4.8904">
        <ele>250.0802</ele>
        <time>2011-01-23T12:58:48Z</time>
      </trkpt>
      <trkpt lat="43.74777" lon="4.89046">
        <ele>251.522095</ele>
        <time>2011-01-23T12:58:54Z</time>
      </trkpt>
      <trkpt lat="43.7476" lon="4.89055">
        <ele>254.886597</ele>
        <time>2011-01-23T12:59:05Z</time>
      </trkpt>
      <trkpt lat="43.74758" lon="4.89059">
        <ele>256.328735</ele>
        <time>2011-01-23T12:59:09Z</time>
      </trkpt>
      <trkpt lat="43.74754" lon="4.89065">
        <ele>259.693359</ele>
        <time>2011-01-23T12:59:17Z</time>
      </trkpt>
      <trkpt lat="43.74752" lon="4.89068">
        <ele>260.654541</ele>
        <time>2011-01-23T12:59:19Z</time>
      </trkpt>
      <trkpt lat="43.74749" lon="4.89072">
        <ele>261.135254</ele>
        <time>2011-01-23T12:59:23Z</time>
      </trkpt>
      <trkpt lat="43.74745" lon="4.89078">
        <ele>260.654541</ele>
        <time>2011-01-23T12:59:27Z</time>
      </trkpt>
      <trkpt lat="43.74743" lon="4.89083">
        <ele>260.654541</ele>
        <time>2011-01-23T12:59:30Z</time>
      </trkpt>
      <trkpt lat="43.74743" lon="4.89111">
        <ele>255.848022</ele>
        <time>2011-01-23T12:59:43Z</time>
      </trkpt>
      <trkpt lat="43.74747" lon="4.89132">
        <ele>254.886597</ele>
        <time>2011-01-23T12:59:54Z</time>
      </trkpt>
      <trkpt lat="43.74752" lon="4.89149">
        <ele>246.234863</ele>
        <time>2011-01-23T13:00:04Z</time>
      </trkpt>
      <trkpt lat="43.7476" lon="4.89162">
        <ele>222.201782</ele>
        <time>2011-01-23T13:01:45Z</time>
      </trkpt>
      <trkpt lat="43.74762" lon="4.89173">
        <ele>223.163208</ele>
        <time>2011-01-23T13:01:52Z</time>
      </trkpt>
      <trkpt lat="43.74767" lon="4.89183">
        <ele>227.969727</ele>
        <time>2011-01-23T13:02:03Z</time>
      </trkpt>
      <trkpt lat="43.74769" lon="4.89196">
        <ele>233.737671</ele>
        <time>2011-01-23T13:02:15Z</time>
      </trkpt>
      <trkpt lat="43.74767" lon="4.89209">
        <ele>237.582886</ele>
        <time>2011-01-23T13:02:30Z</time>
      </trkpt>
      <trkpt lat="43.74764" lon="4.89214">
        <ele>238.063599</ele>
        <time>2011-01-23T13:02:33Z</time>
      </trkpt>
      <trkpt lat="43.7476" lon="4.89222">
        <ele>238.544312</ele>
        <time>2011-01-23T13:02:43Z</time>
      </trkpt>
      <trkpt lat="43.74762" lon="4.89237">
        <ele>240.947632</ele>
        <time>2011-01-23T13:02:52Z</time>
      </trkpt>
      <trkpt lat="43.74771" lon="4.8925">
        <ele>231.334351</ele>
        <time>2011-01-23T13:05:25Z</time>
      </trkpt>
      <trkpt lat="43.74771" lon="4.89254">
        <ele>224.605225</ele>
        <time>2011-01-23T13:08:13Z</time>
      </trkpt>
      <trkpt lat="43.74773" lon="4.89256">
        <ele>222.682495</ele>
        <time>2011-01-23T13:08:28Z</time>
      </trkpt>
      <trkpt lat="43.74771" lon="4.89254">
        <ele>215.472656</ele>
        <time>2011-01-23T13:10:52Z</time>
      </trkpt>
      <trkpt lat="43.74773" lon="4.89256">
        <ele>214.51123</ele>
        <time>2011-01-23T13:12:38Z</time>
      </trkpt>
      <trkpt lat="43.74775" lon="4.89259">
        <ele>213.550049</ele>
        <time>2011-01-23T13:13:27Z</time>
      </trkpt>
      <trkpt lat="43.74773" lon="4.89256">
        <ele>214.991943</ele>
        <time>2011-01-23T13:15:00Z</time>
      </trkpt>
      <trkpt lat="43.74771" lon="4.89259">
        <ele>214.51123</ele>
        <time>2011-01-23T13:15:57Z</time>
      </trkpt>
      <trkpt lat="43.74771" lon="4.89256">
        <ele>214.51123</ele>
        <time>2011-01-23T13:16:44Z</time>
      </trkpt>
      <trkpt lat="43.74771" lon="4.89254">
        <ele>218.83728</ele>
        <time>2011-01-23T13:18:02Z</time>
      </trkpt>
      <trkpt lat="43.74771" lon="4.89256">
        <ele>219.798584</ele>
        <time>2011-01-23T13:19:22Z</time>
      </trkpt>
      <trkpt lat="43.74773" lon="4.89256">
        <ele>218.356567</ele>
        <time>2011-01-23T13:20:52Z</time>
      </trkpt>
      <trkpt lat="43.74773" lon="4.89259">
        <ele>218.83728</ele>
        <time>2011-01-23T13:21:39Z</time>
      </trkpt>
      <trkpt lat="43.74773" lon="4.89259">
        <ele>218.83728</ele>
        <time>2011-01-23T13:22:15Z</time>
      </trkpt>
      <trkpt lat="43.74773" lon="4.89256">
        <ele>219.798584</ele>
        <time>2011-01-23T13:23:26Z</time>
      </trkpt>
      <trkpt lat="43.74773" lon="4.89254">
        <ele>220.279175</ele>
        <time>2011-01-23T13:23:43Z</time>
      </trkpt>
      <trkpt lat="43.74773" lon="4.89256">
        <ele>218.83728</ele>
        <time>2011-01-23T13:23:58Z</time>
      </trkpt>
      <trkpt lat="43.74773" lon="4.89256">
        <ele>218.356567</ele>
        <time>2011-01-23T13:24:01Z</time>
      </trkpt>
      <trkpt lat="43.74771" lon="4.89256">
        <ele>217.875977</ele>
        <time>2011-01-23T13:24:16Z</time>
      </trkpt>
      <trkpt lat="43.74771" lon="4.8925">
        <ele>217.875977</ele>
        <time>2011-01-23T13:25:12Z</time>
      </trkpt>
      <trkpt lat="43.74769" lon="4.89252">
        <ele>217.395386</ele>
        <time>2011-01-23T13:25:26Z</time>
      </trkpt>
      <trkpt lat="43.74771" lon="4.89248">
        <ele>215.953247</ele>
        <time>2011-01-23T13:25:55Z</time>
      </trkpt>
      <trkpt lat="43.74767" lon="4.8925">
        <ele>218.356567</ele>
        <time>2011-01-23T13:26:11Z</time>
      </trkpt>
      <trkpt lat="43.74771" lon="4.89261">
        <ele>213.550049</ele>
        <time>2011-01-23T13:26:36Z</time>
      </trkpt>
      <trkpt lat="43.74769" lon="4.89256">
        <ele>211.627441</ele>
        <time>2011-01-23T13:26:50Z</time>
      </trkpt>
      <trkpt lat="43.74767" lon="4.89256">
        <ele>211.146729</ele>
        <time>2011-01-23T13:26:53Z</time>
      </trkpt>
      <trkpt lat="43.74762" lon="4.89256">
        <ele>209.704834</ele>
        <time>2011-01-23T13:26:58Z</time>
      </trkpt>
      <trkpt lat="43.74752" lon="4.89256">
        <ele>209.224121</ele>
        <time>2011-01-23T13:27:09Z</time>
      </trkpt>
      <trkpt lat="43.74749" lon="4.89254">
        <ele>209.224121</ele>
        <time>2011-01-23T13:27:14Z</time>
      </trkpt>
      <trkpt lat="43.74745" lon="4.89256">
        <ele>211.627441</ele>
        <time>2011-01-23T13:27:26Z</time>
      </trkpt>
      <trkpt lat="43.74743" lon="4.89254">
        <ele>211.627441</ele>
        <time>2011-01-23T13:27:29Z</time>
      </trkpt>
      <trkpt lat="43.74739" lon="4.89252">
        <ele>211.146729</ele>
        <time>2011-01-23T13:27:33Z</time>
      </trkpt>
      <trkpt lat="43.74732" lon="4.89252">
        <ele>212.108032</ele>
        <time>2011-01-23T13:27:38Z</time>
      </trkpt>
      <trkpt lat="43.74728" lon="4.89254">
        <ele>213.550049</ele>
        <time>2011-01-23T13:27:41Z</time>
      </trkpt>
      <trkpt lat="43.74715" lon="4.89263">
        <ele>218.356567</ele>
        <time>2011-01-23T13:27:52Z</time>
      </trkpt>
      <trkpt lat="43.74704" lon="4.89269">
        <ele>223.643799</ele>
        <time>2011-01-23T13:28:03Z</time>
      </trkpt>
      <trkpt lat="43.74687" lon="4.89271">
        <ele>227.969727</ele>
        <time>2011-01-23T13:28:16Z</time>
      </trkpt>
      <trkpt lat="43.74685" lon="4.89271">
        <ele>228.931152</ele>
        <time>2011-01-23T13:28:19Z</time>
      </trkpt>
      <trkpt lat="43.74677" lon="4.89271">
        <ele>229.411743</ele>
        <time>2011-01-23T13:28:24Z</time>
      </trkpt>
      <trkpt lat="43.74672" lon="4.89271">
        <ele>229.892334</ele>
        <time>2011-01-23T13:28:28Z</time>
      </trkpt>
      <trkpt lat="43.74666" lon="4.89276">
        <ele>229.892334</ele>
        <time>2011-01-23T13:28:35Z</time>
      </trkpt>
      <trkpt lat="43.74657" lon="4.89284">
        <ele>227.489136</ele>
        <time>2011-01-23T13:28:44Z</time>
      </trkpt>
      <trkpt lat="43.74657" lon="4.89284">
        <ele>227.489136</ele>
        <time>2011-01-23T13:28:45Z</time>
      </trkpt>
      <trkpt lat="43.74655" lon="4.89289">
        <ele>227.489136</ele>
        <time>2011-01-23T13:28:48Z</time>
      </trkpt>
      <trkpt lat="43.74642" lon="4.89297">
        <ele>229.892334</ele>
        <time>2011-01-23T13:28:58Z</time>
      </trkpt>
      <trkpt lat="43.7464" lon="4.89299">
        <ele>230.373047</ele>
        <time>2011-01-23T13:29:00Z</time>
      </trkpt>
      <trkpt lat="43.74629" lon="4.8931">
        <ele>235.179688</ele>
        <time>2011-01-23T13:29:11Z</time>
      </trkpt>
      <trkpt lat="43.74627" lon="4.8931">
        <ele>235.660278</ele>
        <time>2011-01-23T13:29:12Z</time>
      </trkpt>
      <trkpt lat="43.74625" lon="4.89312">
        <ele>237.102295</ele>
        <time>2011-01-23T13:29:15Z</time>
      </trkpt>
      <trkpt lat="43.74616" lon="4.89325">
        <ele>238.544312</ele>
        <time>2011-01-23T13:29:25Z</time>
      </trkpt>
      <trkpt lat="43.74614" lon="4.89327">
        <ele>239.024902</ele>
        <time>2011-01-23T13:29:29Z</time>
      </trkpt>
      <trkpt lat="43.74604" lon="4.8934">
        <ele>240.947632</ele>
        <time>2011-01-23T13:29:40Z</time>
      </trkpt>
      <trkpt lat="43.74601" lon="4.8934">
        <ele>241.428223</ele>
        <time>2011-01-23T13:29:42Z</time>
      </trkpt>
      <trkpt lat="43.74595" lon="4.89349">
        <ele>243.35083</ele>
        <time>2011-01-23T13:29:50Z</time>
      </trkpt>
      <trkpt lat="43.74591" lon="4.89355">
        <ele>245.273438</ele>
        <time>2011-01-23T13:29:56Z</time>
      </trkpt>
      <trkpt lat="43.74584" lon="4.89364">
        <ele>246.715454</ele>
        <time>2011-01-23T13:30:04Z</time>
      </trkpt>
      <trkpt lat="43.7458" lon="4.89368">
        <ele>247.196045</ele>
        <time>2011-01-23T13:30:09Z</time>
      </trkpt>
      <trkpt lat="43.74576" lon="4.89372">
        <ele>248.638184</ele>
        <time>2011-01-23T13:30:13Z</time>
      </trkpt>
      <trkpt lat="43.74576" lon="4.89374">
        <ele>248.638184</ele>
        <time>2011-01-23T13:30:14Z</time>
      </trkpt>
      <trkpt lat="43.74567" lon="4.89385">
        <ele>253.444702</ele>
        <time>2011-01-23T13:30:26Z</time>
      </trkpt>
      <trkpt lat="43.74565" lon="4.89387">
        <ele>253.925415</ele>
        <time>2011-01-23T13:30:28Z</time>
      </trkpt>
      <trkpt lat="43.74554" lon="4.89396">
        <ele>254.406006</ele>
        <time>2011-01-23T13:30:37Z</time>
      </trkpt>
      <trkpt lat="43.7455" lon="4.894">
        <ele>254.886597</ele>
        <time>2011-01-23T13:30:41Z</time>
      </trkpt>
      <trkpt lat="43.74546" lon="4.89404">
        <ele>254.886597</ele>
        <time>2011-01-23T13:30:44Z</time>
      </trkpt>
      <trkpt lat="43.74537" lon="4.89422">
        <ele>258.251343</ele>
        <time>2011-01-23T13:30:56Z</time>
      </trkpt>
      <trkpt lat="43.74535" lon="4.89428">
        <ele>257.770752</ele>
        <time>2011-01-23T13:31:00Z</time>
      </trkpt>
      <trkpt lat="43.74526" lon="4.89443">
        <ele>255.848022</ele>
        <time>2011-01-23T13:31:11Z</time>
      </trkpt>
      <trkpt lat="43.74526" lon="4.89445">
        <ele>254.886597</ele>
        <time>2011-01-23T13:31:13Z</time>
      </trkpt>
      <trkpt lat="43.74524" lon="4.89465">
        <ele>257.290039</ele>
        <time>2011-01-23T13:31:24Z</time>
      </trkpt>
      <trkpt lat="43.74524" lon="4.89475">
        <ele>257.290039</ele>
        <time>2011-01-23T13:31:29Z</time>
      </trkpt>
      <trkpt lat="43.7452" lon="4.89486">
        <ele>256.328735</ele>
        <time>2011-01-23T13:31:36Z</time>
      </trkpt>
      <trkpt lat="43.7452" lon="4.89492">
        <ele>256.328735</ele>
        <time>2011-01-23T13:31:40Z</time>
      </trkpt>
      <trkpt lat="43.7452" lon="4.89503">
        <ele>253.925415</ele>
        <time>2011-01-23T13:31:47Z</time>
      </trkpt>
      <trkpt lat="43.74518" lon="4.89518">
        <ele>256.328735</ele>
        <time>2011-01-23T13:31:58Z</time>
      </trkpt>
      <trkpt lat="43.74509" lon="4.8954">
        <ele>258.251343</ele>
        <time>2011-01-23T13:32:12Z</time>
      </trkpt>
      <trkpt lat="43.74507" lon="4.89544">
        <ele>258.251343</ele>
        <time>2011-01-23T13:32:16Z</time>
      </trkpt>
      <trkpt lat="43.74501" lon="4.89555">
        <ele>258.251343</ele>
        <time>2011-01-23T13:32:23Z</time>
      </trkpt>
      <trkpt lat="43.74494" lon="4.89561">
        <ele>260.17395</ele>
        <time>2011-01-23T13:32:29Z</time>
      </trkpt>
      <trkpt lat="43.74486" lon="4.89578">
        <ele>263.057861</ele>
        <time>2011-01-23T13:32:41Z</time>
      </trkpt>
      <trkpt lat="43.74481" lon="4.89583">
        <ele>264.019287</ele>
        <time>2011-01-23T13:32:49Z</time>
      </trkpt>
      <trkpt lat="43.74468" lon="4.89585">
        <ele>264.499878</ele>
        <time>2011-01-23T13:33:00Z</time>
      </trkpt>
      <trkpt lat="43.74466" lon="4.89587">
        <ele>264.499878</ele>
        <time>2011-01-23T13:33:02Z</time>
      </trkpt>
      <trkpt lat="43.74462" lon="4.89593">
        <ele>264.980591</ele>
        <time>2011-01-23T13:33:08Z</time>
      </trkpt>
      <trkpt lat="43.74458" lon="4.89593">
        <ele>264.499878</ele>
        <time>2011-01-23T13:33:10Z</time>
      </trkpt>
      <trkpt lat="43.74458" lon="4.89595">
        <ele>264.019287</ele>
        <time>2011-01-23T13:33:12Z</time>
      </trkpt>
      <trkpt lat="43.74447" lon="4.89613">
        <ele>261.135254</ele>
        <time>2011-01-23T13:33:24Z</time>
      </trkpt>
      <trkpt lat="43.74447" lon="4.89617">
        <ele>261.615967</ele>
        <time>2011-01-23T13:33:27Z</time>
      </trkpt>
      <trkpt lat="43.74445" lon="4.89619">
        <ele>261.615967</ele>
        <time>2011-01-23T13:33:29Z</time>
      </trkpt>
      <trkpt lat="43.7444" lon="4.89634">
        <ele>264.019287</ele>
        <time>2011-01-23T13:33:39Z</time>
      </trkpt>
      <trkpt lat="43.74436" lon="4.89651">
        <ele>263.057861</ele>
        <time>2011-01-23T13:33:51Z</time>
      </trkpt>
      <trkpt lat="43.74428" lon="4.89675">
        <ele>259.212646</ele>
        <time>2011-01-23T13:34:06Z</time>
      </trkpt>
      <trkpt lat="43.74419" lon="4.89694">
        <ele>261.135254</ele>
        <time>2011-01-23T13:34:21Z</time>
      </trkpt>
      <trkpt lat="43.74417" lon="4.89698">
        <ele>261.135254</ele>
        <time>2011-01-23T13:34:24Z</time>
      </trkpt>
      <trkpt lat="43.74421" lon="4.89718">
        <ele>239.505493</ele>
        <time>2011-01-23T13:34:36Z</time>
      </trkpt>
      <trkpt lat="43.74417" lon="4.89729">
        <ele>232.776489</ele>
        <time>2011-01-23T13:34:44Z</time>
      </trkpt>
      <trkpt lat="43.74417" lon="4.89737">
        <ele>228.931152</ele>
        <time>2011-01-23T13:34:48Z</time>
      </trkpt>
      <trkpt lat="43.74417" lon="4.89741">
        <ele>227.008545</ele>
        <time>2011-01-23T13:34:51Z</time>
      </trkpt>
      <trkpt lat="43.74415" lon="4.89746">
        <ele>226.047119</ele>
        <time>2011-01-23T13:34:54Z</time>
      </trkpt>
      <trkpt lat="43.74415" lon="4.8975">
        <ele>226.047119</ele>
        <time>2011-01-23T13:34:57Z</time>
      </trkpt>
      <trkpt lat="43.74408" lon="4.89771">
        <ele>227.489136</ele>
        <time>2011-01-23T13:35:10Z</time>
      </trkpt>
      <trkpt lat="43.74406" lon="4.89782">
        <ele>229.411743</ele>
        <time>2011-01-23T13:35:17Z</time>
      </trkpt>
      <trkpt lat="43.74406" lon="4.89784">
        <ele>229.892334</ele>
        <time>2011-01-23T13:35:19Z</time>
      </trkpt>
      <trkpt lat="43.74402" lon="4.89795">
        <ele>232.295776</ele>
        <time>2011-01-23T13:35:28Z</time>
      </trkpt>
      <trkpt lat="43.74398" lon="4.89806">
        <ele>235.179688</ele>
        <time>2011-01-23T13:35:35Z</time>
      </trkpt>
      <trkpt lat="43.74395" lon="4.89808">
        <ele>236.621704</ele>
        <time>2011-01-23T13:35:38Z</time>
      </trkpt>
      <trkpt lat="43.74391" lon="4.89825">
        <ele>241.428223</ele>
        <time>2011-01-23T13:35:50Z</time>
      </trkpt>
      <trkpt lat="43.74387" lon="4.89844">
        <ele>243.831543</ele>
        <time>2011-01-23T13:36:02Z</time>
      </trkpt>
      <trkpt lat="43.74387" lon="4.89859">
        <ele>246.715454</ele>
        <time>2011-01-23T13:36:12Z</time>
      </trkpt>
      <trkpt lat="43.74387" lon="4.89877">
        <ele>249.599487</ele>
        <time>2011-01-23T13:36:23Z</time>
      </trkpt>
      <trkpt lat="43.74387" lon="4.89881">
        <ele>250.560791</ele>
        <time>2011-01-23T13:36:26Z</time>
      </trkpt>
      <trkpt lat="43.74387" lon="4.89885">
        <ele>251.522095</ele>
        <time>2011-01-23T13:36:29Z</time>
      </trkpt>
      <trkpt lat="43.74389" lon="4.89902">
        <ele>255.36731</ele>
        <time>2011-01-23T13:36:41Z</time>
      </trkpt>
      <trkpt lat="43.74389" lon="4.89911">
        <ele>256.328735</ele>
        <time>2011-01-23T13:36:46Z</time>
      </trkpt>
      <trkpt lat="43.74391" lon="4.8993">
        <ele>259.212646</ele>
        <time>2011-01-23T13:36:58Z</time>
      </trkpt>
      <trkpt lat="43.74389" lon="4.89945">
        <ele>261.135254</ele>
        <time>2011-01-23T13:37:09Z</time>
      </trkpt>
      <trkpt lat="43.74391" lon="4.89958">
        <ele>264.499878</ele>
        <time>2011-01-23T13:37:21Z</time>
      </trkpt>
      <trkpt lat="43.74389" lon="4.89971">
        <ele>267.864502</ele>
        <time>2011-01-23T13:37:31Z</time>
      </trkpt>
      <trkpt lat="43.74391" lon="4.89984">
        <ele>266.903198</ele>
        <time>2011-01-23T13:37:41Z</time>
      </trkpt>
      <trkpt lat="43.74391" lon="4.89986">
        <ele>267.383911</ele>
        <time>2011-01-23T13:37:42Z</time>
      </trkpt>
      <trkpt lat="43.74389" lon="4.89988">
        <ele>267.864502</ele>
        <time>2011-01-23T13:37:44Z</time>
      </trkpt>
      <trkpt lat="43.74387" lon="4.90001">
        <ele>270.2677</ele>
        <time>2011-01-23T13:37:54Z</time>
      </trkpt>
      <trkpt lat="43.74387" lon="4.90003">
        <ele>270.2677</ele>
        <time>2011-01-23T13:37:55Z</time>
      </trkpt>
      <trkpt lat="43.74385" lon="4.90016">
        <ele>271.709717</ele>
        <time>2011-01-23T13:38:03Z</time>
      </trkpt>
      <trkpt lat="43.74383" lon="4.9004">
        <ele>272.19043</ele>
        <time>2011-01-23T13:38:15Z</time>
      </trkpt>
      <trkpt lat="43.7438" lon="4.90055">
        <ele>272.671143</ele>
        <time>2011-01-23T13:38:27Z</time>
      </trkpt>
      <trkpt lat="43.7438" lon="4.90057">
        <ele>272.671143</ele>
        <time>2011-01-23T13:38:28Z</time>
      </trkpt>
      <trkpt lat="43.74378" lon="4.90072">
        <ele>274.113037</ele>
        <time>2011-01-23T13:38:37Z</time>
      </trkpt>
      <trkpt lat="43.74372" lon="4.90089">
        <ele>272.19043</ele>
        <time>2011-01-23T13:38:48Z</time>
      </trkpt>
      <trkpt lat="43.74368" lon="4.90098">
        <ele>272.19043</ele>
        <time>2011-01-23T13:38:53Z</time>
      </trkpt>
      <trkpt lat="43.74365" lon="4.90104">
        <ele>271.229126</ele>
        <time>2011-01-23T13:38:59Z</time>
      </trkpt>
      <trkpt lat="43.74363" lon="4.90108">
        <ele>270.748413</ele>
        <time>2011-01-23T13:39:02Z</time>
      </trkpt>
      <trkpt lat="43.74361" lon="4.90117">
        <ele>269.306519</ele>
        <time>2011-01-23T13:39:07Z</time>
      </trkpt>
      <trkpt lat="43.74359" lon="4.9013">
        <ele>266.422485</ele>
        <time>2011-01-23T13:39:16Z</time>
      </trkpt>
      <trkpt lat="43.74357" lon="4.90136">
        <ele>266.903198</ele>
        <time>2011-01-23T13:39:20Z</time>
      </trkpt>
      <trkpt lat="43.74353" lon="4.90153">
        <ele>266.903198</ele>
        <time>2011-01-23T13:39:34Z</time>
      </trkpt>
      <trkpt lat="43.74353" lon="4.90158">
        <ele>266.903198</ele>
        <time>2011-01-23T13:39:37Z</time>
      </trkpt>
      <trkpt lat="43.74353" lon="4.90164">
        <ele>264.980591</ele>
        <time>2011-01-23T13:39:44Z</time>
      </trkpt>
      <trkpt lat="43.7435" lon="4.90173">
        <ele>262.096558</ele>
        <time>2011-01-23T13:39:49Z</time>
      </trkpt>
      <trkpt lat="43.7435" lon="4.90177">
        <ele>261.135254</ele>
        <time>2011-01-23T13:39:52Z</time>
      </trkpt>
      <trkpt lat="43.74346" lon="4.90192">
        <ele>257.770752</ele>
        <time>2011-01-23T13:40:01Z</time>
      </trkpt>
      <trkpt lat="43.74346" lon="4.90203">
        <ele>257.770752</ele>
        <time>2011-01-23T13:40:09Z</time>
      </trkpt>
      <trkpt lat="43.74346" lon="4.90205">
        <ele>257.770752</ele>
        <time>2011-01-23T13:40:10Z</time>
      </trkpt>
      <trkpt lat="43.74346" lon="4.90211">
        <ele>257.290039</ele>
        <time>2011-01-23T13:40:13Z</time>
      </trkpt>
      <trkpt lat="43.74346" lon="4.90237">
        <ele>258.731934</ele>
        <time>2011-01-23T13:40:24Z</time>
      </trkpt>
      <trkpt lat="43.74348" lon="4.90239">
        <ele>258.731934</ele>
        <time>2011-01-23T13:40:26Z</time>
      </trkpt>
      <trkpt lat="43.74353" lon="4.90248">
        <ele>257.290039</ele>
        <time>2011-01-23T13:40:30Z</time>
      </trkpt>
      <trkpt lat="43.74353" lon="4.90252">
        <ele>256.328735</ele>
        <time>2011-01-23T13:40:32Z</time>
      </trkpt>
      <trkpt lat="43.74357" lon="4.90265">
        <ele>254.406006</ele>
        <time>2011-01-23T13:40:39Z</time>
      </trkpt>
      <trkpt lat="43.74355" lon="4.90274">
        <ele>252.963989</ele>
        <time>2011-01-23T13:40:44Z</time>
      </trkpt>
      <trkpt lat="43.74355" lon="4.90282">
        <ele>252.002808</ele>
        <time>2011-01-23T13:40:49Z</time>
      </trkpt>
      <trkpt lat="43.74355" lon="4.90289">
        <ele>252.483398</ele>
        <time>2011-01-23T13:40:53Z</time>
      </trkpt>
      <trkpt lat="43.74357" lon="4.90312">
        <ele>252.963989</ele>
        <time>2011-01-23T13:41:06Z</time>
      </trkpt>
      <trkpt lat="43.74363" lon="4.90329">
        <ele>253.925415</ele>
        <time>2011-01-23T13:41:18Z</time>
      </trkpt>
      <trkpt lat="43.74363" lon="4.9034">
        <ele>248.638184</ele>
        <time>2011-01-23T13:41:28Z</time>
      </trkpt>
      <trkpt lat="43.74363" lon="4.90342">
        <ele>248.157593</ele>
        <time>2011-01-23T13:41:29Z</time>
      </trkpt>
      <trkpt lat="43.74363" lon="4.90353">
        <ele>244.312256</ele>
        <time>2011-01-23T13:41:38Z</time>
      </trkpt>
      <trkpt lat="43.74361" lon="4.90355">
        <ele>244.792847</ele>
        <time>2011-01-23T13:41:40Z</time>
      </trkpt>
      <trkpt lat="43.74363" lon="4.90372">
        <ele>245.75415</ele>
        <time>2011-01-23T13:41:50Z</time>
      </trkpt>
      <trkpt lat="43.74363" lon="4.90387">
        <ele>248.157593</ele>
        <time>2011-01-23T13:42:02Z</time>
      </trkpt>
      <trkpt lat="43.74361" lon="4.904">
        <ele>245.75415</ele>
        <time>2011-01-23T13:42:13Z</time>
      </trkpt>
      <trkpt lat="43.74359" lon="4.90415">
        <ele>244.792847</ele>
        <time>2011-01-23T13:42:22Z</time>
      </trkpt>
      <trkpt lat="43.74353" lon="4.90426">
        <ele>243.831543</ele>
        <time>2011-01-23T13:42:33Z</time>
      </trkpt>
      <trkpt lat="43.7435" lon="4.90434">
        <ele>244.792847</ele>
        <time>2011-01-23T13:42:38Z</time>
      </trkpt>
      <trkpt lat="43.7435" lon="4.90437">
        <ele>245.273438</ele>
        <time>2011-01-23T13:42:40Z</time>
      </trkpt>
      <trkpt lat="43.74348" lon="4.90441">
        <ele>245.75415</ele>
        <time>2011-01-23T13:42:43Z</time>
      </trkpt>
      <trkpt lat="43.74342" lon="4.90454">
        <ele>242.389648</ele>
        <time>2011-01-23T13:42:52Z</time>
      </trkpt>
      <trkpt lat="43.74335" lon="4.9046">
        <ele>238.063599</ele>
        <time>2011-01-23T13:43:01Z</time>
      </trkpt>
      <trkpt lat="43.74335" lon="4.90464">
        <ele>236.140991</ele>
        <time>2011-01-23T13:43:04Z</time>
      </trkpt>
      <trkpt lat="43.74322" lon="4.9048">
        <ele>230.85376</ele>
        <time>2011-01-23T13:43:17Z</time>
      </trkpt>
      <trkpt lat="43.7431" lon="4.90488">
        <ele>224.124512</ele>
        <time>2011-01-23T13:43:29Z</time>
      </trkpt>
      <trkpt lat="43.74307" lon="4.9049">
        <ele>223.163208</ele>
        <time>2011-01-23T13:43:31Z</time>
      </trkpt>
      <trkpt lat="43.74305" lon="4.9049">
        <ele>220.759888</ele>
        <time>2011-01-23T13:43:35Z</time>
      </trkpt>
      <trkpt lat="43.74297" lon="4.90497">
        <ele>218.83728</ele>
        <time>2011-01-23T13:43:46Z</time>
      </trkpt>
      <trkpt lat="43.7429" lon="4.90501">
        <ele>216.43396</ele>
        <time>2011-01-23T13:43:55Z</time>
      </trkpt>
      <trkpt lat="43.74277" lon="4.9051">
        <ele>214.991943</ele>
        <time>2011-01-23T13:44:07Z</time>
      </trkpt>
      <trkpt lat="43.74271" lon="4.90516">
        <ele>213.069336</ele>
        <time>2011-01-23T13:44:13Z</time>
      </trkpt>
      <trkpt lat="43.74267" lon="4.90518">
        <ele>211.627441</ele>
        <time>2011-01-23T13:44:17Z</time>
      </trkpt>
      <trkpt lat="43.74252" lon="4.90527">
        <ele>211.146729</ele>
        <time>2011-01-23T13:44:29Z</time>
      </trkpt>
      <trkpt lat="43.74241" lon="4.90535">
        <ele>213.069336</ele>
        <time>2011-01-23T13:44:42Z</time>
      </trkpt>
      <trkpt lat="43.74228" lon="4.9055">
        <ele>214.03064</ele>
        <time>2011-01-23T13:44:56Z</time>
      </trkpt>
      <trkpt lat="43.74226" lon="4.90552">
        <ele>214.51123</ele>
        <time>2011-01-23T13:44:59Z</time>
      </trkpt>
      <trkpt lat="43.74217" lon="4.90561">
        <ele>215.953247</ele>
        <time>2011-01-23T13:45:09Z</time>
      </trkpt>
      <trkpt lat="43.74209" lon="4.90572">
        <ele>217.395386</ele>
        <time>2011-01-23T13:45:20Z</time>
      </trkpt>
      <trkpt lat="43.74202" lon="4.90576">
        <ele>218.356567</ele>
        <time>2011-01-23T13:45:25Z</time>
      </trkpt>
      <trkpt lat="43.74198" lon="4.9058">
        <ele>217.875977</ele>
        <time>2011-01-23T13:45:29Z</time>
      </trkpt>
      <trkpt lat="43.74194" lon="4.90585">
        <ele>216.914673</ele>
        <time>2011-01-23T13:45:33Z</time>
      </trkpt>
      <trkpt lat="43.74181" lon="4.90598">
        <ele>214.03064</ele>
        <time>2011-01-23T13:45:44Z</time>
      </trkpt>
      <trkpt lat="43.74172" lon="4.90606">
        <ele>211.627441</ele>
        <time>2011-01-23T13:45:55Z</time>
      </trkpt>
      <trkpt lat="43.7417" lon="4.90608">
        <ele>211.146729</ele>
        <time>2011-01-23T13:45:58Z</time>
      </trkpt>
      <trkpt lat="43.74164" lon="4.90613">
        <ele>212.108032</ele>
        <time>2011-01-23T13:46:03Z</time>
      </trkpt>
      <trkpt lat="43.74153" lon="4.90619">
        <ele>215.953247</ele>
        <time>2011-01-23T13:46:14Z</time>
      </trkpt>
      <trkpt lat="43.74147" lon="4.90619">
        <ele>217.875977</ele>
        <time>2011-01-23T13:46:18Z</time>
      </trkpt>
      <trkpt lat="43.7414" lon="4.90617">
        <ele>218.356567</ele>
        <time>2011-01-23T13:46:26Z</time>
      </trkpt>
      <trkpt lat="43.74136" lon="4.90617">
        <ele>217.395386</ele>
        <time>2011-01-23T13:46:29Z</time>
      </trkpt>
      <trkpt lat="43.74131" lon="4.90619">
        <ele>217.395386</ele>
        <time>2011-01-23T13:46:32Z</time>
      </trkpt>
      <trkpt lat="43.74121" lon="4.90623">
        <ele>216.43396</ele>
        <time>2011-01-23T13:46:43Z</time>
      </trkpt>
      <trkpt lat="43.74112" lon="4.90628">
        <ele>216.43396</ele>
        <time>2011-01-23T13:46:53Z</time>
      </trkpt>
      <trkpt lat="43.74104" lon="4.9063">
        <ele>216.914673</ele>
        <time>2011-01-23T13:47:01Z</time>
      </trkpt>
      <trkpt lat="43.74097" lon="4.90632">
        <ele>217.395386</ele>
        <time>2011-01-23T13:47:10Z</time>
      </trkpt>
      <trkpt lat="43.74074" lon="4.90636">
        <ele>214.51123</ele>
        <time>2011-01-23T13:47:21Z</time>
      </trkpt>
      <trkpt lat="43.74067" lon="4.90638">
        <ele>211.627441</ele>
        <time>2011-01-23T13:47:26Z</time>
      </trkpt>
      <trkpt lat="43.74065" lon="4.90638">
        <ele>210.666016</ele>
        <time>2011-01-23T13:47:28Z</time>
      </trkpt>
      <trkpt lat="43.74054" lon="4.9064">
        <ele>207.301392</ele>
        <time>2011-01-23T13:47:39Z</time>
      </trkpt>
      <trkpt lat="43.74041" lon="4.90643">
        <ele>203.93689</ele>
        <time>2011-01-23T13:47:52Z</time>
      </trkpt>
      <trkpt lat="43.74035" lon="4.90647">
        <ele>202.975464</ele>
        <time>2011-01-23T13:47:59Z</time>
      </trkpt>
      <trkpt lat="43.7402" lon="4.90651">
        <ele>201.052856</ele>
        <time>2011-01-23T13:48:09Z</time>
      </trkpt>
      <trkpt lat="43.74013" lon="4.90655">
        <ele>199.61084</ele>
        <time>2011-01-23T13:48:13Z</time>
      </trkpt>
      <trkpt lat="43.74011" lon="4.90658">
        <ele>198.168945</ele>
        <time>2011-01-23T13:48:16Z</time>
      </trkpt>
      <trkpt lat="43.74003" lon="4.90668">
        <ele>193.843018</ele>
        <time>2011-01-23T13:48:26Z</time>
      </trkpt>
      <trkpt lat="43.74001" lon="4.9067">
        <ele>193.843018</ele>
        <time>2011-01-23T13:48:28Z</time>
      </trkpt>
      <trkpt lat="43.73998" lon="4.90677">
        <ele>193.362305</ele>
        <time>2011-01-23T13:48:32Z</time>
      </trkpt>
      <trkpt lat="43.7399" lon="4.90686">
        <ele>193.843018</ele>
        <time>2011-01-23T13:48:40Z</time>
      </trkpt>
      <trkpt lat="43.73981" lon="4.90692">
        <ele>195.284912</ele>
        <time>2011-01-23T13:48:49Z</time>
      </trkpt>
      <trkpt lat="43.73979" lon="4.90698">
        <ele>195.765625</ele>
        <time>2011-01-23T13:48:53Z</time>
      </trkpt>
      <trkpt lat="43.73977" lon="4.90707">
        <ele>198.649536</ele>
        <time>2011-01-23T13:49:03Z</time>
      </trkpt>
      <trkpt lat="43.73973" lon="4.90716">
        <ele>199.61084</ele>
        <time>2011-01-23T13:49:11Z</time>
      </trkpt>
      <trkpt lat="43.73977" lon="4.90733">
        <ele>203.456177</ele>
        <time>2011-01-23T13:49:22Z</time>
      </trkpt>
      <trkpt lat="43.73977" lon="4.90743">
        <ele>203.456177</ele>
        <time>2011-01-23T13:49:32Z</time>
      </trkpt>
      <trkpt lat="43.73979" lon="4.90756">
        <ele>205.378784</ele>
        <time>2011-01-23T13:49:41Z</time>
      </trkpt>
      <trkpt lat="43.73981" lon="4.90765">
        <ele>207.301392</ele>
        <time>2011-01-23T13:49:46Z</time>
      </trkpt>
      <trkpt lat="43.73983" lon="4.90778">
        <ele>209.704834</ele>
        <time>2011-01-23T13:49:55Z</time>
      </trkpt>
      <trkpt lat="43.73986" lon="4.90791">
        <ele>213.550049</ele>
        <time>2011-01-23T13:50:04Z</time>
      </trkpt>
      <trkpt lat="43.73986" lon="4.90804">
        <ele>215.472656</ele>
        <time>2011-01-23T13:50:16Z</time>
      </trkpt>
      <trkpt lat="43.73988" lon="4.90814">
        <ele>214.51123</ele>
        <time>2011-01-23T13:50:27Z</time>
      </trkpt>
      <trkpt lat="43.73988" lon="4.90819">
        <ele>214.03064</ele>
        <time>2011-01-23T13:50:29Z</time>
      </trkpt>
      <trkpt lat="43.73988" lon="4.90831">
        <ele>214.51123</ele>
        <time>2011-01-23T13:50:37Z</time>
      </trkpt>
      <trkpt lat="43.73992" lon="4.90844">
        <ele>216.43396</ele>
        <time>2011-01-23T13:50:49Z</time>
      </trkpt>
      <trkpt lat="43.7399" lon="4.90849">
        <ele>216.914673</ele>
        <time>2011-01-23T13:50:52Z</time>
      </trkpt>
      <trkpt lat="43.7399" lon="4.90851">
        <ele>217.395386</ele>
        <time>2011-01-23T13:50:54Z</time>
      </trkpt>
      <trkpt lat="43.7399" lon="4.90866">
        <ele>217.875977</ele>
        <time>2011-01-23T13:51:07Z</time>
      </trkpt>
      <trkpt lat="43.7399" lon="4.9087">
        <ele>218.356567</ele>
        <time>2011-01-23T13:51:12Z</time>
      </trkpt>
      <trkpt lat="43.73986" lon="4.90885">
        <ele>220.279175</ele>
        <time>2011-01-23T13:51:23Z</time>
      </trkpt>
      <trkpt lat="43.73988" lon="4.90892">
        <ele>215.953247</ele>
        <time>2011-01-23T13:51:37Z</time>
      </trkpt>
      <trkpt lat="43.7399" lon="4.90894">
        <ele>212.588623</ele>
        <time>2011-01-23T13:51:51Z</time>
      </trkpt>
      <trkpt lat="43.7399" lon="4.90907">
        <ele>209.224121</ele>
        <time>2011-01-23T13:52:01Z</time>
      </trkpt>
      <trkpt lat="43.73988" lon="4.90917">
        <ele>209.224121</ele>
        <time>2011-01-23T13:52:07Z</time>
      </trkpt>
      <trkpt lat="43.73981" lon="4.90924">
        <ele>209.704834</ele>
        <time>2011-01-23T13:52:12Z</time>
      </trkpt>
      <trkpt lat="43.73983" lon="4.90943">
        <ele>212.108032</ele>
        <time>2011-01-23T13:52:24Z</time>
      </trkpt>
      <trkpt lat="43.73983" lon="4.90956">
        <ele>211.146729</ele>
        <time>2011-01-23T13:52:30Z</time>
      </trkpt>
      <trkpt lat="43.73983" lon="4.90969">
        <ele>212.588623</ele>
        <time>2011-01-23T13:52:37Z</time>
      </trkpt>
      <trkpt lat="43.73986" lon="4.90979">
        <ele>214.03064</ele>
        <time>2011-01-23T13:52:42Z</time>
      </trkpt>
      <trkpt lat="43.73983" lon="4.90988">
        <ele>214.991943</ele>
        <time>2011-01-23T13:52:48Z</time>
      </trkpt>
      <trkpt lat="43.73983" lon="4.90995">
        <ele>215.953247</ele>
        <time>2011-01-23T13:52:53Z</time>
      </trkpt>
      <trkpt lat="43.73981" lon="4.91005">
        <ele>218.83728</ele>
        <time>2011-01-23T13:53:00Z</time>
      </trkpt>
      <trkpt lat="43.73979" lon="4.91014">
        <ele>219.798584</ele>
        <time>2011-01-23T13:53:05Z</time>
      </trkpt>
      <trkpt lat="43.73979" lon="4.91025">
        <ele>221.721191</ele>
        <time>2011-01-23T13:53:10Z</time>
      </trkpt>
      <trkpt lat="43.73979" lon="4.91031">
        <ele>221.721191</ele>
        <time>2011-01-23T13:53:13Z</time>
      </trkpt>
      <trkpt lat="43.73981" lon="4.91048">
        <ele>227.489136</ele>
        <time>2011-01-23T13:53:25Z</time>
      </trkpt>
      <trkpt lat="43.73981" lon="4.91059">
        <ele>230.373047</ele>
        <time>2011-01-23T13:53:36Z</time>
      </trkpt>
      <trkpt lat="43.73981" lon="4.91061">
        <ele>229.892334</ele>
        <time>2011-01-23T13:53:37Z</time>
      </trkpt>
      <trkpt lat="43.73981" lon="4.91072">
        <ele>229.411743</ele>
        <time>2011-01-23T13:53:47Z</time>
      </trkpt>
      <trkpt lat="43.73979" lon="4.91082">
        <ele>230.373047</ele>
        <time>2011-01-23T13:53:54Z</time>
      </trkpt>
      <trkpt lat="43.73979" lon="4.91091">
        <ele>233.25708</ele>
        <time>2011-01-23T13:54:00Z</time>
      </trkpt>
      <trkpt lat="43.73979" lon="4.91095">
        <ele>234.218384</ele>
        <time>2011-01-23T13:54:03Z</time>
      </trkpt>
      <trkpt lat="43.73979" lon="4.91106">
        <ele>236.140991</ele>
        <time>2011-01-23T13:54:10Z</time>
      </trkpt>
      <trkpt lat="43.73979" lon="4.91108">
        <ele>236.140991</ele>
        <time>2011-01-23T13:54:12Z</time>
      </trkpt>
      <trkpt lat="43.73979" lon="4.91113">
        <ele>236.621704</ele>
        <time>2011-01-23T13:54:15Z</time>
      </trkpt>
      <trkpt lat="43.73979" lon="4.91115">
        <ele>236.140991</ele>
        <time>2011-01-23T13:54:17Z</time>
      </trkpt>
      <trkpt lat="43.73977" lon="4.91132">
        <ele>233.25708</ele>
        <time>2011-01-23T13:54:29Z</time>
      </trkpt>
      <trkpt lat="43.73975" lon="4.91138">
        <ele>232.776489</ele>
        <time>2011-01-23T13:54:33Z</time>
      </trkpt>
      <trkpt lat="43.73975" lon="4.91147">
        <ele>232.776489</ele>
        <time>2011-01-23T13:54:38Z</time>
      </trkpt>
      <trkpt lat="43.73973" lon="4.91151">
        <ele>233.737671</ele>
        <time>2011-01-23T13:54:41Z</time>
      </trkpt>
      <trkpt lat="43.73973" lon="4.9116">
        <ele>232.776489</ele>
        <time>2011-01-23T13:54:49Z</time>
      </trkpt>
      <trkpt lat="43.73968" lon="4.91177">
        <ele>232.776489</ele>
        <time>2011-01-23T13:55:03Z</time>
      </trkpt>
      <trkpt lat="43.73971" lon="4.91181">
        <ele>232.295776</ele>
        <time>2011-01-23T13:55:06Z</time>
      </trkpt>
      <trkpt lat="43.73971" lon="4.91196">
        <ele>231.334351</ele>
        <time>2011-01-23T13:55:16Z</time>
      </trkpt>
      <trkpt lat="43.73971" lon="4.91218">
        <ele>229.411743</ele>
        <time>2011-01-23T13:55:29Z</time>
      </trkpt>
      <trkpt lat="43.73971" lon="4.91218">
        <ele>228.931152</ele>
        <time>2011-01-23T13:55:30Z</time>
      </trkpt>
      <trkpt lat="43.73968" lon="4.91224">
        <ele>229.411743</ele>
        <time>2011-01-23T13:55:33Z</time>
      </trkpt>
      <trkpt lat="43.73968" lon="4.91226">
        <ele>229.411743</ele>
        <time>2011-01-23T13:55:36Z</time>
      </trkpt>
      <trkpt lat="43.73968" lon="4.91231">
        <ele>229.892334</ele>
        <time>2011-01-23T13:55:38Z</time>
      </trkpt>
      <trkpt lat="43.73968" lon="4.91237">
        <ele>230.85376</ele>
        <time>2011-01-23T13:55:41Z</time>
      </trkpt>
      <trkpt lat="43.73968" lon="4.91243">
        <ele>231.814941</ele>
        <time>2011-01-23T13:55:45Z</time>
      </trkpt>
      <trkpt lat="43.73964" lon="4.91265">
        <ele>233.25708</ele>
        <time>2011-01-23T13:56:00Z</time>
      </trkpt>
      <trkpt lat="43.73962" lon="4.91284">
        <ele>234.218384</ele>
        <time>2011-01-23T13:56:14Z</time>
      </trkpt>
      <trkpt lat="43.73962" lon="4.91288">
        <ele>235.179688</ele>
        <time>2011-01-23T13:56:17Z</time>
      </trkpt>
      <trkpt lat="43.7396" lon="4.91293">
        <ele>235.660278</ele>
        <time>2011-01-23T13:56:19Z</time>
      </trkpt>
      <trkpt lat="43.7396" lon="4.91299">
        <ele>235.179688</ele>
        <time>2011-01-23T13:56:23Z</time>
      </trkpt>
      <trkpt lat="43.7396" lon="4.91316">
        <ele>236.140991</ele>
        <time>2011-01-23T13:56:36Z</time>
      </trkpt>
      <trkpt lat="43.7396" lon="4.91319">
        <ele>236.140991</ele>
        <time>2011-01-23T13:56:37Z</time>
      </trkpt>
      <trkpt lat="43.73958" lon="4.91323">
        <ele>235.660278</ele>
        <time>2011-01-23T13:56:40Z</time>
      </trkpt>
      <trkpt lat="43.73958" lon="4.9134">
        <ele>234.699097</ele>
        <time>2011-01-23T13:56:50Z</time>
      </trkpt>
      <trkpt lat="43.73958" lon="4.91351">
        <ele>231.814941</ele>
        <time>2011-01-23T13:56:58Z</time>
      </trkpt>
      <trkpt lat="43.73958" lon="4.91355">
        <ele>230.373047</ele>
        <time>2011-01-23T13:57:01Z</time>
      </trkpt>
      <trkpt lat="43.73958" lon="4.91364">
        <ele>226.527832</ele>
        <time>2011-01-23T13:57:07Z</time>
      </trkpt>
      <trkpt lat="43.73956" lon="4.9137">
        <ele>225.085938</ele>
        <time>2011-01-23T13:57:12Z</time>
      </trkpt>
      <trkpt lat="43.73951" lon="4.91391">
        <ele>223.643799</ele>
        <time>2011-01-23T13:57:26Z</time>
      </trkpt>
      <trkpt lat="43.73947" lon="4.91411">
        <ele>222.201782</ele>
        <time>2011-01-23T13:57:39Z</time>
      </trkpt>
      <trkpt lat="43.73943" lon="4.91424">
        <ele>220.279175</ele>
        <time>2011-01-23T13:57:48Z</time>
      </trkpt>
      <trkpt lat="43.73941" lon="4.91432">
        <ele>220.279175</ele>
        <time>2011-01-23T13:57:53Z</time>
      </trkpt>
      <trkpt lat="43.73932" lon="4.91449">
        <ele>219.798584</ele>
        <time>2011-01-23T13:58:06Z</time>
      </trkpt>
      <trkpt lat="43.73932" lon="4.91452">
        <ele>219.798584</ele>
        <time>2011-01-23T13:58:08Z</time>
      </trkpt>
      <trkpt lat="43.73928" lon="4.9146">
        <ele>219.317993</ele>
        <time>2011-01-23T13:58:15Z</time>
      </trkpt>
      <trkpt lat="43.73925" lon="4.91462">
        <ele>218.83728</ele>
        <time>2011-01-23T13:58:18Z</time>
      </trkpt>
      <trkpt lat="43.73913" lon="4.91475">
        <ele>220.279175</ele>
        <time>2011-01-23T13:58:33Z</time>
      </trkpt>
      <trkpt lat="43.739" lon="4.91488">
        <ele>220.759888</ele>
        <time>2011-01-23T13:58:46Z</time>
      </trkpt>
      <trkpt lat="43.73883" lon="4.91499">
        <ele>222.201782</ele>
        <time>2011-01-23T13:59:02Z</time>
      </trkpt>
      <trkpt lat="43.73874" lon="4.91518">
        <ele>220.279175</ele>
        <time>2011-01-23T13:59:16Z</time>
      </trkpt>
      <trkpt lat="43.73872" lon="4.91533">
        <ele>219.317993</ele>
        <time>2011-01-23T13:59:25Z</time>
      </trkpt>
      <trkpt lat="43.73872" lon="4.91542">
        <ele>219.317993</ele>
        <time>2011-01-23T13:59:30Z</time>
      </trkpt>
      <trkpt lat="43.73874" lon="4.91555">
        <ele>218.356567</ele>
        <time>2011-01-23T13:59:38Z</time>
      </trkpt>
      <trkpt lat="43.73876" lon="4.91567">
        <ele>218.83728</ele>
        <time>2011-01-23T13:59:46Z</time>
      </trkpt>
      <trkpt lat="43.73876" lon="4.91589">
        <ele>220.279175</ele>
        <time>2011-01-23T14:00:00Z</time>
      </trkpt>
      <trkpt lat="43.73872" lon="4.91604">
        <ele>217.875977</ele>
        <time>2011-01-23T14:00:11Z</time>
      </trkpt>
      <trkpt lat="43.73868" lon="4.91615">
        <ele>215.472656</ele>
        <time>2011-01-23T14:00:20Z</time>
      </trkpt>
      <trkpt lat="43.73863" lon="4.91625">
        <ele>214.51123</ele>
        <time>2011-01-23T14:00:30Z</time>
      </trkpt>
      <trkpt lat="43.73857" lon="4.91632">
        <ele>215.472656</ele>
        <time>2011-01-23T14:00:42Z</time>
      </trkpt>
      <trkpt lat="43.7385" lon="4.91636">
        <ele>216.43396</ele>
        <time>2011-01-23T14:00:55Z</time>
      </trkpt>
      <trkpt lat="43.7384" lon="4.91643">
        <ele>217.395386</ele>
        <time>2011-01-23T14:01:07Z</time>
      </trkpt>
      <trkpt lat="43.73829" lon="4.9164">
        <ele>222.201782</ele>
        <time>2011-01-23T14:01:21Z</time>
      </trkpt>
      <trkpt lat="43.73825" lon="4.9164">
        <ele>222.682495</ele>
        <time>2011-01-23T14:01:25Z</time>
      </trkpt>
      <trkpt lat="43.73816" lon="4.9164">
        <ele>223.163208</ele>
        <time>2011-01-23T14:01:36Z</time>
      </trkpt>
      <trkpt lat="43.73807" lon="4.91636">
        <ele>224.124512</ele>
        <time>2011-01-23T14:01:46Z</time>
      </trkpt>
      <trkpt lat="43.73799" lon="4.91632">
        <ele>224.605225</ele>
        <time>2011-01-23T14:01:55Z</time>
      </trkpt>
      <trkpt lat="43.73795" lon="4.9163">
        <ele>224.605225</ele>
        <time>2011-01-23T14:02:00Z</time>
      </trkpt>
      <trkpt lat="43.73786" lon="4.91628">
        <ele>226.047119</ele>
        <time>2011-01-23T14:02:05Z</time>
      </trkpt>
      <trkpt lat="43.73775" lon="4.91632">
        <ele>221.721191</ele>
        <time>2011-01-23T14:02:11Z</time>
      </trkpt>
      <trkpt lat="43.73769" lon="4.91638">
        <ele>219.798584</ele>
        <time>2011-01-23T14:02:16Z</time>
      </trkpt>
      <trkpt lat="43.73767" lon="4.91645">
        <ele>218.356567</ele>
        <time>2011-01-23T14:02:20Z</time>
      </trkpt>
      <trkpt lat="43.73762" lon="4.91651">
        <ele>218.356567</ele>
        <time>2011-01-23T14:02:25Z</time>
      </trkpt>
      <trkpt lat="43.73756" lon="4.9166">
        <ele>219.798584</ele>
        <time>2011-01-23T14:02:32Z</time>
      </trkpt>
      <trkpt lat="43.73754" lon="4.91673">
        <ele>219.317993</ele>
        <time>2011-01-23T14:02:40Z</time>
      </trkpt>
      <trkpt lat="43.73745" lon="4.91685">
        <ele>220.759888</ele>
        <time>2011-01-23T14:02:51Z</time>
      </trkpt>
      <trkpt lat="43.73739" lon="4.91698">
        <ele>220.279175</ele>
        <time>2011-01-23T14:03:00Z</time>
      </trkpt>
      <trkpt lat="43.73737" lon="4.91707">
        <ele>221.240601</ele>
        <time>2011-01-23T14:03:04Z</time>
      </trkpt>
      <trkpt lat="43.7373" lon="4.91739">
        <ele>216.43396</ele>
        <time>2011-01-23T14:03:22Z</time>
      </trkpt>
      <trkpt lat="43.73722" lon="4.9175">
        <ele>216.914673</ele>
        <time>2011-01-23T14:03:33Z</time>
      </trkpt>
      <trkpt lat="43.73717" lon="4.91756">
        <ele>215.472656</ele>
        <time>2011-01-23T14:03:41Z</time>
      </trkpt>
      <trkpt lat="43.73713" lon="4.91761">
        <ele>214.991943</ele>
        <time>2011-01-23T14:03:46Z</time>
      </trkpt>
      <trkpt lat="43.73702" lon="4.91771">
        <ele>217.395386</ele>
        <time>2011-01-23T14:04:02Z</time>
      </trkpt>
      <trkpt lat="43.73687" lon="4.91786">
        <ele>215.953247</ele>
        <time>2011-01-23T14:04:19Z</time>
      </trkpt>
      <trkpt lat="43.73674" lon="4.91797">
        <ele>215.472656</ele>
        <time>2011-01-23T14:04:32Z</time>
      </trkpt>
      <trkpt lat="43.73668" lon="4.91808">
        <ele>214.03064</ele>
        <time>2011-01-23T14:04:41Z</time>
      </trkpt>
      <trkpt lat="43.73666" lon="4.91812">
        <ele>215.472656</ele>
        <time>2011-01-23T14:04:46Z</time>
      </trkpt>
      <trkpt lat="43.73664" lon="4.91821">
        <ele>215.472656</ele>
        <time>2011-01-23T14:04:51Z</time>
      </trkpt>
      <trkpt lat="43.73657" lon="4.91831">
        <ele>214.03064</ele>
        <time>2011-01-23T14:04:58Z</time>
      </trkpt>
      <trkpt lat="43.73655" lon="4.91838">
        <ele>214.51123</ele>
        <time>2011-01-23T14:05:02Z</time>
      </trkpt>
      <trkpt lat="43.73653" lon="4.91844">
        <ele>214.51123</ele>
        <time>2011-01-23T14:05:07Z</time>
      </trkpt>
      <trkpt lat="43.73649" lon="4.91859">
        <ele>214.991943</ele>
        <time>2011-01-23T14:05:19Z</time>
      </trkpt>
      <trkpt lat="43.73647" lon="4.91876">
        <ele>216.43396</ele>
        <time>2011-01-23T14:05:31Z</time>
      </trkpt>
      <trkpt lat="43.7364" lon="4.91896">
        <ele>216.43396</ele>
        <time>2011-01-23T14:05:44Z</time>
      </trkpt>
      <trkpt lat="43.73634" lon="4.91917">
        <ele>215.472656</ele>
        <time>2011-01-23T14:05:58Z</time>
      </trkpt>
      <trkpt lat="43.73629" lon="4.91928">
        <ele>215.953247</ele>
        <time>2011-01-23T14:06:07Z</time>
      </trkpt>
      <trkpt lat="43.73627" lon="4.91936">
        <ele>216.914673</ele>
        <time>2011-01-23T14:06:14Z</time>
      </trkpt>
      <trkpt lat="43.73617" lon="4.91952">
        <ele>217.395386</ele>
        <time>2011-01-23T14:06:28Z</time>
      </trkpt>
      <trkpt lat="43.73612" lon="4.9196">
        <ele>218.356567</ele>
        <time>2011-01-23T14:06:36Z</time>
      </trkpt>
      <trkpt lat="43.73606" lon="4.91969">
        <ele>219.798584</ele>
        <time>2011-01-23T14:06:45Z</time>
      </trkpt>
      <trkpt lat="43.73597" lon="4.91979">
        <ele>223.163208</ele>
        <time>2011-01-23T14:06:58Z</time>
      </trkpt>
      <trkpt lat="43.7358" lon="4.91988">
        <ele>227.008545</ele>
        <time>2011-01-23T14:07:14Z</time>
      </trkpt>
      <trkpt lat="43.73569" lon="4.91992">
        <ele>227.969727</ele>
        <time>2011-01-23T14:07:25Z</time>
      </trkpt>
      <trkpt lat="43.73561" lon="4.92001">
        <ele>227.008545</ele>
        <time>2011-01-23T14:07:36Z</time>
      </trkpt>
      <trkpt lat="43.7355" lon="4.92012">
        <ele>229.411743</ele>
        <time>2011-01-23T14:07:48Z</time>
      </trkpt>
      <trkpt lat="43.73546" lon="4.92018">
        <ele>230.373047</ele>
        <time>2011-01-23T14:07:55Z</time>
      </trkpt>
      <trkpt lat="43.73544" lon="4.9202">
        <ele>230.85376</ele>
        <time>2011-01-23T14:07:58Z</time>
      </trkpt>
      <trkpt lat="43.73539" lon="4.92024">
        <ele>232.295776</ele>
        <time>2011-01-23T14:08:03Z</time>
      </trkpt>
      <trkpt lat="43.73529" lon="4.92044">
        <ele>231.334351</ele>
        <time>2011-01-23T14:08:20Z</time>
      </trkpt>
      <trkpt lat="43.7352" lon="4.92063">
        <ele>231.334351</ele>
        <time>2011-01-23T14:08:34Z</time>
      </trkpt>
      <trkpt lat="43.73507" lon="4.92078">
        <ele>232.295776</ele>
        <time>2011-01-23T14:08:48Z</time>
      </trkpt>
      <trkpt lat="43.73505" lon="4.92085">
        <ele>231.814941</ele>
        <time>2011-01-23T14:08:53Z</time>
      </trkpt>
      <trkpt lat="43.73503" lon="4.92085">
        <ele>232.295776</ele>
        <time>2011-01-23T14:08:55Z</time>
      </trkpt>
      <trkpt lat="43.73494" lon="4.92102">
        <ele>231.334351</ele>
        <time>2011-01-23T14:09:08Z</time>
      </trkpt>
      <trkpt lat="43.73492" lon="4.92104">
        <ele>231.814941</ele>
        <time>2011-01-23T14:09:11Z</time>
      </trkpt>
      <trkpt lat="43.73488" lon="4.9211">
        <ele>232.295776</ele>
        <time>2011-01-23T14:09:16Z</time>
      </trkpt>
      <trkpt lat="43.73481" lon="4.92123">
        <ele>235.179688</ele>
        <time>2011-01-23T14:09:26Z</time>
      </trkpt>
      <trkpt lat="43.73471" lon="4.9214">
        <ele>237.582886</ele>
        <time>2011-01-23T14:09:40Z</time>
      </trkpt>
      <trkpt lat="43.73464" lon="4.92149">
        <ele>239.024902</ele>
        <time>2011-01-23T14:09:49Z</time>
      </trkpt>
      <trkpt lat="43.73458" lon="4.92166">
        <ele>239.505493</ele>
        <time>2011-01-23T14:10:01Z</time>
      </trkpt>
      <trkpt lat="43.73447" lon="4.92183">
        <ele>239.505493</ele>
        <time>2011-01-23T14:10:14Z</time>
      </trkpt>
      <trkpt lat="43.73438" lon="4.92203">
        <ele>237.582886</ele>
        <time>2011-01-23T14:10:28Z</time>
      </trkpt>
      <trkpt lat="43.73434" lon="4.92218">
        <ele>236.140991</ele>
        <time>2011-01-23T14:10:39Z</time>
      </trkpt>
      <trkpt lat="43.7343" lon="4.92228">
        <ele>234.218384</ele>
        <time>2011-01-23T14:10:45Z</time>
      </trkpt>
      <trkpt lat="43.73428" lon="4.9223">
        <ele>233.25708</ele>
        <time>2011-01-23T14:10:47Z</time>
      </trkpt>
      <trkpt lat="43.73419" lon="4.92245">
        <ele>232.295776</ele>
        <time>2011-01-23T14:10:59Z</time>
      </trkpt>
      <trkpt lat="43.73415" lon="4.92256">
        <ele>233.25708</ele>
        <time>2011-01-23T14:11:07Z</time>
      </trkpt>
      <trkpt lat="43.73411" lon="4.92276">
        <ele>232.295776</ele>
        <time>2011-01-23T14:11:23Z</time>
      </trkpt>
      <trkpt lat="43.73406" lon="4.92284">
        <ele>231.814941</ele>
        <time>2011-01-23T14:11:31Z</time>
      </trkpt>
      <trkpt lat="43.73404" lon="4.92291">
        <ele>231.814941</ele>
        <time>2011-01-23T14:11:37Z</time>
      </trkpt>
      <trkpt lat="43.73402" lon="4.92295">
        <ele>232.295776</ele>
        <time>2011-01-23T14:11:40Z</time>
      </trkpt>
      <trkpt lat="43.73398" lon="4.92301">
        <ele>231.814941</ele>
        <time>2011-01-23T14:11:46Z</time>
      </trkpt>
      <trkpt lat="43.73389" lon="4.92318">
        <ele>232.776489</ele>
        <time>2011-01-23T14:12:00Z</time>
      </trkpt>
      <trkpt lat="43.73387" lon="4.92323">
        <ele>232.776489</ele>
        <time>2011-01-23T14:12:04Z</time>
      </trkpt>
      <trkpt lat="43.73378" lon="4.92338">
        <ele>229.892334</ele>
        <time>2011-01-23T14:12:15Z</time>
      </trkpt>
      <trkpt lat="43.73374" lon="4.92346">
        <ele>230.85376</ele>
        <time>2011-01-23T14:12:21Z</time>
      </trkpt>
      <trkpt lat="43.73372" lon="4.92353">
        <ele>230.85376</ele>
        <time>2011-01-23T14:12:26Z</time>
      </trkpt>
      <trkpt lat="43.73365" lon="4.92366">
        <ele>229.892334</ele>
        <time>2011-01-23T14:12:37Z</time>
      </trkpt>
      <trkpt lat="43.73365" lon="4.92368">
        <ele>229.892334</ele>
        <time>2011-01-23T14:12:39Z</time>
      </trkpt>
      <trkpt lat="43.73363" lon="4.9237">
        <ele>229.892334</ele>
        <time>2011-01-23T14:12:42Z</time>
      </trkpt>
      <trkpt lat="43.73355" lon="4.92381">
        <ele>231.334351</ele>
        <time>2011-01-23T14:12:54Z</time>
      </trkpt>
      <trkpt lat="43.73346" lon="4.92396">
        <ele>234.699097</ele>
        <time>2011-01-23T14:13:09Z</time>
      </trkpt>
      <trkpt lat="43.73344" lon="4.92402">
        <ele>234.699097</ele>
        <time>2011-01-23T14:13:15Z</time>
      </trkpt>
      <trkpt lat="43.7334" lon="4.92411">
        <ele>238.544312</ele>
        <time>2011-01-23T14:13:28Z</time>
      </trkpt>
      <trkpt lat="43.73335" lon="4.92417">
        <ele>239.024902</ele>
        <time>2011-01-23T14:13:34Z</time>
      </trkpt>
      <trkpt lat="43.73327" lon="4.92428">
        <ele>239.505493</ele>
        <time>2011-01-23T14:13:44Z</time>
      </trkpt>
      <trkpt lat="43.73318" lon="4.92443">
        <ele>238.544312</ele>
        <time>2011-01-23T14:13:57Z</time>
      </trkpt>
      <trkpt lat="43.73318" lon="4.92449">
        <ele>237.102295</ele>
        <time>2011-01-23T14:14:02Z</time>
      </trkpt>
      <trkpt lat="43.73316" lon="4.92454">
        <ele>236.140991</ele>
        <time>2011-01-23T14:14:05Z</time>
      </trkpt>
      <trkpt lat="43.7331" lon="4.92466">
        <ele>234.699097</ele>
        <time>2011-01-23T14:14:16Z</time>
      </trkpt>
      <trkpt lat="43.7331" lon="4.92469">
        <ele>235.179688</ele>
        <time>2011-01-23T14:14:18Z</time>
      </trkpt>
      <trkpt lat="43.73303" lon="4.92479">
        <ele>236.621704</ele>
        <time>2011-01-23T14:14:26Z</time>
      </trkpt>
      <trkpt lat="43.73292" lon="4.92492">
        <ele>239.505493</ele>
        <time>2011-01-23T14:14:40Z</time>
      </trkpt>
      <trkpt lat="43.73286" lon="4.92501">
        <ele>240.467041</ele>
        <time>2011-01-23T14:14:48Z</time>
      </trkpt>
      <trkpt lat="43.73277" lon="4.92518">
        <ele>241.428223</ele>
        <time>2011-01-23T14:15:02Z</time>
      </trkpt>
      <trkpt lat="43.73267" lon="4.92531">
        <ele>241.908936</ele>
        <time>2011-01-23T14:15:15Z</time>
      </trkpt>
      <trkpt lat="43.7326" lon="4.92542">
        <ele>241.428223</ele>
        <time>2011-01-23T14:15:23Z</time>
      </trkpt>
      <trkpt lat="43.73258" lon="4.92544">
        <ele>242.389648</ele>
        <time>2011-01-23T14:15:27Z</time>
      </trkpt>
      <trkpt lat="43.73247" lon="4.92561">
        <ele>243.831543</ele>
        <time>2011-01-23T14:15:42Z</time>
      </trkpt>
      <trkpt lat="43.73245" lon="4.92561">
        <ele>244.312256</ele>
        <time>2011-01-23T14:15:43Z</time>
      </trkpt>
      <trkpt lat="43.73243" lon="4.92565">
        <ele>245.75415</ele>
        <time>2011-01-23T14:15:46Z</time>
      </trkpt>
      <trkpt lat="43.73239" lon="4.92569">
        <ele>246.234863</ele>
        <time>2011-01-23T14:15:51Z</time>
      </trkpt>
      <trkpt lat="43.73226" lon="4.92585">
        <ele>247.196045</ele>
        <time>2011-01-23T14:16:05Z</time>
      </trkpt>
      <trkpt lat="43.7322" lon="4.92591">
        <ele>246.715454</ele>
        <time>2011-01-23T14:16:12Z</time>
      </trkpt>
      <trkpt lat="43.73209" lon="4.92602">
        <ele>247.676758</ele>
        <time>2011-01-23T14:16:25Z</time>
      </trkpt>
      <trkpt lat="43.73192" lon="4.92612">
        <ele>247.676758</ele>
        <time>2011-01-23T14:16:40Z</time>
      </trkpt>
      <trkpt lat="43.73179" lon="4.92617">
        <ele>245.75415</ele>
        <time>2011-01-23T14:16:52Z</time>
      </trkpt>
      <trkpt lat="43.73162" lon="4.92619">
        <ele>243.35083</ele>
        <time>2011-01-23T14:17:07Z</time>
      </trkpt>
      <trkpt lat="43.73159" lon="4.92619">
        <ele>241.908936</ele>
        <time>2011-01-23T14:17:10Z</time>
      </trkpt>
      <trkpt lat="43.73147" lon="4.92621">
        <ele>240.467041</ele>
        <time>2011-01-23T14:17:22Z</time>
      </trkpt>
      <trkpt lat="43.73138" lon="4.92621">
        <ele>241.428223</ele>
        <time>2011-01-23T14:17:30Z</time>
      </trkpt>
      <trkpt lat="43.73134" lon="4.92621">
        <ele>241.908936</ele>
        <time>2011-01-23T14:17:34Z</time>
      </trkpt>
      <trkpt lat="43.73123" lon="4.92623">
        <ele>242.389648</ele>
        <time>2011-01-23T14:17:44Z</time>
      </trkpt>
      <trkpt lat="43.7311" lon="4.92625">
        <ele>242.389648</ele>
        <time>2011-01-23T14:17:56Z</time>
      </trkpt>
      <trkpt lat="43.73093" lon="4.92627">
        <ele>243.35083</ele>
        <time>2011-01-23T14:18:10Z</time>
      </trkpt>
      <trkpt lat="43.73078" lon="4.92627">
        <ele>244.312256</ele>
        <time>2011-01-23T14:18:25Z</time>
      </trkpt>
      <trkpt lat="43.73059" lon="4.92632">
        <ele>246.234863</ele>
        <time>2011-01-23T14:18:41Z</time>
      </trkpt>
      <trkpt lat="43.73044" lon="4.92634">
        <ele>245.75415</ele>
        <time>2011-01-23T14:18:54Z</time>
      </trkpt>
      <trkpt lat="43.73029" lon="4.92634">
        <ele>245.273438</ele>
        <time>2011-01-23T14:19:09Z</time>
      </trkpt>
      <trkpt lat="43.73026" lon="4.92634">
        <ele>244.792847</ele>
        <time>2011-01-23T14:19:11Z</time>
      </trkpt>
      <trkpt lat="43.73007" lon="4.92636">
        <ele>242.870239</ele>
        <time>2011-01-23T14:19:26Z</time>
      </trkpt>
      <trkpt lat="43.7299" lon="4.92634">
        <ele>240.467041</ele>
        <time>2011-01-23T14:19:41Z</time>
      </trkpt>
      <trkpt lat="43.72988" lon="4.92632">
        <ele>238.544312</ele>
        <time>2011-01-23T14:19:46Z</time>
      </trkpt>
      <trkpt lat="43.72973" lon="4.92621">
        <ele>234.218384</ele>
        <time>2011-01-23T14:19:59Z</time>
      </trkpt>
      <trkpt lat="43.72956" lon="4.92608">
        <ele>228.450439</ele>
        <time>2011-01-23T14:20:14Z</time>
      </trkpt>
      <trkpt lat="43.72941" lon="4.926">
        <ele>226.527832</ele>
        <time>2011-01-23T14:20:29Z</time>
      </trkpt>
      <trkpt lat="43.72926" lon="4.92589">
        <ele>225.566528</ele>
        <time>2011-01-23T14:20:43Z</time>
      </trkpt>
      <trkpt lat="43.72906" lon="4.92578">
        <ele>227.969727</ele>
        <time>2011-01-23T14:21:00Z</time>
      </trkpt>
      <trkpt lat="43.72887" lon="4.92563">
        <ele>227.008545</ele>
        <time>2011-01-23T14:21:18Z</time>
      </trkpt>
      <trkpt lat="43.7287" lon="4.92557">
        <ele>225.085938</ele>
        <time>2011-01-23T14:21:32Z</time>
      </trkpt>
      <trkpt lat="43.72855" lon="4.92546">
        <ele>225.566528</ele>
        <time>2011-01-23T14:21:47Z</time>
      </trkpt>
      <trkpt lat="43.7284" lon="4.92537">
        <ele>226.047119</ele>
        <time>2011-01-23T14:22:01Z</time>
      </trkpt>
      <trkpt lat="43.72833" lon="4.92535">
        <ele>226.047119</ele>
        <time>2011-01-23T14:22:06Z</time>
      </trkpt>
      <trkpt lat="43.7282" lon="4.92535">
        <ele>225.085938</ele>
        <time>2011-01-23T14:22:19Z</time>
      </trkpt>
      <trkpt lat="43.72812" lon="4.92535">
        <ele>225.566528</ele>
        <time>2011-01-23T14:22:27Z</time>
      </trkpt>
      <trkpt lat="43.72799" lon="4.92535">
        <ele>225.085938</ele>
        <time>2011-01-23T14:22:40Z</time>
      </trkpt>
      <trkpt lat="43.72788" lon="4.92535">
        <ele>223.163208</ele>
        <time>2011-01-23T14:22:52Z</time>
      </trkpt>
      <trkpt lat="43.72786" lon="4.92535">
        <ele>221.721191</ele>
        <time>2011-01-23T14:22:55Z</time>
      </trkpt>
      <trkpt lat="43.72775" lon="4.92542">
        <ele>219.317993</ele>
        <time>2011-01-23T14:23:09Z</time>
      </trkpt>
      <trkpt lat="43.72773" lon="4.92544">
        <ele>218.83728</ele>
        <time>2011-01-23T14:23:15Z</time>
      </trkpt>
      <trkpt lat="43.72762" lon="4.9255">
        <ele>218.356567</ele>
        <time>2011-01-23T14:23:28Z</time>
      </trkpt>
      <trkpt lat="43.72762" lon="4.9255">
        <ele>217.875977</ele>
        <time>2011-01-23T14:23:30Z</time>
      </trkpt>
      <trkpt lat="43.72756" lon="4.92557">
        <ele>215.472656</ele>
        <time>2011-01-23T14:23:38Z</time>
      </trkpt>
      <trkpt lat="43.72745" lon="4.92565">
        <ele>214.51123</ele>
        <time>2011-01-23T14:23:50Z</time>
      </trkpt>
      <trkpt lat="43.72743" lon="4.92567">
        <ele>214.991943</ele>
        <time>2011-01-23T14:23:52Z</time>
      </trkpt>
      <trkpt lat="43.72732" lon="4.92578">
        <ele>216.914673</ele>
        <time>2011-01-23T14:24:05Z</time>
      </trkpt>
      <trkpt lat="43.72722" lon="4.92591">
        <ele>215.953247</ele>
        <time>2011-01-23T14:24:17Z</time>
      </trkpt>
      <trkpt lat="43.7272" lon="4.92595">
        <ele>215.953247</ele>
        <time>2011-01-23T14:24:20Z</time>
      </trkpt>
      <trkpt lat="43.72705" lon="4.92602">
        <ele>216.914673</ele>
        <time>2011-01-23T14:24:34Z</time>
      </trkpt>
      <trkpt lat="43.7269" lon="4.926">
        <ele>222.201782</ele>
        <time>2011-01-23T14:24:49Z</time>
      </trkpt>
      <trkpt lat="43.72675" lon="4.92593">
        <ele>227.969727</ele>
        <time>2011-01-23T14:25:03Z</time>
      </trkpt>
      <trkpt lat="43.72657" lon="4.92595">
        <ele>227.969727</ele>
        <time>2011-01-23T14:25:18Z</time>
      </trkpt>
      <trkpt lat="43.72655" lon="4.92595">
        <ele>227.489136</ele>
        <time>2011-01-23T14:25:20Z</time>
      </trkpt>
      <trkpt lat="43.72644" lon="4.92591">
        <ele>223.643799</ele>
        <time>2011-01-23T14:25:32Z</time>
      </trkpt>
      <trkpt lat="43.72636" lon="4.92591">
        <ele>222.682495</ele>
        <time>2011-01-23T14:25:47Z</time>
      </trkpt>
      <trkpt lat="43.72627" lon="4.92587">
        <ele>222.682495</ele>
        <time>2011-01-23T14:25:55Z</time>
      </trkpt>
      <trkpt lat="43.72604" lon="4.9258">
        <ele>222.201782</ele>
        <time>2011-01-23T14:26:12Z</time>
      </trkpt>
      <trkpt lat="43.72593" lon="4.9258">
        <ele>222.682495</ele>
        <time>2011-01-23T14:26:21Z</time>
      </trkpt>
      <trkpt lat="43.7258" lon="4.92589">
        <ele>222.201782</ele>
        <time>2011-01-23T14:26:33Z</time>
      </trkpt>
      <trkpt lat="43.72572" lon="4.92602">
        <ele>222.682495</ele>
        <time>2011-01-23T14:26:43Z</time>
      </trkpt>
      <trkpt lat="43.72567" lon="4.92621">
        <ele>222.682495</ele>
        <time>2011-01-23T14:26:55Z</time>
      </trkpt>
      <trkpt lat="43.72563" lon="4.92638">
        <ele>222.682495</ele>
        <time>2011-01-23T14:27:07Z</time>
      </trkpt>
      <trkpt lat="43.72556" lon="4.92655">
        <ele>221.721191</ele>
        <time>2011-01-23T14:27:20Z</time>
      </trkpt>
      <trkpt lat="43.72556" lon="4.92655">
        <ele>221.721191</ele>
        <time>2011-01-23T14:27:21Z</time>
      </trkpt>
      <trkpt lat="43.7255" lon="4.92666">
        <ele>223.163208</ele>
        <time>2011-01-23T14:27:31Z</time>
      </trkpt>
      <trkpt lat="43.72544" lon="4.9267">
        <ele>224.124512</ele>
        <time>2011-01-23T14:27:37Z</time>
      </trkpt>
      <trkpt lat="43.72544" lon="4.92672">
        <ele>225.085938</ele>
        <time>2011-01-23T14:27:39Z</time>
      </trkpt>
      <trkpt lat="43.72541" lon="4.92675">
        <ele>226.527832</ele>
        <time>2011-01-23T14:27:43Z</time>
      </trkpt>
      <trkpt lat="43.72537" lon="4.92681">
        <ele>227.489136</ele>
        <time>2011-01-23T14:27:50Z</time>
      </trkpt>
      <trkpt lat="43.72522" lon="4.92692">
        <ele>225.085938</ele>
        <time>2011-01-23T14:28:04Z</time>
      </trkpt>
      <trkpt lat="43.72518" lon="4.92696">
        <ele>225.085938</ele>
        <time>2011-01-23T14:28:09Z</time>
      </trkpt>
      <trkpt lat="43.72505" lon="4.92705">
        <ele>227.969727</ele>
        <time>2011-01-23T14:28:23Z</time>
      </trkpt>
      <trkpt lat="43.72494" lon="4.92711">
        <ele>230.85376</ele>
        <time>2011-01-23T14:28:37Z</time>
      </trkpt>
      <trkpt lat="43.72488" lon="4.92718">
        <ele>230.85376</ele>
        <time>2011-01-23T14:28:44Z</time>
      </trkpt>
      <trkpt lat="43.72475" lon="4.92728">
        <ele>232.776489</ele>
        <time>2011-01-23T14:28:59Z</time>
      </trkpt>
      <trkpt lat="43.72466" lon="4.92737">
        <ele>236.140991</ele>
        <time>2011-01-23T14:29:10Z</time>
      </trkpt>
      <trkpt lat="43.72456" lon="4.92745">
        <ele>237.102295</ele>
        <time>2011-01-23T14:29:24Z</time>
      </trkpt>
      <trkpt lat="43.72445" lon="4.92758">
        <ele>237.582886</ele>
        <time>2011-01-23T14:29:38Z</time>
      </trkpt>
      <trkpt lat="43.72441" lon="4.92763">
        <ele>237.582886</ele>
        <time>2011-01-23T14:29:43Z</time>
      </trkpt>
      <trkpt lat="43.72428" lon="4.92771">
        <ele>239.024902</ele>
        <time>2011-01-23T14:29:58Z</time>
      </trkpt>
      <trkpt lat="43.72408" lon="4.92778">
        <ele>238.063599</ele>
        <time>2011-01-23T14:30:14Z</time>
      </trkpt>
      <trkpt lat="43.72391" lon="4.92784">
        <ele>236.140991</ele>
        <time>2011-01-23T14:30:29Z</time>
      </trkpt>
      <trkpt lat="43.72378" lon="4.92786">
        <ele>236.140991</ele>
        <time>2011-01-23T14:30:43Z</time>
      </trkpt>
      <trkpt lat="43.72361" lon="4.92795">
        <ele>234.699097</ele>
        <time>2011-01-23T14:30:57Z</time>
      </trkpt>
      <trkpt lat="43.72346" lon="4.92801">
        <ele>234.218384</ele>
        <time>2011-01-23T14:31:12Z</time>
      </trkpt>
      <trkpt lat="43.72335" lon="4.92808">
        <ele>231.814941</ele>
        <time>2011-01-23T14:31:24Z</time>
      </trkpt>
      <trkpt lat="43.7232" lon="4.92814">
        <ele>228.931152</ele>
        <time>2011-01-23T14:31:37Z</time>
      </trkpt>
      <trkpt lat="43.72314" lon="4.92816">
        <ele>228.931152</ele>
        <time>2011-01-23T14:31:44Z</time>
      </trkpt>
      <trkpt lat="43.72299" lon="4.92823">
        <ele>229.411743</ele>
        <time>2011-01-23T14:31:58Z</time>
      </trkpt>
      <trkpt lat="43.72297" lon="4.92823">
        <ele>229.411743</ele>
        <time>2011-01-23T14:32:00Z</time>
      </trkpt>
      <trkpt lat="43.72295" lon="4.92825">
        <ele>229.892334</ele>
        <time>2011-01-23T14:32:04Z</time>
      </trkpt>
      <trkpt lat="43.72288" lon="4.92827">
        <ele>229.892334</ele>
        <time>2011-01-23T14:32:11Z</time>
      </trkpt>
      <trkpt lat="43.72275" lon="4.92833">
        <ele>227.969727</ele>
        <time>2011-01-23T14:32:23Z</time>
      </trkpt>
      <trkpt lat="43.7226" lon="4.92838">
        <ele>227.969727</ele>
        <time>2011-01-23T14:32:36Z</time>
      </trkpt>
      <trkpt lat="43.7225" lon="4.92842">
        <ele>227.969727</ele>
        <time>2011-01-23T14:32:48Z</time>
      </trkpt>
      <trkpt lat="43.72237" lon="4.92848">
        <ele>226.047119</ele>
        <time>2011-01-23T14:33:02Z</time>
      </trkpt>
      <trkpt lat="43.72222" lon="4.92855">
        <ele>226.527832</ele>
        <time>2011-01-23T14:33:15Z</time>
      </trkpt>
      <trkpt lat="43.72209" lon="4.92857">
        <ele>227.969727</ele>
        <time>2011-01-23T14:33:28Z</time>
      </trkpt>
      <trkpt lat="43.72196" lon="4.92863">
        <ele>227.008545</ele>
        <time>2011-01-23T14:33:40Z</time>
      </trkpt>
      <trkpt lat="43.72192" lon="4.92866">
        <ele>226.047119</ele>
        <time>2011-01-23T14:33:44Z</time>
      </trkpt>
      <trkpt lat="43.72177" lon="4.92872">
        <ele>224.124512</ele>
        <time>2011-01-23T14:33:58Z</time>
      </trkpt>
      <trkpt lat="43.72164" lon="4.92872">
        <ele>224.124512</ele>
        <time>2011-01-23T14:34:12Z</time>
      </trkpt>
      <trkpt lat="43.72153" lon="4.9287">
        <ele>221.721191</ele>
        <time>2011-01-23T14:34:25Z</time>
      </trkpt>
      <trkpt lat="43.72147" lon="4.92872">
        <ele>220.759888</ele>
        <time>2011-01-23T14:34:30Z</time>
      </trkpt>
      <trkpt lat="43.72142" lon="4.9287">
        <ele>220.279175</ele>
        <time>2011-01-23T14:34:34Z</time>
      </trkpt>
      <trkpt lat="43.7214" lon="4.9287">
        <ele>220.279175</ele>
        <time>2011-01-23T14:34:37Z</time>
      </trkpt>
      <trkpt lat="43.72125" lon="4.92874">
        <ele>222.201782</ele>
        <time>2011-01-23T14:34:50Z</time>
      </trkpt>
      <trkpt lat="43.72114" lon="4.92874">
        <ele>223.163208</ele>
        <time>2011-01-23T14:35:00Z</time>
      </trkpt>
      <trkpt lat="43.72099" lon="4.92872">
        <ele>222.682495</ele>
        <time>2011-01-23T14:35:12Z</time>
      </trkpt>
      <trkpt lat="43.72087" lon="4.92874">
        <ele>220.759888</ele>
        <time>2011-01-23T14:35:26Z</time>
      </trkpt>
      <trkpt lat="43.72074" lon="4.92876">
        <ele>221.240601</ele>
        <time>2011-01-23T14:35:37Z</time>
      </trkpt>
      <trkpt lat="43.72069" lon="4.92876">
        <ele>221.240601</ele>
        <time>2011-01-23T14:35:41Z</time>
      </trkpt>
      <trkpt lat="43.72059" lon="4.92878">
        <ele>220.279175</ele>
        <time>2011-01-23T14:35:52Z</time>
      </trkpt>
      <trkpt lat="43.72042" lon="4.92881">
        <ele>218.356567</ele>
        <time>2011-01-23T14:36:06Z</time>
      </trkpt>
      <trkpt lat="43.72029" lon="4.92883">
        <ele>219.317993</ele>
        <time>2011-01-23T14:36:18Z</time>
      </trkpt>
      <trkpt lat="43.72016" lon="4.92883">
        <ele>220.759888</ele>
        <time>2011-01-23T14:36:32Z</time>
      </trkpt>
      <trkpt lat="43.72005" lon="4.92885">
        <ele>218.356567</ele>
        <time>2011-01-23T14:36:41Z</time>
      </trkpt>
      <trkpt lat="43.71988" lon="4.92885">
        <ele>218.356567</ele>
        <time>2011-01-23T14:36:55Z</time>
      </trkpt>
      <trkpt lat="43.71971" lon="4.92891">
        <ele>218.356567</ele>
        <time>2011-01-23T14:37:10Z</time>
      </trkpt>
      <trkpt lat="43.71956" lon="4.92891">
        <ele>216.914673</ele>
        <time>2011-01-23T14:37:24Z</time>
      </trkpt>
      <trkpt lat="43.71936" lon="4.92891">
        <ele>215.953247</ele>
        <time>2011-01-23T14:37:38Z</time>
      </trkpt>
      <trkpt lat="43.71921" lon="4.92896">
        <ele>217.875977</ele>
        <time>2011-01-23T14:37:51Z</time>
      </trkpt>
      <trkpt lat="43.71915" lon="4.929">
        <ele>218.356567</ele>
        <time>2011-01-23T14:37:57Z</time>
      </trkpt>
      <trkpt lat="43.71913" lon="4.92906">
        <ele>216.43396</ele>
        <time>2011-01-23T14:38:03Z</time>
      </trkpt>
      <trkpt lat="43.71911" lon="4.92909">
        <ele>215.472656</ele>
        <time>2011-01-23T14:38:05Z</time>
      </trkpt>
      <trkpt lat="43.71902" lon="4.92917">
        <ele>214.51123</ele>
        <time>2011-01-23T14:38:15Z</time>
      </trkpt>
      <trkpt lat="43.71891" lon="4.9293">
        <ele>215.953247</ele>
        <time>2011-01-23T14:38:31Z</time>
      </trkpt>
      <trkpt lat="43.71883" lon="4.92941">
        <ele>214.03064</ele>
        <time>2011-01-23T14:38:42Z</time>
      </trkpt>
      <trkpt lat="43.71872" lon="4.92956">
        <ele>212.108032</ele>
        <time>2011-01-23T14:38:56Z</time>
      </trkpt>
      <trkpt lat="43.71861" lon="4.92964">
        <ele>211.627441</ele>
        <time>2011-01-23T14:39:09Z</time>
      </trkpt>
      <trkpt lat="43.71848" lon="4.92971">
        <ele>212.588623</ele>
        <time>2011-01-23T14:39:24Z</time>
      </trkpt>
      <trkpt lat="43.71836" lon="4.92977">
        <ele>210.666016</ele>
        <time>2011-01-23T14:39:38Z</time>
      </trkpt>
      <trkpt lat="43.71823" lon="4.92988">
        <ele>207.782104</ele>
        <time>2011-01-23T14:39:55Z</time>
      </trkpt>
      <trkpt lat="43.7182" lon="4.92992">
        <ele>208.262817</ele>
        <time>2011-01-23T14:39:59Z</time>
      </trkpt>
      <trkpt lat="43.71816" lon="4.92992">
        <ele>208.262817</ele>
        <time>2011-01-23T14:40:03Z</time>
      </trkpt>
      <trkpt lat="43.71801" lon="4.93001">
        <ele>206.820679</ele>
        <time>2011-01-23T14:40:18Z</time>
      </trkpt>
      <trkpt lat="43.71793" lon="4.93007">
        <ele>204.898071</ele>
        <time>2011-01-23T14:40:28Z</time>
      </trkpt>
      <trkpt lat="43.7179" lon="4.93009">
        <ele>204.898071</ele>
        <time>2011-01-23T14:40:31Z</time>
      </trkpt>
      <trkpt lat="43.71788" lon="4.93012">
        <ele>204.898071</ele>
        <time>2011-01-23T14:40:33Z</time>
      </trkpt>
      <trkpt lat="43.71786" lon="4.93014">
        <ele>205.378784</ele>
        <time>2011-01-23T14:40:37Z</time>
      </trkpt>
      <trkpt lat="43.71773" lon="4.9302">
        <ele>203.456177</ele>
        <time>2011-01-23T14:40:51Z</time>
      </trkpt>
      <trkpt lat="43.7176" lon="4.93029">
        <ele>199.130127</ele>
        <time>2011-01-23T14:41:05Z</time>
      </trkpt>
      <trkpt lat="43.71756" lon="4.93031">
        <ele>198.649536</ele>
        <time>2011-01-23T14:41:08Z</time>
      </trkpt>
      <trkpt lat="43.71754" lon="4.93035">
        <ele>197.20752</ele>
        <time>2011-01-23T14:41:12Z</time>
      </trkpt>
      <trkpt lat="43.71743" lon="4.93042">
        <ele>194.32373</ele>
        <time>2011-01-23T14:41:25Z</time>
      </trkpt>
      <trkpt lat="43.71733" lon="4.93048">
        <ele>191.439575</ele>
        <time>2011-01-23T14:41:38Z</time>
      </trkpt>
      <trkpt lat="43.7172" lon="4.93059">
        <ele>189.036377</ele>
        <time>2011-01-23T14:41:52Z</time>
      </trkpt>
      <trkpt lat="43.71709" lon="4.93067">
        <ele>188.555786</ele>
        <time>2011-01-23T14:42:02Z</time>
      </trkpt>
      <trkpt lat="43.71702" lon="4.93072">
        <ele>188.075073</ele>
        <time>2011-01-23T14:42:10Z</time>
      </trkpt>
      <trkpt lat="43.717" lon="4.93074">
        <ele>188.075073</ele>
        <time>2011-01-23T14:42:13Z</time>
      </trkpt>
      <trkpt lat="43.71692" lon="4.93076">
        <ele>188.555786</ele>
        <time>2011-01-23T14:42:22Z</time>
      </trkpt>
      <trkpt lat="43.71683" lon="4.9308">
        <ele>187.11377</ele>
        <time>2011-01-23T14:42:31Z</time>
      </trkpt>
      <trkpt lat="43.71672" lon="4.93084">
        <ele>185.191162</ele>
        <time>2011-01-23T14:42:41Z</time>
      </trkpt>
      <trkpt lat="43.71662" lon="4.93093">
        <ele>184.710571</ele>
        <time>2011-01-23T14:42:53Z</time>
      </trkpt>
      <trkpt lat="43.7166" lon="4.93095">
        <ele>184.229858</ele>
        <time>2011-01-23T14:42:54Z</time>
      </trkpt>
      <trkpt lat="43.71655" lon="4.931">
        <ele>184.710571</ele>
        <time>2011-01-23T14:43:02Z</time>
      </trkpt>
      <trkpt lat="43.71651" lon="4.93102">
        <ele>184.229858</ele>
        <time>2011-01-23T14:43:05Z</time>
      </trkpt>
      <trkpt lat="43.71649" lon="4.93104">
        <ele>183.268433</ele>
        <time>2011-01-23T14:43:09Z</time>
      </trkpt>
      <trkpt lat="43.71632" lon="4.93115">
        <ele>181.826416</ele>
        <time>2011-01-23T14:43:24Z</time>
      </trkpt>
      <trkpt lat="43.7163" lon="4.93115">
        <ele>181.826416</ele>
        <time>2011-01-23T14:43:26Z</time>
      </trkpt>
      <trkpt lat="43.71617" lon="4.93121">
        <ele>181.345825</ele>
        <time>2011-01-23T14:43:39Z</time>
      </trkpt>
      <trkpt lat="43.71617" lon="4.93123">
        <ele>180.865234</ele>
        <time>2011-01-23T14:43:41Z</time>
      </trkpt>
      <trkpt lat="43.71602" lon="4.93132">
        <ele>179.903809</ele>
        <time>2011-01-23T14:43:55Z</time>
      </trkpt>
      <trkpt lat="43.71599" lon="4.93134">
        <ele>179.903809</ele>
        <time>2011-01-23T14:43:57Z</time>
      </trkpt>
      <trkpt lat="43.71593" lon="4.93138">
        <ele>179.903809</ele>
        <time>2011-01-23T14:44:05Z</time>
      </trkpt>
      <trkpt lat="43.71589" lon="4.9314">
        <ele>179.903809</ele>
        <time>2011-01-23T14:44:09Z</time>
      </trkpt>
      <trkpt lat="43.71582" lon="4.93145">
        <ele>179.423218</ele>
        <time>2011-01-23T14:44:16Z</time>
      </trkpt>
      <trkpt lat="43.71567" lon="4.93155">
        <ele>179.423218</ele>
        <time>2011-01-23T14:44:31Z</time>
      </trkpt>
      <trkpt lat="43.71559" lon="4.93162">
        <ele>178.461914</ele>
        <time>2011-01-23T14:44:41Z</time>
      </trkpt>
      <trkpt lat="43.71552" lon="4.93166">
        <ele>177.981201</ele>
        <time>2011-01-23T14:44:47Z</time>
      </trkpt>
      <trkpt lat="43.71537" lon="4.93177">
        <ele>178.942627</ele>
        <time>2011-01-23T14:45:02Z</time>
      </trkpt>
      <trkpt lat="43.7152" lon="4.93187">
        <ele>177.02002</ele>
        <time>2011-01-23T14:45:17Z</time>
      </trkpt>
      <trkpt lat="43.71507" lon="4.93198">
        <ele>174.135864</ele>
        <time>2011-01-23T14:45:30Z</time>
      </trkpt>
      <trkpt lat="43.71494" lon="4.93207">
        <ele>174.135864</ele>
        <time>2011-01-23T14:45:43Z</time>
      </trkpt>
      <trkpt lat="43.71488" lon="4.93209">
        <ele>174.135864</ele>
        <time>2011-01-23T14:45:51Z</time>
      </trkpt>
      <trkpt lat="43.71484" lon="4.93211">
        <ele>173.655273</ele>
        <time>2011-01-23T14:45:55Z</time>
      </trkpt>
      <trkpt lat="43.71471" lon="4.9322">
        <ele>171.252075</ele>
        <time>2011-01-23T14:46:08Z</time>
      </trkpt>
      <trkpt lat="43.71458" lon="4.9323">
        <ele>167.887329</ele>
        <time>2011-01-23T14:46:22Z</time>
      </trkpt>
      <trkpt lat="43.71454" lon="4.93235">
        <ele>166.445313</ele>
        <time>2011-01-23T14:46:28Z</time>
      </trkpt>
      <trkpt lat="43.71441" lon="4.93243">
        <ele>167.887329</ele>
        <time>2011-01-23T14:46:42Z</time>
      </trkpt>
      <trkpt lat="43.71424" lon="4.93252">
        <ele>168.368042</ele>
        <time>2011-01-23T14:46:57Z</time>
      </trkpt>
      <trkpt lat="43.71409" lon="4.93263">
        <ele>165.964722</ele>
        <time>2011-01-23T14:47:12Z</time>
      </trkpt>
      <trkpt lat="43.71393" lon="4.93271">
        <ele>165.964722</ele>
        <time>2011-01-23T14:47:26Z</time>
      </trkpt>
      <trkpt lat="43.71381" lon="4.93278">
        <ele>166.445313</ele>
        <time>2011-01-23T14:47:38Z</time>
      </trkpt>
      <trkpt lat="43.71363" lon="4.93282">
        <ele>166.926025</ele>
        <time>2011-01-23T14:47:51Z</time>
      </trkpt>
      <trkpt lat="43.71351" lon="4.93286">
        <ele>171.252075</ele>
        <time>2011-01-23T14:48:04Z</time>
      </trkpt>
      <trkpt lat="43.71338" lon="4.93295">
        <ele>171.732666</ele>
        <time>2011-01-23T14:48:17Z</time>
      </trkpt>
      <trkpt lat="43.71331" lon="4.93299">
        <ele>172.213257</ele>
        <time>2011-01-23T14:48:23Z</time>
      </trkpt>
      <trkpt lat="43.71316" lon="4.9331">
        <ele>170.771362</ele>
        <time>2011-01-23T14:48:36Z</time>
      </trkpt>
      <trkpt lat="43.71303" lon="4.93316">
        <ele>170.290649</ele>
        <time>2011-01-23T14:48:50Z</time>
      </trkpt>
      <trkpt lat="43.7129" lon="4.93325">
        <ele>170.771362</ele>
        <time>2011-01-23T14:49:02Z</time>
      </trkpt>
      <trkpt lat="43.71271" lon="4.93331">
        <ele>167.887329</ele>
        <time>2011-01-23T14:49:17Z</time>
      </trkpt>
      <trkpt lat="43.7126" lon="4.93338">
        <ele>168.368042</ele>
        <time>2011-01-23T14:49:29Z</time>
      </trkpt>
      <trkpt lat="43.71243" lon="4.93344">
        <ele>170.290649</ele>
        <time>2011-01-23T14:49:43Z</time>
      </trkpt>
      <trkpt lat="43.71235" lon="4.93348">
        <ele>170.771362</ele>
        <time>2011-01-23T14:49:52Z</time>
      </trkpt>
      <trkpt lat="43.71233" lon="4.93351">
        <ele>171.252075</ele>
        <time>2011-01-23T14:49:54Z</time>
      </trkpt>
      <trkpt lat="43.71218" lon="4.93359">
        <ele>171.732666</ele>
        <time>2011-01-23T14:50:09Z</time>
      </trkpt>
      <trkpt lat="43.71215" lon="4.93359">
        <ele>171.732666</ele>
        <time>2011-01-23T14:50:10Z</time>
      </trkpt>
      <trkpt lat="43.71207" lon="4.93361">
        <ele>172.69397</ele>
        <time>2011-01-23T14:50:18Z</time>
      </trkpt>
      <trkpt lat="43.71192" lon="4.9337">
        <ele>173.655273</ele>
        <time>2011-01-23T14:50:33Z</time>
      </trkpt>
      <trkpt lat="43.71181" lon="4.93376">
        <ele>173.174683</ele>
        <time>2011-01-23T14:50:43Z</time>
      </trkpt>
      <trkpt lat="43.7117" lon="4.93385">
        <ele>173.174683</ele>
        <time>2011-01-23T14:50:53Z</time>
      </trkpt>
      <trkpt lat="43.71168" lon="4.93387">
        <ele>173.655273</ele>
        <time>2011-01-23T14:50:56Z</time>
      </trkpt>
      <trkpt lat="43.71166" lon="4.93387">
        <ele>173.655273</ele>
        <time>2011-01-23T14:50:58Z</time>
      </trkpt>
      <trkpt lat="43.71155" lon="4.93406">
        <ele>176.058594</ele>
        <time>2011-01-23T14:51:14Z</time>
      </trkpt>
      <trkpt lat="43.71147" lon="4.9343">
        <ele>174.135864</ele>
        <time>2011-01-23T14:51:31Z</time>
      </trkpt>
      <trkpt lat="43.71136" lon="4.93449">
        <ele>175.09729</ele>
        <time>2011-01-23T14:51:46Z</time>
      </trkpt>
      <trkpt lat="43.71123" lon="4.93469">
        <ele>175.09729</ele>
        <time>2011-01-23T14:52:01Z</time>
      </trkpt>
      <trkpt lat="43.71121" lon="4.93471">
        <ele>174.616577</ele>
        <time>2011-01-23T14:52:03Z</time>
      </trkpt>
      <trkpt lat="43.71115" lon="4.93479">
        <ele>174.616577</ele>
        <time>2011-01-23T14:52:11Z</time>
      </trkpt>
      <trkpt lat="43.7111" lon="4.93488">
        <ele>174.135864</ele>
        <time>2011-01-23T14:52:18Z</time>
      </trkpt>
      <trkpt lat="43.71102" lon="4.93499">
        <ele>174.135864</ele>
        <time>2011-01-23T14:52:31Z</time>
      </trkpt>
      <trkpt lat="43.71089" lon="4.93507">
        <ele>173.174683</ele>
        <time>2011-01-23T14:52:44Z</time>
      </trkpt>
      <trkpt lat="43.71082" lon="4.93511">
        <ele>172.69397</ele>
        <time>2011-01-23T14:52:51Z</time>
      </trkpt>
      <trkpt lat="43.71076" lon="4.9352">
        <ele>172.213257</ele>
        <time>2011-01-23T14:52:58Z</time>
      </trkpt>
      <trkpt lat="43.71067" lon="4.93531">
        <ele>169.810059</ele>
        <time>2011-01-23T14:53:10Z</time>
      </trkpt>
      <trkpt lat="43.71057" lon="4.93539">
        <ele>170.290649</ele>
        <time>2011-01-23T14:53:23Z</time>
      </trkpt>
      <trkpt lat="43.71046" lon="4.93546">
        <ele>169.329468</ele>
        <time>2011-01-23T14:53:33Z</time>
      </trkpt>
      <trkpt lat="43.71037" lon="4.93554">
        <ele>168.368042</ele>
        <time>2011-01-23T14:53:42Z</time>
      </trkpt>
      <trkpt lat="43.71033" lon="4.93559">
        <ele>168.848755</ele>
        <time>2011-01-23T14:53:47Z</time>
      </trkpt>
      <trkpt lat="43.71027" lon="4.93565">
        <ele>169.329468</ele>
        <time>2011-01-23T14:53:54Z</time>
      </trkpt>
      <trkpt lat="43.71027" lon="4.93567">
        <ele>169.810059</ele>
        <time>2011-01-23T14:53:56Z</time>
      </trkpt>
      <trkpt lat="43.71018" lon="4.9358">
        <ele>168.848755</ele>
        <time>2011-01-23T14:54:08Z</time>
      </trkpt>
      <trkpt lat="43.71005" lon="4.93589">
        <ele>165.484131</ele>
        <time>2011-01-23T14:54:21Z</time>
      </trkpt>
      <trkpt lat="43.70994" lon="4.93595">
        <ele>165.964722</ele>
        <time>2011-01-23T14:54:33Z</time>
      </trkpt>
      <trkpt lat="43.70979" lon="4.93606">
        <ele>170.290649</ele>
        <time>2011-01-23T14:54:49Z</time>
      </trkpt>
      <trkpt lat="43.70973" lon="4.93612">
        <ele>170.290649</ele>
        <time>2011-01-23T14:54:55Z</time>
      </trkpt>
      <trkpt lat="43.70966" lon="4.93614">
        <ele>168.368042</ele>
        <time>2011-01-23T14:55:04Z</time>
      </trkpt>
      <trkpt lat="43.70964" lon="4.93617">
        <ele>167.887329</ele>
        <time>2011-01-23T14:55:05Z</time>
      </trkpt>
      <trkpt lat="43.70962" lon="4.93621">
        <ele>166.926025</ele>
        <time>2011-01-23T14:55:09Z</time>
      </trkpt>
      <trkpt lat="43.7096" lon="4.93621">
        <ele>166.926025</ele>
        <time>2011-01-23T14:55:10Z</time>
      </trkpt>
      <trkpt lat="43.70954" lon="4.9363">
        <ele>164.042114</ele>
        <time>2011-01-23T14:55:17Z</time>
      </trkpt>
      <trkpt lat="43.70949" lon="4.93636">
        <ele>162.119507</ele>
        <time>2011-01-23T14:55:23Z</time>
      </trkpt>
      <trkpt lat="43.70943" lon="4.93642">
        <ele>161.638916</ele>
        <time>2011-01-23T14:55:30Z</time>
      </trkpt>
      <trkpt lat="43.70941" lon="4.93649">
        <ele>160.67749</ele>
        <time>2011-01-23T14:55:35Z</time>
      </trkpt>
      <trkpt lat="43.70939" lon="4.93651">
        <ele>160.67749</ele>
        <time>2011-01-23T14:55:37Z</time>
      </trkpt>
      <trkpt lat="43.70932" lon="4.93666">
        <ele>157.312866</ele>
        <time>2011-01-23T14:55:48Z</time>
      </trkpt>
      <trkpt lat="43.70926" lon="4.93683">
        <ele>156.832153</ele>
        <time>2011-01-23T14:56:00Z</time>
      </trkpt>
      <trkpt lat="43.70921" lon="4.93694">
        <ele>155.870972</ele>
        <time>2011-01-23T14:56:08Z</time>
      </trkpt>
      <trkpt lat="43.70917" lon="4.93707">
        <ele>154.909546</ele>
        <time>2011-01-23T14:56:18Z</time>
      </trkpt>
      <trkpt lat="43.70915" lon="4.93713">
        <ele>153.948364</ele>
        <time>2011-01-23T14:56:23Z</time>
      </trkpt>
      <trkpt lat="43.70915" lon="4.9372">
        <ele>152.506348</ele>
        <time>2011-01-23T14:56:35Z</time>
      </trkpt>
      <trkpt lat="43.70915" lon="4.9372">
        <ele>152.986938</ele>
        <time>2011-01-23T14:56:54Z</time>
      </trkpt>
      <trkpt lat="43.70915" lon="4.9372">
        <ele>153.467651</ele>
        <time>2011-01-23T14:57:03Z</time>
      </trkpt>
      <trkpt lat="43.70915" lon="4.93722">
        <ele>154.428955</ele>
        <time>2011-01-23T14:57:20Z</time>
      </trkpt>
    </trkseg>
  </trk>
</gpx>